ECMWFFLT1_sfc_temp_000.txt.gz
Temp
76 75 75 76 76 76 76 76 76 76 76 76 76 76 77 77 77 77 76 76 76 76 75 74 74 74 74 74 74 73 73 73 72 72 71 70 71 69 68 68 69 69 69 69 69 69 71 71 71 72 70 71 70 70 69 70 71 71 70 70 70 70 70
74 74 75 76 76 76 76 77 77 77 77 77 77 76 77 77 77 77 77 77 76 76 76 75 75 74 74 74 74 73 72 71 72 73 71 70 71 69 70 69 69 69 69 69 69 69 71 71 72 71 70 71 71 70 70 70 70 70 70 70 69 69 70
73 74 74 75 75 76 76 77 77 78 78 78 78 77 77 77 77 77 77 77 76 76 77 76 75 75 74 74 73 72 72 71 71 71 70 70 69 69 69 69 69 69 69 69 69 70 71 71 71 70 70 70 70 70 70 70 70 70 70 70 70 70 70
73 74 74 75 76 77 77 77 77 78 79 79 78 78 77 77 78 78 78 78 77 77 76 76 76 75 74 74 73 72 71 70 71 71 70 70 69 69 68 68 68 69 68 68 69 71 71 71 70 69 71 69 69 69 69 70 70 70 70 70 69 69 69
73 74 74 74 75 75 76 76 77 77 78 80 79 79 79 79 79 79 78 79 79 77 78 78 77 76 75 74 73 72 71 70 70 70 70 70 70 69 69 68 68 68 69 69 69 70 70 69 69 69 69 69 69 69 69 69 70 69 69 69 69 69 69
72 73 73 74 75 76 76 77 78 78 78 79 78 78 79 80 80 79 79 78 78 79 78 77 76 76 75 74 73 72 71 71 71 71 70 70 69 68 69 69 68 69 68 69 70 70 70 69 69 69 69 69 70 70 69 69 69 69 69 68 68 69 69
72 73 73 74 75 76 76 77 78 79 79 80 80 80 80 80 80 80 80 79 79 77 77 77 77 76 75 73 72 72 71 71 70 70 70 70 70 70 69 69 70 69 70 69 69 70 69 69 69 69 69 69 70 70 69 69 69 69 68 68 68 68 68
73 73 73 75 76 77 77 77 78 79 79 79 79 79 79 80 80 80 79 79 79 79 78 78 76 75 75 73 73 72 72 72 72 71 70 70 69 70 69 69 69 69 69 69 69 69 70 69 69 69 69 69 69 69 69 68 68 69 68 68 68 68 69
74 74 74 76 76 77 77 77 77 78 77 77 78 78 78 79 79 79 79 79 79 78 78 79 78 77 75 73 72 72 73 73 72 70 69 70 69 71 70 70 69 70 69 70 70 69 69 69 69 69 69 69 69 69 68 68 68 68 68 68 68 68 68
71 71 72 75 76 77 77 77 77 76 76 76 77 77 77 78 79 79 80 80 80 78 79 79 79 77 75 74 73 73 73 72 72 71 71 72 71 71 71 71 70 70 70 70 70 69 69 69 69 70 69 69 69 68 68 68 68 68 67 67 67 67 67
69 70 71 72 73 75 75 76 74 75 76 76 76 77 77 78 78 79 79 79 79 79 80 79 78 77 76 75 74 74 72 73 73 71 72 73 72 72 72 72 72 71 71 70 70 70 69 69 69 69 68 68 69 68 68 68 68 68 67 67 67 67 68
67 68 70 71 72 73 73 74 74 75 75 76 76 77 77 77 78 78 79 79 80 80 79 79 79 78 76 76 74 73 73 73 73 72 73 73 72 72 72 72 71 71 72 71 71 70 70 69 69 70 68 69 69 69 69 69 68 68 68 69 68 68 67
68 69 70 71 71 73 73 72 73 74 75 76 77 77 77 78 78 78 78 78 79 80 79 78 78 77 76 76 75 74 73 73 72 71 73 73 71 71 72 72 73 72 72 72 72 71 70 69 69 69 70 69 69 69 69 69 69 67 67 68 67 67 67
69 68 69 69 69 70 71 72 73 73 74 75 76 77 77 78 78 78 78 78 79 79 79 79 77 76 76 75 74 73 71 70 70 71 70 71 70 70 71 71 71 70 71 71 71 71 71 70 69 69 69 69 69 69 69 69 68 67 67 67 67 67 67
67 69 69 69 69 70 71 71 72 73 74 75 76 76 76 77 77 77 77 78 78 79 79 79 77 76 76 75 74 73 74 73 73 71 70 69 68 69 69 69 69 70 70 70 71 71 71 71 70 68 68 68 69 69 69 68 68 68 68 67 67 67 67
68 69 70 70 69 70 71 72 73 72 73 73 74 75 76 76 76 77 77 77 78 78 79 78 77 76 75 75 74 73 72 71 69 67 67 67 67 67 67 68 69 70 69 69 70 70 70 69 69 69 69 68 68 68 68 68 69 68 66 67 70 69 68
69 71 71 69 69 70 71 71 72 72 72 72 73 74 75 76 76 77 78 78 78 77 78 78 76 76 73 72 70 69 68 67 67 67 66 67 66 67 67 68 68 69 69 68 69 69 69 69 68 69 69 69 69 69 68 69 69 66 64 65 66 69 69
69 69 69 69 69 69 69 70 70 70 71 73 73 74 74 75 76 76 76 77 78 79 78 77 76 73 73 71 68 68 68 67 67 67 67 67 68 67 67 67 68 67 67 68 68 68 69 68 68 68 68 69 69 69 70 70 67 63 64 65 65 66 69
70 69 68 68 69 69 70 71 72 71 72 73 74 74 75 76 75 75 76 76 77 77 77 76 75 74 70 67 69 68 67 67 67 67 67 67 67 67 67 66 66 67 67 67 68 69 68 67 68 68 68 68 68 69 70 70 67 64 63 64 64 64 66
67 68 68 69 69 70 70 69 70 71 71 71 72 74 74 75 75 76 76 77 75 75 74 74 74 72 68 68 68 68 68 67 67 67 67 67 67 66 67 67 67 68 68 68 68 67 67 68 68 68 68 68 68 68 70 70 66 63 62 62 63 63 65
66 67 67 67 66 68 68 68 68 69 68 69 71 72 73 74 75 75 75 74 74 73 73 74 73 69 67 67 68 68 68 68 67 67 67 66 66 65 66 66 66 67 67 67 67 67 67 67 68 68 69 69 69 69 69 70 64 62 61 60 60 61 63
65 66 67 67 68 67 67 69 71 72 72 73 72 72 73 74 75 75 74 74 74 72 73 72 70 68 67 68 68 69 69 68 67 66 66 65 65 66 65 65 65 64 66 67 66 67 67 67 68 69 69 69 69 69 68 71 64 61 60 60 60 61 64
67 68 69 68 71 71 71 72 72 72 70 70 70 71 72 72 74 73 72 72 72 72 71 70 68 67 67 68 69 69 69 68 67 66 66 66 65 65 65 66 65 66 67 66 66 66 66 67 68 68 68 69 68 68 67 68 65 60 59 59 59 60 64
68 68 68 68 66 66 66 67 67 69 69 68 69 70 70 71 72 71 71 71 70 71 69 69 67 67 68 68 69 68 67 67 67 66 66 65 65 65 65 65 66 66 67 65 65 66 67 68 67 67 67 68 67 67 67 67 65 59 57 56 57 59 63
68 67 67 68 69 68 67 66 68 69 68 68 68 67 69 70 71 71 70 70 70 70 69 68 68 68 68 68 67 67 67 67 67 66 65 67 66 65 65 65 66 67 67 68 68 67 66 67 67 66 65 65 66 67 67 65 63 59 58 58 57 59 63
68 69 68 67 66 66 67 69 71 69 68 68 67 67 69 70 71 70 69 69 69 69 69 68 68 68 68 68 68 67 67 67 66 66 66 65 66 65 66 67 68 67 67 67 67 66 65 66 66 66 65 64 65 65 64 64 63 64 59 58 56 56 61
69 69 69 68 69 70 68 68 69 69 68 67 67 68 69 70 70 69 69 68 68 69 69 69 69 68 68 68 67 67 67 66 67 66 65 65 65 67 68 69 68 67 66 66 65 64 63 64 63 63 62 63 63 63 63 65 63 63 59 55 53 55 59
71 71 71 70 70 68 68 68 67 67 66 65 67 68 69 70 69 68 68 68 68 69 69 69 68 68 68 68 68 68 67 67 67 67 67 67 68 66 67 67 66 66 65 65 64 63 63 62 62 61 60 60 60 61 61 63 65 62 57 52 50 51 54
67 66 67 67 68 69 69 67 66 65 65 66 68 69 69 71 69 68 68 67 67 68 68 68 68 69 69 68 68 68 68 67 67 67 68 68 67 66 64 64 65 65 64 63 63 63 62 61 61 61 60 60 60 61 61 61 63 60 58 51 48 48 51
66 66 66 67 67 67 68 64 65 65 66 67 68 68 69 69 68 67 66 65 67 68 69 69 69 69 68 68 68 67 67 67 67 66 66 66 65 64 63 63 63 63 62 62 61 60 60 60 61 60 60 60 60 60 59 59 60 58 56 53 48 47 48
65 66 66 67 67 67 66 65 65 65 66 67 67 67 68 69 68 67 65 65 68 68 68 68 68 67 66 67 67 66 66 66 65 64 65 64 65 65 63 64 63 62 62 61 60 61 61 61 61 60 60 61 61 60 58 58 58 58 55 53 50 47 47
64 65 66 66 65 66 66 66 66 66 66 66 67 67 67 68 69 67 66 66 68 68 68 67 67 67 66 66 65 64 65 65 64 64 63 64 64 64 63 64 64 63 63 62 61 61 61 61 61 60 60 60 60 59 57 57 57 55 55 57 55 53 51
63 64 66 66 66 67 66 66 66 65 66 66 66 67 68 68 68 68 66 66 67 68 67 67 67 67 65 65 64 64 64 63 62 63 63 63 62 62 63 64 64 64 63 63 63 62 61 61 61 60 60 60 59 58 57 57 56 55 55 55 55 56 55
62 63 62 63 64 65 65 66 66 65 65 65 65 66 67 67 67 66 67 67 68 68 67 66 66 65 64 64 65 64 64 64 67 64 61 61 61 60 61 61 63 63 62 61 61 61 61 63 62 60 61 60 59 57 57 57 56 54 54 53 55 54 54
62 60 61 63 64 65 64 64 64 64 65 65 65 65 65 65 66 66 66 67 68 67 66 66 66 65 65 65 64 64 64 64 63 61 60 59 60 60 59 60 61 62 62 61 59 62 65 65 63 64 64 64 60 58 58 58 57 57 53 55 51 53 52
62 62 61 62 63 62 63 65 64 64 64 64 64 65 65 65 66 67 69 68 68 67 66 66 65 64 64 63 62 63 63 62 61 60 59 58 58 53 50 46 41 44 54 57 54 50 46 52 64 65 64 62 60 60 62 62 61 49 45 44 43 43 44
62 61 61 63 62 63 63 63 64 64 63 63 64 64 65 64 65 66 67 67 68 68 66 65 63 63 62 63 62 62 62 61 60 60 59 59 57 56 54 52 49 41 40 44 46 44 42 46 48 52 55 61 58 51 47 48 44 42 40 38 39 39 38
60 61 62 62 63 62 62 62 63 63 63 63 64 64 64 64 64 64 65 65 66 66 65 65 63 61 61 62 63 64 63 61 62 60 57 55 56 56 56 55 53 52 43 40 41 42 40 40 42 45 48 50 52 51 50 44 40 39 39 39 38 38 38

ECMWFFLT1_sfc_temp_003.txt.gz
Temp
85 84 84 84 83 84 83 83 83 83 82 82 82 83 84 84 83 83 83 82 81 81 82 82 81 81 81 82 82 82 83 83 83 82 82 82 82 81 80 80 80 80 81 80 80 80 81 82 81 81 81 81 81 81 81 81 80 81 80 80 79 79 79
84 85 85 85 84 84 84 84 83 84 84 83 83 83 84 83 83 83 83 83 82 82 82 82 81 81 81 82 82 82 82 82 82 82 82 81 81 81 81 80 80 79 80 81 81 81 81 81 81 81 81 81 81 81 81 80 80 80 80 80 79 79 79
85 85 85 85 84 84 83 84 84 84 84 85 85 84 84 83 83 83 83 83 82 82 83 83 82 81 82 82 82 81 82 82 82 81 81 81 81 81 81 80 80 80 81 81 81 81 81 81 81 81 81 80 81 80 80 80 80 80 80 80 79 79 78
83 84 84 84 84 84 84 84 84 86 87 87 86 85 84 83 84 84 84 84 83 83 82 83 83 82 82 81 81 81 81 81 81 81 82 82 81 81 79 79 79 81 80 80 81 81 81 81 80 80 80 80 80 80 80 80 81 80 80 80 79 79 79
84 85 85 84 84 83 84 84 85 85 87 88 87 85 85 84 85 85 85 85 86 84 84 84 85 83 82 82 82 82 81 80 80 81 81 81 81 80 79 80 79 80 80 81 80 79 79 79 80 80 79 79 80 80 79 80 80 80 80 80 79 79 79
83 82 82 84 85 85 85 86 87 87 87 88 87 86 86 87 88 88 87 85 85 86 85 85 84 82 81 82 82 81 81 80 80 79 80 80 80 79 79 79 79 80 80 79 80 79 79 79 79 79 79 80 80 79 80 79 80 81 80 79 79 79 80
83 82 82 83 84 85 85 86 88 88 88 88 89 88 89 89 88 89 89 88 87 85 86 86 85 84 83 83 82 81 80 80 79 79 80 80 80 79 78 78 79 80 80 79 77 78 78 77 77 78 78 79 78 79 78 78 79 80 79 78 78 78 78
83 82 82 83 85 86 87 86 87 88 88 88 88 89 88 89 89 89 89 90 89 89 88 89 86 84 83 83 82 81 81 81 80 80 80 79 78 77 77 78 79 79 78 77 77 77 77 76 77 77 77 78 77 77 78 79 79 80 79 78 78 78 79
84 83 84 85 86 87 87 86 86 86 85 85 85 86 87 88 89 89 89 90 90 89 89 90 90 87 83 83 81 81 81 80 80 79 79 78 78 78 78 78 77 76 76 76 76 75 76 76 76 76 76 76 76 77 77 77 78 78 78 78 78 78 79
82 81 82 85 86 87 86 86 85 84 83 83 83 84 85 86 86 88 89 90 90 90 90 90 91 89 85 83 82 82 80 78 77 78 79 78 76 75 74 73 75 75 74 74 75 73 74 75 75 75 74 75 76 76 76 76 77 77 78 78 78 78 78
81 80 81 82 83 83 83 84 83 81 82 82 82 84 84 85 85 87 87 89 90 90 91 90 90 90 87 86 84 79 77 77 78 78 78 78 77 76 75 75 75 73 73 73 72 72 72 72 74 74 74 75 75 76 76 77 77 76 77 78 78 78 78
78 79 79 80 81 81 82 82 82 81 82 82 83 84 83 83 85 87 87 87 90 90 90 90 91 90 88 87 83 77 77 77 80 80 77 77 76 76 76 78 75 73 72 72 71 71 71 72 72 73 74 75 76 77 77 77 77 76 77 79 79 78 78
79 78 78 80 80 81 81 80 80 81 81 83 84 84 84 85 85 86 85 86 89 89 90 88 88 87 87 87 85 79 79 80 80 76 75 75 74 73 73 74 75 73 71 70 70 69 69 70 71 72 74 75 76 76 77 77 77 76 77 78 78 77 77
77 78 79 79 79 79 79 80 80 80 81 82 83 84 84 85 86 85 85 85 87 89 89 89 87 85 84 84 83 79 80 80 75 75 75 74 72 72 74 73 73 71 70 69 69 69 69 69 70 71 74 75 75 75 76 76 76 76 76 77 77 77 77
77 78 79 79 78 78 79 79 79 80 81 82 83 83 83 84 85 84 85 86 86 89 88 87 85 84 84 82 81 80 79 78 77 76 76 74 73 72 71 70 69 68 69 69 68 68 69 71 71 72 72 73 74 75 76 76 76 77 77 76 77 77 78
79 79 79 79 79 79 79 80 80 80 80 81 82 82 83 83 83 84 85 85 87 86 88 87 85 83 83 83 81 80 79 77 77 76 75 73 73 72 70 70 68 68 68 69 69 69 69 71 72 73 73 73 73 74 75 75 75 71 67 69 77 78 78
80 79 80 80 79 79 79 80 80 80 80 80 81 82 82 83 84 84 87 88 88 86 87 87 84 83 83 81 81 80 78 77 76 76 74 74 74 72 72 70 67 66 67 68 69 70 71 71 72 73 73 73 74 73 73 73 73 67 64 64 66 74 77
79 78 80 81 80 79 79 79 79 80 80 82 82 82 83 82 84 84 85 87 87 88 88 85 85 84 82 82 80 78 77 76 75 75 74 74 73 72 71 69 67 67 68 68 69 70 71 70 71 72 73 73 74 74 73 73 69 64 63 64 64 66 73
80 80 80 80 79 78 80 82 81 80 82 84 84 83 84 84 84 83 83 83 84 85 85 85 85 83 81 80 78 76 75 75 75 74 73 72 70 70 69 68 68 68 68 67 68 69 68 69 70 70 70 71 71 71 72 73 68 64 63 63 63 63 67
79 80 80 81 80 80 80 81 82 82 83 82 83 86 85 85 84 84 85 85 84 84 83 83 83 82 79 77 76 75 74 74 73 71 69 68 69 68 69 69 68 68 68 68 67 67 67 68 69 69 69 69 69 69 71 71 67 63 62 62 62 62 64
77 76 78 79 79 80 78 78 79 79 79 82 84 83 83 84 85 85 85 84 83 82 81 81 81 79 78 77 76 75 74 73 71 68 68 69 71 71 70 69 70 70 70 70 68 67 67 69 69 70 70 69 69 69 69 72 65 62 60 59 59 59 64
80 80 81 82 79 78 76 77 78 81 81 83 82 83 86 85 86 86 86 86 83 82 81 81 79 77 77 76 76 75 75 73 70 68 69 70 70 70 71 71 71 71 71 71 70 70 71 71 71 68 68 70 71 71 70 73 64 61 60 59 58 59 68
84 83 83 81 82 79 79 80 81 83 81 81 83 83 85 86 86 86 85 84 83 81 81 80 78 77 76 76 76 76 76 74 72 71 71 71 71 71 72 72 71 72 72 71 72 72 71 72 72 71 71 71 71 70 70 71 63 58 57 57 57 61 70
79 80 81 81 80 80 79 81 82 82 83 82 83 84 84 85 83 82 80 80 80 80 79 78 77 77 77 77 77 76 76 75 73 72 73 72 72 72 72 72 73 73 72 71 72 73 74 74 73 72 73 72 72 75 74 75 65 55 56 56 57 62 70
81 81 81 81 81 80 81 80 81 82 81 81 81 80 81 81 81 80 79 79 79 79 78 78 78 77 77 77 77 76 75 75 74 74 73 72 73 73 72 72 72 72 73 74 74 75 75 75 75 75 73 75 74 69 73 74 67 56 56 55 57 65 70
77 78 78 79 82 80 78 77 77 78 80 80 78 79 80 80 81 80 79 78 79 79 79 78 77 78 78 78 76 76 75 75 74 74 74 74 74 74 73 72 73 73 74 75 76 75 76 77 77 75 75 75 72 70 72 71 71 66 55 59 60 61 67
78 79 80 81 79 78 78 79 81 82 82 79 77 79 80 80 80 78 77 77 78 78 79 78 78 77 77 76 76 76 75 75 75 75 75 75 74 74 74 74 73 74 74 76 77 76 75 76 76 75 75 75 72 70 67 68 68 68 58 56 56 56 60
80 80 79 77 76 78 78 79 77 77 77 76 78 78 79 80 78 76 76 77 77 77 79 77 77 76 76 75 75 76 75 75 76 76 75 75 74 73 73 74 74 74 75 77 75 74 74 74 74 73 72 71 71 70 68 68 67 70 58 56 54 52 55
77 76 76 77 79 81 83 81 80 80 78 78 79 81 81 81 77 76 76 76 76 77 77 77 76 75 75 74 74 74 75 75 74 74 74 74 74 74 73 73 74 74 74 74 73 73 73 72 72 71 69 68 69 69 69 69 68 61 65 53 50 48 51
82 81 80 82 83 82 83 79 77 77 76 78 79 80 81 79 76 75 76 75 76 77 76 75 74 73 73 72 72 72 73 74 74 74 74 73 74 74 72 72 73 72 72 73 72 71 71 70 71 69 68 67 66 68 68 68 69 61 58 57 49 48 49
78 81 84 83 83 80 81 78 75 74 74 75 75 77 78 79 77 75 75 74 75 75 75 74 73 72 71 71 72 72 73 74 74 74 74 74 74 73 72 72 72 71 72 72 71 70 70 70 70 69 69 69 68 69 69 69 68 68 59 54 51 48 48
75 76 77 78 77 77 79 78 76 75 73 72 74 75 76 79 80 76 75 74 75 75 75 74 72 72 72 73 73 73 73 73 73 73 74 73 74 73 73 73 72 72 72 71 71 70 70 70 70 69 69 69 71 70 69 67 68 67 66 61 56 54 51
72 73 75 76 74 74 76 78 78 76 76 74 75 77 79 79 79 77 74 73 75 75 75 74 73 72 73 73 73 73 73 73 73 73 74 73 74 75 75 74 74 73 72 72 72 71 70 70 70 70 71 72 71 70 69 68 67 68 68 68 67 66 60
72 72 72 72 72 72 75 76 78 77 76 74 74 76 78 78 77 75 75 76 76 77 75 74 74 74 74 74 74 73 73 73 71 72 73 73 75 74 75 73 73 73 72 72 72 71 71 71 71 73 73 73 72 70 69 68 68 69 70 69 69 68 67
70 70 71 72 70 71 72 73 75 74 75 73 74 75 75 75 75 75 75 76 78 76 75 74 73 74 75 75 75 74 73 74 73 74 73 72 72 66 60 62 66 68 70 68 69 71 76 75 74 74 76 77 73 71 69 70 69 71 63 70 61 67 70
71 72 72 71 72 72 72 73 74 74 74 72 73 74 75 75 75 77 80 79 78 76 74 73 74 74 75 76 75 76 74 74 75 73 72 71 70 64 57 48 43 50 64 69 56 48 44 51 71 74 79 77 75 74 74 75 75 55 50 48 48 47 46
71 72 71 71 73 72 72 72 73 73 72 72 72 74 74 74 75 75 77 76 76 76 74 73 72 73 76 75 75 73 74 74 73 72 71 72 70 67 66 65 57 42 40 48 52 46 41 43 43 46 53 70 76 61 45 46 43 43 44 42 41 40 40
71 71 71 72 72 71 72 72 72 73 72 72 73 73 73 75 75 74 76 75 75 76 74 73 72 71 73 73 73 70 72 73 72 72 71 69 68 67 67 67 66 62 45 40 41 42 40 40 41 45 49 52 60 61 58 44 41 40 41 41 40 40 38

ECMWFFLT1_sfc_temp_006.txt.gz
Temp
96 95 94 93 92 93 92 92 91 91 90 90 90 91 92 91 90 90 89 88 87 88 88 88 87 88 87 88 88 88 89 88 88 88 88 88 88 88 87 87 87 86 88 88 87 87 87 87 87 87 86 85 85 85 84 84 84 84 84 83 83 83 83
95 95 95 94 94 93 92 92 91 92 91 91 91 90 92 91 90 90 89 89 88 88 88 88 87 88 88 88 88 88 88 88 88 88 89 88 88 88 88 87 87 87 87 88 88 87 87 87 87 86 86 85 85 84 85 84 84 83 84 83 83 82 82
96 96 95 94 93 94 92 92 91 92 92 93 93 92 91 90 89 89 89 89 88 88 89 88 88 88 88 88 88 88 88 88 88 88 88 89 88 89 89 88 88 88 88 88 87 87 87 86 86 86 86 85 85 84 84 84 83 84 83 83 83 83 82
94 95 96 94 93 93 93 93 92 94 95 95 94 94 91 89 90 90 90 90 89 88 87 89 89 88 88 87 87 87 87 88 88 88 89 90 89 89 88 88 87 88 87 86 87 87 87 87 86 85 85 84 84 84 84 84 84 83 83 83 82 83 82
95 96 96 95 94 93 93 93 93 93 96 97 95 92 92 92 92 92 91 92 93 90 90 90 92 90 89 89 88 88 88 88 88 89 89 90 89 89 88 89 88 88 88 87 86 85 85 85 86 85 85 84 84 84 84 84 84 83 83 83 82 82 83
95 94 94 95 95 95 94 95 97 98 97 98 96 93 94 95 95 96 94 91 92 93 91 91 90 89 88 89 89 88 89 88 88 88 88 88 87 87 88 88 88 88 89 86 87 86 86 85 86 85 85 85 85 85 84 84 84 84 83 82 82 82 83
96 94 94 94 94 95 95 96 98 99 98 99 98 96 97 98 97 97 98 95 95 92 93 93 92 91 89 89 88 88 87 88 87 88 89 88 88 87 87 87 87 88 88 86 86 86 86 85 84 83 83 84 84 84 83 82 82 83 83 82 81 81 81
97 95 94 94 96 97 96 96 97 99 98 97 98 98 97 98 98 99 98 99 98 98 96 97 93 90 89 89 89 88 88 88 89 88 88 88 88 87 87 87 86 87 87 86 85 86 86 84 84 82 81 82 82 82 82 81 80 82 82 81 81 81 82
98 95 95 96 96 97 97 96 96 96 95 94 95 94 96 97 99 99 99 100 99 98 98 99 97 94 90 89 88 87 87 87 87 88 87 87 88 89 89 88 87 87 86 87 87 86 85 83 82 80 80 80 80 80 80 80 80 81 80 80 80 80 81
95 92 93 96 97 98 96 97 96 93 93 91 92 92 94 96 96 98 99 100 101 100 100 99 100 96 91 89 89 88 87 86 87 88 89 89 89 89 91 91 89 87 87 87 87 85 84 84 81 79 78 77 77 77 77 78 79 80 81 80 80 80 80
93 91 91 93 93 94 94 95 93 91 90 89 90 93 93 94 94 97 97 100 101 101 102 100 99 98 94 92 91 90 87 87 88 88 88 89 91 90 90 90 91 88 88 87 85 83 81 79 77 75 75 74 73 74 75 77 78 79 80 80 80 80 81
89 89 88 89 90 92 92 91 91 89 89 88 90 92 90 91 94 96 97 97 101 102 100 101 101 100 96 94 92 88 87 87 89 89 89 89 89 87 89 89 87 87 88 86 83 79 77 76 74 73 72 72 73 74 76 77 78 79 80 81 81 80 80
90 88 87 89 89 90 89 89 88 88 88 90 91 91 92 92 93 95 93 94 99 100 100 98 99 97 97 95 95 89 88 89 88 87 89 88 87 87 84 85 87 87 86 85 79 75 73 75 74 73 73 74 74 75 76 77 78 79 80 81 81 80 80
87 89 89 88 88 88 87 87 87 87 87 89 90 91 91 93 94 93 93 93 96 99 100 99 97 96 94 93 92 89 89 89 87 87 86 82 80 80 77 78 78 77 76 77 76 77 76 75 73 73 74 75 76 76 77 78 79 79 79 79 80 80 80
91 90 89 89 87 86 86 86 86 87 88 88 90 90 90 91 92 92 92 94 94 98 98 97 95 94 94 92 91 88 87 87 87 85 78 77 74 73 73 73 73 73 73 73 74 75 75 75 74 73 73 74 75 76 77 78 79 79 78 77 78 78 78
94 93 92 90 88 88 87 87 87 87 87 87 89 89 91 90 90 92 92 93 95 94 97 95 93 91 91 91 90 87 87 86 86 80 77 75 72 71 72 71 71 71 72 71 72 73 74 74 74 75 74 75 76 77 77 77 78 74 69 72 78 78 77
94 94 93 91 89 88 88 88 88 87 87 87 88 88 89 90 90 92 96 95 96 93 95 96 91 90 90 88 89 87 85 85 81 77 75 72 71 72 71 70 72 72 72 71 71 72 73 73 74 75 76 76 77 77 78 78 77 68 66 67 69 76 77
94 92 93 93 91 89 88 88 88 87 87 89 90 89 89 89 90 92 93 95 95 96 96 94 92 91 89 89 87 85 83 83 80 75 73 73 73 75 76 76 74 73 74 74 74 74 75 75 75 75 77 78 79 79 79 80 70 65 65 66 65 67 74
93 93 92 90 89 88 90 91 90 88 90 91 91 90 91 91 92 90 92 92 93 94 94 93 93 90 88 88 86 83 82 82 80 75 74 75 76 77 78 78 77 76 77 77 77 77 76 76 77 77 77 79 78 79 81 82 70 64 64 64 64 64 68
92 92 92 92 91 91 90 89 90 90 91 90 92 95 94 93 92 91 93 93 92 92 91 90 91 89 88 85 83 82 82 82 81 77 76 76 77 77 77 78 77 77 78 79 78 76 77 77 76 77 77 78 78 78 80 81 69 63 62 62 62 63 66
89 89 89 89 89 91 88 88 89 89 89 92 94 93 92 92 93 92 93 92 90 90 88 88 88 88 87 84 83 82 82 81 81 78 77 76 77 76 77 77 78 78 78 79 79 77 77 77 76 77 77 78 78 79 79 80 64 62 61 60 60 61 66
92 91 90 90 88 87 85 88 88 90 89 92 91 92 94 93 95 95 94 94 90 88 87 87 87 87 85 82 82 82 82 82 80 79 78 78 77 77 77 78 78 78 79 79 80 80 80 79 79 78 78 78 78 76 75 77 62 61 60 59 60 61 68
95 94 93 92 92 90 88 90 90 91 89 90 92 93 95 96 97 95 94 93 90 87 87 87 86 85 83 82 82 82 82 81 80 80 78 78 78 78 78 77 77 78 80 79 79 80 79 79 79 78 78 77 74 72 72 74 66 60 59 60 59 63 73
93 92 95 95 92 91 88 89 90 90 92 92 93 95 96 96 94 91 89 89 88 87 86 86 85 86 84 83 83 82 81 81 81 81 80 79 79 79 79 79 78 78 79 78 79 80 81 79 77 76 76 74 73 75 74 76 67 59 59 58 57 66 76
92 93 92 92 91 89 90 89 90 91 90 91 93 93 93 92 91 89 87 87 86 86 85 85 85 85 85 84 84 82 81 81 81 80 80 79 80 80 80 79 79 79 79 78 77 76 77 77 77 76 75 76 76 70 74 78 71 58 57 56 56 67 78
89 90 90 91 93 91 88 87 87 89 90 91 89 90 90 90 88 87 86 85 87 87 86 86 85 86 87 86 84 83 82 81 80 80 80 79 79 79 80 81 80 80 79 79 79 78 78 78 77 77 78 79 79 78 79 80 80 69 55 56 55 60 76
89 90 90 92 90 85 87 88 89 91 92 89 88 89 89 88 88 85 85 85 86 86 88 87 86 85 85 85 85 84 82 82 81 79 79 79 78 80 81 83 82 81 80 82 83 81 80 79 79 78 79 81 81 81 80 82 82 75 55 54 55 56 62
90 91 91 88 85 88 91 94 91 91 90 87 88 88 88 87 85 84 84 86 86 87 89 86 85 85 84 84 84 85 83 82 80 81 80 80 80 79 81 83 80 78 79 82 80 79 78 77 78 79 80 80 81 80 80 79 73 79 56 56 53 54 57
87 88 88 88 89 93 94 91 90 89 87 89 90 91 90 89 84 84 85 85 85 87 86 85 84 84 83 83 83 82 83 82 81 80 81 80 81 80 79 78 77 77 78 78 78 77 77 77 77 78 79 79 80 80 80 79 73 67 68 54 53 50 53
89 90 92 95 95 93 93 87 86 86 88 90 89 88 89 87 84 84 85 84 85 84 82 82 83 83 82 82 81 81 82 82 81 81 81 81 79 78 77 77 77 77 77 77 77 76 76 77 78 78 79 78 78 79 79 78 76 65 63 61 52 50 49
92 91 92 92 94 92 91 87 84 85 84 85 85 87 87 86 84 83 83 82 82 81 82 82 82 81 80 80 80 80 80 80 80 80 79 79 79 77 77 77 77 76 77 77 77 77 76 76 78 77 78 79 79 78 78 77 77 76 64 58 53 51 49
87 89 90 89 88 90 91 91 88 87 84 83 84 84 84 86 85 81 79 80 80 82 83 82 80 80 80 80 80 79 80 79 79 79 79 79 80 79 79 78 78 77 77 77 78 77 77 77 78 78 78 78 79 78 77 77 77 76 71 62 57 55 52
82 83 84 83 83 85 88 89 88 87 86 84 86 88 89 87 86 83 81 81 83 82 81 81 80 79 79 79 79 79 79 78 80 80 80 79 80 81 80 79 79 79 77 77 78 78 77 78 78 78 78 78 79 78 76 76 76 76 76 71 68 66 59
80 80 80 81 81 83 85 86 86 86 85 83 85 87 89 89 87 84 84 85 85 85 82 80 80 80 80 80 80 80 80 80 76 77 80 80 82 81 81 80 81 80 78 78 78 77 76 77 76 76 78 78 79 78 76 75 76 77 77 76 75 73 73
78 79 80 80 79 81 81 83 84 83 84 82 84 85 84 84 84 85 84 85 87 84 82 81 80 81 82 83 83 81 80 81 79 80 80 79 80 77 74 76 81 79 80 79 77 76 79 79 79 79 81 81 78 76 74 75 74 77 67 72 62 72 80
79 80 79 79 78 78 79 81 82 82 82 81 83 83 83 84 85 87 90 89 86 84 81 79 81 83 84 85 84 84 82 82 82 81 80 80 78 72 66 49 44 56 73 77 59 48 44 52 72 74 79 83 81 73 77 80 77 52 45 45 44 43 45
78 79 80 80 78 77 77 78 79 80 80 81 81 82 83 83 85 86 88 85 84 84 81 81 81 83 85 84 86 83 81 83 83 80 79 80 79 77 73 71 61 42 40 49 50 45 40 40 40 43 49 65 79 61 45 46 45 44 44 42 42 42 43
80 80 81 82 79 77 77 77 78 79 78 80 81 82 82 83 84 83 85 84 84 83 81 81 81 82 84 85 84 80 80 83 82 81 80 79 79 77 76 75 72 64 45 39 43 43 40 39 39 40 44 45 54 66 64 47 42 41 42 41 40 41 40

ECMWFFLT1_sfc_temp_009.txt.gz
Temp
97 97 97 96 95 97 96 95 94 94 94 93 93 94 94 94 93 92 91 90 89 89 89 89 89 90 89 89 89 90 90 90 89 89 89 89 90 89 89 90 89 88 90 89 88 87 87 89 89 89 88 87 87 86 85 85 85 85 85 84 84 84 84
96 98 100 98 97 97 96 95 95 95 94 94 93 92 94 93 92 93 91 91 90 90 90 90 89 90 90 89 90 90 89 90 90 89 90 89 89 89 90 89 89 88 88 89 89 88 88 90 89 88 88 88 87 86 86 85 84 84 85 84 83 83 83
98 97 98 97 97 98 96 97 95 95 95 95 95 95 94 92 92 92 92 91 90 90 91 90 90 90 90 90 90 89 90 90 90 90 89 90 90 91 90 89 89 89 89 89 89 89 89 89 88 88 88 87 87 86 85 85 84 84 84 84 83 83 82
97 96 98 98 99 97 97 97 96 97 98 98 96 96 94 92 93 93 93 93 91 90 89 91 91 91 91 90 89 89 89 90 90 90 91 91 90 90 90 89 88 89 89 89 90 90 89 88 88 87 87 86 86 86 85 84 85 84 83 83 83 83 82
100 100 97 96 99 98 97 98 97 96 98 100 98 95 95 95 95 95 95 94 95 92 93 93 94 92 91 91 91 91 90 90 90 91 91 91 91 90 90 90 89 90 90 90 89 88 87 87 87 87 86 85 86 85 84 84 84 83 81 81 81 82 83
100 98 95 97 101 99 98 99 100 100 100 100 98 96 97 98 98 98 97 94 94 95 93 93 92 91 91 92 92 92 91 90 90 90 90 91 90 90 90 90 90 90 91 89 90 88 88 87 87 87 86 87 86 86 86 84 84 84 82 80 79 80 81
101 98 97 97 99 100 100 100 101 101 101 101 101 99 99 100 99 99 99 97 97 94 95 95 95 94 91 92 91 91 90 91 90 91 91 91 91 90 90 89 90 90 90 89 88 88 87 87 86 86 86 86 85 84 82 81 81 82 82 80 78 79 80
102 101 99 99 101 103 102 100 101 102 101 101 102 101 100 100 100 100 99 100 99 99 98 98 96 93 91 92 92 91 91 91 92 91 91 91 90 90 90 90 89 89 89 89 88 88 88 86 87 86 85 86 84 83 83 82 82 83 81 80 79 79 81
104 101 101 102 102 104 103 101 100 100 98 98 99 98 99 100 100 100 100 101 100 100 99 100 99 97 92 92 91 91 91 92 91 91 90 90 91 92 91 91 90 89 88 88 90 88 87 86 86 85 84 84 84 83 83 82 82 81 80 79 79 78 80
101 99 99 101 101 101 102 102 100 98 97 96 96 96 97 99 99 100 101 102 103 102 101 101 102 99 95 92 92 92 91 91 91 92 92 92 91 91 92 92 91 89 87 88 91 88 86 85 84 84 83 82 82 82 82 82 82 81 80 80 79 78 79
100 98 99 100 99 100 101 101 98 95 95 94 94 99 96 97 99 101 101 103 104 103 104 102 102 102 97 95 95 94 91 92 93 92 91 91 93 93 93 93 93 90 89 89 90 87 85 83 83 82 82 81 81 81 80 80 80 79 80 80 80 80 80
95 97 95 96 96 98 98 96 96 95 95 94 96 98 95 95 99 102 101 102 105 104 103 103 104 103 99 96 95 92 92 92 92 92 91 91 92 93 94 93 91 90 91 91 89 85 84 81 81 80 80 80 80 80 80 79 79 79 79 81 82 81 81
96 95 94 96 94 96 95 94 94 94 94 97 98 98 98 98 99 101 98 100 104 104 104 102 102 99 99 98 97 93 92 92 91 90 91 91 91 91 92 93 92 93 92 91 89 86 83 82 81 81 81 80 80 80 80 80 80 79 79 80 81 81 81
93 96 95 94 94 93 93 93 94 94 93 95 96 96 97 98 100 99 99 100 102 105 106 104 101 99 97 95 94 92 93 92 90 90 89 89 88 89 91 90 89 90 89 89 86 85 84 83 82 81 82 81 81 81 81 80 80 79 79 80 81 81 81
97 97 95 95 92 92 92 92 92 93 93 94 95 95 96 97 98 98 98 100 100 105 104 102 99 98 99 96 94 92 91 91 90 89 88 88 88 88 88 88 87 87 87 86 85 85 84 84 84 82 81 82 82 81 81 80 80 80 80 80 80 81 81
101 96 98 96 93 94 92 92 92 92 92 91 93 93 95 95 95 98 98 100 102 100 104 101 98 96 97 96 94 93 91 89 88 88 87 87 86 87 87 87 86 86 85 84 84 83 83 83 83 84 82 81 81 81 80 80 81 76 70 73 81 81 81
102 102 103 100 97 94 93 92 92 91 91 90 91 92 93 93 95 97 101 101 102 100 103 104 97 97 96 95 94 93 91 89 87 87 86 86 85 85 85 85 85 85 84 84 83 83 82 82 82 84 83 82 81 80 80 81 81 70 67 68 70 79 81
100 99 101 101 100 95 92 92 91 91 91 92 93 93 93 92 95 96 98 100 100 103 104 101 99 98 94 95 93 91 89 85 84 84 84 84 84 84 84 85 84 83 83 84 83 82 82 81 81 82 82 81 82 81 81 82 72 66 66 67 67 71 79
100 100 100 98 94 93 95 95 94 92 93 94 94 94 95 95 96 94 96 96 98 98 101 101 99 95 93 93 91 87 86 82 83 83 83 83 84 84 84 84 83 83 83 83 83 82 80 80 81 80 81 81 80 81 82 84 70 65 65 65 65 66 73
101 101 103 100 99 100 96 95 96 95 95 94 95 98 98 96 96 95 98 98 98 97 96 95 95 92 92 91 90 88 83 82 82 82 83 83 83 84 83 83 83 83 84 84 83 81 81 81 80 80 79 80 80 80 82 84 68 64 63 64 64 66 69
99 99 99 96 96 100 96 95 95 95 94 97 98 97 96 97 98 97 99 98 97 95 93 93 92 90 90 90 89 86 82 81 82 82 82 82 83 83 83 83 83 83 83 84 83 81 80 80 79 79 79 80 81 81 82 85 65 63 63 62 63 63 67
102 103 99 99 96 95 94 96 95 97 94 96 97 98 98 97 100 100 100 100 96 94 93 92 91 90 90 90 88 86 82 81 82 82 82 81 82 82 82 82 82 82 83 83 85 84 84 82 81 79 80 80 80 81 80 83 60 62 62 61 61 62 71
106 103 102 100 101 98 96 96 96 98 95 96 98 97 98 100 100 99 99 97 96 92 92 91 90 90 89 89 87 86 85 82 81 81 80 80 80 80 81 81 82 83 84 83 84 84 84 83 83 81 81 80 80 80 80 82 63 60 58 59 59 63 71
106 105 104 103 99 99 96 96 97 97 97 97 97 98 99 99 97 95 93 93 93 92 90 90 90 90 88 87 87 86 86 83 81 80 79 79 79 80 81 83 83 82 82 81 82 83 85 85 83 83 82 81 81 82 80 82 65 56 57 57 58 64 73
103 105 103 102 100 99 96 95 95 97 95 96 97 96 96 96 95 93 92 91 91 90 89 89 90 90 88 87 87 85 84 84 82 81 80 79 80 80 80 80 80 81 81 82 82 82 82 83 81 81 80 82 81 73 78 80 68 55 57 57 56 66 76
98 100 100 101 102 100 95 93 92 93 95 95 94 96 95 96 94 92 91 89 91 91 90 90 89 89 90 89 88 86 85 84 83 82 81 80 80 81 82 82 82 81 80 81 82 81 81 81 81 81 80 80 79 78 79 79 79 69 56 56 55 59 74
99 99 98 101 100 93 93 93 93 94 95 94 94 96 96 95 93 90 89 89 89 88 90 91 90 88 87 87 88 87 86 85 84 84 83 83 82 84 84 83 81 81 81 82 83 81 80 80 81 80 79 80 79 79 79 79 79 71 55 55 55 57 64
97 99 100 97 92 93 92 94 92 93 95 94 95 95 94 92 89 87 87 88 88 89 92 90 89 88 87 86 86 87 86 85 84 84 83 83 83 82 82 83 82 82 82 87 85 82 81 79 79 79 80 79 80 80 80 78 74 77 58 55 54 56 58
93 94 95 94 91 93 94 92 92 94 93 95 96 95 94 92 87 87 87 87 88 91 90 89 89 88 86 85 85 84 84 83 81 80 81 81 82 82 81 83 86 86 83 82 82 81 80 81 80 80 80 79 80 81 81 80 76 70 70 56 54 53 55
93 94 93 94 95 93 96 92 91 90 91 94 94 94 92 89 86 87 88 87 90 91 89 89 88 87 85 84 84 83 83 81 80 81 81 81 82 82 84 83 81 79 80 80 80 79 79 79 80 79 80 79 78 80 81 79 77 66 63 60 54 53 54
91 90 92 93 96 94 94 90 89 90 91 93 92 92 91 90 88 87 87 88 89 88 87 86 85 84 84 83 82 81 81 80 80 81 82 81 82 81 82 79 79 77 78 79 79 79 78 77 78 78 79 79 78 79 80 81 77 74 63 59 55 52 50
92 94 96 95 92 92 93 94 93 92 91 91 92 90 89 90 90 86 85 87 86 86 86 85 84 83 83 83 82 82 82 81 82 83 83 82 83 82 81 79 79 79 78 79 80 78 78 77 79 79 79 79 82 81 80 78 78 73 67 61 58 57 52
90 90 90 90 90 89 90 90 89 88 89 88 91 92 93 91 90 86 85 85 86 86 85 84 82 81 82 82 83 83 83 82 84 84 85 83 83 82 81 80 81 81 79 79 80 79 78 79 79 79 80 80 81 82 80 78 78 74 71 72 71 69 62
83 85 89 90 90 90 91 90 90 89 89 88 91 92 93 92 89 87 87 88 88 88 85 83 82 83 83 83 84 83 83 83 79 81 84 84 84 82 82 82 83 82 79 79 80 80 79 80 80 80 81 81 82 81 79 77 78 77 75 76 76 74 73
82 82 83 85 88 89 88 88 88 87 87 88 90 91 89 88 87 88 87 88 90 86 85 84 82 84 85 85 85 84 83 84 82 84 83 83 83 79 77 79 84 83 80 75 75 78 83 83 81 82 84 85 82 81 77 78 75 80 71 78 66 73 76
84 84 84 84 84 85 86 86 86 85 85 85 87 87 87 87 89 90 93 92 89 87 84 83 84 85 86 86 86 86 85 84 85 85 84 83 78 73 65 49 44 56 75 76 56 47 45 55 73 74 79 84 78 74 82 82 81 55 50 54 55 55 54
83 83 84 85 84 82 82 83 83 83 83 84 85 86 87 87 90 90 91 88 87 87 84 84 84 86 88 87 88 84 84 85 85 84 82 83 82 79 75 74 63 44 40 47 49 44 40 40 41 44 50 66 79 62 47 49 47 46 46 46 46 44 44
84 85 85 85 83 81 81 82 82 82 82 84 85 86 86 87 87 86 87 86 86 86 84 85 84 85 86 87 86 81 83 86 85 84 83 82 80 79 78 77 73 67 47 40 42 42 40 39 39 40 43 44 56 68 67 50 44 44 44 44 43 43 42

ECMWFFLT1_sfc_temp_012.txt.gz
Temp
96 94 93 91 91 92 92 91 90 90 91 91 90 91 92 91 89 89 88 87 86 85 86 86 86 86 86 86 86 86 86 86 86 86 85 85 86 85 85 85 85 84 84 84 84 83 85 85 84 84 84 83 83 82 81 82 82 82 81 80 80 79 80
95 95 94 94 93 93 92 92 91 92 93 92 91 90 92 91 89 89 88 87 86 86 86 86 86 86 86 86 86 86 86 86 86 85 86 85 85 85 86 85 85 84 84 84 84 84 85 86 85 84 83 83 83 82 83 81 81 80 80 79 79 79 79
94 95 95 94 95 94 91 93 92 93 94 94 93 92 91 89 89 89 88 88 87 86 87 87 86 87 87 86 86 86 86 87 86 86 86 86 87 89 87 86 86 85 86 86 85 85 85 85 85 84 84 83 83 82 81 81 80 80 80 79 79 78 77
93 96 95 95 94 93 93 93 93 95 97 97 95 94 91 89 90 90 90 89 87 87 86 87 87 87 87 86 86 86 86 86 87 87 88 87 87 87 86 86 86 86 85 86 86 86 86 85 85 84 84 82 82 82 82 81 81 80 80 79 78 78 77
95 95 95 95 96 94 94 94 94 94 97 99 96 92 91 91 92 92 91 91 91 88 89 89 90 89 88 88 88 87 87 87 87 87 88 88 87 87 86 87 86 87 86 87 85 84 83 84 84 83 83 82 82 81 81 81 81 79 79 79 77 78 78
95 93 94 96 98 96 95 96 98 99 98 98 97 94 94 95 95 95 94 91 91 91 89 89 88 88 87 88 88 88 87 87 87 87 87 87 86 87 87 87 87 87 87 86 86 85 84 84 84 83 83 84 84 83 82 81 81 81 79 78 78 78 78
92 95 94 96 96 97 97 97 99 100 99 98 99 97 96 96 95 95 96 94 93 90 90 90 90 89 88 88 88 87 86 87 87 88 88 88 88 87 86 87 86 87 87 86 85 85 85 84 83 83 83 83 82 82 80 79 80 80 79 77 77 77 78
96 95 94 96 98 100 100 98 99 99 97 96 98 98 97 96 96 96 95 95 94 93 92 92 91 89 88 88 89 88 88 88 89 88 88 88 88 87 87 87 86 86 86 86 85 85 86 84 84 83 83 83 81 81 81 80 79 81 79 77 77 77 79
96 95 96 98 99 100 99 97 96 95 91 91 94 95 96 96 96 96 96 95 95 93 93 94 93 92 89 88 88 88 88 89 88 88 88 88 89 90 90 88 87 87 86 86 87 85 85 84 84 83 82 82 81 80 80 79 79 79 79 77 77 76 77
93 93 94 98 98 99 96 95 94 90 89 89 91 92 94 95 95 96 96 96 96 95 94 94 95 93 90 89 89 89 88 88 88 89 90 90 90 90 91 91 89 88 87 87 87 86 84 84 84 83 81 81 80 80 80 79 79 79 79 78 78 77 76
92 91 92 95 95 94 94 94 91 89 89 88 90 94 93 94 94 96 95 96 96 96 96 95 95 94 92 91 91 91 88 89 90 89 89 90 91 91 92 92 91 89 88 88 87 86 85 83 84 82 81 81 80 80 79 79 79 78 79 79 79 78 78
91 92 91 92 92 93 93 90 89 88 89 89 91 94 91 91 95 96 96 96 98 97 96 96 97 96 93 92 91 89 89 89 90 90 90 90 90 91 92 92 90 90 89 89 88 86 86 84 83 82 81 81 80 80 80 79 79 78 79 80 79 78 78
93 91 92 94 91 92 90 89 88 89 90 93 95 94 94 94 95 96 93 95 98 98 97 96 96 94 94 93 92 89 89 90 89 88 90 89 89 90 90 91 92 91 90 90 89 87 85 84 83 82 82 81 81 81 80 79 79 78 78 78 78 77 77
91 94 95 93 93 91 90 90 90 90 91 93 94 94 95 96 96 95 94 95 97 99 99 98 96 94 92 91 90 89 90 90 88 88 88 88 87 88 89 89 89 88 87 87 87 87 86 85 83 83 82 81 81 80 80 79 79 78 78 77 77 77 77
94 95 94 94 91 91 91 91 91 91 92 93 95 94 95 95 95 94 94 96 96 101 100 97 94 93 92 90 89 88 89 88 89 88 88 87 87 87 87 87 87 87 86 85 85 86 86 86 84 82 81 81 81 80 80 80 79 79 78 77 77 77 77
98 96 95 94 92 93 91 91 91 91 91 91 93 92 95 93 92 95 95 96 98 97 100 95 93 91 92 91 89 89 89 88 88 88 87 86 86 85 86 86 86 86 85 85 85 85 85 85 83 83 82 81 80 80 80 79 79 74 69 72 77 77 78
98 99 97 93 91 92 91 91 91 91 90 90 91 92 93 93 93 95 99 99 100 97 99 97 92 92 92 90 90 90 89 88 87 87 86 86 86 85 85 85 85 85 84 84 84 84 83 83 82 83 82 81 80 80 79 79 79 68 66 69 72 77 77
96 94 95 95 93 92 90 91 90 90 91 93 94 93 93 92 94 96 97 99 99 101 102 97 95 94 90 91 90 89 88 88 87 86 86 86 85 85 85 85 85 84 84 84 84 83 83 83 82 82 82 81 81 80 80 80 70 64 66 68 68 72 78
96 97 94 92 91 90 93 94 93 91 93 95 94 94 96 95 96 93 95 95 96 97 100 100 98 92 90 91 90 89 88 87 87 86 85 85 85 85 85 84 84 84 84 84 83 82 81 81 81 81 81 81 80 80 80 81 66 65 65 66 66 67 72
97 99 100 98 95 94 93 92 93 93 94 93 94 98 98 96 96 95 97 98 96 96 95 94 94 92 90 90 89 89 88 87 86 86 85 85 85 85 84 84 83 84 84 84 82 81 80 81 80 80 80 79 79 78 79 80 65 64 63 65 65 66 69
93 95 96 96 93 95 92 92 92 91 92 95 96 95 95 96 97 96 97 97 96 94 91 91 91 90 90 89 89 87 85 86 86 85 85 84 84 83 83 83 83 83 83 84 82 80 79 80 79 79 80 80 79 79 79 81 63 62 62 63 64 65 68
98 99 98 100 94 92 91 94 93 94 92 94 95 96 97 96 98 98 98 100 97 94 92 91 90 90 90 87 85 84 84 84 84 84 83 83 83 83 82 83 82 82 82 83 83 82 82 81 81 79 79 79 78 79 77 79 61 63 62 63 63 64 70
103 101 101 98 100 95 93 95 95 96 93 94 96 96 97 98 98 97 97 97 97 92 93 92 90 89 88 85 84 84 84 84 83 82 83 83 82 82 82 82 82 82 82 82 82 83 81 80 81 79 79 78 78 78 77 77 62 61 61 62 62 63 71
104 103 103 104 99 99 94 95 96 96 96 95 96 97 97 98 96 93 92 93 94 93 92 91 90 90 88 86 84 84 84 84 83 82 82 81 81 81 81 83 82 82 82 82 82 82 83 82 80 79 79 78 78 79 77 79 64 58 59 61 60 64 72
104 105 104 103 103 102 98 95 95 97 95 95 96 96 95 95 94 92 91 91 91 91 90 89 89 89 88 87 85 83 83 84 83 83 82 81 81 82 81 82 82 83 83 82 82 82 82 82 81 80 79 80 79 75 77 80 66 55 58 57 57 65 73
99 101 102 103 104 102 95 92 92 94 96 94 92 95 94 94 93 91 90 90 92 92 91 90 89 89 90 87 84 83 83 84 83 82 82 81 81 81 82 82 82 82 82 81 81 80 81 81 81 80 81 81 79 78 79 79 70 61 55 55 55 61 73
95 99 100 104 102 93 94 93 93 94 97 94 92 95 95 93 93 90 89 90 89 90 92 92 90 89 88 86 85 84 83 83 83 82 82 82 81 82 82 82 80 80 79 81 82 80 79 80 81 80 80 82 81 81 80 81 75 64 54 54 55 58 64
93 98 105 98 94 93 95 96 92 93 96 92 93 94 94 92 90 89 88 89 89 90 93 91 90 88 86 86 85 84 83 83 82 82 82 81 81 80 80 80 79 79 80 81 80 78 78 78 78 78 78 79 80 79 78 77 75 70 55 55 53 56 58
90 89 91 96 94 96 95 93 92 94 94 95 97 97 95 94 89 88 87 87 88 91 90 89 88 86 85 85 85 84 84 82 81 80 81 80 81 80 79 79 78 78 78 78 78 77 77 77 77 77 77 76 76 77 77 77 74 66 64 55 53 53 55
89 91 92 95 98 96 95 91 90 90 93 96 95 96 94 92 87 86 86 86 87 89 88 87 86 85 84 84 83 83 83 83 82 81 81 81 81 80 79 78 78 78 77 78 78 77 76 76 76 76 77 76 76 77 78 77 76 66 63 60 54 53 53
89 89 91 90 97 93 92 90 88 90 91 93 92 92 91 89 86 85 85 86 86 85 85 85 84 83 83 83 82 82 82 81 80 80 81 81 80 79 78 79 79 77 77 79 78 77 76 76 77 76 76 76 76 76 76 75 75 72 63 60 56 54 52
90 89 91 94 92 90 91 92 91 92 91 90 90 87 87 88 88 84 84 86 85 85 84 83 82 82 81 81 81 81 81 79 80 80 80 80 80 80 80 78 78 77 77 77 77 76 76 75 76 76 76 76 77 76 76 74 72 68 64 60 58 56 53
71 71 73 73 79 86 90 91 92 90 90 87 89 90 90 88 87 85 85 85 86 86 84 82 81 80 80 80 80 79 79 79 80 81 80 80 81 81 79 79 78 77 76 77 77 77 75 76 76 75 76 76 77 77 76 72 71 69 66 66 64 63 57
70 71 71 75 82 87 88 87 88 88 87 84 86 88 89 88 87 86 87 87 87 86 84 81 81 80 80 80 80 79 80 80 78 79 80 80 82 82 80 79 79 78 76 77 78 75 75 76 76 76 77 77 79 77 74 73 72 71 70 69 69 67 66
71 70 72 77 81 83 85 85 86 85 86 85 87 86 83 83 85 87 86 87 87 85 83 81 80 81 81 81 81 80 79 81 80 81 79 80 72 62 60 66 75 78 67 62 63 73 81 79 77 79 81 81 79 77 73 75 72 73 65 71 63 69 70
74 75 77 82 82 82 83 83 84 84 84 84 84 84 84 86 86 88 90 88 86 84 81 80 82 83 83 83 83 83 82 81 83 82 80 74 69 67 62 52 42 55 73 69 57 48 50 58 73 71 76 80 71 72 78 77 77 62 57 55 54 55 59
73 77 79 81 80 80 80 81 82 82 82 83 84 85 86 86 88 88 88 86 85 84 82 82 81 82 84 84 84 82 82 82 82 80 76 75 74 72 70 66 60 44 42 49 48 44 42 41 42 45 51 69 77 61 55 62 54 53 52 51 51 50 51
71 76 78 81 80 79 79 80 82 82 82 84 85 86 86 88 88 86 87 86 85 84 82 82 81 82 83 84 82 77 78 82 81 80 77 75 74 73 71 70 66 62 46 41 44 43 41 41 40 41 44 48 59 66 61 51 48 48 48 47 46 45 44

ECMWFFLT1_sfc_temp_018.txt.gz
Temp
86 85 86 86 85 85 84 84 84 85 85 84 84 84 84 84 83 82 81 80 80 79 79 80 80 80 80 79 79 79 80 80 79 79 79 78 79 78 78 77 77 76 77 76 76 76 77 77 77 77 77 76 75 75 75 74 73 74 73 72 72 71 71
84 85 86 86 86 85 85 84 85 86 85 85 84 84 85 84 83 82 81 81 80 80 80 80 80 80 80 80 80 80 79 79 80 79 79 78 79 79 79 78 78 77 77 77 77 77 77 77 78 77 77 76 75 74 75 74 73 73 73 72 71 70 71
84 85 86 86 85 85 85 85 85 86 86 86 85 85 84 83 83 82 81 81 80 80 80 80 80 80 80 80 80 79 80 80 79 79 78 79 78 79 79 79 78 78 78 78 78 77 78 77 77 77 77 76 76 74 75 74 72 72 72 72 72 71 70
84 85 85 86 86 86 86 86 85 86 87 87 86 85 85 84 84 83 83 82 81 80 79 80 80 80 80 80 79 79 79 80 80 80 80 80 79 79 79 78 78 78 77 77 78 78 78 78 77 77 78 76 75 74 75 75 73 72 72 72 72 71 71
85 86 86 85 85 85 85 86 86 86 87 88 87 85 85 85 84 84 83 83 83 81 81 81 82 81 81 81 80 80 80 80 80 80 80 80 80 80 79 79 79 78 78 79 78 78 77 77 77 77 77 76 75 74 74 75 73 72 71 71 71 71 71
86 85 85 85 86 86 86 87 87 87 87 87 86 85 86 86 85 85 84 83 83 83 82 81 81 81 80 81 81 80 80 80 80 80 80 80 80 79 79 79 79 79 79 78 79 78 78 77 77 77 76 76 76 75 75 74 74 73 71 71 71 71 70
87 86 86 86 86 86 86 87 88 88 88 88 88 86 86 86 85 85 85 83 83 82 82 81 82 81 81 81 81 80 80 80 80 80 81 80 80 80 80 80 79 79 80 79 78 78 78 77 77 77 77 76 76 75 75 74 73 73 72 71 70 70 71
88 87 87 87 88 88 88 87 88 88 87 87 87 86 85 86 86 85 85 85 84 84 83 82 82 81 81 81 81 80 80 80 81 81 81 80 80 80 80 80 80 80 79 79 79 79 78 77 78 78 77 76 75 75 75 74 74 73 72 71 70 70 71
88 88 88 89 89 90 89 87 87 86 85 85 85 84 85 85 86 86 85 85 85 84 83 84 83 83 82 81 81 80 81 81 80 80 80 80 80 80 81 80 80 80 79 79 79 79 79 78 78 77 77 76 75 75 75 74 74 74 72 72 71 71 71
87 86 87 89 90 91 89 88 86 84 83 83 83 83 84 85 86 86 86 86 85 84 84 84 84 83 82 81 81 81 81 80 80 80 80 80 81 81 81 81 81 80 80 80 80 79 79 79 78 77 76 76 75 75 75 74 74 73 73 72 72 71 71
87 86 87 88 88 88 88 87 83 82 83 82 83 84 84 84 85 86 86 86 85 85 85 85 85 84 83 82 81 81 80 80 81 80 80 80 81 81 82 82 82 81 80 80 79 79 78 78 78 77 76 76 75 75 74 74 74 73 73 73 72 72 72
85 85 85 86 86 86 85 83 82 81 81 82 83 84 83 83 85 86 86 86 87 86 85 85 85 85 83 83 82 80 80 80 81 80 80 81 81 81 82 82 82 81 81 81 80 79 79 78 78 77 76 76 76 75 75 74 74 74 73 73 73 72 72
84 84 84 84 84 85 83 81 81 81 81 83 84 84 84 84 85 86 85 86 87 87 86 85 85 84 83 83 82 81 80 81 80 81 81 81 81 82 81 82 82 82 81 81 81 79 78 78 77 78 77 76 76 75 75 74 74 73 73 73 72 72 71
84 85 85 84 84 82 81 80 81 81 81 83 84 84 84 85 86 85 85 86 87 87 87 86 85 84 83 82 81 81 81 81 81 81 81 81 81 81 81 81 81 81 81 81 80 80 79 78 77 78 77 77 76 76 75 74 74 73 73 73 73 72 71
80 81 82 82 81 81 81 80 79 80 81 82 84 83 84 84 85 85 86 87 87 88 87 86 85 84 83 82 81 81 81 81 81 81 81 81 81 80 80 80 81 81 81 80 80 80 80 79 78 77 76 76 76 76 75 74 74 74 74 73 72 72 71
82 83 83 81 80 81 80 81 80 80 81 81 83 83 83 83 84 85 85 86 87 87 88 86 85 83 83 82 82 82 81 81 81 81 81 80 80 80 80 80 80 80 80 79 80 79 79 78 77 77 76 76 75 75 75 74 74 71 66 69 73 72 72
81 82 83 82 80 80 80 81 81 80 79 80 81 83 83 83 84 85 87 87 88 87 88 87 84 84 83 82 82 82 81 81 81 81 80 80 80 80 80 80 80 79 79 79 79 79 78 77 77 77 77 76 76 75 75 75 74 66 64 66 69 72 72
79 80 81 82 81 81 79 80 79 78 79 81 82 83 84 83 84 85 85 87 87 88 88 87 85 84 83 83 82 82 81 81 81 80 80 80 80 80 80 80 79 79 79 78 78 78 78 77 77 77 77 76 76 75 75 75 69 64 64 66 66 70 73
79 80 82 81 79 79 81 82 81 80 81 82 83 84 85 85 85 84 85 86 87 88 88 87 86 84 83 83 82 82 81 81 80 80 80 80 80 80 80 79 79 78 78 78 78 78 77 77 77 76 77 76 75 75 76 76 68 63 63 65 65 67 71
79 81 81 82 82 82 82 82 82 82 82 82 84 86 87 87 86 86 88 88 87 87 86 86 86 85 83 83 82 82 82 81 81 80 80 80 80 80 79 79 78 79 79 78 77 77 77 77 76 77 76 76 76 75 76 76 65 62 62 63 64 66 69
79 80 82 82 81 83 82 82 82 82 81 83 85 85 86 86 87 88 88 87 86 86 85 85 85 84 83 82 83 82 82 81 81 80 80 80 80 80 79 79 79 79 79 78 77 77 76 77 76 76 76 76 76 76 75 76 61 61 61 62 62 64 68
77 79 78 83 84 83 83 84 84 84 83 84 84 85 87 87 88 88 88 88 86 86 85 85 84 84 83 82 83 83 82 82 81 80 80 80 80 79 79 79 79 78 78 78 78 78 77 77 77 76 76 76 76 75 74 72 59 61 60 61 61 63 71
77 80 83 81 81 84 86 86 86 87 85 85 85 86 87 89 89 88 88 87 86 85 85 85 84 84 83 83 83 83 83 82 81 80 80 80 79 79 79 79 78 79 78 77 77 77 77 77 77 77 76 75 75 74 73 67 60 59 59 59 60 63 72
79 77 77 81 86 85 82 84 86 87 87 86 86 87 88 89 88 86 85 85 85 85 84 84 84 84 84 84 84 84 84 83 82 81 80 80 80 79 80 80 80 79 78 78 77 77 77 77 76 75 75 75 74 74 71 68 61 57 57 58 59 64 72
77 78 75 77 80 83 84 84 84 87 85 84 84 86 87 87 86 85 84 84 84 84 84 84 85 85 84 84 85 84 84 84 83 82 81 80 80 81 80 80 79 79 78 79 78 77 76 75 74 73 73 74 74 69 71 70 62 56 57 57 58 65 73
71 72 76 75 75 77 81 82 82 82 83 84 85 86 86 86 85 84 84 84 85 85 84 85 86 87 87 86 85 85 84 84 82 82 82 81 81 81 81 81 80 78 78 78 78 76 74 74 73 72 72 72 72 71 73 71 67 60 56 57 57 60 72
70 70 72 74 76 77 75 79 82 84 84 84 84 84 85 84 84 83 83 84 84 84 86 87 88 87 86 86 85 85 84 83 83 82 82 82 82 82 81 80 79 77 77 76 75 74 73 73 73 72 72 73 73 73 73 73 70 63 55 55 56 58 63
69 70 72 72 74 74 75 77 79 82 85 85 85 85 85 84 83 83 83 83 83 85 88 88 88 87 86 85 85 85 84 83 83 83 82 82 81 80 79 78 78 77 77 76 74 73 72 72 72 72 72 72 73 73 73 72 70 68 57 55 55 55 59
66 67 67 68 70 72 72 74 77 80 81 83 84 86 86 86 83 83 82 83 84 87 88 88 87 86 85 84 83 82 82 82 81 81 81 81 81 80 77 77 76 76 75 74 73 72 71 71 71 71 71 71 72 72 72 71 70 64 63 55 53 53 56
66 66 68 69 70 70 70 70 72 74 75 76 76 77 77 79 81 81 82 83 86 87 87 86 84 81 82 81 81 80 81 81 81 81 81 80 79 79 76 75 76 75 74 74 73 72 71 71 71 71 71 71 70 70 71 70 68 62 61 59 54 53 54
65 65 66 67 68 69 69 69 69 72 70 71 71 71 71 73 75 75 73 74 76 76 76 76 77 78 77 77 78 78 79 79 79 79 79 79 79 76 75 75 74 73 74 74 73 72 71 70 71 71 71 70 70 69 67 67 65 63 61 59 55 54 53
65 66 67 67 67 68 68 69 69 69 69 68 70 71 73 72 72 70 69 72 74 77 77 76 76 76 76 76 76 76 77 77 77 78 78 78 78 77 76 75 74 74 73 74 73 72 71 71 71 71 70 70 69 68 67 66 64 60 59 59 58 56 54
64 65 66 66 67 67 66 66 67 67 67 67 68 68 71 73 73 72 71 72 73 76 77 76 74 74 74 74 74 75 76 76 75 76 76 76 77 76 76 75 74 72 70 70 69 70 70 71 70 69 68 68 68 68 67 65 62 60 58 57 57 57 57
64 64 65 66 67 66 65 66 65 66 67 67 68 69 69 69 68 69 71 73 75 75 74 73 73 72 72 72 72 72 73 73 74 74 74 74 74 73 70 68 69 68 67 68 70 70 70 70 69 68 68 67 67 66 65 63 62 60 59 58 58 58 59
63 63 65 65 65 66 65 65 65 65 66 67 68 68 68 68 68 70 70 72 73 74 73 71 70 71 71 70 70 70 71 72 72 71 68 62 58 58 63 68 70 68 66 65 70 73 72 70 70 70 71 70 67 66 64 63 62 62 57 61 56 58 59
62 63 63 65 66 65 66 66 66 66 66 67 67 67 67 68 68 69 71 72 73 73 71 70 69 70 70 70 70 70 70 70 70 68 67 64 61 58 54 49 46 53 66 65 61 65 64 64 70 71 71 69 68 68 67 64 67 58 52 50 50 50 53
62 63 63 65 65 65 66 66 67 67 67 67 68 68 68 68 68 69 69 70 71 71 70 70 68 68 68 68 69 68 69 69 68 67 65 64 64 61 59 57 53 44 43 50 50 49 46 48 52 57 62 69 69 65 61 62 55 49 49 48 48 48 48
63 63 64 65 65 65 65 66 66 66 66 67 68 68 68 68 68 69 69 69 69 69 68 68 67 67 67 68 68 66 65 65 64 64 63 62 62 63 62 59 57 53 45 42 45 45 44 44 47 51 56 57 62 62 62 53 48 49 47 47 46 47 47

ECMWFFLT1_sfc_temp_024.txt.gz
Temp
81 80 80 81 80 80 80 80 80 80 80 80 79 80 80 80 79 78 78 77 77 76 76 77 77 77 77 77 77 78 78 78 78 77 77 77 77 77 76 76 76 76 76 76 76 76 77 77 77 76 76 76 76 76 75 75 75 74 73 73 72 72 72
79 80 81 81 81 80 80 81 80 81 81 81 80 80 81 80 79 79 78 78 77 77 77 77 77 77 77 77 78 77 77 78 78 78 78 77 77 77 77 77 76 76 76 77 77 77 77 77 77 76 76 76 76 76 76 75 74 74 73 72 72 71 71
79 80 80 81 81 81 80 81 81 81 81 82 82 81 80 79 80 79 79 78 77 77 78 77 77 77 78 78 77 77 78 78 78 78 77 78 77 78 78 77 77 77 77 77 77 77 77 77 77 77 76 76 76 76 75 75 74 73 73 72 72 72 71
78 80 80 81 81 81 82 82 81 82 83 83 83 83 81 80 81 80 80 80 78 78 77 78 78 78 78 77 77 77 77 78 78 78 79 78 78 78 77 77 77 78 77 77 77 77 77 77 77 76 77 76 76 76 76 75 74 73 73 72 72 72 71
78 79 80 80 81 81 81 81 82 82 83 85 84 82 82 82 82 81 81 81 81 79 80 79 80 79 78 78 78 78 78 78 78 79 79 79 78 78 77 78 77 77 77 78 77 77 76 76 76 76 76 76 76 76 75 75 74 73 72 72 71 71 71
79 78 79 81 82 82 82 83 84 84 84 84 84 83 84 84 84 83 82 81 81 82 80 80 79 79 78 79 79 79 78 78 78 78 78 78 78 77 78 78 78 78 78 77 77 77 77 76 76 76 76 76 76 76 76 75 75 73 72 71 72 72 71
80 79 79 81 82 83 83 83 84 85 85 86 86 85 85 85 84 84 84 82 82 80 81 81 81 80 79 79 78 78 78 78 78 78 79 79 78 78 78 78 78 78 78 78 77 77 77 76 76 76 76 76 76 76 75 74 74 73 72 71 71 71 71
81 80 80 81 83 84 84 83 84 85 85 85 85 85 84 85 84 84 83 84 83 83 82 82 81 80 79 79 79 79 79 79 79 79 79 79 78 78 78 78 78 78 78 77 77 77 77 76 77 76 76 76 75 75 75 74 74 73 72 71 71 71 71
79 79 80 82 83 84 85 84 84 84 83 83 83 83 84 84 84 84 84 84 83 83 82 83 83 82 80 79 79 78 79 79 79 79 79 79 79 79 79 79 78 78 78 78 78 77 77 77 77 76 76 76 75 75 75 74 74 73 72 72 72 72 71
78 78 79 81 83 84 83 83 83 81 81 81 81 81 83 83 84 84 84 84 84 83 83 83 84 83 81 80 80 80 79 79 79 79 80 79 79 79 80 80 79 79 78 78 78 77 77 77 77 76 76 75 75 75 75 74 74 73 73 72 72 72 72
75 76 78 79 79 80 80 81 80 79 80 80 80 82 82 83 83 84 84 84 84 84 85 84 84 83 82 81 81 80 79 79 80 79 79 79 80 80 80 80 80 79 79 79 78 77 77 77 77 76 76 75 75 75 75 75 74 74 73 73 73 73 73
74 75 75 76 77 77 78 79 80 79 79 79 81 82 81 81 83 84 84 84 85 85 84 84 85 84 82 82 81 79 79 79 80 80 79 79 80 80 80 81 80 80 79 79 78 77 77 77 76 76 76 76 76 76 75 75 74 74 74 74 73 73 73
74 74 75 77 77 78 76 76 77 78 78 81 82 82 82 83 83 84 82 83 85 85 85 84 83 82 82 82 81 79 79 80 79 79 80 79 79 80 80 80 81 80 79 79 79 78 77 77 76 77 76 76 76 76 76 75 75 74 74 73 73 72 72
71 71 72 72 74 73 75 76 77 77 78 80 81 82 82 83 84 83 83 83 84 85 85 85 83 82 81 80 80 79 80 80 79 79 79 79 79 79 79 79 79 79 79 79 78 78 77 77 76 77 77 77 76 76 76 75 75 74 74 74 73 73 72
70 72 73 73 73 74 75 76 76 77 78 79 81 81 81 82 82 82 82 84 83 85 85 84 82 81 81 80 79 79 79 79 80 79 79 79 78 78 78 78 78 79 78 78 78 78 78 78 78 77 76 77 76 76 76 76 75 75 74 73 73 73 73
72 73 73 73 73 75 76 77 77 77 78 78 79 79 81 81 81 82 83 83 84 83 85 83 82 81 80 80 79 80 80 79 79 79 79 78 78 78 78 78 78 78 78 78 78 78 78 78 77 77 77 76 76 76 76 76 76 71 65 68 74 73 73
72 73 74 73 72 74 75 77 78 77 77 77 78 79 80 80 81 82 84 84 85 83 84 84 81 81 80 80 80 80 79 79 79 79 78 78 78 78 78 77 78 77 77 77 77 77 77 77 77 77 77 77 76 76 76 76 75 66 64 65 67 73 73
69 70 72 73 74 74 74 76 76 76 77 79 80 80 81 80 81 82 83 84 84 85 85 84 82 81 80 81 80 79 79 79 78 78 78 78 78 78 78 78 77 77 77 77 77 77 78 77 77 77 77 77 77 76 76 76 68 64 63 64 65 68 74
69 70 69 68 70 71 75 78 79 78 79 81 81 81 83 82 82 81 82 82 83 84 84 83 83 81 80 80 80 79 79 79 78 78 78 78 78 78 78 77 77 77 77 77 77 77 76 76 77 76 77 77 76 76 77 77 68 63 62 63 64 65 70
66 68 68 69 70 73 74 75 77 80 81 80 82 84 85 84 83 83 84 84 83 82 82 81 82 81 80 80 79 79 79 78 78 78 78 78 78 78 77 77 77 77 78 78 77 77 76 77 77 77 76 76 76 75 77 77 67 62 61 62 62 64 67
62 63 65 66 67 70 72 74 75 77 77 80 82 82 82 82 83 83 83 82 82 82 80 81 80 80 80 79 79 79 79 78 78 78 78 78 78 77 77 77 77 77 78 78 77 77 76 76 76 76 76 77 77 76 76 78 64 60 60 60 61 62 65
64 64 65 66 65 66 68 72 74 78 78 80 79 80 82 83 84 84 84 84 83 81 81 80 80 80 80 79 79 79 79 79 78 78 78 78 78 77 77 77 77 77 77 77 78 78 78 78 78 77 76 77 77 76 75 78 62 59 59 59 59 61 68
65 65 66 66 67 67 67 69 73 76 76 77 78 79 82 84 84 83 83 82 82 80 80 80 79 79 79 79 80 80 80 79 79 78 78 78 77 77 77 77 77 77 78 77 77 78 77 77 78 77 77 76 76 76 76 77 64 58 58 58 58 61 70
66 66 66 66 67 68 69 68 69 74 78 76 77 79 80 82 82 80 79 80 81 80 79 79 79 80 79 80 80 80 80 79 79 78 78 78 77 77 78 78 78 78 78 77 77 77 78 78 78 78 77 77 76 77 76 77 65 56 57 57 57 62 71
65 66 66 66 67 67 68 69 69 73 75 76 77 77 78 79 79 79 78 79 79 79 79 79 80 81 80 81 81 80 80 80 80 79 79 78 78 79 78 78 78 79 79 79 78 78 78 78 77 77 77 79 78 70 75 78 67 55 57 56 56 63 72
64 64 65 66 67 68 68 69 71 70 72 74 75 76 77 78 78 78 78 78 79 80 79 80 81 81 82 82 81 81 80 80 79 79 79 79 79 79 79 79 79 79 79 79 79 78 78 78 77 77 77 78 78 77 77 77 72 60 55 55 55 59 71
64 65 65 66 67 68 67 68 69 70 70 69 72 75 76 76 77 76 76 77 77 78 81 82 82 81 81 81 82 81 80 80 80 79 80 80 79 80 80 80 79 79 78 79 79 78 77 77 77 77 77 78 78 78 77 78 73 62 54 55 55 56 63
65 66 66 67 67 67 67 68 69 70 71 70 70 74 75 76 76 75 75 75 77 79 82 81 81 80 80 79 80 81 81 80 80 81 80 80 79 78 78 79 80 79 79 79 78 76 76 76 76 76 76 77 77 77 76 75 67 66 55 55 54 55 58
63 63 64 64 65 66 67 65 66 67 68 70 70 72 75 76 75 75 75 76 77 80 80 80 79 79 78 78 79 79 80 80 80 79 80 80 79 79 78 79 79 79 78 77 77 76 76 75 75 75 75 75 75 76 75 75 68 62 61 55 54 54 56
63 64 64 65 65 65 66 65 64 65 67 67 68 68 69 73 74 73 74 75 78 79 79 78 78 78 78 78 78 79 79 80 80 80 80 80 79 79 78 78 78 78 77 77 76 76 75 75 75 74 74 73 73 73 74 73 71 62 59 59 54 53 54
62 63 64 64 65 66 66 65 64 65 65 66 67 68 68 68 69 71 72 73 74 75 76 77 77 76 77 78 78 78 79 80 79 80 80 80 80 78 78 78 78 77 77 77 76 76 75 75 74 74 73 73 71 69 69 69 68 65 61 58 55 54 54
63 64 65 66 66 67 66 66 66 66 65 66 67 67 68 68 68 67 68 70 71 73 75 76 76 76 77 78 78 78 79 79 79 80 80 80 80 79 79 78 78 77 77 77 77 76 75 74 74 73 72 70 69 69 69 69 68 68 65 61 58 57 55
63 64 64 64 66 67 66 66 66 66 66 66 68 68 68 68 68 68 68 69 70 72 73 74 75 75 76 76 77 77 78 78 80 80 80 80 80 81 80 79 79 77 75 76 76 75 74 73 72 71 71 70 70 69 68 68 68 67 65 62 61 61 58
62 63 64 65 66 66 66 66 66 66 67 67 68 69 69 68 68 68 69 69 70 71 72 72 73 74 75 76 76 75 76 76 78 78 80 80 81 80 79 78 79 77 75 75 75 74 74 74 72 72 71 70 69 69 67 67 67 66 64 62 61 61 60
62 63 64 65 65 66 65 66 67 67 67 67 68 69 68 68 69 69 69 69 70 70 70 71 71 72 72 73 74 73 74 76 77 78 77 76 77 77 77 77 77 77 76 78 78 78 77 74 74 72 72 71 69 67 66 67 66 66 61 64 58 60 62
63 64 65 66 66 66 66 66 67 66 67 67 68 68 68 68 69 69 70 70 69 69 69 70 71 71 72 73 73 74 74 74 77 77 77 77 75 75 75 72 66 71 78 77 70 68 67 67 76 77 74 73 72 71 69 67 68 58 53 52 51 51 54
63 63 64 65 65 65 65 66 67 67 67 67 67 68 68 68 68 68 68 68 68 68 68 69 69 70 70 71 72 71 72 73 73 74 74 76 78 76 74 72 66 54 54 61 65 62 57 58 61 61 64 69 69 67 63 62 56 51 51 50 49 49 50
63 63 64 65 65 65 65 65 65 65 66 66 67 67 67 67 68 68 68 68 67 67 67 67 67 67 67 68 68 67 69 70 71 71 71 71 71 73 72 71 69 66 53 51 55 57 54 54 53 55 57 59 62 63 64 56 52 48 47 48 48 48 48

ECMWFFLT1_sfc_temp_027.txt.gz
Temp
87 86 86 86 85 86 85 85 85 85 84 84 84 85 86 85 84 84 83 82 81 81 82 81 81 82 81 82 82 82 83 82 82 82 82 82 83 83 82 83 83 83 84 84 84 84 84 85 84 85 85 84 85 85 84 84 84 84 83 82 82 81 81
87 87 87 87 86 86 86 86 85 86 85 85 85 84 86 85 84 84 83 83 82 82 82 82 81 81 82 82 82 82 82 82 82 82 83 82 83 83 83 83 83 83 83 84 85 85 85 85 85 84 84 84 84 84 84 84 83 83 83 83 82 82 81
87 88 87 87 87 87 85 87 86 86 86 87 87 86 85 84 84 84 83 83 82 82 83 82 82 82 82 82 82 82 82 83 82 82 82 83 83 85 84 83 83 84 84 85 85 85 85 85 84 84 84 84 84 84 84 84 83 83 83 82 82 82 81
87 88 88 88 87 87 87 87 87 88 89 89 88 88 86 84 85 85 85 85 83 82 81 82 82 83 83 82 82 82 82 82 83 83 84 84 84 84 84 83 83 84 84 84 85 85 85 85 84 84 83 83 83 84 84 84 85 83 83 82 81 81 80
87 88 88 87 87 87 87 88 88 87 89 91 90 87 87 87 87 87 86 86 87 84 85 84 85 84 83 83 83 83 82 82 83 84 84 84 84 84 83 84 84 84 84 85 85 84 83 83 84 84 83 83 84 83 83 84 84 83 82 82 81 81 81
89 86 86 87 88 88 88 89 90 91 90 91 90 89 89 90 90 90 88 86 86 87 85 85 84 83 83 84 84 83 83 83 83 83 83 84 83 83 84 84 85 85 86 84 85 85 84 84 84 84 84 84 84 84 84 84 84 83 82 82 81 81 82
89 87 86 87 88 89 89 90 91 92 92 92 92 92 92 92 91 90 90 89 88 86 86 86 86 85 83 84 83 83 82 83 83 83 84 84 84 83 83 84 84 85 85 85 84 85 84 83 83 84 84 84 83 84 83 83 83 83 82 81 81 80 80
90 89 87 88 89 91 91 90 91 92 92 92 92 92 92 92 92 91 90 91 90 90 88 88 87 84 83 84 84 84 83 84 85 84 84 84 84 83 84 84 84 84 84 84 84 84 85 83 84 84 84 84 83 83 84 83 83 85 83 81 80 80 80
91 89 89 90 90 92 92 91 90 91 89 89 89 89 91 92 92 91 91 91 91 90 89 90 90 87 84 84 83 83 84 84 84 84 84 84 85 86 86 86 85 85 84 85 86 84 85 84 85 83 83 83 83 83 83 82 83 84 83 81 80 79 80
87 87 87 89 90 92 91 91 90 88 87 86 87 87 89 90 90 91 92 92 92 91 91 91 91 89 85 84 84 85 84 83 84 85 86 86 86 86 87 88 87 85 85 85 86 85 84 84 84 83 82 82 82 83 82 82 83 83 82 80 80 80 79
86 85 85 87 87 88 88 90 87 85 85 84 85 89 88 89 89 91 91 92 92 92 93 92 91 90 88 87 87 86 84 85 85 85 85 86 87 87 88 88 88 87 86 86 86 85 84 83 84 83 82 82 82 82 82 83 83 83 82 81 81 81 81
82 83 83 84 85 86 86 85 85 84 84 84 86 88 86 87 89 91 91 91 93 93 92 92 92 91 89 88 87 85 85 84 86 86 86 86 87 88 88 89 88 88 87 87 86 85 85 83 83 83 82 82 83 83 83 83 83 82 81 83 82 81 81
82 82 83 85 84 85 84 83 83 83 83 86 89 88 89 89 89 91 88 89 92 93 92 91 91 89 89 89 89 85 85 86 85 84 86 85 86 87 87 88 89 89 87 87 87 86 85 84 83 83 83 82 83 83 82 83 83 82 81 81 81 81 80
79 82 83 82 82 82 82 82 82 83 83 85 87 88 89 90 90 89 88 89 90 93 93 92 89 88 87 87 86 85 86 85 84 84 84 85 84 85 86 86 86 86 86 86 85 86 85 84 83 83 83 83 83 83 83 83 83 82 81 81 81 81 80
83 86 86 85 82 81 82 82 81 82 84 85 87 87 88 89 89 88 88 90 90 93 92 90 88 87 87 86 85 84 84 84 85 84 84 84 84 84 84 84 85 85 85 84 84 85 85 85 85 83 83 83 83 83 83 83 82 82 82 81 81 81 81
86 87 87 86 84 84 82 82 83 82 83 83 85 85 88 88 87 89 89 90 91 90 92 90 88 86 87 86 85 85 84 84 84 83 83 83 82 82 83 83 84 84 83 83 84 84 84 84 84 85 84 83 83 83 83 83 83 75 67 71 81 81 81
88 87 87 85 84 83 83 83 83 83 83 83 83 85 86 87 88 89 92 92 92 90 91 92 87 87 87 85 86 85 84 84 83 83 83 83 83 83 83 83 83 83 83 83 83 83 83 83 84 85 85 84 84 83 83 84 83 67 65 66 68 78 81
84 83 84 83 82 83 82 83 83 83 84 85 86 85 86 85 88 89 90 92 92 93 93 91 89 88 85 86 85 85 84 84 83 83 82 83 82 82 83 83 83 82 82 82 83 82 83 83 82 83 84 84 84 84 83 84 72 65 64 65 65 69 80
85 84 83 79 79 79 83 86 86 83 86 88 87 87 89 88 89 87 89 89 90 91 92 91 91 87 85 86 85 84 84 84 83 83 82 82 83 83 83 82 82 82 82 82 83 83 81 81 82 82 83 84 83 84 85 85 72 64 63 64 64 64 72
82 82 82 81 80 81 82 83 85 87 87 87 88 91 91 90 90 89 91 91 90 90 89 88 89 87 86 85 85 84 84 84 83 83 82 83 83 82 82 82 81 82 83 83 83 82 82 82 82 82 82 83 83 82 85 85 71 63 62 62 62 63 68
77 77 78 78 77 80 79 79 81 83 85 89 91 90 90 90 91 91 91 90 90 88 86 86 86 86 86 85 85 85 84 84 83 83 83 83 82 82 82 82 82 82 83 84 83 82 81 82 81 82 82 83 84 83 84 86 68 61 61 60 60 61 65
80 78 78 79 76 75 75 78 78 82 84 88 89 91 91 91 93 93 93 93 91 88 87 86 85 86 86 85 85 85 85 84 83 83 83 83 82 82 82 82 81 81 82 83 84 85 84 83 84 83 82 83 83 83 83 86 65 61 60 59 59 60 72
77 76 76 76 77 77 76 77 77 79 81 85 89 90 91 93 94 93 93 92 91 87 87 86 85 85 85 85 85 85 85 85 84 83 83 82 82 82 82 81 81 82 83 83 83 84 84 83 84 83 84 83 82 82 83 85 70 60 59 58 57 62 75
76 75 76 76 76 78 78 79 79 80 81 85 86 90 91 93 92 89 88 88 89 88 86 86 86 86 85 86 86 85 85 84 84 83 82 82 82 82 82 83 83 83 83 83 83 84 85 85 84 84 84 84 83 84 84 85 72 57 58 57 56 64 76
75 75 75 75 76 77 78 77 78 81 82 84 86 88 89 89 89 87 86 86 87 86 85 85 86 86 86 86 87 85 85 85 84 84 83 82 82 83 83 83 83 84 84 84 84 84 85 85 84 84 84 86 86 74 81 86 75 56 58 56 55 65 77
72 72 75 76 77 77 76 77 80 82 84 84 84 87 87 88 87 86 85 85 87 88 87 86 86 87 88 88 87 86 86 86 84 83 83 83 83 84 84 84 84 84 84 85 85 85 86 85 85 84 84 85 84 84 84 84 83 66 56 55 55 59 76
71 71 72 74 75 74 77 79 79 79 80 79 79 83 86 86 86 85 84 85 85 85 88 88 88 87 87 87 88 88 86 85 85 84 84 84 84 85 85 85 84 84 84 85 86 85 84 84 85 85 85 86 85 86 85 85 85 71 55 54 55 56 65
72 73 74 73 72 73 76 78 77 78 78 77 80 82 84 84 84 83 84 84 84 86 89 88 87 87 87 86 87 88 86 85 85 85 85 85 84 83 83 84 85 84 84 86 84 83 82 82 82 83 83 84 85 84 84 80 74 79 56 55 54 55 58
66 67 68 70 73 74 76 75 75 75 75 77 78 81 84 86 83 83 83 83 84 87 88 88 88 87 86 85 86 85 85 85 84 84 85 84 84 84 83 84 84 84 83 82 83 82 81 81 81 81 82 82 82 83 83 84 78 66 65 55 54 54 55
67 68 71 73 73 73 74 73 73 72 73 74 75 76 78 81 81 81 81 78 79 83 85 86 86 86 85 85 85 85 85 86 85 85 85 84 84 84 83 83 83 83 82 82 81 81 80 80 80 80 80 80 81 82 83 82 81 65 60 60 54 54 54
66 68 69 69 70 71 72 72 71 73 73 74 73 73 74 77 77 76 75 76 78 79 81 84 84 84 84 84 85 84 85 86 85 85 85 85 85 83 83 83 83 82 82 82 82 81 81 80 80 79 79 79 79 80 80 81 79 73 62 58 55 55 54
67 68 70 71 71 71 71 73 73 74 73 73 74 73 72 73 74 71 71 75 77 79 80 81 82 82 83 84 84 84 85 85 86 85 85 85 86 84 84 83 83 83 82 82 82 82 81 81 81 80 79 77 77 78 80 80 80 75 69 62 59 58 56
66 67 67 67 69 71 72 73 72 71 71 71 72 73 73 72 73 73 74 74 75 77 79 80 80 80 81 82 84 84 84 84 86 87 86 85 86 86 85 84 84 83 81 82 82 82 81 81 80 79 79 79 80 80 79 78 76 75 73 70 68 67 65
66 66 67 68 69 71 71 71 71 71 71 71 73 73 73 73 72 73 73 74 75 76 77 78 79 80 80 81 82 83 83 83 81 82 87 87 87 87 86 85 84 83 82 82 82 82 81 81 80 80 81 81 81 80 78 75 74 73 72 72 72 71 70
67 67 68 68 68 69 69 70 70 71 71 71 73 73 72 72 72 73 73 74 74 75 75 75 76 78 79 80 81 81 81 82 83 84 83 84 84 85 85 85 84 83 84 86 86 86 85 84 84 83 84 84 82 79 76 74 73 74 66 72 65 69 71
67 68 69 70 70 70 70 70 70 70 71 72 72 72 71 72 72 73 75 75 75 74 73 73 74 74 75 76 77 79 80 82 85 85 84 84 83 83 83 75 67 75 86 86 73 68 67 67 84 87 87 86 86 84 80 77 76 65 58 58 57 57 58
65 65 66 68 68 69 69 70 70 70 70 71 72 71 71 71 72 73 75 75 76 76 74 74 72 72 72 72 73 72 74 76 77 77 78 81 83 83 82 84 81 58 56 62 67 63 58 55 57 60 65 79 83 78 68 68 63 54 55 55 53 52 52
67 66 66 67 67 67 67 67 70 70 70 71 72 72 72 72 73 74 75 74 75 75 75 74 72 71 72 73 73 72 73 74 74 74 73 73 74 76 76 78 78 80 63 56 57 56 52 52 53 54 55 58 67 73 76 62 54 52 53 52 51 50 50

ECMWFFLT1_sfc_temp_030.txt.gz
Temp
98 97 96 94 93 93 93 92 91 91 91 90 90 91 92 92 91 90 89 87 86 86 86 86 86 86 86 86 87 87 87 87 87 87 87 88 89 88 88 89 89 88 90 90 90 90 90 91 91 91 90 90 90 90 89 89 88 89 88 88 87 87 86
98 98 97 97 95 94 93 93 92 92 92 91 91 90 92 91 90 90 89 88 87 87 86 86 86 86 86 87 87 87 87 87 87 87 88 87 88 88 89 88 89 88 89 90 91 91 91 91 91 90 90 90 90 90 90 89 88 88 89 88 87 86 86
99 99 98 97 96 95 92 94 93 93 92 93 93 92 91 90 90 89 89 89 87 87 88 87 86 87 87 87 87 87 87 88 87 87 87 89 88 91 90 89 89 90 90 91 91 91 92 91 90 90 90 90 91 89 89 89 88 88 88 88 87 86 85
97 99 99 98 96 95 95 94 94 95 95 95 94 94 92 90 91 90 91 90 88 87 86 88 87 88 88 87 86 87 87 87 88 89 89 89 89 90 89 89 89 90 90 90 92 92 92 91 91 90 89 89 89 90 90 89 90 88 88 87 87 87 86
98 99 99 97 97 95 95 95 95 93 96 97 96 93 93 92 93 92 92 92 93 89 90 90 91 90 88 88 88 88 87 87 88 89 89 90 89 89 89 90 90 90 90 91 91 90 90 90 91 90 89 89 89 89 89 89 89 88 88 87 87 88 87
98 97 97 98 98 98 96 97 98 98 97 98 97 95 96 96 96 96 94 92 92 93 91 90 90 89 88 89 89 89 88 88 88 88 88 89 89 89 89 89 90 90 92 90 91 91 90 90 90 90 90 90 90 91 90 90 90 90 88 87 87 88 89
99 97 97 98 98 99 98 98 99 100 99 100 100 99 98 98 97 97 97 95 95 92 93 93 93 91 89 89 89 88 87 88 88 89 90 90 89 89 89 89 90 91 91 91 90 91 90 89 89 90 90 91 89 90 89 88 88 89 88 87 86 87 87
101 99 98 98 100 101 101 99 99 100 100 99 100 100 99 99 99 98 97 97 96 97 95 95 93 91 89 89 90 89 89 89 90 89 89 89 89 89 90 90 90 90 90 91 90 91 92 90 91 90 90 91 89 89 89 88 87 90 89 87 86 87 88
102 100 99 100 101 102 102 100 98 99 97 97 97 97 99 99 100 99 98 99 98 97 97 98 97 94 90 89 89 88 90 90 90 89 89 90 91 92 92 92 90 91 90 91 93 91 91 91 91 89 89 89 89 88 88 88 88 88 88 88 87 86 87
100 97 96 99 100 102 100 101 99 96 95 95 94 95 97 98 98 99 99 99 100 99 98 98 98 96 92 90 90 91 90 89 90 92 92 92 92 92 93 94 93 91 91 91 93 92 90 91 90 89 88 88 88 88 87 87 88 88 88 88 87 86 86
97 95 95 97 97 97 97 99 96 93 94 92 92 96 96 96 97 99 99 100 101 100 100 99 98 98 95 93 93 92 90 91 92 92 91 92 94 94 95 95 95 93 92 93 93 93 91 89 90 89 88 88 88 87 87 88 88 87 89 89 89 87 87
92 92 91 92 94 94 95 94 94 92 92 92 94 96 93 94 97 99 99 99 101 101 100 100 100 99 96 95 93 91 91 91 92 93 92 93 93 95 95 96 96 95 94 93 92 92 93 90 89 89 88 88 88 88 88 88 88 87 88 90 90 88 88
93 91 91 93 92 93 92 91 92 92 91 94 97 96 96 96 97 98 96 97 100 101 101 98 98 96 96 96 95 91 91 92 91 90 93 92 93 94 94 95 97 97 95 94 93 93 92 91 89 89 89 88 88 89 88 88 88 87 87 88 88 88 87
90 94 94 93 93 91 90 90 91 91 91 93 95 95 96 97 97 96 96 97 98 101 102 100 97 95 94 93 92 91 92 92 90 90 90 91 90 91 93 93 93 93 94 93 92 93 92 92 89 89 90 89 89 89 89 88 88 88 87 87 88 87 87
96 99 98 95 91 90 90 90 89 90 92 92 95 95 95 96 96 96 96 97 97 101 100 99 96 95 95 93 91 90 90 90 91 90 90 90 90 89 90 91 91 92 92 91 91 92 93 93 92 90 89 90 89 89 89 89 88 89 89 88 87 88 87
98 100 101 99 95 93 90 91 91 90 90 90 93 93 96 95 94 96 96 97 98 97 100 98 96 93 94 93 91 91 91 90 89 89 89 88 88 88 89 90 90 90 90 90 91 90 91 91 91 92 90 89 89 89 89 89 89 80 71 75 87 87 88
98 98 99 99 96 96 94 92 92 91 90 89 90 92 93 94 94 96 99 99 99 96 99 100 94 94 94 92 92 91 90 89 88 88 87 87 88 88 88 88 89 89 89 89 89 89 89 89 90 92 91 90 90 90 89 90 88 71 68 68 71 84 87
95 95 97 100 98 97 94 94 92 91 91 93 93 92 93 92 95 97 98 99 99 100 100 98 97 95 91 93 91 90 89 89 88 87 87 87 87 87 87 88 88 88 88 88 89 88 90 89 89 89 91 91 91 91 90 90 75 67 66 66 67 72 86
96 97 98 98 96 93 97 99 98 93 95 97 96 95 96 95 96 94 95 96 97 98 99 99 99 94 91 92 91 89 89 88 88 87 87 87 87 87 87 87 87 87 88 88 88 89 87 87 88 88 89 90 89 90 91 92 73 66 65 65 66 66 76
97 98 99 100 98 97 95 93 95 97 97 95 97 101 99 97 97 96 98 98 98 97 95 95 96 93 91 90 90 89 89 88 88 87 87 87 87 87 87 86 86 87 88 89 88 87 87 88 87 87 87 88 88 88 91 91 73 65 63 63 63 65 70
93 94 94 94 93 96 93 91 90 91 92 96 99 98 98 99 99 98 98 98 98 96 93 93 92 92 91 89 90 89 88 88 88 87 87 87 87 86 86 86 86 87 88 90 89 87 87 87 87 87 87 89 89 89 90 92 71 64 62 61 61 63 67
95 97 96 96 92 88 86 89 90 92 93 94 96 99 100 100 101 101 100 101 98 96 94 93 91 92 92 90 89 89 89 89 88 87 87 87 87 86 86 86 86 86 87 88 90 90 90 89 89 88 88 88 89 89 88 92 70 63 61 60 60 61 75
96 92 90 89 90 89 87 87 87 90 90 90 94 98 100 102 102 101 101 99 99 94 94 93 91 91 90 90 90 91 90 90 88 87 87 87 86 86 86 86 86 87 88 87 89 90 90 89 91 89 90 88 88 88 88 91 76 62 59 59 59 64 79
90 89 89 88 87 88 88 88 89 89 90 91 91 95 98 101 100 97 95 96 97 96 93 92 92 92 90 91 92 91 91 90 89 88 87 87 86 86 87 88 88 88 88 88 88 90 91 91 90 90 90 90 89 90 89 90 78 60 59 58 57 66 80
88 88 87 86 87 87 87 85 85 87 89 90 91 94 95 96 97 95 93 94 95 94 92 92 93 93 92 92 93 92 91 91 90 89 88 87 87 88 88 88 88 89 89 90 89 90 90 91 91 91 90 93 93 77 85 91 81 59 59 56 56 67 81
82 83 85 86 88 85 83 84 85 87 91 92 90 93 94 94 94 93 92 93 96 96 94 92 93 94 95 94 93 92 91 91 89 88 88 88 88 88 89 90 90 90 90 90 91 90 91 91 91 90 91 93 91 92 91 90 91 74 56 56 55 60 80
83 83 83 85 84 79 84 86 87 87 88 87 86 90 93 93 93 91 91 91 92 93 95 95 95 94 93 93 94 94 91 91 90 89 89 90 89 90 91 91 90 90 89 91 92 90 89 90 91 91 91 93 93 93 92 92 90 81 55 56 55 56 66
81 83 84 82 81 81 83 87 84 85 87 86 89 89 91 91 89 89 90 90 90 92 96 96 94 93 92 91 92 94 92 91 91 90 90 90 89 88 88 90 90 90 90 92 90 88 87 88 88 90 91 92 93 91 91 86 76 91 59 56 54 56 58
77 79 80 80 82 83 84 84 83 84 83 87 88 91 92 92 88 89 89 88 90 94 95 95 94 92 92 91 92 91 91 90 90 89 90 89 89 89 88 89 89 89 88 87 88 87 87 86 87 88 88 89 90 91 90 90 84 71 72 55 54 53 56
77 78 81 83 84 82 83 81 81 82 83 84 84 86 88 91 87 87 88 88 89 92 93 93 92 91 90 90 90 90 91 91 91 90 90 89 89 88 88 88 88 88 88 87 86 87 85 86 86 87 87 87 88 90 91 90 90 73 66 64 53 54 55
76 77 79 79 81 80 81 81 80 82 82 83 82 82 83 86 86 85 83 83 86 87 89 90 90 90 89 90 90 90 91 91 90 90 90 90 89 88 87 87 88 87 87 86 87 86 86 85 87 86 86 86 86 87 89 90 89 90 73 59 55 54 54
75 77 78 79 79 79 80 83 81 82 82 82 82 82 81 83 83 80 80 83 84 86 87 88 88 88 88 89 89 89 90 90 90 90 90 90 90 88 88 88 88 88 87 88 88 86 86 86 87 86 85 84 85 85 87 87 89 89 85 65 60 58 56
73 73 73 74 75 78 79 81 81 80 81 78 80 81 81 80 81 81 82 82 84 85 86 86 87 86 87 88 89 89 89 89 91 92 92 90 91 92 90 89 90 89 86 87 88 86 85 85 85 86 86 85 87 87 86 87 88 87 85 76 74 72 67
73 73 74 74 75 76 77 78 78 78 78 77 78 79 79 79 79 79 80 82 84 85 85 86 86 86 86 87 88 88 88 88 87 88 93 93 93 93 93 91 90 89 87 88 88 88 87 87 86 85 86 87 87 86 87 87 88 88 87 81 77 76 75
73 73 74 75 75 75 75 76 76 76 76 76 77 77 77 77 79 80 80 81 82 82 82 82 83 85 86 87 87 86 87 88 89 90 89 90 91 91 90 90 90 89 89 91 92 92 92 91 90 88 90 90 88 87 87 87 87 89 76 86 67 75 78
71 72 73 74 75 75 75 75 75 76 76 76 76 76 76 77 78 80 82 82 82 82 82 81 84 85 85 87 89 91 88 89 92 91 90 90 89 89 89 82 70 78 89 91 78 69 66 67 89 94 95 93 92 91 90 90 91 73 64 60 57 58 60
69 70 71 73 74 74 75 74 75 75 75 76 76 76 76 77 79 79 80 81 82 82 81 81 81 82 83 83 84 83 85 87 89 88 86 88 90 89 89 91 88 62 59 64 69 66 59 53 55 58 62 77 88 86 71 68 67 62 58 56 54 54 55
71 71 72 72 71 71 71 72 73 73 74 75 76 76 76 76 78 79 81 81 81 82 81 81 80 79 80 81 80 79 81 83 83 83 83 82 82 81 80 81 82 84 68 58 56 55 52 51 51 51 52 53 57 65 80 69 59 55 53 52 53 53 53

ECMWFFLT1_sfc_temp_033.txt.gz
Temp
100 102 101 98 97 98 97 96 95 95 95 94 93 95 95 95 93 92 91 89 87 87 87 87 88 88 87 88 88 88 89 89 89 89 89 90 90 90 90 91 90 90 92 92 91 91 92 92 93 93 92 91 91 91 90 90 89 90 89 89 89 89 88
98 101 102 100 99 98 97 96 96 96 96 95 94 93 95 94 93 93 91 89 88 88 87 88 87 88 88 88 89 88 88 89 89 89 90 89 90 90 91 90 90 90 90 92 93 92 92 93 93 93 92 92 91 91 91 90 89 89 90 89 88 88 88
99 101 103 101 100 99 96 98 96 96 96 96 96 95 95 92 93 92 91 90 88 88 89 88 88 88 89 88 88 88 89 89 89 90 90 91 91 93 92 91 91 92 92 92 93 94 94 93 92 92 93 92 92 91 91 90 90 90 90 89 89 89 87
97 100 102 101 99 98 98 98 97 98 99 98 97 96 95 93 94 93 93 92 90 89 88 89 89 89 89 88 88 88 88 89 89 91 91 92 91 92 91 91 91 92 92 92 94 95 95 93 93 92 91 91 91 91 91 91 91 90 90 89 89 89 88
100 102 102 102 101 99 98 98 98 96 99 100 98 95 96 96 96 96 95 94 94 91 92 91 93 91 90 90 90 90 89 89 90 91 91 92 91 91 91 92 92 92 93 94 93 92 92 92 93 92 91 91 92 91 91 91 91 89 89 89 88 89 89
102 100 99 102 103 102 100 100 101 100 100 100 99 97 98 99 98 98 97 95 95 95 93 92 92 91 90 91 92 91 90 90 90 90 91 91 91 91 92 92 93 93 94 93 94 94 93 93 93 92 92 93 93 93 93 91 92 91 89 88 88 89 90
101 100 101 102 103 101 101 101 102 102 102 102 102 100 100 100 99 99 99 97 97 94 95 94 94 93 91 92 91 91 90 91 90 91 92 92 92 91 91 91 92 94 94 93 93 94 93 92 92 92 92 92 91 93 91 90 90 90 89 88 87 88 88
101 100 99 101 101 102 104 102 102 103 102 102 102 101 100 100 100 100 99 99 99 99 97 97 95 93 91 92 92 92 92 92 93 92 92 92 92 91 92 92 92 93 93 94 93 93 94 92 93 92 92 93 91 91 92 90 89 92 90 88 88 88 90
105 102 102 103 103 103 103 103 102 102 100 99 100 99 100 100 101 100 100 100 100 99 98 99 98 97 92 92 91 91 92 93 92 92 92 93 94 94 94 94 93 93 93 94 95 93 93 93 93 91 91 91 91 90 91 90 90 90 90 89 88 88 89
103 101 101 104 105 107 102 103 103 100 98 97 98 98 99 100 100 100 101 101 102 101 100 100 100 99 95 93 93 94 93 92 92 94 94 94 95 95 96 97 95 94 94 94 96 95 93 93 93 92 90 91 90 90 90 90 90 90 90 89 89 88 88
103 100 101 103 103 104 103 103 100 97 97 95 96 100 99 99 99 101 100 102 102 102 103 101 101 100 97 96 96 95 93 94 95 94 94 95 96 97 97 98 97 95 95 95 96 96 94 92 93 91 90 90 90 90 90 90 90 89 90 90 90 89 89
96 98 96 99 100 101 101 100 98 96 95 95 98 100 97 97 100 102 102 101 104 103 102 103 103 102 99 97 96 94 94 93 95 95 95 96 96 97 98 98 97 97 96 96 95 95 96 93 92 91 90 90 90 90 90 90 90 89 90 92 92 90 90
98 96 95 98 97 99 98 97 97 95 95 98 101 100 101 101 100 102 99 100 103 104 103 101 101 99 100 98 98 94 94 95 94 94 96 95 96 97 97 98 99 99 98 97 96 96 96 95 92 91 91 90 91 91 90 90 90 89 89 90 90 90 89
95 99 98 97 97 96 95 95 96 96 95 98 100 100 101 102 102 100 99 100 102 105 105 104 101 99 98 96 95 94 95 95 93 93 93 94 93 94 96 96 97 97 97 96 95 96 95 96 93 92 92 91 91 91 91 90 90 89 89 89 90 90 90
100 102 99 99 95 94 94 94 94 94 96 96 99 99 100 100 101 99 99 101 101 105 105 102 100 99 99 96 94 93 93 93 94 93 93 93 93 93 94 94 94 95 95 94 94 95 95 96 96 92 91 92 91 91 92 91 90 90 90 89 89 90 90
101 103 102 99 97 96 94 94 94 93 94 94 96 97 100 99 98 100 101 101 103 101 104 102 100 97 98 97 95 94 93 92 92 92 92 92 91 91 92 93 93 94 93 94 94 93 93 94 94 95 93 91 91 91 91 91 91 82 73 77 89 89 90
99 100 102 101 94 97 96 96 95 94 93 93 94 96 97 98 98 100 103 103 104 101 103 105 99 98 98 95 95 94 93 91 91 91 90 90 91 91 91 91 93 92 92 93 93 93 91 92 94 95 94 93 92 92 91 92 91 72 69 70 74 86 89
96 97 99 101 102 101 97 97 96 94 94 97 97 96 97 96 99 100 101 103 103 104 104 103 101 100 95 97 94 93 92 92 91 90 90 90 90 90 90 91 91 91 91 92 93 92 93 92 92 92 94 93 93 93 92 93 77 68 68 69 69 75 89
96 98 99 99 99 99 102 103 100 97 99 100 99 99 100 99 100 98 99 99 101 102 103 103 103 99 95 96 94 92 92 91 90 90 90 89 90 90 90 89 90 90 91 91 92 93 90 90 91 91 92 93 91 93 93 94 75 67 66 68 68 69 79
98 99 99 100 100 101 100 100 100 101 103 101 102 106 103 101 101 100 101 102 101 101 99 98 99 98 95 94 93 92 91 91 90 90 89 90 89 90 89 89 89 90 91 92 91 90 90 91 90 90 90 91 91 90 93 94 74 65 65 66 66 67 73
96 96 97 98 98 98 94 95 95 97 96 101 104 103 104 103 103 102 102 101 101 99 95 96 95 95 95 93 93 92 91 90 90 89 89 89 89 89 88 88 88 89 90 92 92 90 89 90 90 90 90 92 92 92 93 96 71 63 63 64 64 65 70
99 100 99 98 94 93 92 94 93 96 96 96 99 104 105 105 106 105 103 104 101 100 97 96 94 95 95 93 93 93 92 91 90 89 89 89 88 88 88 88 88 88 89 91 93 92 92 91 92 91 90 91 91 91 91 95 69 62 63 62 62 64 77
102 100 97 96 97 94 92 93 93 94 93 95 97 100 103 106 108 106 104 103 102 97 98 96 94 94 93 93 93 94 93 92 91 89 89 89 88 88 88 88 88 89 90 90 91 93 92 91 93 91 91 90 90 90 90 94 75 60 61 61 61 66 81
98 96 96 94 93 95 94 94 92 94 94 95 95 98 100 103 104 102 99 100 101 100 97 96 95 95 94 95 94 94 93 92 91 90 89 89 88 88 89 90 90 90 90 90 91 93 94 93 92 92 92 92 91 92 91 93 78 58 59 59 59 68 82
94 93 93 93 93 93 92 89 89 91 93 93 95 96 97 97 98 100 98 98 99 98 96 96 96 96 95 95 95 93 93 93 92 91 90 89 89 90 90 90 90 91 91 92 92 92 93 93 92 93 92 95 94 79 88 93 82 58 60 57 58 68 83
88 89 90 92 95 91 88 88 89 90 93 96 93 95 96 97 96 96 97 97 100 100 98 96 96 97 97 97 96 94 93 93 91 90 90 90 90 90 91 92 92 92 92 92 93 92 94 94 93 93 93 94 94 94 93 92 93 74 57 57 57 60 81
89 89 89 91 90 86 89 91 91 90 92 91 90 92 94 95 95 94 95 96 95 96 99 99 98 96 96 95 97 96 94 93 93 91 91 92 91 93 93 93 92 92 91 93 94 93 91 92 93 93 93 95 94 95 94 95 93 83 56 57 56 57 67
87 88 91 89 87 86 88 92 89 90 91 90 92 93 94 93 92 92 93 94 94 96 100 99 97 96 95 94 95 96 95 94 93 93 92 92 92 90 91 92 92 92 93 94 92 90 89 90 90 92 92 93 95 93 93 89 78 93 59 57 54 56 58
82 84 85 86 88 89 89 88 87 88 88 91 92 93 94 96 91 91 92 92 93 97 98 99 98 96 95 94 95 94 95 94 93 92 93 92 92 91 90 91 91 91 90 90 90 89 89 88 89 89 90 91 92 93 92 92 86 73 75 56 55 54 56
83 83 85 89 90 87 88 86 85 86 87 88 88 89 90 92 91 90 90 91 94 95 96 96 97 95 94 93 93 93 94 95 94 92 92 92 92 91 90 90 90 90 90 89 89 89 88 89 89 89 89 90 91 93 94 93 94 75 68 65 54 55 55
81 82 84 84 86 85 86 87 84 86 86 87 86 86 87 90 91 90 89 88 90 91 93 95 95 94 93 93 93 92 94 94 93 93 92 92 92 90 90 90 90 89 89 89 89 88 88 88 89 88 88 89 89 91 92 93 92 94 75 61 56 55 54
81 82 83 84 83 83 84 88 86 86 85 86 87 86 86 87 89 86 85 88 88 89 90 91 92 91 91 92 92 92 93 93 94 93 93 93 93 91 90 90 91 90 90 90 90 88 87 87 88 89 88 87 89 90 92 92 93 92 90 68 61 58 56
78 79 80 79 81 81 83 84 85 84 84 83 84 86 86 85 86 86 86 86 89 89 89 89 90 89 90 90 91 92 92 92 94 94 94 93 94 94 93 92 92 91 89 90 90 88 88 87 88 89 89 88 89 90 89 91 92 92 93 87 77 74 68
77 78 79 80 81 81 82 82 82 82 82 81 81 82 83 84 84 84 86 88 90 90 89 88 89 89 89 90 91 91 91 90 91 92 96 95 95 95 95 93 93 92 89 90 89 89 89 90 89 88 89 89 90 88 88 89 91 92 92 95 86 81 78
76 77 77 78 79 79 80 81 81 81 80 79 81 81 82 83 84 85 85 85 86 87 88 88 88 89 89 90 91 91 91 92 92 92 92 94 92 93 93 93 94 91 91 93 95 95 96 94 92 90 91 91 88 88 88 89 90 94 79 91 75 80 84
76 77 77 79 80 80 79 79 80 80 79 79 80 81 82 82 83 84 86 86 86 86 86 86 88 90 90 91 92 95 92 92 96 94 92 93 92 92 92 83 70 83 92 94 76 62 55 60 82 83 85 88 89 90 90 90 89 59 51 51 52 55 60
74 74 75 77 77 77 78 78 79 79 78 79 80 80 80 81 83 84 85 86 87 87 86 87 86 88 89 90 87 84 89 94 96 94 92 92 94 94 92 95 90 58 55 65 65 60 55 52 51 52 57 71 81 79 67 62 57 54 53 53 55 54 50
75 75 75 76 76 75 76 75 76 77 77 79 80 80 81 81 82 83 85 85 85 85 85 86 85 84 84 84 84 83 85 87 85 87 88 88 87 86 85 85 85 87 65 54 58 56 53 56 55 53 53 52 55 65 80 69 58 50 48 48 47 48 48

ECMWFFLT1_sfc_temp_036.txt.gz
Temp
98 94 94 95 94 93 92 91 89 90 89 89 89 91 93 91 90 88 87 85 84 84 85 85 85 85 85 85 85 85 86 86 85 85 85 85 86 86 86 87 87 86 87 87 87 86 87 88 88 88 88 87 87 87 87 87 87 87 86 86 86 85 85
96 96 93 95 94 93 92 91 90 91 92 92 91 91 93 91 90 89 87 86 85 84 85 85 85 85 85 85 85 85 85 86 86 85 86 85 85 86 87 87 86 86 86 87 87 87 88 89 89 88 88 87 87 87 88 87 86 86 86 86 85 84 85
96 98 94 93 93 93 90 92 91 92 92 94 93 93 92 90 90 88 87 86 85 85 85 85 85 85 85 85 85 85 86 86 86 86 86 87 87 89 88 87 87 88 88 89 88 89 90 89 88 88 88 88 89 87 87 87 86 87 86 85 85 85 84
95 98 98 94 92 91 91 92 91 91 92 94 95 94 93 90 91 90 89 88 86 85 84 86 86 86 86 85 85 85 85 86 86 87 88 88 88 88 87 87 87 89 88 88 90 91 91 89 89 88 88 87 87 88 88 87 88 86 86 85 85 85 84
96 98 99 94 95 92 92 91 91 91 94 94 95 93 94 93 93 92 91 89 89 86 87 87 89 88 86 87 87 87 86 86 86 88 88 88 88 87 87 89 89 89 89 90 89 88 88 88 89 88 88 87 88 87 87 87 87 86 86 86 84 85 85
96 96 97 94 95 95 95 96 96 95 94 95 95 95 96 96 96 95 93 90 89 89 88 88 88 87 86 88 88 87 87 86 86 86 87 87 87 88 88 88 89 89 91 89 90 90 89 89 89 89 89 90 90 89 89 88 88 88 86 86 85 85 86
96 97 97 95 96 95 97 97 99 98 98 99 98 97 97 97 96 96 95 92 91 89 89 89 89 89 87 88 87 87 86 87 87 88 89 89 89 88 88 88 88 90 90 89 89 90 90 89 89 89 89 89 88 89 87 86 87 87 86 85 84 84 85
96 96 97 99 100 101 100 99 98 98 98 99 100 98 97 97 97 97 95 94 93 92 91 91 90 88 87 88 88 88 88 88 89 88 88 89 89 88 89 89 89 89 89 90 89 90 91 89 90 90 89 90 88 87 88 87 86 88 86 85 84 85 86
98 97 99 102 102 103 102 99 98 98 95 95 96 97 97 97 97 96 96 95 94 93 92 93 92 91 88 88 88 88 89 89 89 88 89 90 90 91 91 91 90 90 89 91 92 90 90 90 91 88 88 88 88 87 88 86 87 87 86 85 84 84 85
95 95 97 101 102 103 99 98 97 93 92 92 94 94 96 96 96 97 97 97 96 94 94 94 94 93 90 89 90 90 89 88 89 90 91 90 91 91 92 93 92 91 91 91 93 91 90 90 90 88 87 88 87 87 87 87 87 87 87 85 85 84 84
96 94 95 100 98 97 95 95 92 89 90 89 92 97 95 96 96 97 97 97 97 96 96 95 95 94 92 91 91 91 89 90 91 90 90 91 92 92 93 93 93 92 92 92 92 92 90 89 89 88 87 88 87 87 87 87 87 86 87 87 86 85 85
93 94 92 95 94 93 94 91 89 87 88 89 94 97 94 94 97 98 98 98 99 98 97 97 97 96 93 92 91 90 90 90 91 91 91 91 92 93 94 94 94 93 92 92 92 92 92 89 89 88 87 87 88 88 87 87 87 86 87 88 88 86 86
94 92 92 95 92 92 90 88 88 88 89 93 97 98 98 97 97 98 95 96 99 99 99 97 96 95 95 93 93 91 91 91 91 90 92 91 92 93 93 94 95 95 93 93 93 92 93 91 89 88 88 87 88 88 87 87 87 86 86 87 87 86 86
94 97 96 94 94 92 90 89 89 89 90 94 97 97 98 99 99 97 96 97 98 100 100 99 97 95 93 92 91 90 92 92 90 90 90 90 89 90 92 93 93 93 93 92 91 92 92 92 89 89 89 89 88 88 88 87 87 87 86 86 87 86 86
96 97 96 97 90 88 89 89 89 90 92 94 97 96 97 99 98 96 96 98 97 101 101 99 96 95 95 92 90 89 90 89 90 90 89 89 89 89 90 90 90 90 91 90 91 92 92 93 93 90 89 89 88 88 89 88 88 88 87 86 86 87 87
100 99 98 96 93 94 91 93 92 91 92 91 94 94 98 97 95 97 98 98 100 98 101 98 96 93 94 94 91 91 90 89 89 89 89 88 87 87 89 89 89 90 89 90 90 90 90 90 91 92 90 89 89 89 89 88 89 81 73 77 86 86 87
100 98 97 95 91 94 92 92 93 92 91 91 91 94 95 95 96 99 101 101 101 98 100 101 95 95 95 93 93 91 90 88 88 88 87 87 88 87 88 88 89 89 88 89 89 89 88 89 91 93 92 90 90 89 89 89 89 73 69 71 74 84 86
95 95 95 96 95 94 92 93 92 92 93 95 96 95 96 94 97 99 100 101 101 102 102 101 98 97 93 94 91 90 89 89 88 88 88 87 87 87 87 88 88 88 88 89 90 88 90 90 89 89 91 91 91 90 89 89 77 69 68 69 70 75 86
95 97 97 94 92 92 96 96 95 92 95 97 96 97 98 97 99 95 97 97 99 99 102 102 102 96 92 94 92 90 89 89 88 88 88 87 88 88 88 87 87 88 89 89 89 90 88 88 89 89 90 91 89 90 90 90 76 68 66 68 68 69 78
97 99 100 101 99 96 93 93 95 96 98 97 97 101 100 99 99 98 99 100 98 99 97 96 97 96 93 92 91 90 89 89 89 88 88 88 88 88 87 87 87 89 90 90 89 88 88 89 88 88 88 89 89 88 90 90 76 66 65 66 66 68 73
95 96 94 96 95 93 91 91 92 94 95 101 101 99 99 99 101 100 100 99 99 97 92 93 92 92 92 91 91 90 89 89 88 88 88 88 88 87 87 87 87 88 89 91 91 88 87 89 88 88 88 90 90 89 90 92 73 65 63 63 64 66 69
97 99 97 93 89 88 88 92 91 95 92 93 96 102 104 102 103 103 102 102 99 97 94 93 91 92 91 90 91 90 90 90 88 88 88 88 87 87 87 87 86 86 88 89 92 91 91 90 90 89 89 89 90 90 89 93 72 64 62 62 63 64 73
92 92 93 93 94 92 90 91 92 92 92 94 96 97 100 104 106 103 102 101 100 94 95 94 91 91 91 90 92 92 91 91 89 88 88 88 87 87 87 87 86 87 88 88 90 91 91 90 91 90 90 89 88 88 88 91 77 63 61 61 61 64 76
93 93 93 94 93 92 90 89 90 93 93 93 93 96 97 99 99 97 95 96 98 97 95 94 93 92 91 92 93 92 91 90 89 88 88 87 87 87 87 89 88 89 88 88 89 91 92 92 90 91 90 90 89 90 89 90 79 60 59 59 59 66 77
91 91 92 92 90 89 89 89 88 90 92 93 93 95 96 96 95 94 93 94 95 95 93 94 93 94 93 93 93 91 91 91 90 89 88 87 87 88 88 88 88 89 89 90 90 90 90 90 90 91 90 93 92 79 86 90 82 60 59 57 58 65 78
86 88 90 92 91 90 89 88 90 91 93 92 88 92 93 95 94 92 91 92 98 99 95 94 94 94 95 94 93 92 91 91 89 88 88 88 88 88 88 89 90 89 89 90 90 90 91 91 91 90 91 92 91 91 89 89 90 75 56 57 57 59 77
87 88 88 90 89 86 89 90 90 90 92 89 89 92 93 92 91 91 91 91 92 94 98 96 95 93 93 92 94 94 91 91 90 89 89 89 89 90 90 90 89 90 89 90 91 90 88 90 91 91 90 92 91 92 92 92 90 83 57 56 56 57 65
86 87 89 88 88 88 88 91 88 89 90 90 92 92 92 91 89 88 90 91 92 94 99 96 94 93 92 91 93 94 92 91 91 91 90 90 89 88 88 89 90 89 90 91 89 87 86 87 87 89 89 90 92 90 90 88 78 91 60 56 54 56 57
81 82 83 86 88 88 88 87 86 87 88 90 90 90 90 90 88 90 90 89 92 95 96 97 95 93 92 91 92 91 91 90 90 90 91 90 90 89 88 89 89 88 88 87 87 86 86 86 86 86 88 88 89 90 89 89 84 72 74 55 55 54 55
81 82 84 87 88 86 86 86 85 86 88 88 87 88 87 87 88 90 90 87 90 93 95 94 96 92 91 91 91 91 92 91 91 90 91 90 89 88 87 87 88 87 87 87 86 86 85 85 86 86 86 88 88 90 91 89 90 74 67 64 54 55 54
79 81 83 83 85 84 84 85 85 86 87 87 86 86 85 85 86 86 84 87 88 87 88 89 93 93 90 91 91 90 92 91 90 90 90 90 90 88 87 88 88 86 87 87 86 86 85 85 86 85 85 85 85 86 87 88 87 89 72 61 55 55 54
79 81 82 83 83 82 83 85 87 86 86 85 86 86 84 85 85 83 84 86 86 87 88 88 90 92 91 91 91 91 92 91 92 91 91 91 90 89 88 88 88 87 86 87 87 86 85 84 86 85 85 83 85 85 87 87 88 88 86 66 61 57 55
76 78 79 79 81 81 81 83 85 85 84 82 83 84 85 84 84 84 85 87 88 89 88 88 90 90 90 90 90 90 90 91 93 93 92 91 92 92 90 89 89 88 85 86 87 86 85 85 85 85 85 85 86 86 85 86 87 87 89 81 73 70 66
76 77 78 79 80 80 80 83 82 83 81 79 81 82 84 84 84 85 84 86 86 88 89 87 88 89 89 90 90 89 89 89 90 91 92 92 92 91 91 89 89 88 85 86 86 86 86 86 86 86 87 87 88 87 85 86 87 86 78 78 79 79 76
77 77 78 78 79 80 79 79 81 81 79 79 81 82 82 82 83 84 85 85 86 86 86 87 87 87 89 90 90 89 88 89 90 91 89 89 88 88 90 90 89 86 87 91 88 90 91 90 89 88 90 90 87 87 87 87 83 69 58 64 56 66 79
76 78 78 79 79 80 80 80 80 79 79 79 81 81 82 83 83 84 86 86 86 87 86 86 86 88 88 89 90 93 90 90 92 91 90 91 87 88 82 67 61 76 89 78 64 59 60 65 79 79 82 84 82 80 81 77 67 51 46 46 47 47 48
75 76 76 78 78 77 77 77 79 80 79 80 80 81 81 82 84 84 84 84 85 87 86 86 84 85 84 83 84 82 85 87 88 89 87 88 89 87 86 84 73 53 57 63 62 56 50 50 51 53 59 73 79 67 53 52 46 44 44 45 45 45 45
76 76 76 77 77 76 76 77 77 77 78 80 80 81 81 82 82 83 85 85 85 85 85 85 82 80 81 82 81 80 82 84 82 83 85 84 84 83 84 84 80 76 57 51 54 51 48 48 48 49 50 54 61 71 71 56 47 45 45 45 45 44 45

ECMWFFLT1_sfc_temp_042.txt.gz
Temp
85 84 83 84 83 83 83 83 84 83 83 83 82 82 83 83 82 81 81 80 79 79 79 79 79 79 79 79 80 80 80 80 79 79 79 78 79 79 79 79 79 78 78 78 78 78 79 80 80 80 80 80 79 79 79 79 78 79 78 78 78 77 77
84 84 84 84 83 83 83 84 84 84 84 84 83 82 83 82 82 81 81 80 80 80 79 80 79 79 80 80 80 80 79 79 80 80 79 78 78 79 80 79 79 78 78 79 79 79 79 80 80 79 79 80 80 79 79 79 79 79 78 78 77 77 77
84 84 84 84 83 83 82 83 84 84 84 85 84 83 83 82 82 81 81 80 80 80 80 80 80 80 80 80 79 79 79 80 79 79 79 79 79 79 79 79 79 79 79 79 79 79 80 80 80 80 80 79 80 79 79 79 79 79 79 78 78 77 77
83 84 84 84 84 84 84 84 84 85 85 85 85 85 84 83 83 83 82 81 80 80 79 80 80 80 80 79 79 79 79 79 80 80 80 80 80 80 79 79 79 80 78 79 80 80 81 80 80 80 81 79 79 80 80 79 80 79 79 78 78 78 77
84 85 85 84 83 83 83 84 84 85 85 86 86 85 85 84 84 83 83 83 82 81 81 81 82 81 81 81 80 80 80 80 80 80 80 81 80 80 79 79 79 80 80 80 80 80 80 80 80 80 80 79 79 79 79 79 80 79 79 79 78 78 77
83 83 84 84 84 84 84 84 85 86 85 85 86 85 86 85 85 84 84 83 82 83 82 81 81 81 80 81 81 80 80 80 80 80 80 80 80 80 80 80 80 80 80 80 80 80 80 80 80 80 80 80 80 80 80 79 80 80 79 79 79 78 77
84 84 84 85 85 84 84 85 86 86 86 87 87 87 87 86 85 85 85 83 83 81 81 81 82 82 81 81 80 80 79 80 80 80 80 80 80 80 80 80 80 81 82 81 80 80 80 80 80 80 80 80 80 80 79 79 79 80 79 78 78 78 78
85 84 85 85 85 85 85 85 86 86 86 86 86 86 86 86 86 85 84 84 83 83 82 82 82 81 81 81 81 80 80 80 80 80 80 80 80 80 80 80 80 80 81 81 81 81 81 80 81 81 81 81 80 80 80 79 79 80 79 78 78 78 79
86 86 86 86 86 86 86 85 85 86 85 85 85 85 85 86 86 85 85 84 84 83 83 83 83 83 82 81 80 80 81 81 80 80 80 80 80 80 81 81 81 80 80 81 82 82 82 82 82 81 80 80 80 80 80 79 80 80 79 79 78 78 78
85 84 85 87 87 87 86 86 85 85 83 83 83 83 84 85 86 86 86 85 84 83 83 84 84 83 82 81 81 81 81 80 80 80 80 80 81 81 81 82 82 81 81 81 82 81 82 82 82 81 80 80 80 80 80 80 80 80 80 79 79 78 78
85 84 85 85 85 85 85 85 84 83 83 82 83 84 84 85 85 86 86 86 85 84 85 84 84 84 83 82 81 81 80 80 81 80 80 80 81 81 82 82 82 82 82 82 81 82 82 81 81 81 80 80 80 80 80 80 80 80 80 80 80 79 79
84 84 83 84 84 84 83 83 83 82 82 82 83 84 83 84 86 87 87 86 87 85 85 85 85 84 83 83 81 81 80 80 81 81 81 81 81 82 82 83 82 82 82 82 82 82 82 81 81 81 80 81 81 81 81 80 80 80 80 81 80 80 80
84 83 83 84 84 84 83 81 81 81 82 83 84 85 85 85 86 87 86 86 87 87 86 85 85 84 83 83 82 81 81 81 81 81 81 81 81 82 82 83 83 83 83 83 83 82 82 82 81 81 81 81 81 81 81 81 81 80 80 80 80 80 79
84 83 84 85 84 82 81 81 81 81 82 83 84 85 85 86 87 87 86 86 87 87 86 86 85 84 83 83 82 81 81 81 81 81 81 81 81 81 82 82 82 83 83 82 82 82 82 82 81 82 82 82 81 82 82 81 81 80 80 80 80 80 80
83 83 84 84 83 82 82 81 80 81 82 83 84 84 85 86 86 87 87 88 87 88 87 87 85 84 83 82 81 81 81 81 82 82 81 81 81 81 81 81 82 82 82 82 82 82 83 83 83 82 81 82 82 81 82 81 81 81 81 80 80 81 80
84 84 84 84 83 83 82 82 81 81 81 82 83 84 85 85 85 87 87 88 88 88 88 87 85 84 83 83 82 82 82 81 81 81 81 81 80 80 81 81 81 81 81 81 82 82 82 82 82 83 82 81 81 82 81 81 82 77 70 73 81 80 81
84 84 84 84 83 83 81 81 81 81 80 81 83 84 85 85 86 88 89 89 89 88 88 87 85 84 83 83 83 83 82 81 81 81 80 80 80 80 80 80 81 81 81 81 81 81 81 82 82 83 83 82 82 81 81 82 82 71 68 68 70 79 81
83 83 84 84 83 83 81 81 80 81 81 83 84 85 86 85 86 87 88 89 89 89 89 88 86 85 83 84 83 83 82 81 81 80 80 80 80 80 80 80 80 80 80 81 81 81 82 82 82 82 83 82 82 82 82 82 74 69 67 67 66 70 81
81 81 82 82 82 81 83 83 82 82 84 85 86 86 87 87 87 86 88 88 89 90 90 88 87 85 84 84 84 83 82 82 81 81 81 80 80 80 80 80 80 80 80 81 81 82 80 81 81 81 82 82 82 82 83 83 73 68 66 66 66 66 72
77 77 78 78 78 79 77 77 78 81 84 85 86 88 89 88 88 88 90 90 90 89 89 88 88 86 84 84 83 83 83 82 82 81 81 81 81 81 80 80 80 80 81 82 81 81 81 81 81 81 81 82 82 82 83 82 73 67 65 64 64 65 68
74 75 75 76 76 77 77 77 78 79 80 82 84 83 84 86 88 88 90 90 89 88 87 87 87 86 85 84 84 83 83 82 82 81 81 81 81 80 80 80 80 80 81 82 82 81 81 81 81 81 81 82 83 82 82 84 72 66 63 62 62 63 65
76 76 75 75 75 75 76 78 79 80 78 79 82 83 84 85 87 89 89 91 89 88 87 87 86 86 85 84 84 84 83 83 82 81 81 81 81 80 80 80 80 80 81 82 83 83 83 82 82 82 81 82 82 82 82 85 70 64 63 62 61 62 70
78 77 77 77 77 76 76 77 78 79 79 79 81 82 82 83 86 88 89 89 89 87 87 86 86 86 84 84 85 85 84 84 83 82 81 81 81 80 80 80 80 81 82 81 82 82 82 82 83 83 82 82 82 81 82 83 73 63 61 60 60 62 72
79 78 78 78 78 79 78 78 79 79 80 79 79 79 80 81 80 78 79 82 85 86 86 85 85 86 85 84 85 85 85 84 84 82 82 82 81 81 81 82 82 82 82 82 82 82 83 84 83 83 83 83 82 82 82 83 75 61 59 58 59 64 74
77 77 77 77 77 77 77 77 78 79 79 78 78 78 79 79 78 78 77 77 77 78 82 84 85 85 85 84 85 85 85 85 84 84 83 82 82 82 82 82 82 83 83 83 83 83 84 83 83 84 84 84 83 78 81 83 76 58 59 57 58 64 75
74 75 76 77 78 77 76 77 77 77 77 76 76 78 78 78 77 78 77 76 77 78 79 80 82 84 85 85 84 85 85 85 84 84 84 83 83 83 83 83 83 83 83 83 84 83 84 84 83 83 84 84 83 83 82 82 82 67 57 57 57 59 74
75 75 75 76 76 77 75 76 76 75 76 75 76 77 77 76 77 75 75 75 74 75 77 78 79 80 81 82 84 85 84 85 84 84 84 84 84 85 84 84 83 83 82 83 84 83 82 83 84 83 83 84 84 84 83 83 82 72 55 55 56 57 63
73 74 76 76 77 76 74 75 74 75 76 76 77 77 76 76 76 76 75 74 75 76 79 78 77 78 80 80 82 84 84 84 84 85 84 84 84 83 83 83 84 83 83 84 82 81 81 81 81 82 82 83 83 82 82 81 77 79 57 56 54 55 56
69 70 71 72 72 74 75 72 73 73 74 76 76 77 76 76 75 75 74 73 75 77 77 78 78 76 79 80 81 81 82 82 83 83 83 83 84 83 82 83 83 82 82 81 81 80 80 80 80 80 80 80 78 78 79 80 78 69 66 55 54 54 54
69 70 71 73 74 73 73 71 71 72 73 74 74 75 75 74 74 75 74 73 75 76 77 77 77 75 77 79 80 80 81 82 82 83 83 83 83 83 82 81 82 81 81 81 80 80 79 79 79 79 79 79 77 77 76 78 79 69 65 63 54 54 54
68 69 70 70 71 72 73 72 71 72 73 73 73 73 73 73 73 74 73 74 75 75 76 77 77 75 76 78 78 78 80 80 81 82 82 82 83 81 81 81 81 80 79 79 79 79 78 78 77 77 78 77 77 76 75 77 77 78 68 61 57 55 54
68 68 70 71 70 71 72 73 73 73 72 72 73 73 73 73 72 72 73 74 75 76 76 76 76 77 76 76 77 77 79 79 80 81 81 81 82 82 81 81 80 80 78 79 79 78 78 77 76 76 76 75 76 76 77 77 76 79 75 66 61 57 54
67 67 67 68 70 71 70 72 72 71 71 71 71 71 72 72 72 72 73 75 75 76 76 76 77 77 76 76 76 77 79 79 79 79 80 80 81 81 81 81 81 79 77 78 79 78 77 76 75 75 74 75 75 76 76 78 74 70 68 67 66 66 64
66 67 68 68 70 70 70 70 69 70 70 70 70 70 71 72 72 72 73 74 75 75 75 76 78 76 75 76 77 78 78 79 83 81 79 80 81 81 81 80 80 79 77 78 78 77 77 77 76 75 76 76 76 76 76 73 69 69 70 68 67 65 65
66 66 67 68 69 70 69 69 69 68 69 70 69 70 70 71 71 72 72 73 74 73 73 75 76 75 73 74 77 78 79 79 81 79 79 76 66 58 57 61 68 74 76 72 71 77 82 78 78 77 78 78 76 77 72 70 69 69 57 58 57 65 67
65 66 67 68 68 68 69 70 69 69 69 69 69 70 70 70 71 72 73 73 73 73 72 73 73 73 73 73 74 76 77 79 80 79 78 73 69 67 63 57 48 52 66 67 62 52 56 68 75 77 74 68 62 65 74 74 69 51 46 46 43 43 44
65 66 67 67 67 67 68 68 70 70 69 69 69 69 69 70 71 71 72 73 73 73 72 71 71 72 71 72 72 72 75 76 77 77 76 74 72 69 67 65 61 48 47 53 54 51 47 47 51 56 61 67 64 56 50 51 46 45 45 43 44 44 44
65 66 66 67 66 66 67 67 68 68 68 69 69 69 69 69 70 71 72 73 74 73 72 72 71 70 70 72 71 72 73 73 75 75 73 72 71 70 68 67 65 63 51 46 49 49 47 46 47 48 51 54 58 61 59 50 45 44 44 44 44 43 43

ECMWFFLT1_sfc_temp_045.txt.gz
Temp
83 82 81 82 81 82 82 82 82 82 82 81 81 81 81 81 81 80 79 79 78 78 78 78 78 78 78 78 79 79 79 79 78 78 77 77 77 77 76 76 76 76 76 75 76 76 77 77 77 77 77 77 77 77 77 77 77 77 76 76 76 75 75
81 82 82 82 82 81 82 82 82 82 82 82 81 81 82 81 80 80 79 79 79 78 78 78 78 78 78 78 79 79 78 78 78 78 78 77 77 77 77 77 76 76 76 76 76 76 76 77 77 77 77 77 77 77 77 77 77 76 76 76 75 75 75
81 82 82 82 82 81 81 82 82 83 82 83 82 82 81 81 81 80 80 79 78 79 79 78 78 78 79 79 78 78 78 78 78 78 77 77 77 77 77 77 77 77 77 77 76 76 77 77 77 77 77 77 77 77 77 77 77 77 76 76 76 76 75
81 82 82 82 82 83 83 83 82 83 84 83 83 82 82 81 82 81 81 80 79 79 78 78 79 79 79 78 78 78 78 78 78 78 78 78 77 78 77 77 77 77 75 76 77 78 78 77 77 77 78 77 77 77 77 77 77 77 77 76 76 76 76
82 83 83 82 82 82 82 82 82 83 83 84 84 83 83 82 82 82 81 81 81 79 80 79 80 80 79 79 79 79 78 78 78 79 79 79 78 78 77 77 77 77 77 77 77 77 76 76 77 77 77 77 77 77 77 77 77 77 77 76 76 76 75
82 81 82 82 82 82 83 83 84 84 84 84 83 83 83 83 83 82 82 81 81 81 81 80 79 79 79 79 79 79 79 78 78 78 78 78 78 77 77 77 77 77 77 77 78 77 77 77 77 77 77 77 77 77 77 77 77 77 77 76 76 76 75
82 82 82 82 83 83 83 83 84 84 85 85 85 84 84 83 83 83 83 81 81 80 80 80 80 80 79 79 79 79 78 78 78 78 79 78 78 78 78 78 78 78 79 77 77 77 77 77 77 77 77 77 77 77 77 77 77 77 77 76 76 76 76
83 83 83 83 84 84 84 84 84 85 85 85 84 83 83 84 83 83 82 82 82 82 81 80 80 79 79 79 79 79 78 79 79 79 78 78 78 78 78 78 78 78 78 77 77 77 78 78 78 78 78 77 77 77 77 77 77 77 77 76 76 76 77
84 84 84 84 84 85 84 84 84 84 83 83 83 83 83 83 83 83 82 82 82 81 81 82 81 81 80 79 79 78 79 79 79 78 78 78 78 78 79 78 78 78 78 78 78 78 78 78 78 78 77 77 77 77 77 77 77 77 77 76 76 76 76
83 83 83 85 85 85 85 84 83 83 82 82 82 82 82 83 83 83 83 83 82 81 82 82 82 82 80 79 79 79 79 78 79 79 79 78 79 79 79 80 79 78 78 79 79 78 78 79 79 78 77 77 77 77 77 77 77 77 77 77 77 76 76
83 82 83 83 83 83 83 83 82 81 81 81 81 83 83 83 83 83 83 83 83 82 83 82 83 82 81 80 79 79 79 79 79 78 78 78 79 79 80 80 80 79 79 79 79 79 78 78 78 78 77 77 77 77 77 77 77 77 77 77 78 77 77
81 81 81 82 82 82 81 81 81 81 81 81 82 83 82 82 83 84 84 83 84 83 83 83 83 82 81 81 79 79 78 79 79 79 79 79 79 79 80 80 80 80 79 79 79 79 79 78 78 78 77 78 78 78 78 78 77 77 77 78 78 77 77
81 80 81 81 81 82 81 80 80 80 80 82 83 83 83 83 84 84 83 83 84 84 83 83 83 82 81 81 80 79 79 79 79 79 79 79 79 80 80 80 81 81 80 80 80 79 79 79 78 79 79 78 78 78 78 78 78 78 77 78 78 77 77
81 80 81 81 81 80 79 80 80 80 80 81 82 83 83 84 84 84 83 83 84 84 84 84 82 82 81 80 80 79 79 79 79 79 79 79 79 79 80 80 80 80 80 80 79 79 79 79 79 79 79 79 79 79 79 78 78 78 78 78 78 78 77
79 80 80 80 79 79 79 79 79 79 80 81 82 82 82 83 83 83 83 84 84 84 84 84 82 81 81 80 79 79 79 79 80 79 79 79 79 79 79 79 79 79 79 79 79 79 80 80 80 79 78 79 79 79 79 79 79 79 79 78 77 78 77
80 80 80 80 80 80 80 80 80 79 80 80 81 81 82 82 82 83 84 84 84 84 84 84 82 81 81 80 79 80 80 79 79 79 79 78 78 78 78 79 79 79 79 79 79 79 79 79 79 80 79 79 79 79 79 79 80 75 69 71 79 78 78
79 79 80 81 80 81 81 81 80 79 79 79 80 81 82 82 83 84 85 85 85 84 85 84 82 81 81 80 80 80 80 79 79 79 78 78 78 78 78 78 78 78 78 78 78 78 78 79 79 79 80 79 79 79 79 80 80 70 66 66 68 77 78
79 79 80 80 81 81 80 80 79 79 79 80 81 81 82 82 83 83 84 85 85 86 86 84 83 81 80 81 80 80 79 79 79 78 78 78 78 78 78 78 78 78 78 78 78 78 79 78 78 79 79 80 80 79 79 80 72 68 66 65 65 68 78
79 80 80 80 80 80 80 81 80 80 81 82 82 83 84 84 83 83 84 84 85 86 85 84 83 82 80 81 81 80 79 79 79 78 78 78 78 78 78 77 77 77 77 77 78 79 77 78 78 78 79 79 79 79 80 80 71 67 65 65 64 64 70
79 80 80 80 81 81 80 80 81 81 82 82 83 85 85 85 85 85 86 86 85 85 84 84 83 82 81 81 80 80 80 79 79 78 78 78 78 78 78 77 77 78 79 79 78 78 78 78 78 78 78 79 79 79 80 80 72 66 64 63 63 63 66
71 73 74 75 75 77 76 77 77 78 79 81 83 82 83 84 85 84 85 85 85 84 83 83 82 82 81 81 81 80 80 79 79 79 79 79 78 78 78 77 78 78 78 79 79 78 77 78 78 78 78 79 79 79 79 81 70 65 63 61 61 62 63
71 73 73 74 74 74 75 76 77 79 78 80 82 82 84 84 85 85 86 87 85 84 83 83 82 82 81 81 81 81 81 80 79 79 79 79 78 78 77 78 78 77 78 79 79 80 79 79 79 79 78 79 79 79 79 81 69 65 63 61 60 61 67
73 73 73 73 75 74 75 76 77 77 78 79 81 81 83 84 86 85 85 85 85 83 83 82 81 82 81 81 81 82 81 81 80 79 79 79 78 78 78 78 78 78 79 78 79 79 79 79 79 80 79 79 79 78 79 80 72 64 61 60 60 61 70
75 75 75 75 75 76 76 76 77 78 78 77 76 76 80 83 85 83 82 82 83 83 82 82 82 82 82 82 83 83 82 82 81 80 80 79 78 78 79 79 80 79 80 79 79 79 80 80 80 80 80 80 79 80 79 80 74 63 60 59 58 63 71
73 74 74 75 76 75 75 75 76 77 77 76 75 75 76 80 83 82 81 82 82 82 82 82 83 84 83 83 84 84 83 83 82 81 80 79 79 80 79 79 79 80 80 80 80 80 81 80 80 80 81 81 81 76 78 80 76 63 60 58 57 63 73
70 71 73 74 74 75 75 76 76 75 75 74 73 75 76 77 79 79 78 79 81 83 83 84 84 85 86 85 85 84 84 84 82 82 81 80 80 81 81 81 81 80 80 80 81 80 80 81 80 80 81 81 80 81 80 80 80 73 59 57 56 58 72
71 71 71 73 73 76 74 75 75 74 73 73 73 75 76 77 76 75 75 74 74 75 77 77 77 78 80 82 84 84 84 84 83 82 82 82 81 82 82 81 81 81 80 80 81 80 79 80 80 80 80 81 81 81 81 81 80 76 58 56 56 56 62
70 71 72 73 74 74 73 73 73 73 73 73 74 74 75 75 74 73 73 73 73 73 75 75 76 76 76 79 82 84 83 83 83 83 82 83 82 80 80 81 81 81 81 81 80 78 78 79 79 79 79 80 81 80 80 81 76 81 60 57 55 55 56
66 67 68 69 70 72 73 71 71 71 71 73 73 74 74 75 74 73 72 72 72 73 74 75 74 74 74 76 79 81 82 82 82 82 82 82 83 81 80 81 80 80 80 79 78 77 77 77 77 78 78 78 79 79 79 79 77 69 70 56 55 54 54
67 68 69 71 71 71 72 70 70 70 70 71 71 72 72 73 72 73 72 70 71 72 74 74 74 74 72 74 76 78 80 81 82 82 83 83 82 82 81 80 80 79 79 79 78 77 77 77 77 77 77 77 76 76 76 77 79 70 65 65 55 55 54
66 67 68 68 69 71 71 70 69 70 69 70 70 70 70 71 72 72 70 70 71 72 72 72 74 74 73 72 74 76 78 79 80 81 82 82 82 81 80 80 79 78 78 77 77 77 76 76 76 76 76 76 76 75 74 75 76 77 69 62 59 55 54
66 67 68 69 69 70 70 70 70 70 69 68 69 70 70 69 70 69 68 70 71 71 71 72 73 75 75 72 72 74 76 77 78 79 81 81 81 81 81 81 80 79 77 77 78 77 76 76 75 76 75 75 76 73 75 74 75 76 75 67 63 59 55
65 65 66 66 68 69 68 69 69 68 68 67 67 68 69 69 69 68 69 70 71 71 71 73 74 75 73 71 72 73 75 77 77 77 78 79 79 80 80 80 80 79 77 77 77 76 76 76 75 74 74 74 74 75 74 75 74 75 72 69 68 67 65
64 65 66 66 68 68 68 67 67 67 67 66 66 67 68 68 68 68 69 70 71 71 71 73 74 72 71 71 72 73 74 75 80 78 76 77 79 78 78 78 79 78 76 77 77 76 76 76 75 74 74 74 75 75 74 73 73 71 70 68 68 69 68
64 64 65 65 67 68 67 67 67 66 66 66 66 67 67 68 68 69 69 70 70 70 70 72 73 71 71 70 71 73 75 75 76 75 72 65 59 55 54 57 62 69 73 68 67 74 80 78 76 77 76 77 76 74 73 71 72 71 60 64 62 67 68
63 64 65 65 66 66 67 68 67 66 66 66 66 67 67 68 68 69 70 70 71 70 70 71 71 70 70 70 70 73 74 76 75 73 70 68 64 61 59 54 48 50 62 64 60 53 51 63 76 78 77 71 62 63 73 75 71 50 45 45 45 46 49
63 64 64 65 65 66 66 66 68 67 66 66 66 66 67 67 67 68 69 70 71 70 70 69 69 69 69 70 70 70 74 75 74 71 70 68 67 66 65 64 59 47 45 51 51 47 45 46 54 63 66 70 64 55 48 49 45 44 44 44 45 44 45
64 62 64 65 64 64 65 65 65 65 65 65 66 66 66 67 67 67 69 70 71 71 70 70 69 68 68 68 70 71 71 73 73 71 69 67 67 66 66 65 63 61 50 45 48 48 46 45 45 46 49 53 56 57 55 47 43 43 44 43 44 44 43

ECMWFFLT1_sfc_temp_048.txt.gz
Temp
80 80 80 81 80 80 80 80 80 80 80 80 80 80 80 80 79 79 78 77 77 77 77 77 77 77 77 77 78 78 78 78 78 77 77 77 77 76 76 76 76 75 76 76 76 76 77 77 78 78 78 78 78 78 77 78 78 78 78 78 77 77 77
79 80 81 81 80 80 80 80 80 81 81 81 80 80 81 80 79 79 78 78 78 77 77 77 77 77 77 77 78 78 77 78 78 78 78 77 77 77 77 76 76 75 75 76 76 77 77 78 78 78 77 78 78 78 78 78 78 78 78 77 77 77 77
79 80 81 81 81 80 80 81 80 81 81 82 81 81 80 79 80 79 79 78 77 78 78 78 78 78 78 78 77 77 78 78 78 78 77 78 77 78 78 77 76 76 77 77 77 77 78 77 77 78 78 78 78 78 78 78 78 78 78 77 77 77 76
79 80 81 81 81 81 81 81 81 82 83 83 82 82 81 80 81 80 80 79 78 78 77 78 78 78 78 77 77 77 77 78 78 79 79 79 78 78 77 76 76 77 76 76 77 78 78 78 77 77 78 78 78 78 78 78 78 78 78 77 77 78 77
79 81 81 81 81 81 80 81 81 81 82 84 83 82 82 82 82 81 81 81 81 79 79 79 80 79 79 79 79 78 78 78 78 79 79 79 78 78 77 77 77 77 77 78 77 77 77 77 77 77 77 78 78 78 78 78 78 78 78 77 77 77 77
79 79 80 81 81 81 81 82 83 83 83 83 83 82 83 83 83 82 82 81 80 81 80 79 79 79 78 79 79 79 78 78 78 78 78 78 78 77 77 77 77 77 77 77 78 78 77 77 77 77 77 78 78 78 78 78 78 78 78 77 77 77 77
79 80 80 82 82 82 82 82 83 84 84 84 84 84 83 83 82 82 82 81 81 80 80 80 80 80 79 79 78 78 77 78 78 78 79 79 78 78 77 78 78 78 78 77 77 77 77 77 77 77 78 78 78 78 77 77 77 78 78 77 77 77 77
81 80 81 82 83 83 83 83 84 84 84 84 84 83 83 83 83 83 82 82 82 82 81 81 80 79 79 79 79 79 78 79 79 79 79 79 78 78 78 78 78 78 78 77 77 77 78 78 78 78 78 78 78 77 78 78 77 78 78 77 77 77 78
82 81 82 83 84 84 84 83 83 83 82 82 82 82 83 83 83 83 82 82 82 81 81 82 81 81 79 79 78 78 79 79 79 78 78 78 79 79 79 79 78 78 78 78 78 78 78 78 78 78 77 77 77 77 77 77 78 78 78 77 77 77 77
81 80 81 83 84 85 84 84 83 81 80 81 81 81 81 82 83 83 83 83 82 82 82 82 82 81 80 79 79 79 79 78 78 79 79 78 79 79 79 80 79 79 78 79 79 78 78 79 78 78 77 77 77 77 77 77 77 77 78 78 77 77 77
81 80 80 81 82 82 82 82 80 79 80 79 80 82 81 82 82 83 82 83 82 82 83 82 82 82 81 80 80 79 78 79 79 78 78 79 80 79 80 80 80 79 79 79 79 79 78 78 78 77 77 77 77 77 77 77 78 77 78 78 78 78 78
78 79 79 80 80 80 80 80 80 79 79 79 81 82 80 81 82 83 83 83 83 83 82 82 83 82 81 80 80 78 78 79 79 79 79 79 79 80 80 81 80 80 79 79 79 79 79 78 78 78 77 78 78 78 78 78 78 77 78 78 78 78 78
79 79 79 80 79 80 79 78 78 79 79 81 82 82 82 82 82 83 81 82 83 83 83 82 82 81 81 81 80 78 79 79 79 78 79 79 79 80 80 80 81 81 80 80 80 79 79 79 78 78 78 78 78 78 78 78 78 78 78 78 78 78 78
78 79 80 80 79 78 77 78 78 78 79 81 82 82 82 83 83 82 81 81 82 83 83 83 82 81 80 79 79 78 79 79 79 78 78 79 78 79 79 80 80 80 80 79 79 79 79 79 78 79 79 79 79 79 79 78 78 78 78 78 78 78 78
76 78 79 79 78 77 77 78 77 78 79 80 81 81 81 82 82 82 81 82 82 83 83 82 81 80 80 79 78 78 78 78 79 79 78 78 78 78 78 78 78 79 79 79 79 79 80 80 80 79 78 79 79 79 79 79 79 79 78 78 78 78 78
77 78 79 79 78 79 78 78 78 78 79 79 80 80 81 81 80 82 82 82 83 82 83 82 81 80 80 79 79 79 79 78 78 78 78 78 77 77 78 78 78 78 78 78 79 78 79 79 79 80 79 79 79 79 79 79 79 75 68 70 78 78 79
76 77 78 79 78 79 79 79 79 78 78 78 79 80 81 81 81 82 83 83 83 82 83 83 80 80 80 79 79 79 78 78 77 78 77 77 77 77 77 77 78 78 77 78 78 78 78 78 78 79 80 79 79 79 79 80 79 69 65 66 68 77 78
75 76 77 79 79 79 78 78 78 78 78 80 81 81 81 80 82 82 83 83 83 84 84 83 81 80 79 80 79 78 78 78 77 77 77 77 77 77 77 77 77 77 77 77 78 77 78 78 78 78 79 79 80 80 79 80 71 67 65 64 64 67 78
75 76 77 78 78 78 79 79 79 79 80 81 81 82 83 82 83 81 82 82 83 84 84 83 82 80 79 80 79 78 78 78 77 77 77 77 77 77 77 77 77 77 77 77 78 78 77 77 78 78 78 79 78 79 80 80 70 66 64 64 64 63 69
73 76 78 79 79 79 79 79 80 81 82 81 82 84 85 84 83 83 84 84 83 83 82 81 81 80 79 79 79 78 78 78 77 77 77 77 77 77 77 77 76 77 78 78 78 77 77 78 77 78 77 78 78 78 80 80 71 65 63 63 62 63 65
70 73 74 75 76 79 78 79 79 79 80 82 83 82 83 83 84 83 84 83 83 82 80 80 80 79 79 79 79 79 78 78 78 77 77 77 77 77 77 77 77 77 78 79 78 77 77 77 77 77 78 79 79 79 79 81 69 64 62 61 61 61 63
69 73 74 76 76 76 76 78 78 80 80 82 82 83 84 83 84 84 84 85 83 82 81 80 79 79 79 79 79 79 79 79 78 78 78 77 77 77 77 77 77 77 78 78 79 79 79 79 79 78 78 78 79 79 78 81 68 64 62 60 60 61 68
69 72 74 73 76 75 76 78 79 80 79 81 82 82 83 84 85 84 84 84 83 81 81 80 79 79 79 79 80 80 80 79 79 78 78 78 77 77 77 77 77 77 78 78 78 79 79 79 79 79 79 79 78 78 78 80 71 63 61 60 59 61 71
71 71 73 73 73 75 75 76 77 79 81 80 81 82 83 83 83 82 81 81 81 81 81 80 80 80 80 80 81 81 80 80 79 79 78 78 77 77 78 79 79 79 79 78 78 79 80 80 79 80 80 79 79 80 79 79 73 62 59 59 58 63 72
70 71 72 74 76 76 76 77 78 80 79 80 80 80 81 82 82 81 80 80 80 80 80 80 81 81 81 81 82 81 81 81 80 80 79 78 78 79 79 79 79 79 80 80 80 79 80 80 79 80 80 81 81 75 77 80 75 62 59 58 57 63 74
69 70 72 73 75 76 76 77 78 78 78 79 78 79 81 82 81 80 80 80 81 81 80 81 81 82 83 83 82 82 81 82 80 80 80 79 79 79 80 80 80 80 80 80 80 80 80 80 80 79 80 81 81 81 80 80 80 74 59 58 56 58 73
71 71 71 72 73 76 75 76 77 77 77 76 76 79 81 81 81 79 79 78 78 79 81 82 82 82 82 82 83 83 82 82 81 81 81 81 80 81 81 81 80 80 79 80 81 80 79 80 80 80 80 81 81 81 81 81 80 78 60 56 56 56 62
70 71 73 73 74 74 73 73 72 73 73 74 76 79 80 79 78 77 77 77 77 77 78 78 80 81 81 81 82 83 83 82 82 82 81 81 81 80 80 80 81 80 80 81 80 78 78 78 78 79 79 80 81 80 80 80 75 83 63 57 55 55 55
67 68 69 70 71 73 73 71 71 71 72 74 76 78 79 79 76 76 76 75 74 75 76 77 77 78 78 79 81 82 82 82 82 81 82 82 82 81 80 80 80 80 79 78 78 77 77 77 77 78 78 78 79 80 79 80 78 68 74 58 55 54 54
68 69 70 71 71 71 72 70 70 70 70 72 73 75 76 77 75 75 74 73 73 74 75 76 76 76 76 78 79 81 82 82 83 82 82 82 81 81 80 79 79 79 79 78 78 77 77 77 77 77 77 78 78 79 80 79 80 70 66 67 55 55 54
68 68 68 68 69 70 71 69 69 69 69 70 70 71 72 75 75 74 72 72 72 72 74 74 75 75 74 75 77 79 81 82 82 82 82 82 82 80 80 79 79 78 78 78 78 77 76 76 77 76 77 77 77 77 77 78 77 79 69 62 58 55 54
67 68 68 69 69 69 70 70 70 69 69 69 70 70 70 71 73 72 70 71 73 72 73 74 74 75 75 74 74 76 78 79 81 82 82 82 82 81 80 80 80 79 78 78 78 77 77 76 77 76 76 76 77 77 77 77 78 78 78 68 65 60 55
66 66 66 66 68 69 68 69 69 68 68 67 68 69 69 69 69 69 70 71 71 72 72 74 76 76 74 74 73 74 76 78 79 80 81 81 82 82 82 81 80 79 77 78 78 77 77 77 76 76 76 76 77 78 76 77 77 78 78 76 73 72 68
64 66 66 67 68 68 67 67 66 67 67 66 67 68 69 69 69 69 70 70 71 71 74 76 76 73 72 72 72 74 74 76 79 79 78 80 81 80 81 80 80 78 77 77 77 77 77 77 76 76 77 77 77 77 76 76 77 77 77 77 75 74 73
64 65 66 66 67 68 66 66 66 66 66 66 66 68 68 68 69 69 70 71 71 71 74 74 74 72 70 71 73 74 76 76 78 78 74 65 59 55 54 57 65 74 74 67 72 79 81 78 78 78 79 79 77 76 76 76 76 78 69 76 66 73 75
64 65 65 66 67 66 67 67 66 66 66 66 66 67 67 68 68 69 70 71 71 71 72 73 72 71 71 71 72 74 76 76 76 72 69 67 63 60 57 53 47 51 67 69 61 54 59 66 78 81 81 79 71 70 77 79 76 55 54 54 55 56 58
63 64 65 65 66 66 66 66 67 66 66 65 66 67 67 67 68 69 70 70 71 71 70 71 70 70 70 71 72 73 75 74 73 71 69 68 69 69 67 66 60 47 44 49 51 47 44 48 54 60 64 74 68 55 46 48 45 45 44 44 44 45 46
65 65 65 65 65 65 66 65 65 65 65 65 66 66 67 67 67 68 70 70 71 71 71 71 70 69 70 70 72 73 74 72 71 70 69 69 69 68 68 68 66 62 49 44 46 46 43 42 42 47 53 56 58 57 56 47 43 43 44 44 44 45 44

ECMWFFLT1_sfc_temp_051.txt.gz
Temp
88 87 86 86 85 85 85 84 85 85 84 84 84 85 85 85 84 84 83 82 81 81 81 81 81 82 81 82 82 82 83 83 83 83 83 83 84 83 83 84 84 83 85 85 85 85 85 85 85 85 85 85 85 85 84 84 84 85 84 84 84 84 84
87 87 87 87 86 86 86 85 85 85 85 85 85 84 86 85 84 84 83 82 82 81 81 82 81 81 82 82 82 82 82 82 83 83 83 83 83 84 84 84 84 83 84 85 86 85 85 86 86 85 85 85 85 85 85 84 84 84 85 84 84 84 84
88 88 88 87 87 87 85 86 85 86 86 86 86 86 85 84 84 83 83 83 82 82 83 82 82 82 82 82 82 82 82 83 83 83 83 84 84 86 85 84 84 85 85 85 85 86 86 86 85 85 85 85 86 85 85 85 84 84 85 84 84 85 83
87 88 88 88 87 87 87 87 86 87 88 88 87 87 86 84 85 85 85 84 83 82 81 83 83 83 83 82 82 82 82 83 83 84 85 85 85 85 84 84 84 85 85 85 86 86 87 86 85 85 84 85 85 86 85 85 86 85 85 84 84 85 84
87 89 89 87 88 87 87 87 87 86 88 89 88 87 87 86 87 87 86 86 87 84 85 85 86 85 84 84 84 84 83 83 83 84 85 85 85 85 84 85 85 85 85 86 85 84 84 84 86 85 85 84 85 85 85 85 85 84 84 84 84 84 85
88 87 87 88 88 88 88 88 89 89 89 89 89 88 88 89 89 88 88 86 86 87 86 85 85 84 83 85 85 84 84 83 83 83 84 85 84 84 85 85 85 85 86 85 86 86 85 85 85 85 85 86 86 86 87 86 86 86 85 84 84 85 86
88 87 87 88 89 89 89 89 90 91 91 91 91 90 90 90 89 89 89 88 88 86 86 86 86 86 84 85 84 84 83 84 84 84 85 85 85 84 84 85 85 86 86 86 85 86 86 85 85 85 85 86 85 86 85 84 85 85 85 84 83 83 83
88 87 88 89 90 91 91 90 90 91 91 91 91 90 90 90 90 90 89 89 89 89 88 88 87 85 84 85 85 84 84 85 85 85 85 85 85 84 85 85 85 85 85 85 85 86 86 85 86 85 85 86 85 85 85 84 84 86 85 84 83 84 85
90 88 89 90 90 92 91 90 90 90 89 89 89 88 89 90 90 90 89 90 89 89 88 89 89 87 85 84 84 84 85 85 85 85 85 85 86 87 87 86 85 86 85 86 87 86 86 86 87 85 84 85 84 84 84 84 84 85 85 84 84 83 85
88 87 87 90 91 92 91 91 90 88 87 87 87 87 88 89 89 90 90 90 90 89 89 90 90 89 86 85 85 86 85 84 85 86 86 86 87 87 88 88 87 86 86 86 88 86 85 86 86 85 84 84 83 84 84 84 84 85 85 84 84 84 83
88 86 86 88 89 89 89 89 87 85 85 84 85 88 88 88 88 90 89 90 90 90 91 90 89 89 87 87 87 86 85 85 86 86 86 87 88 88 88 89 89 87 87 87 87 87 86 85 85 84 83 84 83 83 83 84 84 84 85 85 85 85 85
85 86 84 86 87 88 88 86 86 85 84 84 87 88 86 86 88 90 89 90 91 91 90 90 90 89 88 88 87 85 85 85 86 86 86 87 88 88 89 89 89 88 87 88 87 87 87 85 85 84 83 84 84 84 84 84 84 84 84 86 87 85 85
86 84 84 86 85 87 86 85 85 85 84 87 89 89 88 88 88 89 87 88 91 91 90 89 89 87 88 88 88 85 85 86 86 85 87 86 87 88 88 89 89 89 88 88 87 87 87 87 84 84 84 84 84 85 84 84 84 84 84 84 85 85 85
82 87 87 85 85 85 84 84 84 84 84 87 88 89 89 89 89 88 87 88 89 91 91 90 88 87 86 86 86 84 86 86 85 85 85 86 85 86 87 87 88 87 87 87 86 87 87 87 85 85 85 85 85 85 85 84 84 84 84 84 84 85 85
85 86 87 87 84 83 84 84 83 84 85 86 88 88 88 89 89 88 87 88 88 91 90 88 87 86 86 85 84 84 84 85 85 85 85 85 84 84 85 85 85 85 85 85 85 86 87 88 87 86 85 86 85 85 85 85 85 85 85 84 84 85 85
84 87 89 88 86 86 84 85 84 83 84 84 86 86 88 87 87 88 87 88 89 88 90 88 86 85 85 85 84 84 84 84 84 83 83 83 82 83 84 84 84 84 84 84 85 85 85 86 86 87 86 85 85 85 85 85 86 79 71 74 84 85 85
81 83 87 89 86 86 85 85 85 84 83 83 85 86 87 86 87 88 90 89 89 88 89 89 85 86 86 84 85 84 84 83 83 83 82 82 82 82 83 83 83 83 83 83 84 84 83 84 85 86 87 86 86 86 85 86 85 71 66 67 69 81 85
78 79 82 85 88 88 86 86 85 84 84 86 87 87 87 85 87 89 89 89 89 90 91 89 87 86 84 86 84 83 83 83 83 82 82 82 82 82 82 83 83 82 82 83 83 83 84 84 84 84 86 86 87 87 86 87 75 67 65 66 65 69 83
76 77 80 82 84 86 89 89 87 85 87 88 88 88 89 88 89 87 88 88 89 89 90 89 89 86 84 85 84 83 83 83 82 82 82 82 82 82 82 82 82 82 83 83 83 84 82 82 83 83 84 85 84 86 87 88 73 65 64 64 64 64 73
76 78 80 83 86 88 88 88 88 88 88 87 89 91 91 90 89 88 90 90 89 89 87 87 87 86 84 84 83 83 83 82 82 82 82 82 82 82 81 81 81 83 84 84 83 82 83 83 83 83 83 84 84 84 86 87 74 64 63 63 62 63 67
75 76 77 80 84 88 87 86 87 87 87 89 91 90 90 90 91 90 90 89 89 88 85 85 85 84 84 83 83 83 83 82 82 82 82 82 82 81 81 81 81 82 83 85 84 83 82 83 83 83 83 85 85 85 86 88 70 63 62 61 60 61 65
76 77 77 80 84 85 85 88 87 88 87 89 90 91 91 90 92 91 90 91 89 88 86 85 84 84 84 83 84 83 83 83 82 82 82 82 82 81 81 81 81 81 82 83 85 85 85 84 85 84 84 84 85 85 84 88 69 62 61 60 60 60 74
77 78 79 80 85 88 87 88 88 90 88 89 91 91 91 92 92 91 91 90 90 86 87 86 83 84 83 83 84 84 84 84 83 82 82 82 81 81 82 81 81 82 83 83 84 85 85 85 86 85 85 84 84 83 84 87 74 62 60 59 58 63 78
79 80 81 83 86 88 86 88 89 89 90 89 90 91 92 92 91 89 87 88 88 87 86 85 84 85 84 84 85 85 85 84 84 82 82 82 81 82 82 83 84 83 83 83 84 85 86 86 85 86 86 86 85 86 84 86 76 60 59 58 57 65 79
79 80 82 83 85 87 88 86 88 89 89 89 90 90 90 90 90 88 86 86 87 86 85 85 85 85 85 85 86 85 85 85 84 84 83 82 83 83 83 83 83 84 85 85 85 85 86 86 86 86 86 88 87 78 83 87 79 61 60 57 57 66 80
76 78 80 83 86 88 86 85 85 87 88 88 87 89 89 90 88 87 86 86 88 87 86 86 86 87 87 87 87 86 85 85 84 84 84 83 83 84 84 85 85 85 85 85 86 86 86 86 86 85 86 88 87 87 86 86 86 76 58 58 56 59 78
76 78 79 81 82 83 85 86 87 88 89 88 86 89 90 88 88 86 85 85 85 85 87 88 88 87 87 86 87 87 86 86 85 84 84 85 84 86 86 86 85 86 85 86 87 86 85 86 86 86 86 88 88 88 88 88 87 83 57 56 55 56 63
77 79 81 80 79 81 85 88 87 88 90 86 87 89 88 87 85 84 84 85 85 86 90 88 87 87 86 86 87 88 87 86 85 86 86 85 85 84 84 85 86 86 86 87 85 83 83 83 84 85 86 87 88 87 87 85 77 89 63 56 55 55 55
74 76 77 78 79 80 83 83 85 87 87 88 90 90 89 89 84 84 84 83 84 88 89 88 88 87 86 86 86 86 86 86 85 85 86 85 85 85 84 85 85 85 84 83 83 83 82 82 82 83 84 84 85 86 86 86 83 69 79 58 55 53 53
74 76 77 79 80 79 80 78 79 80 84 88 88 88 88 87 83 83 83 83 86 88 88 88 87 86 86 85 85 86 86 87 86 85 86 86 85 85 84 84 84 84 83 83 83 83 81 82 83 83 84 84 85 88 88 86 86 73 67 70 55 55 53
70 72 74 75 78 78 79 79 78 79 80 82 83 85 86 87 84 83 83 84 85 85 86 86 86 85 85 85 86 85 87 86 86 86 86 86 86 84 84 84 84 83 83 83 83 82 82 83 84 83 84 85 85 86 86 86 85 86 73 63 61 55 54
70 71 72 73 74 75 79 80 79 79 78 78 80 81 83 85 86 82 82 82 83 85 85 85 84 84 84 85 85 86 87 86 87 87 87 87 87 85 85 85 85 84 84 84 84 83 83 83 84 84 84 83 85 84 85 85 86 85 85 72 68 62 56
68 69 70 70 71 72 74 76 78 77 77 76 77 79 80 80 81 80 80 80 82 83 84 84 84 83 84 84 85 86 86 86 88 89 88 87 88 89 87 86 86 85 83 84 84 84 84 83 83 83 84 84 85 85 84 85 85 85 86 86 83 81 75
66 68 70 71 72 72 73 74 75 75 75 74 76 78 78 79 79 79 80 81 82 83 82 81 82 83 83 84 85 85 85 85 85 86 89 89 89 89 89 87 87 86 84 84 84 85 85 85 84 83 85 84 85 85 84 84 85 86 86 87 86 85 84
66 67 68 70 71 72 71 72 73 73 74 74 75 77 78 78 80 80 79 80 82 82 82 81 80 80 81 83 84 84 84 85 87 87 87 87 81 74 71 77 85 87 86 87 89 89 90 87 85 85 87 88 86 84 84 84 84 88 75 86 74 82 88
65 67 68 70 72 72 72 72 73 73 73 73 75 76 76 77 78 78 80 79 80 82 82 81 81 81 82 82 84 86 83 84 87 87 85 81 76 70 64 53 45 53 74 84 64 55 52 58 81 84 90 89 89 83 85 86 79 58 60 61 60 59 62
64 66 67 69 70 71 71 71 72 73 73 73 74 75 75 75 77 77 78 78 79 81 82 81 81 82 84 83 84 83 82 83 84 82 79 79 77 75 72 69 60 46 43 48 50 46 42 40 43 49 55 73 84 63 48 48 44 43 44 47 49 50 50
64 66 67 69 69 69 69 69 71 71 72 73 74 74 75 75 75 75 77 78 79 80 80 81 81 81 82 83 82 79 80 79 76 76 76 76 77 76 75 73 69 62 47 43 46 46 43 42 41 41 43 45 56 67 67 50 43 43 44 44 44 44 44

ECMWFFLT1_sfc_temp_054.txt.gz
Temp
97 96 95 94 92 93 92 91 91 91 90 90 90 91 92 91 90 89 89 87 85 85 85 85 85 86 85 86 86 86 87 87 87 87 87 88 89 89 88 90 90 89 92 92 91 91 91 91 92 92 91 90 91 90 89 89 89 90 89 89 88 89 89
97 97 96 96 94 93 92 92 91 92 91 91 90 90 91 91 90 90 88 87 86 86 86 86 85 86 86 86 87 87 86 87 87 87 88 88 88 89 90 89 89 89 89 92 93 92 92 92 92 91 91 91 91 90 91 89 89 89 90 89 88 88 89
98 98 97 96 95 94 92 93 92 92 92 92 92 91 91 89 90 89 88 88 86 86 87 86 86 86 87 86 87 86 87 88 88 88 88 89 89 91 90 89 90 91 91 92 92 93 92 92 91 91 91 91 92 90 90 90 89 90 90 89 89 89 87
96 98 98 97 96 94 94 94 93 93 94 94 93 93 91 89 91 90 90 90 87 87 86 87 87 88 87 86 86 87 87 87 88 89 90 90 90 90 90 90 89 91 91 91 93 93 94 92 92 90 90 91 90 92 91 90 91 90 90 89 89 89 88
97 98 98 97 96 95 94 94 94 92 94 96 94 92 92 92 93 92 92 92 92 89 90 90 91 90 88 88 89 88 88 88 88 89 90 90 90 90 90 91 91 91 91 93 92 91 90 91 92 91 90 90 91 91 90 90 91 90 89 89 88 89 89
98 97 97 98 98 97 96 96 96 96 96 96 95 94 95 95 95 95 93 92 92 93 91 90 90 89 88 90 90 89 89 88 88 88 89 89 89 90 90 90 92 91 93 92 93 92 91 91 92 92 92 92 92 93 93 91 92 92 90 89 89 90 91
97 98 98 99 99 98 98 97 98 98 97 98 98 96 96 96 95 95 95 94 94 91 92 92 92 91 89 90 89 88 88 89 88 89 90 91 90 90 90 90 91 92 93 92 92 92 92 91 91 91 91 92 92 93 91 90 90 91 90 88 88 88 89
98 98 98 99 101 101 100 98 98 98 98 98 98 97 96 97 97 97 95 96 95 95 94 94 93 91 89 90 90 90 89 90 91 90 90 91 91 90 91 91 90 91 92 92 91 92 93 91 92 92 91 92 91 91 92 90 89 92 91 89 88 88 91
100 99 99 101 101 103 102 99 97 98 96 95 96 95 96 97 97 97 96 97 96 96 95 96 95 94 90 90 89 89 90 91 91 90 90 91 92 93 93 92 92 92 91 93 94 92 92 92 93 90 90 90 90 90 90 89 90 90 91 90 88 88 90
99 98 98 101 102 103 100 100 98 96 94 94 94 94 95 96 96 96 97 97 98 97 97 97 97 95 92 91 91 92 91 90 91 92 92 92 93 93 94 95 94 92 92 93 95 93 91 92 92 91 89 89 89 89 89 89 90 90 91 90 89 89 88
100 97 97 99 100 99 99 99 96 93 93 91 92 96 94 95 95 97 96 98 98 98 98 97 97 96 94 93 93 93 91 92 93 92 92 93 95 95 95 96 96 94 93 94 94 94 93 91 92 90 89 89 89 89 89 89 89 89 91 91 91 90 90
94 96 94 95 96 97 97 96 94 92 92 91 94 96 93 93 96 97 97 97 99 99 98 98 98 97 94 94 93 91 92 91 93 93 93 93 95 96 96 97 96 96 94 94 93 93 94 92 91 90 89 89 89 89 89 89 89 89 90 92 93 91 91
94 93 92 93 93 95 94 93 92 92 91 94 96 96 96 95 95 97 95 95 99 99 98 97 96 95 95 94 95 92 92 93 93 92 94 93 95 96 96 96 97 97 95 95 94 94 94 93 90 90 90 89 90 90 89 89 90 89 89 90 91 91 90
88 94 94 94 93 92 92 91 92 91 91 93 95 96 96 96 97 96 95 95 97 99 99 98 96 94 93 92 92 91 92 93 92 91 91 93 92 93 95 95 96 95 95 93 93 94 94 94 91 91 91 90 90 90 90 89 90 89 89 89 90 91 90
92 95 95 95 92 91 91 92 90 90 92 92 95 95 95 96 96 95 95 96 96 99 98 96 95 93 94 92 91 90 91 91 92 91 91 91 90 91 92 93 93 93 93 92 92 94 95 95 94 92 91 91 90 90 91 91 90 90 90 89 89 90 91
93 95 96 96 94 93 91 92 91 90 90 90 93 93 96 95 94 96 95 96 97 96 98 96 94 92 93 92 91 91 91 90 90 90 90 89 89 89 90 91 91 92 91 91 91 92 92 92 93 94 92 91 91 91 91 91 92 84 75 79 89 90 91
89 89 91 92 93 95 93 92 93 91 90 90 91 93 94 94 94 96 98 97 98 96 97 98 93 93 93 91 92 91 90 89 89 89 88 88 88 88 89 89 90 90 89 90 90 90 89 91 92 93 93 92 92 92 92 92 92 74 68 70 73 87 90
85 85 87 89 89 90 93 94 93 92 92 93 94 94 94 93 95 96 97 97 97 98 99 97 94 93 91 92 91 90 89 89 88 87 87 87 87 87 88 89 89 88 88 89 89 88 91 90 90 90 93 93 93 93 93 93 80 68 67 68 68 74 89
84 86 86 86 87 88 91 94 96 94 94 96 95 95 97 96 96 94 95 95 96 97 98 97 96 92 90 92 90 89 88 88 88 87 87 87 87 87 87 87 87 88 88 89 89 90 88 88 89 89 90 92 91 93 94 94 75 66 66 66 66 67 77
84 85 86 87 88 89 89 89 92 97 97 95 96 99 99 97 97 96 98 97 96 96 95 94 94 92 90 90 89 88 87 87 87 87 86 87 87 87 87 87 86 88 89 90 89 88 88 89 88 88 88 89 90 89 93 94 75 65 63 65 64 65 70
82 82 83 84 86 88 88 87 89 92 96 98 99 97 98 98 99 98 98 97 96 95 92 93 91 90 90 89 89 88 87 87 87 86 87 86 86 86 86 86 86 87 89 91 90 88 87 88 88 88 89 90 91 90 92 96 69 63 62 62 62 63 68
80 82 83 85 85 85 85 88 88 93 95 98 99 100 100 99 99 99 98 99 96 95 93 92 90 90 89 89 89 88 88 88 87 86 87 86 86 86 86 86 86 86 88 89 92 91 91 90 90 90 89 89 90 90 90 94 68 61 62 61 61 62 78
75 79 84 86 88 88 88 89 90 92 95 98 100 100 99 100 100 99 99 98 97 93 94 92 89 89 88 88 90 90 89 89 88 87 87 86 86 86 86 86 86 87 88 88 90 92 91 90 91 90 91 90 89 89 90 93 75 60 60 59 59 65 83
75 78 85 88 88 89 89 91 92 94 97 98 97 100 100 100 99 97 95 95 96 95 93 91 90 90 89 90 91 90 90 89 89 87 87 86 86 86 87 88 88 88 88 89 90 92 93 92 91 91 91 91 90 91 90 92 78 59 59 58 57 69 83
72 76 86 88 88 88 91 92 93 96 96 97 97 98 99 99 97 96 94 93 94 93 92 91 91 91 90 91 92 90 90 90 89 89 88 86 87 88 88 88 88 89 89 91 91 91 92 92 91 92 92 95 94 82 88 93 82 59 60 56 56 69 84
69 75 86 89 91 90 89 90 92 93 96 96 95 99 97 98 96 94 93 93 95 94 92 91 91 92 92 92 92 91 90 90 88 88 88 87 87 88 88 89 90 90 91 91 92 92 93 93 92 91 92 94 93 94 92 91 92 74 57 57 56 60 82
69 80 86 89 90 85 88 92 93 94 96 95 94 98 98 96 95 92 91 91 91 91 93 93 93 92 91 91 93 92 90 90 90 89 89 89 88 90 90 91 90 91 90 92 93 92 91 92 93 93 92 94 94 94 94 94 93 82 56 56 55 57 67
70 82 87 88 86 86 89 94 92 93 96 95 96 97 96 94 91 89 89 90 91 92 96 94 93 92 91 90 92 93 91 91 90 90 90 90 89 88 88 90 91 90 91 93 91 89 89 89 90 92 92 92 94 93 93 91 82 94 61 57 54 56 57
64 77 80 84 88 88 90 91 92 94 96 97 97 98 97 96 90 89 89 89 90 94 95 94 93 92 91 90 91 90 90 90 89 89 90 89 90 89 88 89 89 90 89 88 89 88 88 87 87 89 90 90 92 92 91 91 87 73 78 57 55 54 55
63 75 79 84 87 88 89 87 88 92 95 97 96 96 95 93 89 88 88 88 92 94 94 93 92 90 90 89 90 90 91 91 90 89 90 89 89 89 88 88 89 88 88 88 88 88 87 88 88 88 89 90 90 93 93 92 93 76 69 69 54 55 54
62 73 76 77 81 85 88 88 86 89 93 94 93 94 93 93 89 88 87 90 91 91 92 91 91 89 89 89 90 89 91 90 89 89 90 90 90 88 88 88 88 87 87 87 88 87 87 87 88 87 88 89 89 91 91 93 92 93 76 64 58 55 53
63 74 76 76 77 79 84 88 88 88 87 89 93 93 91 92 91 87 88 91 91 92 92 90 89 88 88 89 89 89 91 90 91 90 91 90 91 89 89 89 89 89 88 88 89 87 87 87 89 89 87 87 89 90 92 92 92 92 90 73 67 60 55
60 70 73 73 74 78 81 82 85 85 85 85 88 90 92 91 92 90 90 90 91 92 90 89 88 87 88 88 89 89 90 90 92 92 92 91 92 93 91 90 90 89 87 88 89 88 88 87 88 88 89 88 90 90 90 91 91 92 92 89 84 82 73
59 70 74 75 74 74 76 77 78 79 82 83 85 86 87 87 89 90 91 92 93 93 90 88 88 88 88 89 90 90 89 89 87 89 93 93 93 93 93 91 91 91 89 89 89 90 89 90 89 89 90 90 91 90 91 91 92 91 91 92 91 88 86
61 70 72 74 74 73 72 73 74 75 77 80 83 85 84 85 86 87 88 89 92 91 89 88 87 88 89 89 90 90 89 91 92 92 93 92 91 82 76 80 89 92 91 93 94 93 95 93 91 91 93 93 92 91 90 90 90 89 72 79 67 82 92
62 69 72 74 75 74 73 73 74 74 75 77 80 82 83 85 85 86 88 88 89 89 88 87 88 89 89 90 91 94 91 92 94 93 93 94 86 77 69 53 45 53 77 86 61 50 49 63 87 88 94 95 87 77 88 89 83 55 52 53 51 48 53
61 66 68 71 72 73 72 72 73 74 75 77 78 80 80 81 83 83 85 86 88 89 88 87 87 88 89 89 90 91 92 93 95 93 91 93 90 85 79 77 65 47 42 49 51 46 43 43 44 47 55 79 81 62 49 50 46 46 45 46 48 48 49
61 64 66 68 70 70 71 71 72 72 73 75 77 78 79 80 81 82 84 85 85 87 88 87 87 87 89 89 88 86 88 90 91 93 91 91 88 85 82 81 77 69 49 43 45 45 42 42 42 43 47 53 66 72 68 50 44 45 46 46 46 48 48

ECMWFFLT1_sfc_temp_057.txt.gz
Temp
97 98 93 88 91 91 87 88 92 95 94 93 93 94 95 95 93 92 91 89 87 87 87 88 87 88 87 88 88 89 89 89 89 89 90 90 91 90 90 92 91 91 93 93 92 92 92 93 93 93 92 91 91 91 90 90 90 91 90 90 90 90 90
98 99 93 89 90 91 93 93 93 96 94 94 93 93 95 95 93 93 91 89 88 87 87 88 87 88 88 88 89 88 88 89 89 89 90 90 90 91 92 91 91 90 91 93 93 93 93 94 93 92 92 91 91 91 91 90 90 90 90 90 89 89 90
100 100 97 95 91 91 90 94 92 95 95 95 95 94 94 92 93 92 91 90 88 88 89 88 88 88 88 88 88 88 89 89 89 90 90 91 91 94 93 91 92 93 93 94 94 95 94 93 92 92 92 91 92 91 91 91 90 90 90 89 89 89 88
99 100 101 94 94 92 93 94 95 96 97 97 96 96 95 92 94 93 93 92 89 89 87 89 89 90 89 88 88 88 88 89 90 91 92 92 92 93 92 92 91 93 93 94 96 96 97 94 93 92 91 91 91 92 92 91 91 90 90 90 90 90 89
100 101 102 99 95 93 95 93 96 95 97 99 97 95 95 95 96 95 95 94 94 90 91 91 93 92 90 90 91 90 89 90 90 91 92 93 92 92 92 93 93 93 93 95 94 93 93 92 93 92 92 91 92 92 91 91 91 90 90 90 89 90 90
100 100 100 100 97 96 96 95 95 96 99 99 98 97 98 98 98 97 96 94 94 94 92 92 91 91 90 91 92 92 91 90 90 90 91 92 91 92 92 93 94 93 95 94 95 95 95 93 93 92 93 93 94 94 93 92 92 92 90 89 89 90 92
100 100 100 100 98 97 96 95 96 99 101 101 101 99 99 99 98 98 98 96 96 93 93 93 94 93 91 91 91 91 90 91 91 91 93 93 93 92 92 92 93 94 95 94 94 95 94 93 93 92 93 93 92 94 92 90 91 91 90 89 88 89 90
100 100 100 101 100 100 99 96 97 97 96 100 101 100 99 99 99 99 98 98 97 97 95 95 94 92 91 92 92 92 92 92 92 92 92 93 93 92 93 93 93 94 94 95 94 95 95 93 95 94 93 94 92 92 93 91 90 93 92 89 89 89 92
102 101 102 102 103 101 99 97 94 97 94 94 98 98 99 99 99 99 99 99 98 97 96 97 97 95 92 92 92 92 93 93 92 92 92 94 94 95 95 95 94 95 94 96 96 95 95 94 95 93 93 93 92 91 93 91 92 92 92 90 89 89 91
101 101 101 103 103 102 100 99 98 95 94 93 97 97 98 99 98 99 99 99 99 98 98 98 98 97 94 93 94 94 93 92 93 94 95 95 95 95 96 96 96 95 95 96 97 95 94 95 94 93 91 92 92 92 92 92 92 92 92 91 90 89 89
102 99 99 102 102 101 98 101 98 95 94 94 96 100 97 98 98 100 99 100 100 99 100 99 99 98 96 95 95 95 93 94 95 94 94 95 96 96 97 98 98 96 95 96 97 97 95 93 94 92 91 92 92 91 91 92 92 91 93 93 92 91 91
99 99 98 100 100 101 102 96 95 93 94 94 98 99 96 96 99 100 100 100 101 101 100 100 101 100 96 96 96 93 94 94 95 95 95 96 97 98 98 99 99 97 96 97 96 96 97 94 94 93 91 91 92 92 91 91 91 91 92 94 94 92 92
96 97 98 100 99 100 97 92 92 93 94 98 100 100 99 99 98 100 98 98 102 101 101 99 99 98 97 97 97 94 94 95 95 94 96 95 97 98 98 98 99 99 97 97 96 96 97 96 93 93 92 91 92 92 91 91 92 90 90 92 93 92 91
93 98 98 96 94 96 99 95 93 94 95 98 99 100 100 100 100 99 98 99 100 102 102 101 99 97 96 95 94 93 95 95 95 94 94 95 94 95 98 98 98 97 97 96 95 96 97 97 94 94 94 92 92 92 92 91 92 91 90 91 92 93 92
96 99 98 98 96 96 94 97 95 95 96 97 99 98 99 100 99 98 98 99 99 103 102 100 99 97 97 94 93 92 93 93 95 94 94 94 93 94 95 95 96 96 96 94 95 96 98 98 97 94 93 93 92 92 93 93 92 92 91 90 91 92 93
93 92 95 97 96 97 96 96 96 95 95 94 97 97 100 99 97 99 99 99 101 100 102 100 98 96 96 95 94 93 93 92 92 92 93 92 91 91 93 95 94 95 94 94 95 94 94 94 95 96 94 93 92 93 94 93 94 87 79 82 91 91 94
90 91 92 92 89 92 93 95 96 96 94 94 95 96 97 98 98 100 101 101 102 100 102 102 97 97 96 94 94 94 92 92 92 92 91 91 91 91 92 93 94 93 93 93 93 93 92 94 95 96 95 94 94 93 94 95 95 77 71 73 77 89 91
89 88 89 89 90 90 92 93 96 96 95 97 97 97 98 96 99 100 100 101 101 102 104 101 99 97 94 95 94 92 91 92 91 90 90 91 90 90 91 92 93 92 92 93 93 92 94 94 94 93 96 95 95 95 95 95 82 69 70 71 71 77 91
87 88 87 86 87 90 92 92 94 94 98 99 98 98 100 100 100 98 99 99 100 101 102 102 101 96 94 95 93 92 91 90 91 90 90 90 90 90 90 90 91 91 92 93 93 93 91 91 93 93 94 95 93 94 95 96 76 67 68 69 69 69 80
85 85 86 86 87 89 90 90 91 93 94 96 100 102 102 101 101 100 101 102 100 100 99 98 98 96 94 93 92 91 91 90 90 90 89 90 90 90 89 90 90 92 93 94 92 90 91 92 91 92 91 93 93 92 95 97 74 66 65 68 66 68 73
81 82 82 83 84 86 86 87 90 91 92 96 98 99 101 101 103 102 102 102 101 100 96 97 96 94 94 93 92 91 91 90 90 89 89 89 89 89 89 89 89 91 92 94 93 90 90 91 91 91 92 94 95 94 95 100 68 65 63 64 64 66 71
79 80 81 83 83 83 84 88 90 92 92 93 96 99 103 102 104 104 102 104 102 100 98 96 94 95 93 92 92 91 91 91 90 89 89 89 88 88 88 89 88 89 91 92 95 94 93 92 93 92 92 92 93 94 92 96 62 65 62 63 63 64 80
79 79 81 82 85 85 85 87 90 93 93 94 96 97 101 105 105 104 103 102 102 98 99 97 94 94 92 92 93 93 92 91 90 89 89 88 88 88 89 88 88 89 91 91 94 94 93 92 94 92 93 92 92 92 91 95 68 62 61 62 61 67 84
78 79 80 81 82 85 85 88 92 95 95 95 96 98 99 104 104 101 99 99 101 99 98 97 95 95 92 93 94 93 92 91 91 89 89 88 88 88 89 91 91 91 91 92 93 95 95 95 93 94 94 93 92 93 93 95 74 58 60 60 59 71 85
76 77 79 80 82 83 86 87 90 93 93 92 94 98 99 101 103 101 98 97 99 98 96 96 95 95 93 93 94 93 92 92 91 90 90 88 89 90 90 90 90 91 92 94 94 94 95 94 94 95 94 97 96 85 91 96 81 57 60 58 57 72 86
72 74 76 79 83 84 83 85 90 91 92 94 93 98 99 101 101 99 97 98 100 99 97 95 95 95 95 95 94 93 92 92 90 90 90 89 89 90 90 91 92 92 92 93 94 95 97 96 95 94 95 97 96 95 94 95 92 70 58 57 56 63 85
72 73 74 78 80 77 81 88 92 93 94 94 95 99 100 100 101 98 95 96 96 96 98 98 97 95 94 93 95 95 93 92 92 91 91 91 90 92 92 93 92 93 91 94 95 95 94 96 96 96 95 97 96 97 96 96 94 77 56 56 56 58 69
70 72 76 77 75 77 82 88 92 93 95 95 98 99 100 99 96 94 94 95 95 97 99 98 96 95 94 92 94 95 94 93 92 92 92 92 91 90 90 92 93 92 93 95 93 91 91 92 93 95 95 96 97 96 96 92 85 88 58 57 55 57 60
64 67 70 72 75 78 85 88 90 93 95 99 100 101 100 101 95 94 94 93 94 99 98 97 96 94 93 92 93 93 93 92 92 91 92 92 92 91 90 91 92 91 90 90 91 90 90 90 91 92 94 93 95 95 94 94 89 74 71 57 55 55 57
64 66 70 74 76 76 86 87 88 90 92 97 98 100 98 97 94 92 93 92 95 98 98 96 95 93 92 91 92 93 93 93 93 91 92 92 91 91 90 90 91 90 90 90 90 90 89 90 90 91 93 93 94 96 96 94 95 76 68 65 54 55 56
62 64 68 70 70 74 83 86 87 90 91 95 96 97 96 97 94 92 91 93 94 94 96 94 93 92 91 92 92 92 92 92 92 92 92 92 92 90 90 90 90 89 89 89 90 90 88 89 90 89 90 91 92 93 94 94 93 90 72 62 56 55 54
61 64 67 69 69 78 83 87 90 91 91 91 97 97 95 96 96 91 91 94 94 94 95 93 92 90 90 91 92 92 93 92 93 92 93 92 92 91 91 91 91 91 89 90 90 89 89 89 90 90 89 89 91 92 94 93 93 93 85 69 63 60 56
59 62 65 65 69 76 81 84 86 87 88 87 91 96 97 95 96 94 93 92 95 95 94 92 91 89 90 90 91 91 92 91 93 93 93 93 93 94 93 92 92 91 89 90 90 90 89 89 89 89 90 90 91 92 92 93 94 94 91 82 78 75 70
58 61 64 65 69 74 77 81 82 82 83 84 86 87 91 95 94 93 93 95 96 97 93 91 90 90 90 90 91 91 91 91 88 89 94 94 94 94 94 92 93 92 89 90 90 91 91 90 89 90 91 91 92 91 91 92 93 93 93 87 85 83 80
58 61 63 63 66 72 72 76 78 80 82 82 84 86 86 88 92 93 92 92 94 93 91 90 88 89 90 91 91 91 90 92 93 93 93 92 92 85 79 84 93 94 91 94 96 96 96 93 92 92 94 95 92 91 89 91 90 93 80 89 74 84 87
59 62 62 63 64 71 71 73 76 78 80 82 84 84 84 85 87 89 93 93 93 92 89 88 89 90 91 92 93 94 93 93 95 94 94 94 86 78 70 52 44 55 83 88 61 53 52 65 89 91 97 95 92 84 90 91 91 61 55 61 62 63 67
58 59 60 62 63 69 71 72 74 77 78 80 81 82 82 82 83 85 89 90 92 92 89 89 88 90 92 91 94 93 93 95 96 94 93 94 89 86 80 79 69 48 42 50 52 47 45 44 44 52 66 85 84 68 52 59 54 50 52 52 53 53 57
59 59 60 61 62 66 71 71 72 74 75 77 77 79 80 82 83 84 87 88 90 91 89 88 88 89 91 92 93 90 90 94 93 93 93 92 88 86 83 83 79 71 50 43 46 47 43 43 43 47 57 63 69 75 75 58 50 49 49 50 50 51 52

ECMWFFLT1_sfc_temp_060.txt.gz
Temp
91 90 90 89 89 90 88 88 88 89 89 88 88 89 91 92 90 90 89 86 84 84 85 85 85 85 85 85 85 85 86 86 85 86 85 85 86 86 86 87 87 85 88 87 87 86 87 88 88 89 88 87 88 88 87 87 87 89 88 87 86 85 86
89 90 90 89 89 89 89 88 88 90 89 89 89 89 91 92 91 91 88 87 85 85 85 85 85 85 85 85 86 85 85 86 86 85 86 85 85 86 87 86 86 85 86 87 87 87 88 90 89 88 88 88 88 88 88 87 87 87 87 87 86 86 86
91 91 89 88 88 89 88 90 90 90 89 91 90 90 90 89 91 90 89 87 85 85 86 86 86 86 86 85 85 85 86 87 87 87 87 88 88 91 89 87 88 88 89 89 88 89 90 89 88 88 88 88 89 88 87 87 87 87 87 86 86 86 85
90 91 90 90 90 89 89 90 89 91 89 89 88 86 87 87 91 91 90 89 87 86 85 87 87 87 87 85 85 85 86 86 87 88 89 89 89 90 88 88 87 89 88 89 92 91 93 90 89 88 88 87 87 88 88 87 88 87 87 86 85 86 85
92 94 94 91 91 90 89 89 90 89 89 90 89 87 86 88 92 93 92 92 90 88 88 88 89 88 87 87 88 88 87 87 87 88 89 89 88 89 89 90 89 90 89 91 89 88 88 88 89 88 88 87 88 87 87 88 88 87 86 86 85 86 86
93 94 93 91 91 91 91 91 92 92 92 91 90 88 89 88 87 87 95 93 91 91 89 88 89 88 87 89 89 88 88 87 87 87 88 88 88 89 90 90 90 90 92 90 91 91 90 89 90 89 89 90 90 89 89 88 89 88 86 86 85 86 87
97 91 91 91 92 92 92 93 93 93 92 92 92 91 89 86 86 86 90 94 93 90 90 90 90 90 88 88 88 87 87 88 88 89 90 90 90 89 89 89 90 91 92 90 90 91 91 90 89 88 89 90 88 90 87 86 87 87 86 85 85 85 85
98 90 91 92 94 94 96 94 95 95 94 94 94 90 86 85 87 86 82 87 93 93 91 91 90 89 88 88 89 89 88 89 90 89 89 91 91 90 90 90 90 90 90 91 90 91 92 90 91 90 89 90 88 88 89 87 86 89 87 85 85 85 88
100 98 92 95 93 97 94 94 94 94 93 93 93 89 87 87 86 86 88 87 88 91 92 93 92 91 89 89 88 88 89 89 89 89 90 91 91 92 92 92 92 91 91 92 93 91 91 91 92 88 88 89 88 87 88 86 87 88 87 86 85 85 87
97 96 94 95 96 95 94 95 95 93 92 90 89 89 89 88 90 91 90 92 89 90 94 93 93 92 90 89 90 90 89 89 89 90 91 91 92 92 93 93 93 92 92 93 94 92 91 91 91 89 87 88 87 87 87 87 87 88 88 86 86 85 85
98 94 95 97 94 94 95 95 93 90 91 88 88 92 91 90 91 91 92 93 93 94 95 94 93 93 91 91 91 91 89 90 91 90 90 92 93 93 94 94 94 93 93 93 94 93 92 90 90 88 87 88 88 87 87 88 87 87 89 88 88 87 87
93 95 92 95 95 92 92 91 90 89 88 88 92 93 91 91 92 93 93 95 94 92 94 95 95 94 92 91 91 90 90 90 91 91 91 92 93 93 94 95 94 94 93 94 93 93 93 91 90 89 88 88 88 88 87 87 87 87 88 90 90 88 88
95 93 93 96 94 91 90 88 89 89 88 91 94 95 94 94 94 94 92 93 94 94 96 95 95 93 92 92 92 90 91 91 91 91 92 92 93 94 94 94 95 94 94 94 94 94 93 93 90 89 89 88 89 89 88 88 88 87 87 88 88 88 87
94 100 97 94 96 92 89 88 89 89 89 92 94 95 96 95 96 94 93 93 95 95 96 97 95 93 91 91 90 89 91 91 91 90 90 91 90 91 94 94 94 93 93 93 93 94 94 93 91 91 91 90 89 89 89 88 88 87 87 87 88 88 88
92 91 91 92 86 86 86 90 89 89 91 92 95 94 95 96 96 95 94 95 95 96 97 96 95 93 93 91 90 89 90 90 91 91 90 90 89 90 91 92 92 92 91 90 92 94 95 95 93 91 90 91 89 89 90 90 89 89 88 87 87 88 89
90 91 90 88 87 89 87 87 88 89 90 91 93 93 97 96 95 96 96 97 98 96 98 97 95 93 93 92 90 90 90 88 89 89 89 89 87 88 89 91 90 91 90 90 91 91 91 91 91 93 91 90 89 90 90 90 91 85 78 81 88 88 90
86 88 88 87 86 89 88 89 90 84 75 76 80 91 97 95 96 97 99 99 98 97 98 99 94 94 93 91 92 90 89 88 88 88 87 87 87 88 88 89 90 90 89 89 90 89 88 90 91 93 92 91 91 90 90 92 91 77 71 73 78 87 87
84 84 85 86 86 87 88 89 87 87 82 78 76 73 80 92 94 98 98 98 98 100 101 100 97 95 92 93 91 89 88 88 88 87 87 87 87 87 88 89 89 88 88 89 90 88 91 91 90 90 92 92 91 91 90 91 82 71 70 71 72 78 88
83 83 83 83 84 85 87 86 87 87 90 90 87 85 81 79 86 89 95 97 99 98 99 100 99 95 92 93 91 89 88 88 88 87 87 87 87 87 87 87 88 88 90 91 90 90 88 88 90 90 91 91 89 90 91 91 78 68 69 69 70 71 82
80 81 82 83 84 85 84 84 85 86 89 89 90 94 93 94 93 93 96 97 97 98 94 95 97 95 92 91 90 89 88 88 88 87 87 87 87 87 87 87 87 90 92 92 90 88 88 90 89 89 88 90 89 88 91 92 75 66 66 68 68 69 74
77 77 78 79 79 81 81 81 83 86 86 90 93 92 92 93 98 99 96 89 90 93 91 93 94 92 92 90 90 89 88 88 88 87 87 87 87 87 87 87 87 89 90 93 92 88 87 89 89 89 89 91 91 90 92 95 70 65 64 65 66 68 72
75 76 76 77 78 78 79 82 82 85 85 87 90 93 94 94 95 98 98 97 96 92 92 92 92 92 91 90 90 90 90 89 88 87 87 87 87 87 87 87 86 87 89 91 94 92 91 90 91 90 90 90 91 92 89 94 65 64 63 64 65 67 78
75 75 76 76 78 79 80 81 84 85 86 88 90 93 94 94 95 96 99 96 94 92 94 94 91 92 90 90 92 91 91 90 89 88 87 87 87 87 87 86 86 88 89 90 92 92 91 90 92 90 91 90 89 90 89 92 68 63 62 63 63 68 80
75 75 75 76 77 79 80 82 83 85 85 86 87 90 92 91 93 93 93 95 95 94 94 94 93 93 91 92 93 92 91 90 89 88 87 87 87 87 88 89 89 90 90 90 91 92 93 92 91 91 91 91 90 92 89 92 71 59 61 62 61 70 81
73 73 74 74 75 76 79 78 79 80 82 84 86 89 93 94 92 92 92 92 94 94 92 93 94 94 92 93 93 92 90 91 90 89 88 87 88 89 88 88 88 90 90 92 92 92 91 90 90 91 91 94 93 84 89 93 75 56 61 60 59 70 82
70 71 71 74 75 76 75 75 78 81 84 86 87 92 95 96 93 91 91 93 96 97 95 93 94 95 95 94 93 92 91 91 88 88 88 87 88 88 88 89 91 90 91 91 92 92 93 92 91 90 92 93 92 91 92 92 85 64 59 58 57 63 82
70 70 70 71 72 71 74 77 79 80 82 84 86 91 94 93 94 92 90 91 93 93 96 97 96 94 93 92 94 94 91 91 90 89 89 89 88 90 90 90 90 90 89 91 92 92 91 92 92 92 91 93 92 93 92 93 90 72 57 57 57 59 70
69 69 70 70 69 71 73 75 76 78 81 84 88 91 93 93 90 88 89 91 93 95 98 97 95 94 93 91 92 94 92 91 90 90 90 89 89 88 88 89 90 90 90 92 90 88 88 88 90 91 91 92 93 92 92 89 83 82 58 57 56 58 62
65 65 65 66 68 70 71 71 73 76 79 84 88 91 93 94 91 89 89 90 91 97 97 96 96 93 92 91 92 91 91 90 90 89 90 90 89 89 88 88 89 89 88 87 87 87 87 86 88 89 90 89 91 92 91 90 86 72 68 57 55 56 59
65 64 65 67 68 68 69 69 71 73 78 84 87 89 90 90 89 88 88 89 92 96 96 94 93 92 91 90 90 91 91 91 91 90 90 89 88 88 87 87 88 87 87 87 87 86 86 87 87 88 90 90 91 92 93 90 90 71 66 63 55 55 57
63 63 63 63 64 66 67 68 68 72 77 83 86 89 90 90 89 89 88 91 92 91 94 93 92 90 90 90 91 90 91 90 89 89 90 90 89 87 87 87 87 86 86 87 87 86 86 86 87 86 88 88 89 89 90 90 88 80 68 61 57 56 56
62 63 62 62 63 64 65 67 69 71 76 82 86 90 88 88 90 89 89 93 91 92 92 91 90 89 89 90 90 90 91 90 91 90 90 90 90 88 88 88 88 88 87 87 88 87 87 85 87 87 86 86 87 89 90 89 89 83 76 66 62 59 57
60 60 59 60 62 63 64 65 66 68 72 78 84 86 88 87 89 92 91 91 93 93 92 90 89 87 88 88 89 90 90 90 91 91 91 91 91 91 89 89 90 89 86 87 88 88 87 86 85 86 87 87 89 90 89 89 90 87 81 75 71 69 66
59 58 60 61 62 62 63 64 64 65 69 75 81 84 86 87 87 92 93 95 95 96 92 89 88 89 88 89 89 89 89 88 86 87 91 91 92 91 90 89 90 89 86 87 88 88 87 87 86 86 87 88 89 89 88 89 90 89 84 80 76 74 73
58 58 59 59 60 61 60 62 63 65 68 74 81 83 84 85 86 87 92 92 93 91 90 88 86 87 88 89 89 89 88 89 89 90 89 89 89 88 84 86 91 89 88 91 92 92 91 89 90 89 90 90 89 88 87 88 88 90 77 82 70 77 80
58 58 59 59 60 60 60 62 62 65 69 75 80 81 82 83 85 85 88 91 93 91 89 87 87 89 89 90 90 92 90 89 91 90 89 90 85 73 66 51 46 58 82 91 68 61 65 73 89 92 93 92 92 91 91 89 91 77 65 62 61 61 65
58 58 58 58 58 58 59 60 63 66 70 76 79 80 82 82 83 84 86 85 88 89 89 88 86 87 89 89 90 89 90 90 90 89 88 90 84 80 75 73 67 48 42 51 56 51 47 48 55 64 73 86 87 69 56 67 64 58 55 57 57 58 57
60 59 58 58 57 58 59 60 62 66 68 73 79 80 81 81 82 81 84 85 85 86 86 87 86 85 87 87 87 86 85 89 88 89 88 87 83 80 79 78 74 68 51 44 47 47 44 43 45 50 60 66 71 77 74 58 52 51 52 54 55 55 54

ECMWFFLT1_sfc_temp_063.txt.gz
Temp
82 83 84 84 84 85 85 85 85 86 86 86 86 87 87 87 86 85 83 82 81 81 81 81 81 81 81 81 81 81 82 81 80 81 80 79 81 81 79 78 79 79 79 80 80 81 81 83 83 82 82 82 81 81 82 81 82 83 80 80 81 81 81
81 83 85 85 84 85 85 86 86 86 86 86 87 87 88 87 86 85 83 83 82 82 82 82 81 81 81 81 82 81 81 81 81 81 81 79 79 80 81 80 80 78 79 80 79 80 81 82 83 82 82 82 82 81 82 81 81 81 80 80 80 78 80
83 84 85 85 85 85 85 86 86 86 87 87 87 87 88 86 86 85 84 83 82 82 82 82 82 82 82 82 81 81 81 82 81 81 81 81 80 82 82 81 81 81 81 81 81 81 83 82 82 82 82 82 83 82 81 82 81 81 80 80 80 80 78
83 85 86 86 86 86 86 86 86 87 88 88 88 88 88 86 87 86 85 84 83 82 81 82 82 82 82 81 81 81 81 81 82 82 83 83 82 82 82 81 82 82 80 81 83 84 85 83 82 82 83 82 82 82 82 82 82 81 81 80 79 80 79
86 87 86 86 85 85 86 85 86 86 88 89 88 88 88 88 88 88 86 85 85 83 84 84 85 84 83 83 83 82 82 82 82 83 83 83 83 83 82 83 82 83 83 83 83 83 83 82 82 82 82 82 82 82 81 81 82 81 80 80 80 80 79
85 85 86 86 86 86 86 86 87 87 88 88 88 87 88 89 89 89 88 86 85 85 85 84 84 83 83 83 84 83 83 82 83 83 83 83 83 83 83 83 83 84 84 84 84 84 84 84 84 82 82 83 83 83 83 82 82 82 81 80 80 81 80
85 86 86 86 86 86 86 86 87 88 89 89 89 88 88 89 89 89 89 87 86 84 84 84 85 85 83 84 83 83 82 83 83 83 84 84 84 84 84 83 84 84 85 84 84 84 84 84 84 83 83 83 83 83 82 81 81 82 81 80 79 79 80
86 86 86 86 86 87 87 87 87 88 88 89 89 88 87 89 89 89 88 88 87 86 85 85 85 85 84 84 84 84 83 84 84 84 84 84 84 84 84 84 84 85 85 84 85 85 85 84 86 85 84 84 83 83 83 82 81 82 81 80 79 80 82
88 87 87 87 87 87 88 87 87 88 87 87 87 87 87 88 88 88 88 88 87 86 86 87 86 86 85 84 84 84 84 84 84 84 84 85 85 85 85 86 86 85 85 85 86 86 86 85 86 84 84 84 83 82 82 81 82 82 81 81 80 80 81
87 86 87 88 88 89 88 88 88 87 85 85 85 85 86 87 88 88 87 87 88 87 87 87 87 87 86 85 85 85 85 84 84 85 85 85 86 86 86 87 87 86 86 86 87 86 86 85 86 84 83 83 83 82 82 82 82 82 82 81 81 80 80
87 87 87 87 87 87 87 87 86 85 85 84 85 86 86 86 87 87 87 87 87 87 87 87 88 87 87 86 85 85 85 84 85 85 85 85 87 87 87 88 88 87 87 87 87 87 86 85 85 84 83 83 83 83 82 82 82 82 82 82 82 81 81
84 88 86 87 87 87 86 86 86 85 84 84 86 86 85 85 86 87 87 87 87 87 86 87 88 88 87 86 85 85 85 85 85 85 85 86 86 87 88 88 88 88 88 88 87 87 87 86 85 84 83 84 84 83 83 82 83 82 83 83 83 82 82
82 81 81 83 87 87 86 84 85 85 84 86 87 87 86 86 86 87 86 87 87 87 87 87 88 88 87 87 86 85 85 85 85 85 86 86 87 88 88 88 89 89 88 88 89 88 87 87 85 84 84 84 84 84 83 83 83 82 82 83 83 82 81
82 82 82 80 78 79 80 81 84 84 84 86 87 87 87 87 87 87 86 87 87 88 88 88 88 88 87 86 85 85 85 86 85 85 85 86 86 87 88 88 88 88 88 88 88 88 87 87 86 85 85 85 85 85 84 83 83 82 82 83 83 82 82
80 81 81 78 76 76 76 77 76 77 82 86 88 87 86 87 87 87 88 88 88 89 88 89 88 88 88 87 85 85 85 85 86 86 85 85 85 86 86 87 87 87 87 87 87 88 88 88 87 86 85 85 85 85 85 84 84 83 83 83 82 83 82
77 78 77 76 77 76 73 73 74 75 76 75 78 80 85 85 86 88 88 88 89 89 90 89 88 87 88 87 86 86 86 85 85 85 85 85 84 84 86 87 87 87 86 86 87 87 87 87 87 87 86 85 84 85 85 84 85 81 76 78 84 83 84
73 74 75 76 75 76 74 73 72 73 74 74 74 74 75 76 77 77 79 80 83 87 91 91 88 88 88 87 87 86 85 84 84 85 83 84 84 84 85 85 86 86 85 85 86 86 86 86 87 87 87 86 85 85 85 86 86 75 70 72 76 83 82
71 71 73 74 74 74 74 74 75 72 72 74 73 73 73 74 76 78 78 77 76 73 73 77 86 89 87 88 87 85 85 85 84 84 83 83 83 84 84 85 86 85 85 85 85 85 87 86 86 86 87 87 86 85 86 86 79 70 69 70 71 76 83
69 70 71 71 72 72 72 73 75 73 74 74 76 73 74 74 76 76 76 77 77 76 76 75 73 76 82 89 87 85 85 84 84 84 83 83 83 84 84 84 84 85 85 85 86 86 85 84 84 85 86 86 85 85 86 86 76 68 68 69 69 70 79
68 69 70 70 71 72 72 70 73 76 78 75 75 77 76 78 78 81 80 78 77 78 78 77 75 75 73 74 82 86 85 84 84 84 83 83 83 83 83 84 84 85 86 86 86 85 85 86 84 84 84 86 85 84 86 86 76 67 66 67 67 68 73
66 67 67 68 68 70 70 71 74 75 76 77 78 78 78 84 81 83 83 80 79 78 77 77 77 75 74 75 78 85 85 85 84 84 83 83 83 83 83 83 84 85 86 87 86 85 84 85 85 84 84 86 86 85 86 88 72 65 65 64 65 67 70
66 67 66 67 67 68 68 71 72 73 72 72 77 77 76 82 88 88 88 85 80 80 80 79 78 79 79 79 82 86 86 86 84 84 84 83 83 83 83 83 83 83 85 86 87 86 86 86 87 86 84 85 86 86 85 88 69 65 64 64 64 66 75
67 67 67 68 69 69 70 71 71 72 73 75 77 78 79 82 86 87 89 86 85 83 82 81 80 80 80 82 85 87 87 86 85 84 84 83 83 83 83 83 83 84 85 86 86 86 85 86 87 86 86 85 85 85 85 86 71 64 62 62 63 66 78
68 67 67 68 68 69 69 69 70 72 73 75 77 79 81 83 84 84 84 84 85 84 84 83 82 83 82 84 87 88 88 87 86 85 84 84 83 83 84 85 85 86 86 86 86 86 86 87 87 87 87 86 85 85 85 87 73 61 62 61 61 68 79
66 66 67 67 67 66 67 68 69 71 72 73 73 76 78 79 81 81 83 85 84 85 84 83 85 85 86 87 89 89 88 88 87 86 85 84 84 85 84 85 85 86 86 87 88 87 87 86 86 87 87 88 88 81 84 87 76 59 62 60 60 67 80
63 64 65 66 67 67 67 68 68 68 69 69 71 74 75 77 79 80 81 83 87 87 87 87 87 88 90 90 89 89 88 88 86 86 86 85 85 85 85 86 86 86 86 87 88 88 88 87 86 86 87 87 87 87 86 86 81 66 59 59 59 62 79
64 64 64 64 65 66 66 66 67 66 67 69 70 72 73 75 77 79 80 82 84 85 88 90 90 89 89 88 90 90 88 88 87 87 86 86 86 87 87 87 86 86 86 87 88 88 87 87 87 87 87 87 87 88 87 88 84 70 57 57 58 59 68
63 63 65 65 65 64 65 65 65 66 67 68 69 71 72 73 74 76 79 81 82 85 89 89 89 89 88 86 89 90 89 88 88 88 87 87 86 85 85 86 87 86 87 88 86 85 85 85 85 86 86 86 86 87 87 85 80 79 58 57 56 57 60
61 60 60 62 62 64 64 63 63 64 65 67 69 71 72 72 72 74 77 79 81 85 88 89 89 89 88 87 88 88 88 87 87 86 87 86 87 86 85 85 86 86 85 85 85 84 84 83 84 84 84 85 85 86 86 86 84 73 68 57 55 55 56
61 61 62 63 63 63 63 62 63 63 65 67 68 69 70 71 70 72 75 78 82 85 86 87 88 87 88 87 86 87 88 87 87 87 87 87 86 85 85 84 85 84 84 84 84 83 83 83 83 83 83 84 84 86 86 86 87 72 66 63 55 55 56
59 60 60 60 61 62 62 62 62 63 63 66 66 68 69 70 70 71 73 80 83 83 84 85 86 86 86 88 88 87 88 87 87 87 87 87 86 85 84 84 84 83 84 84 84 83 83 83 83 82 83 83 83 84 85 85 85 81 68 62 57 56 55
59 60 60 61 60 61 61 62 62 62 62 64 66 67 67 68 70 70 74 81 83 83 84 84 85 85 86 88 88 87 88 86 87 86 87 86 86 85 85 85 84 84 84 83 84 83 83 82 83 83 82 82 83 84 85 84 85 82 76 65 62 58 56
58 59 58 58 59 60 60 60 60 61 62 62 65 66 66 67 69 72 76 80 83 84 84 84 84 84 85 86 87 87 87 87 86 86 87 86 86 87 86 86 86 85 83 83 84 84 83 82 82 82 82 82 83 84 84 84 84 82 79 74 70 67 65
58 58 59 59 59 60 60 60 59 60 61 62 64 65 66 67 69 73 77 81 83 83 83 83 83 85 85 86 86 86 86 86 83 84 86 86 87 86 86 85 86 85 82 83 83 83 83 83 82 82 83 83 84 83 83 83 83 82 80 77 75 72 70
56 57 58 58 59 60 58 58 59 60 61 63 64 65 66 69 72 75 79 81 82 81 81 83 82 84 85 86 86 86 85 86 85 86 85 86 85 85 85 85 85 83 84 87 87 87 85 85 85 84 86 86 85 84 82 82 82 83 72 78 68 73 73
56 57 57 58 59 58 58 59 59 60 62 64 65 67 69 70 72 76 79 80 80 81 80 81 83 84 85 86 86 87 85 85 86 86 86 86 84 84 77 62 54 64 80 86 79 72 71 71 85 87 88 87 87 87 86 85 86 72 62 60 58 58 61
55 55 56 57 57 57 57 58 60 61 62 64 66 68 69 69 72 76 78 79 79 79 78 79 81 83 85 85 86 85 85 86 86 86 85 86 85 84 79 75 67 49 45 50 61 66 61 58 62 67 72 83 85 82 73 73 71 59 57 56 55 55 55
56 56 56 56 56 56 57 57 59 60 61 63 65 66 67 68 70 72 75 77 78 77 76 77 77 78 81 83 82 80 80 84 84 83 84 84 85 82 77 74 71 66 51 45 46 52 58 59 59 59 60 65 73 77 77 67 61 54 53 54 54 53 53

ECMWFFLT1_sfc_temp_066.txt.gz
Temp
81 81 81 82 82 83 83 83 83 83 84 83 83 83 84 84 82 81 81 79 79 78 78 78 79 79 79 79 79 80 79 78 77 78 79 79 78 77 76 75 77 77 78 78 78 78 78 80 80 80 80 79 79 79 79 79 78 79 79 78 78 78 78
79 81 81 82 82 83 84 84 84 84 84 84 83 83 84 84 82 81 81 80 80 79 79 79 79 79 79 79 80 79 79 78 78 78 79 78 78 76 77 76 76 77 77 78 78 78 78 79 80 79 79 80 79 79 79 79 79 78 78 78 78 77 78
79 80 81 82 83 83 83 84 84 85 84 85 84 84 84 83 83 82 81 81 80 80 80 80 80 80 80 80 79 79 79 79 78 78 78 80 79 80 78 76 76 77 78 78 78 78 79 79 79 79 80 80 80 79 79 79 79 79 78 78 79 78 77
79 80 81 83 83 84 84 84 84 85 85 86 85 85 84 83 84 83 83 82 81 80 79 80 80 80 80 79 79 79 79 79 80 80 80 80 80 81 79 76 76 77 76 77 79 80 81 79 79 78 81 79 80 80 79 79 80 79 79 78 78 78 77
79 80 81 82 83 83 83 84 84 85 85 86 86 86 86 85 85 84 84 83 83 81 82 81 82 82 81 81 81 80 80 80 80 80 80 80 80 80 80 79 78 77 78 79 78 79 79 78 79 78 79 79 80 79 79 79 79 79 78 78 77 77 77
79 79 80 82 83 83 83 84 85 86 86 86 86 86 86 86 86 85 85 83 83 84 83 82 82 81 81 81 81 81 81 80 80 80 80 80 79 80 80 80 80 79 79 78 79 79 79 79 79 79 79 79 80 80 80 79 80 79 78 78 78 78 77
80 80 81 82 84 84 84 84 85 86 87 87 87 87 86 86 85 85 85 84 84 82 82 82 83 82 81 81 81 81 80 80 80 80 81 81 80 80 80 81 81 81 82 80 79 80 80 79 79 79 80 80 80 80 80 79 79 79 79 77 77 77 77
81 80 81 83 84 85 85 85 85 86 87 87 87 86 86 87 86 86 84 84 84 84 83 83 83 82 82 82 82 81 81 81 81 81 81 81 81 80 80 80 81 81 81 80 80 81 81 80 81 80 80 80 80 80 80 79 79 80 79 78 77 77 79
82 82 83 84 85 86 86 85 85 86 85 86 86 86 86 86 86 86 85 85 84 84 83 84 84 84 83 82 81 81 81 81 81 81 81 81 81 81 82 81 81 81 81 81 82 81 82 82 82 81 80 80 80 79 80 79 79 79 79 79 78 78 78
78 80 82 84 86 86 86 86 85 85 84 84 84 84 85 86 87 87 86 86 85 84 84 84 85 85 83 82 82 82 82 81 81 81 81 81 82 82 83 83 83 82 82 82 83 82 81 82 82 81 80 80 80 79 80 79 79 79 79 79 79 78 78
75 76 79 82 83 84 84 84 83 83 84 83 84 85 85 86 86 87 87 86 85 85 85 85 85 85 84 83 82 82 82 81 82 81 81 81 82 83 83 84 84 83 82 83 82 83 82 81 82 81 80 80 80 80 79 80 80 79 79 80 80 79 79
73 73 72 73 74 75 77 78 82 82 82 83 85 86 85 85 86 87 87 87 87 86 85 85 86 85 84 84 82 82 82 82 82 82 82 82 82 83 84 84 84 84 83 83 83 83 83 82 82 81 80 81 81 81 80 80 80 80 80 80 80 80 79
72 71 71 71 72 73 72 71 71 73 77 83 85 86 86 86 86 87 87 87 87 87 86 86 85 85 84 84 83 82 82 82 82 82 82 82 83 84 84 84 85 85 84 84 84 83 83 83 82 82 81 81 81 81 81 80 80 80 80 80 80 79 79
71 71 70 70 70 70 70 70 71 72 71 74 80 84 85 86 87 87 86 87 87 87 87 86 85 85 84 84 83 82 82 83 83 82 82 83 82 83 84 84 84 84 84 84 83 84 83 83 83 82 82 82 82 82 82 81 80 80 80 80 80 79 79
68 68 68 68 68 68 68 70 70 71 72 72 73 74 78 82 84 85 86 87 87 87 87 86 85 84 84 83 82 82 83 82 83 83 83 82 82 82 82 83 83 83 84 83 84 84 85 85 84 83 82 82 82 82 82 82 81 81 80 80 79 80 79
66 66 66 66 66 67 67 68 70 70 71 71 72 71 72 71 73 78 84 85 86 85 86 85 85 84 84 83 83 83 83 82 82 82 82 82 81 81 82 83 83 83 83 83 83 84 84 84 84 84 83 82 82 82 82 82 82 79 73 75 80 80 81
64 65 66 65 66 66 66 67 68 69 69 69 70 71 71 71 72 72 75 82 86 85 86 85 83 83 83 77 73 71 72 74 80 82 81 81 81 81 81 81 82 82 82 82 83 83 83 83 83 84 84 83 82 82 82 83 83 74 69 70 73 80 80
62 63 65 65 63 64 65 66 67 67 67 68 69 70 71 72 72 72 71 72 77 81 80 80 78 78 74 72 72 72 73 72 72 77 81 81 81 81 81 82 82 81 82 82 83 82 83 83 83 83 84 84 83 83 83 83 77 70 68 68 68 73 81
62 62 63 64 65 64 63 64 65 66 66 67 68 69 70 72 73 71 71 72 71 73 77 78 78 77 75 74 74 74 74 74 74 76 79 81 81 81 81 81 81 81 82 82 83 83 82 82 83 83 83 84 83 83 83 83 75 68 67 67 67 68 76
62 62 63 64 65 65 64 63 64 65 68 67 68 71 72 74 72 73 73 73 73 72 72 75 77 77 76 75 75 75 75 75 76 77 79 81 81 81 81 81 80 82 83 83 83 82 82 83 82 83 82 83 83 82 84 83 75 67 65 65 66 67 70
60 62 61 62 63 64 64 64 64 65 67 67 70 72 72 73 76 75 74 73 72 72 72 72 73 75 75 75 76 76 76 76 76 77 80 81 81 81 80 81 81 81 83 84 83 82 82 82 82 83 83 84 84 83 83 85 73 66 64 64 64 65 68
59 61 60 62 63 63 64 64 64 64 65 69 70 71 72 72 73 74 76 77 74 73 73 73 74 75 76 76 77 77 77 77 77 78 80 81 81 81 80 81 80 81 82 83 84 84 84 83 84 83 83 83 84 83 83 85 70 65 63 63 63 64 72
60 60 62 63 64 64 65 65 65 66 67 69 69 70 69 69 70 72 74 76 79 77 76 76 75 77 77 77 78 79 79 79 78 79 80 81 81 81 81 81 81 81 83 82 84 84 83 83 84 84 84 83 83 83 83 84 73 63 62 62 62 64 74
62 62 63 64 64 65 65 65 66 67 67 67 68 69 70 70 68 70 71 74 77 79 78 77 77 78 78 78 79 80 80 80 80 80 81 81 81 81 82 82 83 83 83 83 83 83 84 85 84 85 85 84 83 84 83 84 76 62 61 60 60 66 76
61 62 62 62 63 63 64 64 65 65 66 66 66 67 68 69 70 69 70 72 74 76 78 79 79 79 79 80 80 81 81 82 82 82 82 82 82 83 82 82 83 83 84 84 84 84 85 84 84 85 85 85 85 80 82 85 78 61 61 60 59 65 77
59 60 60 60 63 64 64 64 64 63 63 64 64 66 68 69 69 69 69 70 72 73 76 79 81 82 83 83 82 82 82 83 82 83 83 83 83 83 83 84 84 84 84 84 85 85 85 85 84 84 85 85 84 85 84 84 84 71 59 59 58 60 76
60 61 60 60 62 63 63 63 63 62 63 63 64 66 67 68 67 67 68 69 69 71 74 78 80 81 83 83 84 83 82 83 84 84 84 85 84 85 85 85 84 84 83 84 85 85 84 85 84 84 84 85 85 85 84 85 84 76 58 58 58 58 66
59 60 62 62 62 62 62 62 62 62 63 64 64 65 66 67 66 65 66 67 68 70 75 77 79 81 82 83 84 85 85 84 85 86 85 85 85 84 83 84 85 84 84 85 84 83 82 83 83 84 84 84 85 85 85 83 78 84 61 58 57 57 58
57 57 57 59 60 62 62 60 60 61 62 63 64 65 66 66 65 65 66 66 68 71 73 75 77 79 81 82 83 83 85 85 85 85 85 85 85 84 83 84 84 84 83 82 82 82 81 81 82 82 82 83 84 84 84 85 81 73 71 58 56 56 55
58 58 59 60 61 60 62 60 60 60 62 63 64 64 65 65 63 64 64 65 69 70 72 73 76 78 80 81 81 82 84 86 86 86 86 86 85 84 83 83 83 83 82 82 82 81 81 81 81 81 81 82 82 83 84 84 85 72 67 65 56 56 55
56 57 58 58 58 60 60 60 59 60 60 62 63 64 64 65 64 64 64 66 68 69 70 72 74 76 78 79 81 81 83 85 86 86 86 86 85 84 83 83 83 82 82 82 82 81 81 81 81 81 81 81 81 82 83 83 83 81 69 63 59 56 55
56 57 58 60 59 59 59 60 60 60 59 61 63 63 64 65 65 64 65 67 68 69 71 72 73 75 77 79 79 80 82 83 85 86 86 86 86 85 84 84 83 83 82 82 82 82 81 81 81 81 81 81 81 82 83 82 82 82 77 67 63 59 56
56 55 56 57 59 60 59 59 58 58 59 59 61 63 64 65 66 67 68 69 70 71 72 73 74 76 77 78 79 80 81 82 85 85 86 86 86 86 85 85 85 84 82 81 82 82 81 81 80 80 80 81 82 82 82 82 82 82 80 74 71 68 64
55 55 56 57 58 59 59 58 57 58 58 58 60 63 64 65 66 67 68 69 71 73 74 74 75 76 76 77 78 79 81 81 81 83 85 85 85 85 85 84 85 84 81 81 82 82 81 81 80 80 81 81 82 82 81 81 82 82 82 78 75 73 70
54 54 54 55 56 59 57 57 58 58 58 58 60 62 63 64 65 66 67 69 71 72 71 72 74 75 75 76 78 79 80 81 83 83 84 84 84 84 85 85 85 83 82 85 86 85 84 83 83 82 84 83 82 81 80 81 81 82 73 81 68 74 75
54 53 54 54 56 56 56 58 58 58 58 58 60 62 62 63 64 66 67 69 70 70 70 70 72 73 74 76 78 80 81 81 84 84 84 84 83 83 75 61 55 60 77 84 77 72 71 70 83 85 85 85 85 84 83 83 84 72 63 60 58 58 62
54 54 54 54 54 55 56 57 58 58 58 59 60 61 62 62 64 64 66 67 68 69 69 69 70 72 73 74 76 77 80 82 83 83 83 84 82 76 69 71 73 60 50 52 61 63 59 58 62 66 71 81 83 79 71 70 68 65 58 56 54 55 55
55 55 55 55 54 54 55 56 57 57 58 58 60 60 61 62 63 64 65 66 67 67 67 68 68 70 71 72 72 71 73 79 81 81 76 71 68 69 69 70 70 70 58 50 53 55 57 54 54 56 59 63 71 78 81 66 58 58 55 54 54 53 53

ECMWFFLT1_sfc_temp_069.txt.gz
Temp
79 79 79 80 80 82 82 82 82 81 81 81 81 81 81 81 80 79 78 77 77 76 76 77 77 77 77 78 78 77 77 76 76 75 74 74 74 74 74 74 75 74 75 75 75 76 77 77 77 78 77 77 77 77 77 77 77 77 76 76 76 76 76
77 79 79 80 80 81 82 82 82 82 81 81 81 81 82 81 80 79 78 78 77 77 77 77 77 77 78 78 78 77 76 76 76 77 76 74 75 74 75 75 75 75 75 76 76 76 76 77 77 77 77 78 78 77 77 77 76 76 76 75 75 75 76
77 79 80 80 80 81 81 82 82 82 82 82 81 81 81 81 80 79 79 78 77 77 78 77 78 78 78 78 77 77 77 77 76 76 75 76 75 76 75 75 75 76 76 76 76 76 77 76 76 77 77 77 78 77 77 77 76 76 76 75 76 76 75
77 78 80 81 81 82 82 83 82 83 83 83 82 82 82 81 82 81 80 79 78 78 77 77 78 78 78 77 77 77 77 77 77 77 77 78 77 77 75 74 74 75 74 75 77 77 78 77 76 76 78 77 77 77 77 77 77 76 75 75 75 76 75
77 79 80 80 81 81 82 82 83 83 83 84 83 83 83 83 83 82 81 81 80 79 79 79 79 79 79 79 79 78 78 78 77 77 78 78 77 77 76 75 75 75 76 76 75 76 75 75 76 76 76 76 77 77 77 77 77 76 75 75 75 75 75
77 77 78 80 81 82 82 83 84 84 84 83 83 83 83 83 83 82 82 81 80 81 80 79 79 79 78 79 79 79 79 78 78 77 77 77 77 77 77 76 75 75 76 76 76 76 76 76 76 76 76 77 77 77 77 77 77 77 76 75 75 76 75
77 78 79 80 81 82 82 83 84 84 85 85 85 84 83 84 83 83 83 82 81 80 80 79 80 80 79 79 79 79 78 78 78 78 78 77 77 77 77 77 77 76 77 75 75 76 76 76 76 76 77 77 77 77 77 77 77 77 76 75 75 75 75
77 78 79 80 81 82 83 84 84 85 85 85 85 84 83 84 84 83 82 82 82 82 81 80 80 80 79 79 80 79 79 79 79 79 78 77 77 77 77 77 77 76 75 75 76 76 77 77 77 77 76 77 76 77 77 77 77 77 77 76 75 75 76
75 76 76 78 80 83 84 84 84 84 83 83 84 84 83 84 84 83 83 83 83 82 81 82 82 81 80 80 79 79 79 79 79 79 78 78 78 78 78 78 78 77 76 76 77 76 77 77 77 76 76 76 76 76 77 77 77 77 77 77 76 76 76
66 69 73 78 78 80 81 82 81 82 82 82 82 83 83 84 84 84 84 84 83 82 82 83 83 82 81 80 80 80 80 79 79 79 79 79 79 79 79 80 79 78 77 78 78 76 77 77 77 76 75 76 76 75 76 76 77 77 77 77 77 77 76
66 67 68 69 69 70 72 75 77 77 79 80 81 83 83 84 84 84 84 84 84 83 84 83 83 83 82 81 80 80 79 79 80 79 79 79 80 80 80 80 80 79 79 78 78 78 77 76 76 76 75 76 76 76 75 76 77 77 77 78 78 78 77
65 65 65 65 67 68 69 69 69 69 70 75 79 82 82 83 84 85 85 84 85 84 84 84 84 83 82 82 81 80 79 80 80 80 80 80 80 80 81 81 81 80 80 79 79 78 78 77 77 77 76 76 76 76 76 76 77 77 77 78 78 78 77
65 64 64 64 65 66 67 67 68 69 70 71 76 81 82 83 84 85 84 84 85 85 84 84 84 83 82 82 81 80 80 80 80 80 80 80 80 81 81 81 82 82 81 81 80 80 79 79 77 77 77 77 77 77 77 77 77 77 77 78 78 77 77
66 64 64 64 64 64 64 65 66 67 68 70 71 73 77 81 84 84 84 84 85 85 85 85 83 83 82 82 81 80 80 81 81 80 80 81 80 80 81 81 81 81 81 81 80 80 80 80 79 78 78 78 78 78 78 77 77 77 77 77 78 77 77
63 63 63 63 63 63 63 63 64 65 66 67 69 70 72 71 73 79 84 85 85 85 85 84 83 82 82 81 80 80 80 80 81 81 80 80 80 79 80 80 80 80 80 80 80 81 81 81 81 79 78 79 78 78 78 78 78 78 78 77 77 77 77
61 62 62 62 63 63 63 63 64 64 65 65 67 68 69 71 72 72 74 77 80 81 82 81 82 81 82 81 81 81 81 80 80 80 80 79 79 79 79 80 80 80 79 80 80 80 80 80 80 81 80 79 78 78 79 79 79 77 72 73 78 77 78
60 61 62 62 63 63 63 63 64 64 64 64 65 66 67 68 71 71 72 72 73 74 73 74 72 74 76 80 81 81 80 79 79 79 79 79 79 79 79 79 80 79 79 79 79 79 79 80 80 81 81 80 80 79 79 80 81 72 67 68 71 77 77
58 59 61 62 62 62 62 62 63 63 63 64 65 66 67 68 69 71 71 72 72 72 72 73 74 74 74 75 74 75 77 77 77 78 79 78 78 78 78 79 79 79 79 79 79 79 80 80 79 80 81 81 80 80 80 80 74 69 66 67 67 71 78
57 58 60 61 61 61 61 61 63 63 63 64 65 65 67 68 68 68 70 71 71 71 72 72 72 73 73 73 74 75 76 76 77 78 78 79 79 79 79 78 78 78 79 79 80 80 78 78 79 79 80 81 80 80 81 81 73 67 66 66 66 66 74
57 58 59 61 62 62 61 60 62 63 63 63 65 66 67 69 67 68 69 72 72 71 72 72 72 72 74 74 74 76 76 76 76 76 78 79 79 79 78 78 78 79 80 80 80 79 79 79 79 79 79 80 80 80 81 80 74 67 64 64 64 65 68
56 57 58 59 60 62 62 62 61 62 62 63 65 65 66 66 67 68 70 71 71 72 72 72 72 72 73 74 74 74 75 76 76 77 78 78 78 78 78 78 79 79 80 81 80 79 79 79 79 80 80 80 81 80 81 83 72 66 63 62 62 64 66
56 57 57 59 59 60 61 62 62 62 62 65 66 65 66 66 66 67 69 72 73 73 72 72 72 72 73 73 74 74 76 76 76 77 78 77 78 78 78 78 78 78 80 80 81 81 81 80 81 80 80 80 81 81 80 83 70 65 63 62 61 63 69
58 58 58 59 61 61 62 63 63 63 64 64 65 65 65 65 65 66 68 69 72 72 73 73 72 72 73 74 74 75 76 76 76 77 77 77 77 77 78 78 78 79 80 79 80 81 81 81 81 81 81 80 80 80 81 82 73 64 62 61 60 63 71
61 60 60 60 61 63 63 63 64 65 64 63 63 65 65 65 64 65 66 67 69 71 71 72 73 73 73 74 75 76 77 77 77 77 77 77 77 77 78 80 80 80 80 80 80 80 81 82 81 82 82 81 81 81 81 82 75 63 61 60 59 65 72
59 61 61 61 60 61 62 63 63 64 64 63 62 63 64 65 65 64 65 67 68 69 69 71 73 75 75 75 77 77 78 78 78 78 78 77 78 79 79 80 80 81 81 81 81 81 82 82 82 82 82 83 82 78 80 82 77 63 61 59 58 64 74
58 59 61 61 62 62 63 63 63 63 62 62 62 63 64 64 64 64 64 65 67 68 69 70 72 74 75 76 77 78 79 79 79 79 78 78 78 79 80 81 81 81 81 81 82 81 82 82 82 81 82 82 82 82 81 82 82 73 59 59 57 60 74
58 59 59 61 61 63 62 62 63 62 62 61 62 63 63 63 63 62 63 65 65 67 69 71 72 72 73 74 75 77 79 80 79 79 80 80 80 81 81 82 81 81 81 81 82 82 81 81 82 82 82 82 82 83 82 83 82 78 59 58 57 57 64
57 58 60 61 62 62 61 62 61 62 62 62 63 63 63 62 62 62 63 63 64 66 69 70 70 71 72 72 74 76 78 80 80 81 80 81 81 80 80 82 82 82 82 82 81 80 79 80 80 81 81 82 82 82 82 81 76 83 63 58 56 56 57
54 54 55 57 58 62 62 61 60 60 61 62 63 63 63 62 61 63 63 63 64 67 68 69 70 70 71 71 73 74 77 78 78 79 80 81 82 81 80 81 81 82 81 80 80 79 79 79 79 80 80 80 81 82 82 82 80 71 74 59 56 55 55
54 55 56 58 59 60 62 60 60 60 61 62 63 63 62 61 61 62 63 63 66 67 68 69 70 70 70 71 72 74 76 79 76 74 78 81 82 81 80 80 81 81 80 80 79 79 78 78 78 79 79 79 80 81 82 82 83 72 68 67 55 55 54
53 54 55 55 57 59 60 59 59 60 60 62 62 63 62 61 61 62 62 64 66 66 67 68 69 70 71 71 73 74 77 78 79 78 77 81 82 81 81 81 81 80 80 80 79 79 78 78 79 78 79 79 79 80 81 81 81 82 71 64 59 56 55
54 54 55 56 56 57 59 59 59 60 60 60 62 63 62 62 61 60 62 64 65 66 67 67 68 70 71 73 74 75 77 78 78 79 80 81 82 82 82 81 81 80 80 80 80 79 78 78 78 78 78 78 79 80 81 80 81 81 80 68 64 59 56
52 53 53 54 56 57 57 57 58 59 59 59 61 62 62 62 62 62 63 64 65 66 67 67 68 69 70 71 74 76 77 76 76 77 79 81 82 83 83 83 82 81 80 80 80 79 79 79 78 78 78 78 79 80 80 80 80 81 81 75 72 69 64
51 52 53 54 55 56 56 56 56 57 58 59 60 61 62 62 62 62 63 64 65 66 66 66 67 67 68 70 72 74 75 75 75 76 78 80 81 82 83 83 82 82 80 80 80 79 79 79 78 78 79 79 80 80 79 80 80 81 81 78 74 72 70
51 51 53 53 54 56 55 55 56 57 58 59 60 61 61 61 62 63 63 63 64 65 64 64 65 66 67 68 71 73 75 75 76 77 78 79 79 81 82 82 82 81 83 84 84 83 82 81 81 81 82 82 81 80 79 79 79 81 72 79 67 73 74
50 51 52 53 55 55 55 56 56 56 57 58 60 60 61 61 62 63 63 63 64 64 64 63 63 64 66 68 70 74 75 75 75 76 76 78 79 79 76 69 65 75 83 83 76 72 69 69 82 84 84 83 83 83 82 81 83 72 64 61 59 59 62
50 50 51 53 53 54 54 55 56 57 57 58 59 59 60 61 62 62 62 62 63 64 63 62 62 63 65 67 69 72 73 73 73 73 74 76 78 78 75 75 72 57 59 67 73 66 60 59 63 66 70 80 82 79 70 70 67 63 57 57 55 55 55
51 51 52 54 54 54 54 55 55 55 56 57 57 58 59 60 61 61 62 62 63 63 63 62 62 62 64 66 68 70 71 71 71 71 71 72 73 73 72 72 72 71 59 53 56 59 57 56 56 57 58 62 69 77 79 65 59 58 54 55 54 53 53

ECMWFFLT1_sfc_temp_072.txt.gz
Temp
77 77 78 78 79 80 80 80 80 79 79 79 79 79 80 80 78 78 77 76 75 75 75 75 76 76 76 76 76 76 76 75 75 74 74 74 74 74 74 75 76 75 76 76 76 76 77 78 78 78 78 78 78 78 78 78 78 79 78 78 77 77 77
76 77 78 79 79 79 80 81 80 80 79 80 79 79 80 79 78 78 77 76 76 76 76 76 76 76 76 76 77 76 75 76 75 75 75 74 75 74 75 75 75 75 75 76 76 76 77 78 78 78 78 78 79 78 78 78 78 78 78 77 77 77 77
76 77 78 79 79 80 79 81 81 81 80 81 80 80 80 79 79 78 77 77 76 76 77 76 76 76 77 76 76 76 76 76 76 75 75 75 75 76 75 75 75 76 76 76 76 77 78 77 78 78 78 78 79 78 78 78 78 78 78 77 78 78 77
76 77 78 79 80 80 81 81 81 81 82 82 81 81 80 79 80 79 79 78 77 77 76 77 77 77 77 76 76 76 76 76 76 77 77 76 76 76 74 74 74 76 75 76 77 77 78 77 77 77 79 78 78 79 78 78 79 78 78 77 77 77 77
75 77 78 78 79 79 80 81 81 81 82 83 82 81 82 81 81 81 80 80 80 78 78 78 79 79 78 78 78 78 77 77 77 77 77 77 76 75 75 75 75 75 76 77 76 76 76 76 77 77 78 78 78 78 78 78 79 78 78 77 77 77 77
67 75 76 78 79 80 81 81 83 83 82 82 82 82 82 82 82 81 81 80 80 80 79 79 78 78 78 79 79 79 78 77 77 77 77 76 75 75 75 75 75 76 76 76 77 77 77 77 77 77 77 78 79 79 79 79 79 79 78 77 77 78 78
64 67 74 77 79 80 81 81 83 84 84 83 84 83 82 83 82 82 82 81 81 79 79 79 79 79 78 78 78 78 77 78 77 77 78 77 76 76 75 75 76 76 77 76 76 76 76 76 77 77 77 78 78 79 78 78 78 78 78 77 77 77 77
64 64 65 71 78 80 80 81 82 83 83 83 83 83 82 83 83 82 81 82 81 81 80 80 79 79 78 78 79 78 78 78 79 78 78 78 77 77 76 76 76 76 76 76 76 76 77 77 77 77 77 78 78 78 79 78 78 79 78 77 77 77 78
64 64 65 67 67 72 78 80 80 81 80 81 81 81 82 82 83 82 82 82 82 81 81 81 81 81 79 79 78 78 79 79 78 78 78 78 78 78 79 77 77 76 76 77 77 76 77 77 78 77 77 77 78 77 78 78 78 78 78 78 77 77 77
63 63 64 65 66 68 68 69 72 75 78 79 79 80 81 82 82 83 83 83 82 81 82 82 82 81 80 79 79 79 79 78 78 79 79 78 79 79 79 80 79 77 77 77 78 77 77 77 77 77 76 77 77 77 77 78 78 78 78 78 78 77 77
63 64 63 63 65 65 66 66 67 67 68 71 76 81 80 81 77 81 83 83 83 82 83 82 82 82 81 80 80 79 79 79 79 79 79 79 80 80 80 80 80 78 78 78 77 77 77 76 77 76 76 76 77 77 77 78 78 77 78 78 79 78 78
64 64 62 63 63 64 64 65 66 66 67 68 70 73 77 80 81 79 83 83 84 83 83 83 83 82 81 81 80 79 79 79 79 79 79 79 80 80 81 81 80 80 79 79 78 77 77 77 76 77 76 76 77 77 77 77 78 77 78 79 79 78 79
63 63 64 63 63 63 64 63 63 64 66 68 69 71 71 74 80 82 81 82 84 84 84 82 82 81 81 81 81 79 79 80 79 79 80 80 80 81 81 81 81 81 80 80 79 78 78 77 76 76 77 76 77 77 77 77 78 77 77 78 78 78 78
62 62 63 63 63 62 62 63 63 64 65 66 67 69 70 72 72 74 79 83 83 84 84 84 82 81 80 80 79 79 80 80 80 79 79 80 79 79 80 81 81 80 80 79 79 79 79 78 77 77 77 77 77 77 77 77 77 77 77 78 78 78 78
60 60 60 61 61 61 62 62 63 63 64 65 66 66 67 68 69 71 72 75 82 85 84 83 82 81 81 80 79 78 79 79 80 80 79 79 78 78 79 79 79 79 79 78 79 80 80 80 80 78 77 78 77 77 78 77 77 78 78 77 77 78 78
58 60 60 59 60 60 61 61 62 63 63 64 65 65 66 66 67 68 68 70 72 80 84 82 82 80 81 81 80 80 80 79 79 79 79 78 77 77 78 79 78 79 78 78 79 78 78 78 79 80 79 78 77 78 78 78 79 76 71 73 79 78 79
57 58 59 60 60 60 59 61 61 61 62 62 63 64 64 64 66 66 68 68 70 72 76 80 78 79 80 80 80 80 79 78 78 78 77 77 78 77 77 78 78 78 77 77 78 77 77 78 78 80 80 80 79 78 78 79 80 71 67 67 70 77 78
56 57 58 59 60 61 60 60 60 60 61 61 63 64 63 64 64 65 65 67 68 72 73 74 77 77 77 78 78 77 77 77 78 77 78 78 77 77 77 78 78 77 77 78 78 77 79 79 78 78 80 80 80 80 80 80 74 68 66 67 66 70 79
56 57 58 59 59 60 60 61 61 61 60 62 63 62 63 64 64 63 64 66 67 71 72 72 74 76 76 75 77 77 76 77 78 77 78 77 78 78 78 77 77 77 78 78 79 79 77 77 78 78 79 80 79 80 81 81 72 66 65 65 66 66 73
57 58 59 59 60 60 61 61 62 63 62 62 63 65 64 64 63 63 64 66 67 69 71 71 71 72 74 75 75 76 76 76 77 77 77 78 78 78 77 77 77 79 80 80 79 77 78 79 78 78 77 78 79 78 81 81 73 66 64 64 64 65 68
57 58 58 58 59 60 61 61 62 62 63 61 63 64 64 64 64 64 64 65 66 68 69 70 70 71 72 73 74 74 75 76 76 77 77 78 78 77 77 77 77 78 79 80 80 78 77 78 78 78 78 80 80 80 81 83 71 65 63 62 62 63 66
56 57 58 59 60 60 60 62 62 62 62 65 65 64 65 64 65 64 64 66 66 67 68 69 70 71 72 72 73 74 75 76 76 76 77 77 78 77 77 77 77 77 78 79 81 81 80 79 80 79 79 80 80 80 80 83 69 65 63 62 61 63 70
56 56 58 60 62 61 62 63 63 63 64 65 65 65 64 64 64 64 64 65 66 67 67 68 69 70 71 72 73 74 75 75 76 76 77 77 77 77 78 77 77 78 79 79 80 80 80 80 81 80 80 80 79 79 79 81 72 64 62 61 60 63 72
57 58 59 60 62 62 63 63 64 65 65 64 64 65 65 65 63 63 63 64 65 66 66 68 69 70 71 71 73 74 75 75 76 76 76 77 77 77 78 79 80 80 80 79 80 80 81 82 81 81 81 81 80 81 80 81 75 63 60 59 59 65 73
56 57 58 59 59 61 62 62 63 64 65 64 63 64 65 65 64 63 63 64 65 66 66 67 69 69 69 70 71 73 74 76 76 76 76 76 77 78 78 79 79 80 80 81 81 80 81 81 81 81 81 83 83 77 79 82 77 63 60 59 58 64 75
54 56 57 59 60 60 61 62 62 62 63 63 63 64 65 65 63 63 63 63 65 65 65 66 67 68 69 70 71 72 73 74 75 76 76 76 77 78 78 80 80 80 81 81 81 81 82 82 81 81 82 83 82 83 82 82 82 75 60 59 57 59 74
56 56 56 58 59 61 59 60 62 62 62 63 63 64 65 64 63 62 63 64 64 65 66 67 67 68 68 68 70 71 72 73 75 76 77 78 78 79 80 80 80 80 80 81 82 81 80 81 81 82 81 83 83 83 83 83 82 79 61 58 57 57 64
55 56 58 58 59 59 59 59 59 61 62 63 64 64 64 63 61 61 62 63 63 65 67 67 68 69 69 68 69 70 72 73 74 76 77 78 79 78 78 79 80 80 81 82 80 79 79 79 79 81 81 82 83 82 83 81 76 84 66 58 56 55 57
52 53 53 54 55 58 59 58 58 58 60 63 64 64 64 63 61 61 62 61 63 65 66 67 68 68 68 68 69 71 72 72 73 73 71 71 74 78 78 78 79 79 79 79 79 78 78 78 78 79 80 80 81 82 82 82 80 70 77 61 55 54 54
52 53 54 55 56 57 58 57 58 58 59 61 63 63 64 62 60 61 61 61 64 64 65 66 67 67 67 69 70 71 72 73 73 72 72 72 73 73 74 75 78 78 78 78 78 78 77 78 78 78 79 79 80 82 82 82 82 72 66 70 56 55 54
52 52 53 53 54 56 57 56 56 57 58 60 61 63 63 63 61 61 60 62 63 64 64 65 66 66 66 68 69 71 72 74 74 72 71 72 72 72 72 74 76 77 78 78 78 78 78 77 78 78 78 78 79 80 81 81 81 82 72 64 61 56 55
52 52 53 54 54 55 56 56 57 57 57 58 61 62 62 63 62 60 61 63 63 64 64 65 65 65 66 67 68 69 71 71 74 75 72 72 73 72 72 73 73 75 77 78 79 78 78 77 78 78 78 78 78 79 81 81 81 81 81 69 66 61 56
50 51 51 51 53 55 54 55 55 55 56 56 59 61 62 62 62 62 62 63 63 64 64 64 64 64 65 65 66 68 69 69 72 75 77 77 78 78 75 73 72 73 73 75 78 79 78 78 78 78 78 78 79 80 80 81 81 81 82 80 76 73 67
50 50 52 52 53 54 53 54 54 54 55 56 58 60 61 62 62 63 63 64 64 64 63 63 64 64 64 65 66 66 68 69 71 73 75 76 77 77 78 75 73 72 72 74 76 77 78 79 78 78 79 79 80 80 79 80 80 81 81 82 78 76 74
50 50 51 51 52 54 52 53 53 54 55 56 58 59 59 60 61 63 63 63 64 63 62 62 63 63 63 64 65 66 68 69 71 74 75 75 75 75 76 77 76 73 73 75 78 81 82 81 81 81 82 82 80 79 79 79 80 81 71 81 68 75 77
49 50 50 52 53 52 52 54 54 54 55 56 58 58 59 60 61 62 63 64 64 63 62 62 62 62 63 64 65 66 68 69 71 73 74 74 73 73 74 71 64 70 78 78 72 69 68 68 81 84 84 83 83 83 81 81 82 70 63 60 59 58 62
49 49 50 51 51 51 52 52 54 55 55 57 58 58 59 59 61 61 62 63 63 63 62 62 61 62 62 63 64 65 66 68 69 70 71 72 73 73 72 73 72 56 57 66 73 68 61 58 60 63 67 78 82 78 69 69 67 62 57 56 55 54 55
49 50 50 51 51 51 51 52 53 54 55 57 58 58 58 59 59 60 62 63 63 62 62 62 61 60 61 62 63 64 65 66 68 69 70 70 70 70 70 71 71 72 60 56 57 59 55 54 55 56 57 60 68 76 80 65 58 57 54 54 54 53 53

ECMWFFLT1_sfc_temp_075.txt.gz
Temp
84 83 83 84 83 84 84 84 85 85 84 84 84 85 86 86 84 83 83 82 81 81 81 81 81 81 81 82 82 83 83 83 83 83 83 83 84 84 84 85 85 84 86 86 85 85 85 85 85 86 86 85 85 85 84 84 85 86 85 85 85 85 85
83 84 84 85 84 84 84 85 85 85 85 85 85 84 86 85 84 84 83 82 82 81 81 81 81 81 82 82 83 82 82 83 83 82 83 82 83 83 85 84 84 84 84 86 86 86 85 86 86 85 85 85 86 85 86 85 85 85 86 85 85 85 85
76 82 85 85 85 86 84 86 86 86 85 86 86 86 85 84 84 83 83 83 82 82 83 82 81 82 82 82 82 82 83 83 83 83 83 84 84 86 85 85 85 86 86 86 85 86 86 86 85 85 86 86 87 85 85 85 85 86 86 85 85 86 84
73 76 82 86 86 86 86 86 86 87 87 88 87 87 86 84 86 85 84 84 83 82 81 83 83 83 83 82 82 82 82 83 83 85 85 86 85 85 84 84 84 86 85 86 87 87 88 86 85 85 85 85 86 86 86 86 87 86 86 85 86 86 85
72 75 79 84 86 86 86 87 87 86 87 89 88 86 87 87 87 87 86 87 87 84 85 85 86 85 84 84 84 84 83 84 84 85 85 86 85 85 84 86 85 86 86 87 86 84 84 85 86 85 85 85 86 86 85 86 87 86 85 85 85 86 86
70 72 74 78 84 87 87 88 89 88 87 86 86 87 88 89 89 88 88 86 87 87 86 85 85 84 84 85 85 85 84 84 83 83 84 85 84 85 85 85 86 86 87 86 87 86 85 85 86 86 86 87 87 87 87 87 87 87 86 85 85 87 88
69 71 72 74 76 81 88 88 89 90 88 88 88 88 87 88 88 89 89 88 88 86 87 87 87 86 84 85 84 84 83 85 84 84 85 86 85 84 84 85 85 86 87 86 86 86 86 85 85 85 86 87 87 88 86 85 86 87 86 85 84 85 85
69 69 71 72 74 75 75 80 89 91 88 88 89 88 87 88 89 89 86 89 88 88 88 88 87 85 84 85 85 85 85 86 86 85 85 86 86 85 85 85 85 85 85 86 86 86 87 86 87 87 86 87 86 86 87 85 84 87 87 85 84 85 87
69 70 70 72 73 73 74 75 76 79 83 87 87 87 87 86 81 82 81 79 80 87 88 89 89 88 85 85 84 84 86 86 86 85 85 86 87 87 88 87 86 86 85 87 88 86 87 87 88 85 85 86 86 85 86 85 86 86 86 85 84 85 86
65 67 69 71 72 73 73 74 74 75 75 76 80 86 86 84 83 84 83 81 80 82 88 88 89 89 86 85 86 86 86 85 86 87 87 87 87 87 88 89 88 87 86 87 89 87 86 87 87 86 84 85 85 85 85 85 86 86 86 85 85 85 85
64 64 65 68 69 70 70 70 71 71 72 73 76 79 82 84 83 85 84 83 82 84 86 87 88 88 88 87 87 87 86 86 87 87 87 87 88 88 89 89 90 88 87 88 88 88 87 85 86 84 84 85 85 85 85 85 86 85 86 87 87 86 86
62 62 62 64 66 68 66 67 69 69 70 72 75 77 76 79 84 86 85 85 87 88 87 89 89 89 88 88 87 86 86 86 87 87 87 87 88 89 89 90 90 89 88 88 87 87 88 86 86 85 84 84 85 85 85 85 85 85 86 88 88 87 87
62 62 62 61 62 63 64 64 65 67 68 72 73 74 76 77 77 78 80 82 86 89 89 88 88 87 87 88 87 86 86 87 87 86 88 87 88 89 89 89 90 90 89 88 88 87 88 88 85 85 85 85 85 86 85 85 86 85 85 86 87 86 86
63 62 61 62 62 61 61 62 63 64 66 69 71 72 74 73 74 76 77 77 79 85 89 88 87 86 86 86 85 84 85 87 87 86 86 87 86 86 88 89 89 88 89 88 87 88 88 88 87 86 87 86 86 86 86 85 86 85 85 85 86 86 86
62 61 61 61 61 61 60 61 61 62 63 65 67 69 70 72 72 73 76 77 78 80 82 87 86 86 86 85 84 83 84 85 87 86 86 85 85 85 85 86 87 87 87 86 87 88 89 89 89 87 86 87 86 86 87 87 87 87 86 85 85 86 87
62 61 61 61 61 62 62 61 61 61 62 63 64 65 67 68 69 71 73 75 77 76 78 78 85 85 86 86 84 84 84 83 83 84 84 84 83 83 84 85 85 86 85 85 86 86 85 86 87 88 87 86 86 86 87 87 88 81 74 76 86 86 88
62 62 62 61 61 62 62 62 62 62 62 62 63 63 64 65 67 69 71 72 73 73 74 77 77 83 86 85 85 85 84 83 83 83 82 83 83 83 83 83 84 84 83 84 84 84 84 85 85 87 88 87 87 86 87 88 88 74 68 68 71 83 86
60 62 62 62 61 61 61 62 62 62 63 63 64 64 64 63 65 66 67 69 70 71 74 75 76 77 81 84 84 84 83 83 83 82 82 82 82 82 82 83 83 83 83 84 85 83 85 85 85 84 87 88 88 88 88 88 78 70 67 67 66 71 84
59 60 62 63 63 62 61 62 63 63 64 64 64 65 65 65 65 64 65 67 69 71 72 73 75 75 77 80 83 84 83 83 83 82 82 82 82 83 83 82 82 83 84 84 85 86 83 83 84 84 85 87 85 87 88 89 76 68 66 66 66 65 74
59 59 61 62 64 65 64 63 63 64 64 65 66 67 68 66 65 65 66 67 69 70 70 71 73 76 76 77 79 81 83 83 83 83 82 83 82 82 82 82 82 84 86 86 85 83 83 85 84 84 83 84 85 84 87 88 77 67 65 65 64 64 68
59 59 60 60 62 64 64 64 64 65 65 65 66 67 68 67 67 67 66 67 69 69 69 70 72 75 77 77 78 79 79 80 81 81 82 83 83 82 82 82 82 83 85 87 86 84 82 84 84 84 84 86 86 86 87 90 73 66 64 63 62 63 66
60 61 60 61 61 61 63 65 65 66 65 68 68 68 68 68 70 70 69 69 68 69 69 70 71 74 75 76 77 77 80 80 80 80 81 82 82 82 82 82 82 82 84 85 87 87 87 86 86 85 85 85 86 86 86 89 71 65 63 62 62 62 74
62 61 62 63 65 63 63 64 65 67 67 68 68 68 67 68 69 69 70 69 69 69 71 70 70 70 71 72 74 75 76 78 79 80 80 81 81 81 83 82 82 83 84 84 85 87 87 86 87 85 86 86 85 85 85 88 76 64 62 61 61 64 78
64 64 64 64 65 66 65 65 65 66 68 68 68 68 68 68 67 68 68 69 69 69 69 70 69 69 70 70 72 73 75 75 75 76 78 79 80 81 82 84 85 85 85 85 85 86 88 88 87 87 87 87 86 87 86 87 79 64 61 59 59 67 79
64 65 65 65 65 65 65 65 65 65 66 67 67 68 68 67 67 67 68 69 70 71 70 70 69 69 68 69 71 72 73 73 75 76 76 75 78 80 80 82 83 85 86 87 87 86 87 87 87 88 87 90 89 80 84 88 82 65 61 59 58 66 79
62 63 64 65 66 66 65 65 65 65 65 65 65 68 68 68 66 66 66 67 70 70 70 70 68 69 70 72 72 73 72 73 72 74 74 75 76 78 79 81 82 83 85 85 87 87 88 88 87 87 88 89 89 90 88 88 88 80 60 59 57 59 77
63 64 63 65 65 63 64 65 65 65 65 65 64 66 68 67 66 65 65 66 67 68 70 70 70 70 69 70 72 72 71 71 72 72 73 74 74 77 80 82 82 83 84 85 87 87 86 87 87 88 88 89 89 90 90 90 88 85 61 58 57 57 64
62 63 65 65 63 63 64 65 64 65 66 66 66 66 66 66 65 64 64 64 65 68 71 71 71 71 70 70 69 70 71 72 73 74 74 73 73 73 76 81 83 84 84 85 84 83 83 84 84 86 87 88 89 89 89 87 79 90 67 58 56 55 56
59 60 60 61 62 65 65 63 63 64 64 66 67 66 66 66 64 64 64 64 65 68 69 70 71 70 70 70 69 70 72 72 73 73 74 73 73 72 74 78 80 81 81 80 79 79 81 81 83 84 84 85 87 88 88 88 85 71 81 61 55 54 54
59 59 60 62 63 63 64 62 62 63 64 66 65 64 65 64 62 62 63 63 67 68 68 68 69 69 70 70 70 71 72 72 72 72 72 73 72 72 72 73 76 78 76 75 75 76 77 81 82 82 83 84 85 88 89 89 88 75 68 72 55 56 54
57 58 59 59 61 62 62 62 61 62 63 65 64 64 64 64 62 62 62 65 67 66 67 67 68 68 68 68 69 70 72 72 71 71 71 72 72 71 71 72 73 71 73 75 76 76 77 79 81 81 82 82 83 85 88 88 88 88 75 64 62 55 54
57 58 59 60 60 60 61 62 62 62 62 63 65 65 64 64 63 61 62 65 65 66 67 67 66 66 66 68 69 70 71 71 72 72 72 72 73 72 72 72 72 72 73 74 76 78 78 79 81 82 82 82 83 85 87 87 88 87 87 74 68 63 56
55 56 56 57 58 59 59 60 60 60 61 61 63 64 64 64 63 63 63 64 66 67 67 67 66 65 66 66 68 69 70 69 70 71 73 74 75 76 74 73 73 74 73 73 76 79 80 80 80 81 82 82 84 86 86 87 87 87 88 88 85 81 73
55 55 56 57 58 58 58 58 58 58 59 59 61 63 63 64 64 64 63 64 65 66 66 66 66 66 66 66 67 67 68 68 68 69 72 74 76 77 77 75 76 74 74 75 75 77 79 81 81 82 83 84 86 86 86 86 86 87 88 89 88 86 83
55 55 56 56 57 57 56 57 57 57 58 59 61 62 62 62 63 65 65 65 65 65 64 64 65 65 65 66 67 67 67 68 71 72 72 73 73 75 76 76 76 75 75 77 77 78 80 82 82 84 87 86 86 85 85 85 85 87 75 87 74 84 88
55 55 55 57 57 57 57 57 56 57 57 58 60 61 61 62 63 65 66 66 66 65 63 63 64 64 65 67 67 68 67 68 70 72 72 74 73 74 75 72 63 68 76 76 70 64 61 61 78 84 87 86 88 89 88 87 89 74 65 61 60 59 62
54 54 55 56 56 56 56 56 57 57 57 58 60 60 61 62 63 64 65 66 66 65 64 63 63 63 64 65 67 66 67 66 67 69 70 72 73 73 73 74 74 56 54 60 63 60 57 54 54 56 61 75 83 81 69 67 64 61 59 55 55 55 54
55 55 55 55 55 55 55 55 56 57 57 59 59 60 61 62 63 63 65 66 66 65 64 64 63 62 62 63 64 65 65 66 66 67 67 68 69 70 70 71 71 74 61 54 55 56 53 53 53 53 54 54 60 70 81 68 57 55 56 52 52 53 53

ECMWFFLT1_sfc_temp_078.txt.gz
Temp
89 90 90 90 86 88 91 90 90 90 91 91 91 92 93 93 92 91 90 88 86 86 86 86 86 87 86 87 88 88 88 88 89 89 89 89 90 90 90 91 91 90 92 92 92 91 91 91 91 91 91 90 90 90 89 89 88 90 89 88 89 89 88
86 90 90 92 90 90 90 91 90 91 91 92 91 91 93 93 91 91 89 88 87 87 86 86 86 86 87 87 88 88 87 88 88 88 90 89 89 89 91 90 90 90 90 92 92 91 91 92 92 91 91 90 91 90 90 90 89 89 90 89 89 88 89
84 86 88 88 91 91 90 91 91 91 90 93 93 92 92 91 92 90 90 89 87 87 88 87 86 87 87 87 88 87 88 89 89 89 89 91 90 93 91 90 91 92 92 92 92 93 93 92 91 91 91 91 93 91 90 90 89 90 89 88 89 90 87
81 84 87 89 87 91 91 91 90 92 93 93 93 94 93 91 93 92 91 91 89 88 87 89 88 89 89 87 87 88 88 88 89 91 91 92 92 92 91 91 90 92 92 92 94 93 95 93 92 91 90 91 91 92 91 91 92 90 90 89 90 89 88
81 82 85 85 89 91 91 91 90 90 92 93 94 92 94 94 94 94 93 93 94 91 92 92 93 91 90 90 91 91 89 89 90 91 91 92 91 92 91 92 92 92 92 94 93 92 91 91 92 91 91 90 91 91 91 91 91 90 90 90 89 90 90
79 80 80 83 84 89 91 93 92 94 93 94 93 94 96 96 95 95 94 94 94 95 93 92 92 91 90 91 92 92 91 90 89 89 90 91 91 91 92 91 93 93 94 93 94 93 92 92 92 92 93 93 93 93 93 92 93 92 91 90 90 91 93
74 77 78 80 82 85 87 86 90 92 93 94 94 95 95 96 95 95 95 94 95 93 94 94 94 93 90 91 91 90 90 91 90 91 92 92 92 91 91 92 92 94 94 93 92 93 93 92 92 92 92 93 93 94 92 91 91 92 91 89 89 89 90
71 74 77 78 79 81 83 83 86 88 90 88 86 95 92 93 96 94 95 96 95 96 95 95 94 92 91 91 92 91 91 92 93 92 92 93 93 91 92 92 92 92 92 93 93 93 94 93 94 93 92 94 93 92 93 91 90 93 92 90 89 89 93
69 71 73 75 75 77 79 80 81 82 83 86 88 90 95 96 94 92 93 91 93 93 93 95 95 94 92 91 91 91 92 93 93 92 92 93 94 95 95 94 93 93 92 94 95 93 93 94 94 92 92 92 92 91 92 91 92 92 92 91 90 90 92
68 67 69 71 71 72 73 76 78 78 78 81 83 84 83 89 93 93 92 92 94 93 94 95 96 96 93 92 92 93 92 91 93 95 94 94 95 95 96 97 96 94 93 94 96 96 93 93 94 93 90 91 90 91 90 91 92 92 93 91 91 90 89
68 67 67 67 68 68 69 70 70 71 75 76 79 82 81 82 90 93 91 91 93 94 96 95 95 96 95 95 94 94 92 93 94 94 94 95 97 97 97 98 98 96 95 95 95 96 95 92 93 91 90 91 91 90 90 91 91 91 93 93 93 92 92
66 67 66 65 66 67 66 66 68 67 70 74 78 81 80 80 82 89 90 88 90 92 93 94 95 95 94 96 95 92 93 93 94 94 95 95 96 97 98 98 98 98 96 96 95 95 96 94 93 92 90 90 91 91 91 90 91 91 91 94 95 93 93
67 66 66 65 64 66 66 65 65 66 67 71 75 77 79 78 78 79 82 85 87 89 90 90 91 91 93 95 95 93 93 95 94 93 95 95 95 97 97 98 99 99 98 96 96 95 96 96 93 92 92 91 91 92 91 91 92 90 90 92 93 93 92
67 68 68 67 65 64 65 65 65 66 67 69 71 73 74 76 76 78 78 80 83 87 91 92 91 89 90 90 91 90 93 94 94 93 93 94 93 93 96 97 97 97 97 96 94 96 96 96 95 94 94 93 93 92 92 91 92 91 90 91 92 93 93
69 67 67 67 66 65 64 65 65 65 66 67 69 70 71 72 74 75 78 78 80 83 85 84 86 91 91 90 89 89 89 90 93 93 93 92 91 92 92 94 94 94 95 94 94 96 97 97 97 95 93 94 93 93 94 95 94 94 92 91 91 92 93
71 70 68 66 66 67 67 67 66 65 66 66 66 67 69 69 70 72 74 76 79 79 80 80 83 83 90 91 89 90 90 88 88 90 90 90 89 89 90 92 92 93 92 93 93 93 93 93 94 96 95 93 93 93 95 95 96 88 79 82 92 92 94
70 71 70 69 67 67 68 69 68 66 65 65 66 67 67 68 69 70 73 73 76 76 78 79 78 81 84 88 92 91 89 88 88 87 87 88 88 88 88 89 91 90 90 90 91 91 90 91 93 94 95 95 94 94 95 97 96 79 71 72 75 89 92
68 69 70 71 69 68 67 68 68 68 67 66 66 67 67 67 68 69 69 71 72 74 77 78 79 79 79 83 85 88 88 88 88 87 87 87 86 87 87 88 89 88 89 90 91 89 91 91 91 91 94 95 95 95 96 96 83 72 69 69 69 75 90
68 69 70 70 70 69 67 67 68 69 69 69 69 68 69 69 68 67 68 70 71 74 75 77 78 78 78 78 80 81 85 86 87 86 86 86 86 87 87 87 87 88 89 90 90 91 88 88 90 90 91 92 92 94 95 96 81 70 67 67 67 67 78
68 69 70 71 71 71 70 69 68 70 71 71 71 72 72 71 69 69 70 70 72 74 74 75 75 77 77 76 76 79 81 82 84 86 86 87 87 87 86 86 86 88 91 91 90 88 89 90 89 89 88 90 90 90 93 94 83 69 66 65 65 65 71
67 68 68 69 69 71 69 70 70 71 71 72 73 74 75 73 72 71 71 71 72 74 74 74 73 72 72 75 77 78 81 83 82 82 84 86 87 86 86 86 86 88 89 92 91 89 88 89 89 89 90 91 91 91 93 96 77 69 64 63 63 64 68
67 69 69 70 70 69 69 72 71 73 71 74 76 75 76 75 75 73 71 73 72 73 75 76 75 73 72 73 75 77 79 81 82 83 84 85 86 86 85 86 85 86 88 89 92 93 93 91 91 91 91 91 91 92 91 95 74 68 64 62 62 63 79
69 69 70 71 72 72 71 72 72 73 73 75 75 76 74 74 75 74 74 73 73 73 77 78 75 74 73 72 75 75 76 78 78 80 82 83 83 84 85 85 85 86 88 88 90 91 93 92 93 91 92 91 91 90 90 93 79 66 63 61 60 66 83
72 72 72 72 73 73 73 73 73 75 75 75 75 76 76 76 74 74 73 72 73 73 74 76 75 74 73 73 74 75 75 76 78 80 82 82 82 82 82 82 80 81 88 88 89 90 93 93 93 93 93 93 92 93 91 92 82 65 62 60 59 70 84
72 73 73 73 73 73 73 72 71 73 74 75 75 75 76 76 76 75 73 73 74 75 74 75 76 75 74 75 76 76 77 77 77 78 80 81 82 84 83 81 79 78 77 81 88 89 88 87 86 91 92 97 95 85 89 93 86 66 62 60 58 69 85
69 70 72 73 75 73 71 71 71 73 74 75 73 74 76 76 75 74 72 72 75 74 74 73 73 75 76 76 77 78 77 78 76 77 78 79 80 81 80 78 77 78 82 85 87 88 89 90 88 87 89 91 93 96 95 94 93 84 60 60 57 61 82
70 70 70 72 72 69 71 73 73 73 74 74 72 74 76 75 74 72 72 72 73 73 75 75 74 74 74 74 77 79 78 78 77 78 79 80 79 78 80 80 79 81 84 86 88 88 87 89 89 89 89 91 92 95 96 97 94 90 62 58 57 58 67
69 70 71 71 68 69 71 73 72 72 75 74 75 75 75 73 71 70 71 72 72 74 77 76 75 75 73 72 74 76 77 77 77 78 79 80 80 79 80 81 81 82 80 81 83 83 84 85 85 86 87 90 93 93 94 92 84 97 68 58 57 56 57
66 66 67 67 68 71 71 70 70 71 72 75 76 75 74 74 69 69 70 70 71 75 76 75 75 75 74 73 72 73 76 77 77 77 78 79 79 79 78 79 80 79 78 78 79 80 81 82 83 84 84 86 89 91 92 92 91 74 85 60 56 55 55
66 66 67 69 70 70 70 68 69 69 71 73 73 73 73 71 68 68 68 68 72 74 74 74 75 74 73 74 73 73 74 76 77 78 78 78 77 78 77 76 76 76 77 78 79 80 79 80 82 83 86 86 86 89 92 93 94 80 71 73 55 57 54
64 64 66 66 68 68 68 68 67 68 69 72 72 72 71 71 69 68 67 69 71 71 72 73 73 73 73 74 74 74 75 75 75 76 77 79 78 77 78 77 76 76 78 78 76 77 79 80 82 82 83 84 85 85 88 90 92 94 79 66 61 56 55
64 65 66 67 66 66 66 67 68 68 68 69 72 72 71 72 71 67 68 71 70 70 71 72 71 71 72 73 74 75 76 75 77 77 78 79 80 80 79 79 78 77 77 76 76 77 77 78 81 83 83 83 84 84 87 86 89 89 91 78 70 63 57
62 63 63 63 64 64 65 66 66 66 67 67 69 70 71 70 71 70 70 70 71 72 71 71 71 70 71 72 74 74 75 74 77 77 77 78 80 83 83 81 80 79 77 77 77 76 77 79 80 80 82 83 85 85 82 84 84 84 87 86 87 84 74
61 62 63 63 64 63 64 64 64 64 64 64 66 67 69 70 70 71 70 71 72 73 71 70 70 70 71 71 73 73 75 74 73 73 77 79 80 81 81 81 82 81 78 78 77 76 77 78 77 79 81 82 83 79 74 74 77 81 83 81 80 86 86
61 62 62 62 62 62 61 62 62 62 63 63 65 66 66 67 68 70 70 70 71 70 70 69 69 69 69 71 73 74 74 76 77 77 76 76 76 77 77 78 79 79 80 81 81 80 81 79 77 78 82 81 76 73 75 77 79 81 66 72 65 73 89
62 62 62 63 63 63 62 62 61 62 62 63 64 65 65 66 67 69 71 71 70 70 69 68 69 70 71 72 74 76 76 77 79 78 74 74 72 74 76 73 64 69 78 79 72 65 59 59 75 79 78 77 78 78 76 77 78 65 58 55 55 58 59
61 61 61 62 62 62 61 62 62 62 62 63 64 65 65 66 67 68 69 70 70 70 69 68 68 69 70 71 74 74 74 75 75 76 74 73 73 73 71 74 76 58 54 58 64 62 59 55 54 54 57 68 73 73 65 62 58 55 53 54 54 52 54
61 61 61 62 62 61 61 61 61 61 62 63 64 64 65 66 66 67 69 70 70 70 68 68 67 67 68 70 71 71 70 72 72 73 73 72 71 70 70 71 71 74 62 54 55 57 54 53 53 52 52 52 56 64 73 65 57 55 55 55 55 53 51

ECMWFFLT1_sfc_temp_081.txt.gz
Temp
89 84 85 86 83 86 86 86 83 83 90 90 93 95 96 95 93 93 92 89 87 87 88 88 89 89 88 89 90 90 90 90 90 90 90 90 91 91 91 92 92 89 91 92 92 92 92 92 92 92 92 91 91 90 90 89 89 91 90 89 89 89 89
87 86 86 87 85 84 81 77 80 81 81 90 91 92 95 94 94 94 91 89 88 89 88 89 88 89 89 89 90 89 89 90 90 90 91 90 91 91 93 92 92 91 91 93 93 93 92 93 93 92 92 92 92 91 91 90 89 89 90 89 89 89 89
82 86 85 86 84 85 82 87 87 86 84 89 89 93 94 90 93 90 88 89 89 88 90 89 89 89 90 90 89 89 90 91 91 91 91 93 92 95 93 92 92 93 94 93 92 94 94 93 92 92 92 92 94 91 91 90 90 90 90 89 90 89 88
79 83 83 81 83 85 84 83 80 80 82 87 93 93 94 91 93 92 92 89 87 89 88 89 90 91 92 89 90 90 89 90 91 93 93 94 94 94 93 93 92 94 93 93 95 94 97 93 93 92 92 92 92 93 92 92 92 91 91 89 90 89 89
79 82 82 82 83 81 81 78 75 77 78 83 93 92 92 87 93 95 93 91 91 90 91 91 93 94 92 92 93 93 91 91 92 93 93 94 94 93 93 94 94 94 94 95 94 93 92 92 93 92 92 91 92 92 91 92 92 91 90 90 89 90 90
81 81 82 83 81 83 81 80 77 76 79 80 85 80 82 90 94 97 91 92 91 92 92 92 94 93 92 94 94 94 92 92 91 91 93 93 93 94 94 94 95 94 96 95 96 95 94 94 94 93 93 94 94 94 94 93 93 93 91 90 90 91 92
79 80 82 84 83 79 76 77 77 80 79 88 86 82 79 84 83 83 91 92 91 88 90 91 94 94 93 94 93 93 92 93 92 93 94 95 94 94 94 94 94 96 96 95 95 95 95 93 93 93 93 94 93 95 92 91 92 92 91 90 89 90 90
75 78 80 81 83 86 83 75 75 79 79 81 80 81 79 81 83 81 76 79 87 87 85 96 98 95 93 94 95 95 94 95 95 94 94 95 95 94 95 95 94 95 95 96 95 95 96 94 94 94 94 94 94 93 94 92 91 94 93 90 90 90 94
74 76 78 80 81 82 82 84 83 82 79 80 80 82 83 84 81 77 77 78 78 79 83 88 97 97 94 94 94 94 95 96 95 94 95 95 96 97 97 96 96 95 95 97 97 95 95 96 96 93 93 93 93 92 93 92 92 93 93 91 90 90 92
72 73 76 78 78 79 79 79 79 80 81 81 82 82 84 84 81 78 79 80 78 80 81 85 88 94 92 95 95 96 96 94 95 96 96 97 97 97 98 99 97 96 96 97 99 98 95 95 95 94 92 92 92 92 92 92 93 93 93 92 92 91 90
73 72 73 75 75 75 76 75 75 75 78 79 83 85 82 81 83 84 82 83 87 85 84 84 98 99 97 95 95 96 95 96 96 96 96 97 99 99 99 100 100 98 97 97 98 99 97 94 95 93 92 93 92 92 92 93 93 92 94 94 94 93 93
71 72 71 70 72 73 72 71 73 73 75 77 81 84 81 79 81 82 83 84 82 84 82 83 92 97 97 97 96 95 95 95 96 97 97 97 98 99 100 100 100 100 98 98 97 97 99 96 95 94 92 92 93 93 92 92 92 92 92 95 96 94 94
73 71 70 70 71 72 71 70 70 72 74 78 80 81 81 81 81 80 77 80 83 87 89 85 84 86 97 98 98 90 94 96 96 95 97 97 97 99 99 100 101 101 100 98 98 98 98 99 95 94 94 92 93 94 92 92 93 91 91 93 94 94 94
73 75 72 70 71 71 71 70 71 71 72 75 78 79 80 80 80 81 80 79 81 85 87 87 88 90 92 93 94 93 96 96 96 95 95 96 94 95 98 99 100 99 99 98 97 98 98 99 98 96 96 94 94 93 93 93 93 92 91 92 93 94 94
75 75 74 72 70 69 70 71 70 70 72 73 75 75 76 77 77 79 81 80 80 80 82 82 84 85 89 90 90 91 93 94 96 95 95 94 94 94 95 96 97 97 97 96 97 99 99 99 100 97 95 95 94 94 95 96 95 95 93 92 92 94 95
76 75 74 73 71 72 71 71 71 70 71 71 73 73 75 73 74 77 79 80 82 79 78 79 81 82 84 84 86 90 91 91 90 93 93 93 91 92 93 94 94 96 96 96 97 96 95 95 97 99 97 95 95 95 97 97 98 89 82 84 93 93 96
75 75 75 74 72 73 73 72 71 71 70 71 72 72 72 70 72 75 77 80 79 79 80 78 76 79 82 81 81 79 77 79 85 90 90 91 91 91 91 91 93 93 93 94 95 94 93 94 96 98 98 98 96 96 98 99 99 82 74 75 78 91 93
73 74 75 75 73 73 73 73 72 71 71 72 72 72 72 72 72 73 73 77 77 77 79 79 78 77 78 81 77 75 76 77 78 77 79 83 86 90 90 91 91 90 91 93 94 92 95 94 94 94 97 98 98 98 98 98 87 74 72 73 72 79 92
74 75 75 75 75 73 72 73 75 73 72 73 74 74 75 75 74 72 73 74 76 77 77 77 76 76 78 78 76 74 75 76 78 80 80 82 85 86 86 88 88 89 90 92 93 94 91 90 93 92 94 95 94 97 98 99 84 71 70 71 71 71 82
74 75 76 76 76 76 74 74 75 76 75 74 74 77 80 79 77 75 76 76 76 75 76 76 75 75 75 76 75 75 76 76 77 80 81 82 82 83 84 83 85 85 90 91 91 90 91 93 91 92 91 92 92 92 96 97 86 69 68 68 69 69 75
72 73 74 74 74 75 74 75 75 76 76 76 76 77 79 79 80 79 78 77 76 77 77 78 77 75 73 73 74 73 74 76 78 80 81 81 79 77 78 79 80 81 83 82 82 86 90 91 91 91 92 93 94 93 95 98 81 68 65 65 66 67 73
72 74 74 75 74 73 73 76 76 77 76 79 80 78 79 80 81 80 79 79 77 77 77 79 78 77 74 72 72 72 74 75 76 77 79 79 77 76 78 79 79 77 77 76 78 84 82 86 92 92 92 92 93 94 92 97 77 69 63 63 63 65 82
74 74 75 76 77 77 76 77 77 77 78 80 81 81 78 77 79 79 79 78 78 77 78 78 76 76 75 75 77 75 75 76 76 76 77 78 76 75 77 77 76 76 77 77 79 80 84 85 89 91 93 92 92 92 92 95 81 66 62 61 61 67 85
77 76 77 77 77 78 78 77 78 79 79 80 80 81 81 81 78 78 76 76 78 78 77 77 75 75 76 76 76 76 77 77 77 77 78 79 77 76 76 76 77 77 77 76 78 82 86 88 88 89 91 94 93 95 93 94 84 65 61 60 60 71 86
77 77 77 77 77 77 77 75 75 78 79 80 79 79 80 81 80 79 77 77 78 80 80 79 77 77 76 76 77 77 77 79 78 78 77 77 77 77 75 75 76 78 79 81 83 84 85 87 89 91 92 95 95 88 92 95 88 67 61 59 58 70 87
74 74 76 77 79 76 75 75 76 77 79 79 77 79 81 81 79 77 75 76 79 78 79 78 77 78 78 77 77 77 77 79 78 78 79 78 78 78 76 75 75 76 80 82 84 84 85 88 88 90 91 94 95 98 96 95 94 84 60 60 57 62 84
75 75 75 76 75 72 75 77 77 77 78 78 77 80 81 79 78 76 75 75 77 77 79 79 79 78 77 77 78 79 77 77 77 77 78 80 80 79 79 80 76 76 77 78 81 84 84 86 88 89 89 92 93 95 97 97 95 90 60 58 57 59 69
74 75 76 75 73 74 75 76 75 76 78 78 79 80 80 78 75 73 74 74 75 77 80 79 79 78 78 77 77 77 77 76 75 76 78 79 80 79 80 80 81 81 79 77 76 77 80 82 83 85 86 90 91 90 92 93 85 94 68 58 57 57 59
70 70 71 71 73 75 75 73 73 74 75 78 79 79 78 78 74 73 73 72 73 77 78 78 78 77 77 77 77 77 79 78 77 76 76 75 76 78 79 81 81 81 81 81 80 79 79 80 82 82 81 83 84 86 89 90 90 74 85 60 56 55 56
70 70 71 74 75 74 73 72 72 72 74 76 76 76 76 75 72 72 71 71 74 76 76 76 76 75 76 76 77 78 79 80 79 78 77 76 76 75 76 78 80 80 81 80 80 78 78 81 81 79 78 80 82 86 88 87 88 80 73 73 55 56 55
69 69 70 70 71 71 71 71 70 72 73 75 74 75 74 75 72 71 71 73 74 74 74 74 74 74 75 76 77 77 78 79 79 79 79 80 78 76 75 76 78 78 80 80 80 80 79 80 81 80 80 80 81 79 82 84 83 82 75 67 60 55 54
68 69 70 70 70 69 69 70 71 71 71 72 74 74 74 74 74 70 71 74 74 74 74 74 73 73 73 74 75 76 78 79 81 82 82 82 82 80 78 77 78 79 79 80 81 80 79 79 81 80 80 78 79 79 77 77 77 77 79 77 72 63 55
66 66 66 66 67 67 68 68 69 69 69 69 71 72 73 72 73 73 72 73 75 76 74 73 72 71 72 72 75 76 77 76 79 81 83 82 84 85 84 83 82 81 79 80 81 81 81 81 80 79 80 79 80 78 75 75 76 77 81 81 80 78 75
65 65 66 67 67 67 67 67 66 66 66 66 68 69 70 71 72 72 72 74 74 76 74 72 71 72 72 73 74 74 75 75 75 76 80 83 84 85 85 83 82 81 79 81 82 81 81 83 82 82 82 82 81 77 74 75 79 77 76 78 79 81 82
65 65 66 66 66 66 65 65 65 65 65 65 67 68 68 69 70 72 72 72 73 72 72 71 70 70 71 73 74 75 75 77 79 80 80 81 81 81 80 79 80 80 80 83 83 81 79 76 76 77 81 78 75 75 75 77 79 81 68 69 62 69 77
65 66 66 67 67 67 66 65 65 65 65 65 67 67 68 69 70 71 73 73 72 72 70 70 70 71 72 74 75 77 78 79 81 81 81 82 81 80 81 76 66 71 79 80 73 66 61 59 74 77 79 77 78 79 77 79 80 65 55 55 56 54 54
64 65 65 66 65 65 64 65 65 65 65 66 66 67 67 68 70 70 71 72 72 72 70 69 69 70 72 72 74 75 75 76 77 78 76 77 78 78 78 79 79 58 54 60 64 61 57 54 54 55 56 66 73 74 65 62 58 54 52 52 52 51 49
65 65 64 65 64 64 63 64 64 64 64 65 66 67 67 68 69 69 71 72 71 71 69 69 68 67 69 70 71 71 71 73 73 74 74 74 75 75 74 75 74 77 63 54 55 57 53 52 50 49 50 50 54 63 72 65 57 54 54 52 50 50 49

ECMWFFLT1_sfc_temp_084.txt.gz
Temp
85 85 83 84 84 85 83 82 79 79 80 81 82 85 90 92 91 89 88 86 85 85 86 86 86 86 86 86 87 87 87 87 87 87 86 87 87 86 87 88 88 86 87 87 86 86 86 87 86 88 88 88 87 87 86 86 84 86 86 86 85 84 86
84 84 84 83 82 81 76 79 78 79 80 81 81 83 85 84 87 89 87 86 86 85 86 86 85 86 86 86 87 87 86 87 87 86 87 86 87 87 88 87 87 86 86 88 88 88 87 87 87 87 88 88 88 87 88 87 87 87 87 86 86 83 85
85 84 84 83 83 83 79 80 80 80 81 82 83 85 82 76 75 78 87 86 86 86 87 86 86 87 87 86 87 86 87 88 87 88 88 89 89 91 90 88 89 89 89 88 88 90 90 89 89 88 88 88 90 87 87 87 87 87 85 85 85 84 84
83 84 84 85 85 84 78 79 81 82 83 84 84 81 77 76 78 78 79 88 85 87 85 87 88 88 88 87 87 86 87 87 88 89 90 90 90 91 89 89 88 90 89 89 90 92 93 90 89 88 88 88 88 88 88 88 88 87 87 85 85 85 84
81 83 83 82 84 82 80 79 80 81 82 85 84 79 78 77 78 78 76 78 88 85 89 89 90 90 89 89 90 89 88 89 89 89 90 90 89 90 90 91 90 91 89 91 89 89 89 88 90 89 88 88 89 88 88 88 88 87 86 85 85 85 85
82 80 79 82 82 82 82 83 80 79 80 79 80 78 80 78 77 79 80 78 75 82 87 89 89 89 89 90 90 90 89 88 88 88 89 90 89 90 91 90 91 91 92 91 92 91 91 90 90 89 89 91 91 91 90 89 90 89 87 87 86 87 87
80 80 80 78 78 79 80 77 79 76 76 77 79 80 80 78 78 78 81 80 79 78 81 85 89 89 89 89 90 89 88 90 89 90 91 92 92 90 90 90 90 91 92 91 90 91 91 90 89 89 90 90 89 91 88 87 88 88 87 86 86 86 86
77 79 80 80 79 79 79 77 76 78 77 77 77 78 78 80 79 79 81 82 81 83 82 82 79 83 87 89 91 91 91 90 91 91 91 92 92 91 92 91 91 91 91 92 91 91 92 90 92 90 90 91 90 89 90 88 87 90 89 86 86 87 90
76 77 79 80 79 77 77 78 78 78 79 78 77 76 77 77 76 79 82 81 82 83 82 81 81 81 79 79 83 89 92 91 91 91 91 92 93 94 94 93 93 92 91 93 94 92 92 91 92 89 89 89 89 88 89 87 89 89 88 87 86 86 88
74 74 74 75 76 76 75 75 76 77 78 78 76 76 76 76 78 78 80 80 82 81 81 81 81 79 79 79 79 79 85 90 92 92 93 93 94 94 94 95 94 93 94 94 95 94 92 92 91 90 87 89 88 88 88 88 89 89 89 88 88 87 86
72 71 72 72 72 72 72 72 71 72 74 74 76 77 78 77 80 81 81 83 83 80 80 79 80 79 77 78 77 77 76 85 94 92 92 93 95 95 95 96 96 94 94 95 95 95 93 90 91 88 88 90 89 88 88 89 89 88 90 90 90 88 89
70 71 69 70 70 69 69 68 69 69 71 73 75 76 75 78 80 82 83 83 84 83 80 79 79 79 78 77 76 76 78 77 86 92 93 94 95 96 96 96 96 95 94 95 94 93 95 91 92 90 88 88 89 89 88 88 88 87 88 91 91 90 89
71 70 70 70 69 69 68 67 66 68 68 70 71 73 73 78 80 79 80 82 84 85 84 80 79 78 77 79 78 76 77 78 75 77 94 95 95 97 96 96 98 97 96 95 94 94 95 94 91 90 90 88 90 90 89 88 89 87 87 89 90 89 88
71 71 71 71 71 69 68 67 67 67 67 68 68 70 71 72 75 80 80 81 82 83 82 82 82 80 78 76 78 79 78 77 77 75 73 79 87 92 96 96 96 95 95 94 93 95 95 96 93 92 92 91 90 90 89 88 89 88 87 88 89 90 89
73 72 71 71 70 70 70 69 68 68 67 68 70 69 69 70 72 73 79 81 81 82 81 81 80 77 77 76 74 75 78 78 78 77 77 79 77 77 87 92 92 92 92 91 93 96 95 96 97 93 92 92 90 90 91 92 91 91 90 88 88 89 90
75 74 73 72 72 71 71 71 71 70 69 69 71 70 70 70 70 72 76 79 80 79 80 80 79 77 78 76 76 77 79 79 77 78 78 78 79 79 79 84 89 92 91 92 92 91 90 91 92 95 93 91 91 91 93 92 93 87 81 83 89 88 91
74 73 73 73 73 73 72 72 72 72 72 71 70 70 71 70 70 71 72 75 76 76 77 79 77 77 77 75 75 76 79 79 79 79 77 76 77 79 80 80 78 78 77 81 88 91 89 90 92 94 95 94 93 92 93 94 94 80 73 74 78 88 88
73 73 73 73 72 73 74 73 72 72 73 74 74 73 72 72 72 73 73 74 74 75 75 75 75 76 75 75 75 75 76 77 78 79 80 81 81 79 80 79 78 78 78 78 79 78 85 91 91 90 93 95 95 94 93 94 85 75 71 73 73 78 88
74 75 75 74 73 72 73 74 75 73 73 74 75 75 76 75 75 73 74 73 72 74 75 75 75 74 74 75 74 73 74 76 78 78 80 81 81 81 79 79 79 78 78 78 79 80 79 77 82 88 91 91 90 93 94 94 83 73 70 71 71 72 81
75 75 75 75 75 75 74 74 74 76 76 75 75 77 79 78 77 76 76 75 75 76 76 75 75 74 74 74 74 73 74 74 74 75 78 79 80 79 79 79 78 78 79 78 79 79 79 81 81 80 83 88 89 88 91 93 85 73 68 69 70 71 75
73 74 74 73 73 75 74 75 75 76 77 77 77 77 79 78 79 78 78 77 77 77 76 75 75 74 73 73 73 74 74 75 75 75 76 78 78 78 78 78 79 80 80 80 79 78 78 78 80 82 83 86 90 91 92 94 81 71 66 67 67 69 73
73 75 74 75 73 73 73 76 75 77 77 80 81 79 79 79 80 79 78 79 78 78 77 76 75 75 74 73 72 73 74 74 74 76 76 77 77 77 77 78 78 79 80 79 80 80 80 80 81 81 82 84 87 90 90 93 77 71 63 64 65 67 78
75 75 76 76 78 76 75 76 77 78 79 80 80 80 79 78 79 78 79 78 79 78 79 77 75 75 75 74 74 75 75 76 76 76 76 76 76 75 76 76 77 78 78 77 79 80 81 82 83 82 83 84 86 87 89 91 81 71 63 62 63 67 78
78 77 77 78 78 77 76 76 77 79 80 80 79 79 81 81 79 78 75 76 78 77 77 76 75 75 75 76 76 75 75 76 76 76 77 77 76 75 75 76 76 76 77 77 78 80 82 83 83 84 85 86 87 89 88 90 84 71 62 60 61 69 80
77 78 78 77 76 75 76 75 76 79 80 79 77 79 81 80 79 78 76 76 78 79 78 77 76 76 75 77 78 76 76 76 76 77 77 76 76 76 76 75 75 76 77 78 79 79 81 82 82 83 84 87 88 84 86 88 83 72 62 59 59 67 81
74 75 77 78 76 76 76 76 76 77 78 77 75 79 80 80 78 75 74 75 78 77 77 76 76 77 77 77 78 78 78 77 75 75 75 75 76 76 76 75 74 75 76 77 77 78 79 80 81 81 83 85 86 87 88 87 86 81 63 57 57 61 80
75 76 75 75 74 75 76 76 76 76 77 76 76 79 79 78 77 74 73 74 74 74 76 77 77 76 75 75 77 78 77 78 77 75 75 76 76 75 75 75 76 77 76 76 76 76 77 78 79 79 79 80 80 81 83 82 80 77 61 55 54 56 64
74 75 76 75 75 74 74 75 74 75 76 76 78 78 78 77 73 72 72 72 73 74 77 76 76 75 75 74 75 76 77 77 77 78 77 76 75 74 75 76 76 77 77 76 76 76 76 76 76 77 76 76 77 79 80 77 74 75 64 60 56 53 53
70 71 71 72 73 74 74 72 72 73 74 77 77 77 76 76 72 71 72 71 72 75 75 75 75 75 74 74 75 75 77 77 77 77 78 77 76 75 74 74 74 74 74 75 75 75 76 76 77 76 75 76 76 77 77 76 77 67 74 67 61 54 53
70 70 72 74 74 72 72 71 71 71 74 75 75 75 74 73 70 70 70 70 73 74 74 74 74 73 73 74 74 75 76 77 77 76 77 77 77 77 76 75 75 74 74 73 74 74 73 73 75 74 74 74 73 75 75 75 74 73 70 71 63 56 52
69 69 70 70 71 70 70 70 69 71 72 73 73 73 72 72 70 69 69 70 72 72 73 73 73 73 72 73 74 73 75 76 76 76 77 78 78 77 77 77 77 75 75 75 75 75 75 75 76 74 73 73 73 73 74 74 74 75 74 67 68 58 55
68 68 69 70 69 68 69 70 70 70 69 70 71 71 71 71 71 68 69 72 72 72 73 73 72 71 71 72 73 73 75 75 77 78 78 79 79 78 77 78 78 76 75 76 77 76 77 76 77 77 76 73 73 73 73 75 75 77 77 74 75 71 60
66 66 66 66 67 67 67 68 67 67 67 67 68 69 70 70 70 70 70 70 72 73 72 71 71 70 71 71 72 73 73 74 75 76 77 78 79 81 81 78 78 78 77 77 78 78 77 77 77 76 75 73 72 72 73 75 76 76 77 77 76 75 72
65 65 66 67 67 67 66 66 65 65 65 65 66 68 68 69 69 70 70 71 73 73 71 70 69 70 70 71 71 71 72 73 74 74 75 77 79 80 82 81 81 80 78 77 78 77 77 78 76 75 75 74 73 73 73 73 75 75 74 73 75 75 76
65 65 66 66 66 66 65 64 64 64 64 65 66 67 67 67 68 70 70 70 71 70 69 68 69 68 69 71 72 73 73 75 77 78 78 78 77 77 77 78 80 78 77 81 80 79 79 77 76 76 77 76 74 72 73 73 75 74 63 65 61 66 72
65 66 66 66 66 66 65 65 64 64 64 65 66 66 66 67 68 69 71 70 70 70 68 68 68 68 69 70 71 73 74 74 75 75 74 75 75 75 77 76 66 68 75 78 74 68 62 63 74 77 78 75 76 76 74 75 75 62 55 53 52 52 52
64 64 64 65 64 64 64 64 65 65 64 64 65 65 65 66 67 67 69 69 69 69 67 67 66 67 68 69 70 70 70 71 71 72 71 72 73 74 73 74 75 62 58 58 62 60 58 56 54 54 57 66 70 71 64 62 57 52 50 49 49 48 49
66 65 64 64 64 64 64 65 64 64 63 64 65 64 65 65 66 66 68 68 69 68 67 67 66 65 66 67 68 68 68 69 69 70 70 69 70 70 69 70 70 71 63 59 59 59 55 52 51 51 52 52 55 64 70 63 54 51 50 49 49 49 49

ECMWFFLT1_sfc_temp_087.txt.gz
Temp
81 80 80 81 79 78 78 77 77 79 79 79 79 83 88 85 83 83 82 81 79 79 79 79 80 80 80 79 80 79 80 79 80 79 80 80 81 81 80 81 81 80 80 79 79 79 80 81 80 82 81 81 81 81 80 79 79 82 80 80 79 80 80
80 79 80 79 77 74 75 78 78 78 78 78 79 78 77 76 76 77 78 80 81 80 80 80 80 80 80 80 80 80 80 80 80 81 81 80 81 81 82 81 81 80 80 81 80 81 81 82 81 81 81 82 81 81 81 80 79 80 80 80 79 79 80
77 79 80 77 76 75 75 77 78 78 78 78 78 79 76 74 75 75 75 76 76 80 81 80 80 81 81 80 79 80 80 81 80 81 80 81 81 83 83 81 82 82 82 83 82 82 83 82 81 82 81 82 82 81 81 81 80 81 80 80 80 80 78
78 74 77 77 76 76 76 75 76 77 78 78 77 77 76 75 76 76 75 76 77 78 81 81 82 82 81 80 80 80 80 80 81 82 83 82 82 83 82 82 81 83 82 83 84 85 86 83 82 82 83 81 81 82 82 82 82 81 80 79 79 79 78
71 71 70 72 74 72 72 71 71 72 74 78 78 75 75 76 77 76 75 76 76 77 80 83 84 84 83 83 84 83 82 82 82 83 83 83 82 82 82 83 82 83 83 85 83 83 83 83 83 82 82 82 81 82 81 81 81 80 80 79 79 79 79
69 70 71 71 71 71 72 74 74 75 76 77 75 75 77 78 77 76 75 75 75 77 77 76 76 80 83 84 84 85 83 82 82 82 83 82 82 83 82 82 83 83 84 84 85 84 83 83 84 82 83 84 83 83 83 82 82 82 80 80 80 80 80
73 71 69 70 70 71 73 73 75 76 76 77 77 78 77 77 77 76 76 76 76 75 75 76 79 77 80 84 84 83 82 84 82 83 84 84 83 84 82 83 84 84 84 84 84 85 84 83 84 83 83 84 83 84 82 81 81 82 81 80 79 80 80
70 72 71 71 71 71 72 74 75 75 75 75 75 75 76 77 77 76 76 77 77 77 76 77 77 79 79 83 86 84 84 85 84 84 84 85 83 84 83 83 82 85 82 85 84 85 85 84 85 84 84 84 83 82 83 82 81 83 82 80 79 80 83
71 71 71 72 71 70 70 72 73 75 75 74 73 73 74 74 75 76 77 77 78 77 77 78 79 81 80 80 82 82 84 86 85 84 84 85 84 85 86 85 84 85 84 84 86 85 86 85 86 83 83 84 82 82 82 82 83 82 82 81 80 80 82
69 69 70 71 69 68 68 68 72 74 74 74 73 72 72 72 74 75 76 77 78 78 79 80 80 79 78 78 79 81 81 80 82 86 86 85 86 86 87 87 87 84 86 85 86 86 84 85 86 83 82 83 81 82 81 82 83 82 82 81 82 81 80
68 67 68 69 68 67 66 66 68 68 70 70 71 73 73 73 75 76 76 78 79 77 78 77 76 75 73 76 77 77 78 80 79 78 79 82 86 87 88 88 88 86 87 87 86 87 85 83 85 83 81 84 83 81 81 82 82 82 83 82 83 82 83
67 67 66 67 67 67 65 66 67 68 68 69 70 70 72 74 74 73 74 75 74 74 75 73 73 73 72 73 75 75 77 77 77 77 77 77 76 79 86 89 88 89 87 88 87 85 88 84 84 84 82 82 83 82 81 81 82 81 83 84 83 82 83
67 66 67 66 66 66 66 65 65 66 67 68 69 70 70 71 73 73 73 74 75 75 74 73 74 74 74 75 76 75 76 75 75 74 76 78 78 78 78 84 90 89 89 89 89 87 86 87 84 84 84 83 83 83 81 81 81 81 81 83 83 82 82
67 66 66 66 66 66 64 64 65 65 66 66 68 69 69 70 71 73 73 73 74 74 74 75 75 76 76 76 76 75 75 75 75 75 74 76 76 77 79 80 82 86 89 88 88 89 86 87 86 84 84 84 84 84 83 82 82 80 81 82 83 82 82
66 65 65 66 66 65 65 65 64 65 65 66 68 68 68 68 69 70 72 73 73 74 74 74 74 74 74 74 73 73 74 74 75 75 76 77 76 77 78 79 78 79 80 84 88 89 89 87 88 86 84 85 84 84 85 85 84 84 82 82 82 83 81
68 67 67 67 66 67 66 66 67 66 66 66 66 66 68 68 68 69 70 71 71 72 73 73 73 73 74 73 73 74 75 75 75 75 75 75 75 75 77 78 77 77 76 76 78 81 82 85 85 88 86 85 84 85 86 86 87 84 79 80 83 83 85
69 69 69 69 68 68 68 68 68 67 66 67 67 67 67 68 68 68 69 70 71 71 73 73 72 73 73 73 73 73 74 73 74 75 74 75 75 75 76 76 77 76 75 76 76 75 76 78 80 83 88 87 86 85 87 88 89 78 72 73 76 84 83
68 69 70 70 69 69 70 70 70 69 68 68 68 68 68 67 68 69 68 69 70 71 71 72 72 71 71 71 71 72 72 73 74 74 74 75 75 76 76 76 76 75 75 77 77 76 78 78 78 77 80 86 87 86 87 87 82 73 70 71 71 76 84
68 69 69 70 70 70 69 70 71 70 70 70 70 68 68 68 68 68 69 69 70 71 71 71 71 71 71 71 71 71 71 72 72 73 73 73 75 76 76 76 76 75 75 76 76 76 75 75 77 78 78 79 79 83 86 87 78 72 69 69 70 70 78
69 69 70 71 71 71 70 69 69 70 69 68 70 72 73 71 70 69 70 71 71 70 71 71 70 70 70 70 71 71 71 72 72 73 73 74 74 75 75 75 75 76 76 76 75 75 75 76 77 77 77 78 78 77 81 82 81 70 68 66 67 69 72
67 67 68 68 68 69 68 68 68 68 68 69 71 71 73 72 71 70 70 72 71 71 69 71 71 70 70 70 71 71 71 72 72 73 73 74 75 74 74 74 75 75 76 77 76 75 75 75 75 77 78 79 80 80 82 87 78 72 66 64 63 65 69
68 68 67 68 66 65 66 70 69 71 69 72 73 71 72 73 74 73 71 74 73 72 71 71 70 70 70 70 70 71 71 72 72 72 72 73 74 74 74 74 74 74 75 75 76 76 76 76 76 77 77 78 79 79 80 84 70 65 65 61 61 63 71
69 68 69 69 70 68 67 68 69 72 72 72 73 72 70 70 71 70 71 71 72 71 72 70 69 70 70 71 72 72 72 72 71 72 72 72 73 73 73 73 73 74 75 73 74 75 77 77 78 78 79 78 78 78 78 82 66 61 60 61 61 65 72
71 70 71 71 69 70 68 69 70 73 73 71 72 72 73 72 70 69 67 68 69 69 69 69 68 68 68 69 71 71 73 73 73 72 73 73 72 72 73 74 74 73 75 74 74 75 77 78 78 79 79 79 79 81 80 81 67 59 57 62 61 66 73
71 71 70 70 69 69 69 69 70 73 71 70 70 71 72 72 71 69 68 68 70 70 69 69 69 69 68 70 70 71 71 73 73 72 71 71 72 73 72 72 72 74 74 75 76 75 76 77 77 78 78 81 81 80 80 77 70 62 61 59 60 65 70
67 68 69 69 70 69 68 68 69 70 70 70 68 72 72 71 70 68 67 68 70 69 68 67 67 68 68 67 69 69 71 72 72 72 71 70 71 72 72 73 73 73 73 74 75 75 76 76 76 76 77 78 78 80 80 76 74 73 63 62 60 59 69
69 69 68 69 69 70 68 69 69 69 70 67 68 71 71 69 69 66 66 67 66 67 69 69 68 68 66 66 68 70 69 70 70 70 70 70 71 72 73 72 72 72 72 73 73 74 74 75 75 75 75 76 77 77 78 76 75 73 61 59 58 56 62
68 69 70 70 70 69 67 68 66 67 69 68 70 70 69 67 66 65 65 65 66 68 70 69 68 68 67 66 66 68 68 68 69 71 72 71 71 70 70 71 73 73 72 72 72 71 72 74 74 73 73 74 75 76 75 76 76 75 65 60 56 53 56
64 65 65 65 65 68 68 64 65 65 67 69 69 69 69 68 64 64 65 63 64 68 68 68 68 67 67 66 67 67 69 68 69 70 70 71 72 70 69 69 70 70 70 70 70 71 71 72 73 73 72 73 73 75 75 75 76 71 72 61 56 54 52
63 64 66 67 67 66 67 64 63 64 66 67 66 66 66 65 63 64 62 62 64 66 67 67 66 66 66 67 66 67 67 69 69 69 69 70 70 69 69 69 69 70 70 70 69 69 70 70 71 72 71 72 72 73 73 74 74 73 69 70 63 60 53
62 63 63 63 64 64 64 63 63 63 64 65 64 64 63 64 62 62 61 62 64 64 64 65 66 66 65 65 66 66 67 68 68 67 68 69 69 69 69 69 68 68 69 69 69 69 69 69 71 71 71 71 72 72 72 74 74 73 72 67 66 60 58
61 62 63 63 61 62 63 63 63 63 62 63 64 64 63 64 63 60 61 63 64 64 64 65 64 65 64 65 65 66 67 67 68 69 69 70 69 69 68 69 69 69 69 68 69 69 71 71 71 71 71 71 71 71 72 73 73 73 74 74 74 71 63
59 59 58 58 60 61 60 61 60 60 61 59 61 61 63 62 62 62 62 63 65 65 64 64 63 63 63 63 64 65 65 66 66 68 69 70 70 71 71 69 68 69 69 68 69 70 71 71 70 70 70 69 68 68 71 72 72 73 73 72 72 71 71
57 58 59 59 59 60 58 58 58 58 59 58 59 60 61 61 61 62 62 64 65 65 63 63 63 63 62 63 64 64 65 65 70 70 68 69 70 70 70 69 69 68 68 69 69 68 68 69 68 69 69 68 67 69 69 69 70 71 71 70 69 69 69
57 58 58 57 58 58 56 57 57 58 59 59 59 59 59 59 60 62 62 62 63 62 62 62 63 62 61 63 63 64 66 67 67 67 67 66 66 66 65 65 68 67 67 70 69 69 69 68 69 69 70 70 68 66 68 69 70 71 64 66 62 64 67
57 57 57 58 58 57 59 59 58 59 58 57 58 58 59 59 60 60 62 61 61 61 60 61 61 61 61 62 63 65 65 65 66 66 65 66 65 66 67 70 61 60 64 66 68 65 58 57 65 69 69 69 69 70 69 69 70 64 55 51 49 50 50
56 56 56 57 58 58 57 57 60 58 57 57 58 58 59 58 59 59 61 61 61 61 60 59 60 61 59 62 62 63 64 63 63 63 62 63 64 64 63 64 66 57 57 59 62 58 54 52 51 51 53 59 63 66 62 60 56 52 51 50 50 48 48
56 56 57 58 57 56 57 57 56 56 57 56 58 57 57 58 58 58 61 61 61 60 59 58 58 58 58 59 60 62 61 60 61 62 62 61 60 61 61 62 62 63 58 54 54 53 51 49 48 48 50 52 54 59 63 59 54 51 50 50 49 49 48

ECMWFFLT1_sfc_temp_090.txt.gz
Temp
75 75 76 76 76 77 77 77 77 80 80 80 81 83 83 82 80 80 79 78 78 77 76 77 77 77 77 77 77 77 77 77 77 76 77 77 78 78 77 78 78 77 77 77 77 78 78 79 79 79 79 79 79 78 77 77 77 79 77 78 77 78 77
74 75 76 77 76 76 76 76 76 78 79 80 81 82 82 81 80 79 79 79 79 78 77 77 78 77 78 78 78 77 77 77 77 78 78 77 78 78 79 78 79 77 77 78 78 78 79 79 79 79 79 79 79 78 78 77 77 77 77 77 77 77 77
75 73 68 69 70 69 70 70 71 72 73 75 80 82 81 79 79 79 78 78 77 78 78 78 78 78 78 78 77 77 78 77 77 77 77 78 78 80 79 79 79 79 79 79 78 79 80 79 78 79 79 78 79 78 78 77 77 77 77 77 78 77 76
66 66 69 71 70 71 71 71 72 73 74 74 74 77 78 79 79 79 79 79 77 78 78 78 79 79 79 78 78 78 78 78 78 78 79 79 79 80 79 78 78 79 78 79 80 81 82 80 79 78 80 78 78 78 78 78 78 77 77 77 77 77 76
68 67 69 69 70 70 71 72 73 73 74 74 74 74 75 77 79 79 78 79 78 78 79 80 81 81 80 80 80 80 79 79 78 78 79 79 79 79 79 79 79 79 79 81 80 79 79 79 79 78 78 77 78 78 78 78 78 78 77 77 77 76 77
66 67 68 70 70 70 71 72 73 73 74 75 74 74 75 76 76 78 78 78 77 79 79 79 79 80 80 81 81 81 79 79 78 78 78 78 78 79 79 80 79 80 80 80 81 80 80 79 79 79 79 79 79 79 79 78 79 79 77 77 77 77 78
67 68 68 68 67 69 71 71 72 73 75 75 77 76 75 75 75 76 78 78 78 77 78 78 80 79 80 81 81 79 78 79 78 79 80 80 79 78 78 79 80 80 81 80 80 81 81 80 80 79 80 80 79 80 79 78 78 78 78 77 77 77 77
66 67 68 69 69 69 70 72 73 73 73 74 73 73 74 74 74 73 73 75 77 77 76 78 79 79 79 81 81 80 80 80 80 80 80 81 80 79 79 79 79 80 80 81 81 81 82 81 82 81 80 81 80 79 80 78 78 79 78 77 76 77 80
66 66 66 67 67 67 67 68 71 72 72 72 72 72 72 73 72 73 74 74 72 72 72 74 75 75 74 75 78 79 80 81 80 79 80 81 81 81 82 81 80 80 80 81 82 81 82 81 82 80 80 81 80 78 79 79 79 79 78 78 77 77 78
64 64 65 66 66 66 67 67 69 69 70 71 71 70 70 71 72 73 73 73 73 73 73 74 73 73 73 73 72 75 77 79 80 81 81 81 82 82 83 83 82 81 82 81 82 82 81 81 82 81 80 80 80 79 79 79 79 79 79 79 78 78 78
64 64 64 65 65 65 65 65 66 67 69 70 70 71 71 72 73 73 72 73 73 73 74 74 74 73 73 74 74 74 74 76 78 81 81 82 83 83 83 84 84 82 83 83 82 83 81 80 81 80 79 81 80 79 79 79 79 79 79 80 80 79 79
63 63 62 63 64 64 63 64 65 65 66 68 70 71 71 72 72 72 72 72 73 73 73 74 74 74 72 72 73 73 72 71 70 72 76 80 79 79 80 81 82 83 83 84 82 81 82 81 80 81 79 80 80 80 80 79 79 79 80 80 80 80 80
62 62 62 62 63 64 64 64 64 64 65 67 69 70 72 72 72 72 72 73 73 73 73 73 73 72 72 72 74 72 72 72 72 71 73 75 77 77 77 79 81 82 82 84 84 82 82 82 80 80 80 80 80 81 80 79 79 79 79 80 80 80 79
64 63 63 62 64 64 63 63 63 64 64 65 67 69 70 71 71 71 72 72 73 73 73 73 72 72 72 72 73 72 72 72 73 74 73 73 74 75 76 77 77 77 78 80 83 84 83 83 81 81 81 81 80 81 80 79 78 78 78 79 80 79 79
63 63 64 64 63 64 64 63 63 63 64 65 66 67 67 68 69 71 72 72 72 73 73 74 74 73 74 73 73 73 73 73 74 74 75 75 74 74 75 75 76 76 76 75 78 85 84 84 84 82 81 81 81 81 81 81 80 80 79 78 78 79 79
64 64 64 64 64 65 64 64 64 64 64 65 66 66 67 68 68 69 70 71 71 71 72 73 73 73 73 73 73 74 74 73 74 74 73 73 73 73 74 75 74 76 74 75 74 76 80 79 81 83 82 81 81 81 82 82 83 80 76 78 80 79 81
65 64 65 66 66 66 66 64 64 65 64 64 65 66 66 67 68 69 70 70 70 71 72 72 72 72 72 72 73 73 73 73 73 74 73 73 73 73 74 74 75 73 73 73 74 73 74 78 81 82 82 82 82 81 82 84 85 77 70 71 75 81 79
65 65 66 67 67 68 67 66 65 65 65 65 65 66 66 67 67 68 68 69 69 69 71 71 71 70 70 71 71 71 72 72 72 72 73 73 73 74 74 75 74 73 73 74 74 74 75 74 74 75 78 82 81 81 82 83 79 72 69 69 69 75 81
66 67 68 68 68 67 67 68 68 67 66 67 67 66 67 67 67 67 68 68 69 69 69 69 70 70 70 70 71 71 71 71 72 72 72 73 73 73 73 73 73 73 73 74 74 74 73 73 75 75 75 75 75 77 79 81 78 71 68 67 67 67 75
65 67 68 69 69 69 68 67 68 69 68 67 69 70 70 69 67 68 69 69 68 68 69 69 69 69 69 69 70 70 71 71 72 72 72 73 73 73 73 73 72 74 74 74 74 73 73 74 73 73 74 75 75 75 77 77 70 69 66 65 65 66 68
63 64 66 66 66 67 67 68 68 69 69 69 70 70 70 69 68 68 68 69 69 69 68 68 68 68 68 69 69 70 70 71 71 72 72 73 73 72 72 73 73 74 74 74 74 74 73 73 73 74 74 75 76 75 78 78 65 65 63 63 64 65 67
62 64 65 66 66 65 66 69 69 70 69 71 72 70 70 69 70 69 68 69 68 68 68 67 67 67 67 67 68 69 70 70 70 71 71 72 72 72 72 72 72 72 73 74 74 74 74 74 74 74 74 75 76 76 75 74 62 64 62 61 60 63 71
64 63 63 64 66 65 64 67 70 70 70 70 70 69 67 67 68 68 68 67 67 67 68 67 66 67 67 67 69 70 70 70 69 70 69 70 71 71 71 71 71 71 73 72 72 73 74 74 75 75 75 75 75 75 74 74 64 62 62 60 59 64 70
66 65 65 65 66 66 66 66 68 69 69 68 68 69 69 69 67 66 65 65 66 66 65 66 66 67 67 67 68 69 70 71 70 70 70 69 70 70 71 71 71 71 73 72 72 73 74 75 75 75 75 75 76 77 75 74 67 58 57 58 60 68 70
66 66 65 65 65 65 65 65 67 68 67 67 67 67 68 68 68 67 65 65 66 66 65 66 66 66 66 67 67 68 69 70 71 71 70 70 70 71 71 71 71 72 72 72 73 73 73 73 73 73 73 75 75 77 76 75 69 56 57 57 57 65 71
63 64 65 65 65 64 64 65 66 66 65 65 64 66 67 66 66 66 64 64 65 65 64 64 64 65 66 66 67 68 68 69 69 70 70 69 69 70 70 71 71 70 71 72 72 72 72 73 73 73 73 75 76 77 77 76 75 71 60 57 56 58 70
64 65 64 65 65 67 64 64 64 64 64 62 63 65 65 65 64 62 63 63 63 63 64 64 64 65 65 65 67 68 68 68 67 67 68 69 69 70 71 70 70 70 70 70 70 71 71 72 72 72 72 72 73 73 74 75 74 73 64 59 56 55 60
64 64 65 66 67 65 63 63 62 63 64 63 65 65 64 63 63 61 61 61 62 63 65 65 65 64 64 64 65 66 67 67 68 68 68 68 68 67 68 69 69 70 70 69 69 70 70 71 72 71 70 71 72 73 73 75 75 74 68 62 56 54 53
60 60 61 61 62 65 64 61 61 61 62 63 64 64 64 64 61 61 60 60 60 63 64 64 64 64 64 65 65 65 66 66 67 67 67 67 67 66 66 66 67 67 68 67 68 68 70 70 71 71 70 70 70 72 72 73 75 71 73 66 58 54 52
60 60 61 63 64 63 62 59 59 59 61 61 62 62 61 61 60 61 60 58 60 62 63 63 63 63 64 64 63 64 65 66 66 65 65 66 66 65 65 65 65 65 66 66 67 67 67 67 69 70 70 70 70 71 72 71 72 72 70 70 62 53 52
58 58 59 60 62 63 61 59 58 59 59 60 60 60 59 59 59 60 59 59 60 61 61 62 62 63 62 61 62 63 63 64 64 64 65 65 65 65 65 65 65 64 65 65 66 65 66 66 68 68 69 70 70 70 71 71 72 72 72 68 66 59 54
57 58 59 59 59 60 59 59 59 59 58 58 59 59 59 59 58 58 58 59 61 60 60 61 61 62 61 61 61 62 63 63 64 65 65 66 65 65 64 65 64 64 64 64 65 66 66 67 68 68 68 67 67 68 68 70 70 70 71 73 73 70 60
56 56 56 56 57 58 57 57 57 57 57 56 56 57 59 57 58 57 57 59 60 60 59 60 60 60 59 58 59 60 61 61 63 64 64 64 65 65 65 63 62 63 64 63 63 64 64 66 66 65 66 64 64 64 66 67 66 67 68 69 69 68 68
54 54 54 54 55 55 54 54 54 55 55 55 55 56 57 57 57 57 57 58 60 59 58 59 60 58 56 58 59 59 61 60 66 64 62 63 63 63 63 62 63 62 61 62 63 62 63 63 63 63 64 63 61 63 63 64 66 66 66 66 68 67 66
53 53 53 54 54 54 52 54 54 54 55 55 54 55 55 56 56 57 57 58 58 57 57 59 59 58 57 57 58 58 62 62 62 61 61 60 61 60 60 60 61 60 61 62 63 63 63 62 62 63 63 63 62 61 62 64 64 66 62 65 60 63 65
53 54 53 54 54 53 54 55 53 54 54 53 53 54 55 55 55 55 58 57 57 57 57 58 58 57 56 57 57 59 60 61 60 60 60 60 60 61 62 66 60 58 59 61 64 61 55 55 60 62 62 60 61 63 62 63 66 60 52 49 48 49 49
53 52 54 53 53 54 52 52 55 54 54 53 54 54 55 55 55 55 56 56 57 56 56 55 58 57 55 58 57 59 61 59 58 59 58 59 59 59 59 60 61 55 54 56 58 54 50 49 49 49 52 58 58 61 58 57 53 49 48 48 47 47 46
54 54 54 54 52 51 53 53 53 53 54 53 55 54 53 55 54 54 56 56 56 56 55 55 56 55 54 55 56 59 59 57 58 59 58 57 57 57 57 56 56 58 54 52 52 52 50 49 49 49 50 52 54 57 59 57 53 50 48 48 46 45 44

ECMWFFLT1_sfc_temp_093.txt.gz
Temp
74 73 74 73 72 72 73 74 76 77 77 77 78 79 79 79 78 77 76 75 75 74 74 74 74 75 75 75 75 75 75 75 75 75 75 75 76 75 75 75 75 75 75 75 75 75 76 77 77 77 77 77 77 77 76 76 76 78 75 76 75 76 76
72 73 70 70 70 70 70 70 71 76 77 78 78 78 79 78 78 77 76 76 76 75 75 75 75 75 75 75 75 75 75 75 75 77 76 75 76 75 76 76 76 75 75 76 75 76 76 77 77 77 77 77 77 77 77 76 76 76 76 75 75 75 75
71 69 69 70 70 70 70 72 72 72 77 78 78 79 78 77 77 77 76 76 75 76 76 75 76 76 76 75 75 75 75 75 75 75 75 75 75 77 76 76 76 76 77 77 76 77 77 77 76 77 77 77 77 77 76 76 76 76 76 75 76 76 74
66 67 69 70 71 72 73 73 74 73 75 78 78 78 78 77 78 78 77 77 76 76 75 76 76 76 76 76 75 75 75 75 75 76 76 76 76 77 76 76 76 76 76 76 78 78 79 78 77 76 79 76 77 77 76 77 76 76 76 76 75 75 74
67 68 68 68 70 71 71 72 72 72 73 77 77 77 77 78 78 78 77 78 77 76 77 77 78 78 77 77 78 78 77 77 75 75 76 76 76 76 76 77 76 77 77 78 77 77 77 77 77 76 77 76 76 76 77 76 77 76 76 75 75 75 75
65 67 67 68 68 69 70 71 71 72 73 74 74 75 76 77 77 78 78 77 76 77 77 77 77 77 77 77 78 79 77 76 76 75 76 76 76 76 77 77 77 77 77 78 78 78 77 77 77 77 77 77 77 77 76 77 77 77 76 76 76 76 76
66 67 67 67 68 68 69 70 71 72 72 73 74 75 75 76 77 77 76 75 75 74 75 76 77 77 77 78 78 77 76 77 76 76 76 76 76 77 77 77 78 78 79 78 77 78 78 77 77 77 77 77 77 77 76 76 77 77 76 76 75 75 76
66 66 67 67 67 67 67 69 72 72 72 72 72 72 73 74 74 74 74 74 74 74 74 75 76 77 76 77 78 77 77 77 77 77 77 77 76 77 77 77 77 78 77 77 78 78 79 78 78 78 78 78 77 77 77 77 76 77 76 76 75 75 77
64 65 66 66 66 66 66 66 68 71 72 71 71 71 72 72 73 72 72 73 74 74 74 75 76 76 76 77 77 76 77 78 77 77 77 77 77 77 78 77 77 77 77 78 78 78 79 79 79 78 77 77 77 76 77 76 76 76 76 76 76 75 76
63 65 66 66 65 65 65 66 66 69 70 70 70 71 71 72 72 72 72 73 74 74 74 75 75 74 75 75 76 78 77 76 77 78 78 78 78 78 79 79 78 77 78 78 78 78 78 78 79 78 77 77 77 76 76 76 76 76 76 76 76 76 76
62 63 65 65 64 63 64 64 65 67 70 70 70 71 71 71 72 72 72 73 74 75 75 74 73 74 74 75 75 74 76 77 76 77 77 78 79 79 80 80 80 79 79 79 78 79 78 77 78 77 77 78 77 77 76 76 76 76 76 76 76 76 76
61 62 63 64 64 64 62 62 64 65 67 69 70 70 70 71 72 72 73 73 74 74 73 74 73 74 74 74 74 73 73 74 75 76 76 77 78 79 80 80 80 80 79 79 79 78 79 78 78 78 77 77 78 78 77 77 76 76 77 77 77 76 77
61 61 62 63 63 64 62 63 63 65 65 67 69 70 70 71 71 71 72 73 73 74 73 73 73 73 73 74 74 73 72 72 73 73 74 76 76 77 77 79 80 80 80 80 80 79 79 79 77 77 78 78 78 78 78 77 77 76 76 77 77 77 76
62 61 61 62 63 63 62 62 63 64 65 66 68 69 70 71 71 71 71 71 72 72 72 72 72 72 72 73 73 73 73 72 72 72 72 73 73 74 75 76 76 76 75 76 78 80 79 79 78 78 78 78 78 78 78 77 77 76 76 77 77 77 77
60 60 61 62 62 63 63 62 63 64 65 66 68 69 70 70 71 71 71 71 71 72 72 72 72 72 72 72 72 72 72 72 72 73 73 74 73 73 74 73 73 73 73 73 74 78 79 80 80 79 78 78 78 78 79 79 78 78 77 77 76 77 77
62 62 62 62 62 63 63 63 63 63 65 65 66 67 68 69 70 70 70 70 71 72 72 72 72 72 72 72 72 72 72 71 72 73 72 73 73 73 73 73 72 73 72 72 72 72 73 75 77 79 79 78 78 78 79 79 80 79 75 76 79 77 78
62 63 63 63 63 63 63 64 63 64 64 65 65 66 67 67 68 69 69 70 70 70 71 72 71 71 71 71 72 72 72 72 72 72 72 72 72 73 73 74 74 73 72 71 72 71 73 74 75 78 79 79 79 78 79 81 82 76 70 70 72 79 77
62 63 64 64 64 64 64 64 64 64 64 64 65 65 66 67 68 69 68 68 69 69 70 70 70 70 70 70 70 71 71 71 71 71 72 72 72 73 73 74 74 73 72 72 72 72 73 73 73 74 77 79 79 79 80 80 78 71 69 68 68 72 78
63 65 66 66 65 64 65 65 65 64 64 65 65 65 66 67 67 66 67 68 69 70 69 69 69 69 69 70 70 71 71 71 71 71 71 72 72 73 72 73 72 72 72 72 72 72 72 72 72 73 73 76 76 78 79 80 76 70 68 67 66 66 72
62 64 67 67 67 66 65 66 66 66 66 66 67 67 67 68 67 66 67 68 68 68 68 68 68 68 68 69 69 69 70 71 71 72 71 72 72 72 72 72 71 72 72 72 72 71 71 72 71 71 71 72 73 74 76 78 77 70 67 66 65 65 68
63 62 62 63 65 67 67 67 66 67 67 67 67 67 67 67 66 66 66 67 67 67 66 66 66 67 67 68 68 69 69 70 70 70 70 71 71 71 71 71 71 72 73 73 72 71 71 71 71 72 73 73 73 74 75 77 62 61 63 63 63 64 66
63 65 64 63 64 64 66 68 68 68 67 69 69 67 66 66 67 66 66 67 67 67 67 66 65 65 65 65 67 67 67 68 68 69 70 71 71 71 70 70 70 70 72 72 72 72 72 73 73 72 72 73 73 73 73 73 60 60 60 61 61 62 69
64 64 65 65 66 65 66 68 69 69 69 69 69 67 65 64 66 65 66 65 66 66 67 66 65 65 65 65 66 67 68 68 68 68 68 69 70 69 70 70 69 70 71 70 71 72 72 73 73 72 72 73 73 73 72 73 63 59 58 59 59 64 69
63 64 65 66 66 66 67 67 69 69 69 68 67 68 67 66 64 64 63 63 64 65 65 65 65 65 65 66 66 66 66 67 68 68 68 68 69 69 69 69 69 69 71 71 71 71 72 72 72 72 72 72 72 75 73 73 67 59 59 59 60 66 70
63 62 62 63 64 64 65 66 67 67 67 66 65 66 67 66 65 63 62 62 63 63 63 63 64 64 64 65 66 66 66 67 67 67 67 67 67 68 69 69 69 71 70 70 71 71 72 72 71 72 72 73 74 76 74 73 70 61 58 58 58 63 69
61 61 62 62 62 62 63 64 65 65 64 63 63 66 66 65 64 63 61 61 62 61 61 60 61 62 63 64 66 66 67 67 67 67 67 66 67 68 68 69 69 69 70 70 71 70 70 72 72 71 71 72 73 74 74 72 72 70 60 57 57 57 66
61 62 61 62 63 65 61 62 63 62 61 60 61 63 64 63 62 60 60 60 60 60 61 61 61 62 62 63 64 65 64 65 65 65 66 66 66 67 68 66 66 66 67 69 69 69 69 70 70 70 70 70 72 72 72 73 72 72 64 58 55 54 58
61 62 62 63 64 62 61 61 60 61 61 60 61 61 61 61 60 59 58 58 58 59 60 61 61 61 61 61 62 63 63 63 64 65 65 65 66 65 66 66 66 67 65 66 67 68 68 69 70 69 69 70 70 71 70 71 72 68 64 60 58 57 54
59 58 59 59 59 62 61 58 58 58 58 60 60 60 60 61 59 58 58 57 57 59 60 61 61 61 61 61 61 62 62 62 63 63 64 65 65 64 64 65 66 65 65 65 65 66 67 67 69 70 69 69 69 70 68 69 72 69 70 66 61 57 57
57 58 58 60 60 59 60 57 57 57 58 58 59 58 58 59 59 59 57 55 57 58 60 60 59 60 60 61 60 60 61 62 62 62 63 64 64 64 62 63 64 64 64 63 64 63 63 64 66 67 69 69 69 70 69 68 69 70 69 68 62 59 56
56 57 57 57 58 59 58 57 56 57 57 57 57 57 57 57 58 58 56 55 57 58 58 59 59 59 58 58 58 59 60 60 60 61 61 62 62 62 62 62 62 62 62 63 63 63 63 63 65 64 65 65 67 67 67 68 68 67 69 68 67 62 58
55 56 56 57 56 58 57 57 57 57 56 56 57 57 57 56 56 56 55 56 58 56 57 58 59 59 57 57 58 58 59 60 60 61 61 61 61 61 60 60 61 61 61 62 62 62 62 62 64 64 64 62 62 63 64 66 65 66 66 69 69 68 63
54 54 55 54 56 57 56 56 56 55 55 54 54 55 56 55 55 55 55 56 57 57 57 58 58 58 56 55 56 57 58 58 61 60 60 60 60 61 61 60 59 60 61 61 60 61 61 62 62 61 62 61 60 61 62 62 62 62 63 64 64 64 66
52 52 52 53 54 54 53 53 53 54 53 53 52 53 55 55 54 54 54 56 57 56 57 58 58 55 54 55 56 57 58 57 64 61 58 59 59 58 59 58 60 59 59 59 60 60 59 60 60 60 60 59 59 59 60 60 61 61 61 61 60 60 59
52 52 52 52 53 54 52 52 53 52 53 52 52 53 53 53 54 54 54 55 55 54 56 58 58 56 54 55 55 56 60 59 58 58 57 56 57 57 56 57 58 58 58 59 61 60 59 58 59 61 59 58 57 58 59 61 61 63 59 59 54 53 54
51 52 52 52 53 52 53 53 52 53 53 51 51 52 53 53 53 53 55 54 54 54 56 57 57 54 54 55 54 56 58 58 57 56 57 56 55 56 57 62 56 55 57 58 63 57 52 54 58 58 57 56 58 59 58 59 62 58 51 47 46 46 46
51 51 52 51 50 49 51 52 54 53 52 51 52 53 54 53 52 52 54 54 54 55 54 54 55 54 53 55 55 58 58 56 56 56 55 55 55 55 55 56 56 50 50 53 56 53 49 47 47 49 52 57 57 59 56 55 52 48 46 46 45 45 44
52 52 51 50 50 51 52 52 52 52 52 51 52 51 51 52 52 52 53 54 54 53 53 53 53 52 52 53 55 57 57 54 55 55 55 54 54 54 54 54 54 54 52 50 51 51 49 48 47 47 47 49 51 55 57 55 52 48 46 46 46 46 45

ECMWFFLT1_sfc_temp_096.txt.gz
Temp
72 69 69 70 71 72 73 74 75 75 76 76 76 77 77 77 76 76 75 74 75 74 74 75 75 75 75 75 75 75 76 76 75 76 75 75 75 75 75 76 76 75 76 76 76 76 77 77 77 78 78 78 78 78 78 78 78 79 78 77 77 78 78
71 70 69 70 71 71 72 74 74 75 76 76 77 77 77 77 76 76 75 75 75 75 74 75 75 75 76 75 75 75 75 75 76 77 76 75 76 76 76 76 76 76 76 76 77 77 77 77 78 78 78 79 79 78 78 78 78 78 78 76 77 77 78
71 70 70 70 71 71 71 72 73 75 76 77 77 77 77 75 75 75 75 75 74 75 75 75 75 75 76 75 75 75 75 75 76 76 76 76 76 78 77 77 77 77 77 77 77 77 78 78 77 78 78 78 79 78 78 78 78 78 78 77 78 79 77
69 70 71 73 73 71 72 73 72 74 75 77 77 77 76 75 76 76 76 76 75 75 74 75 76 76 76 75 75 75 75 75 76 77 77 77 77 77 76 76 76 77 77 77 78 78 79 78 78 77 79 78 78 79 78 79 79 78 78 78 78 78 78
67 69 70 69 68 68 69 70 71 71 74 76 76 76 76 76 76 76 76 76 76 75 76 77 77 77 77 77 77 77 76 76 76 77 77 77 77 77 77 77 77 77 78 78 78 78 78 78 78 77 78 78 78 78 78 78 79 78 78 78 78 78 78
66 67 67 68 68 69 69 70 71 72 73 75 75 75 76 77 76 77 76 76 75 77 76 75 76 77 76 77 78 78 77 76 76 76 77 77 77 77 77 77 78 78 78 78 79 79 78 78 78 78 78 79 79 79 79 79 79 79 78 78 78 79 79
67 68 67 67 68 69 70 70 70 71 73 74 75 76 76 76 76 77 77 77 76 75 75 76 77 77 77 77 77 77 76 77 76 76 77 77 77 77 77 78 78 78 79 79 78 79 78 78 78 78 78 79 78 79 78 78 78 78 78 78 78 78 78
67 67 67 67 67 68 68 70 71 71 73 72 73 73 74 75 75 76 76 77 76 76 76 76 77 77 76 77 77 77 77 77 77 77 77 77 77 77 77 78 78 78 78 79 79 79 79 78 79 79 78 79 78 78 79 78 78 79 79 78 77 78 79
67 67 67 66 66 66 66 67 68 71 72 71 72 72 73 74 74 75 75 75 75 75 74 76 77 77 77 77 77 77 78 78 77 77 77 78 77 78 78 78 78 78 78 79 80 79 79 79 80 78 78 78 78 78 78 78 78 78 78 78 78 78 79
64 65 65 65 64 64 65 66 68 70 70 70 70 71 72 72 73 74 74 74 75 75 75 76 76 76 76 75 76 78 77 77 77 78 78 78 78 78 79 79 79 79 79 79 80 79 79 80 80 79 78 78 78 78 78 78 78 78 78 78 78 78 78
64 64 64 64 63 63 64 65 66 67 70 70 70 71 71 72 73 73 73 74 74 75 75 74 74 76 76 76 75 75 77 78 78 78 78 78 79 79 79 80 80 79 79 80 80 80 79 79 79 79 78 78 78 78 78 78 78 78 78 79 79 79 79
63 63 62 62 62 63 63 63 65 66 69 69 70 71 71 72 72 72 73 73 74 73 72 73 73 73 75 75 75 75 75 76 76 77 77 79 79 80 80 80 80 80 80 80 80 79 80 79 79 79 78 78 79 79 79 78 79 78 79 79 79 79 79
63 62 62 61 61 62 63 63 63 65 67 69 70 71 71 72 72 72 72 73 73 73 73 73 73 74 74 75 75 75 75 75 75 75 76 78 79 80 80 80 81 81 80 80 80 80 80 80 79 79 79 79 79 79 79 79 79 78 78 79 79 79 79
63 62 61 61 61 61 62 62 63 65 66 68 70 70 71 72 72 71 71 72 72 73 73 73 73 73 73 73 73 74 75 75 75 75 75 76 77 78 79 80 80 80 80 80 80 80 80 80 79 79 80 80 79 80 80 79 79 78 78 79 79 79 79
59 59 60 60 60 61 62 63 64 65 66 67 69 70 70 71 71 71 72 72 72 72 73 73 73 72 72 72 73 73 72 71 71 71 73 75 75 76 77 77 78 78 78 78 79 81 81 81 81 80 79 79 79 79 80 80 80 80 79 78 78 79 79
60 60 60 60 61 62 63 63 64 64 65 66 67 68 70 70 70 71 71 71 72 72 73 72 72 72 72 72 72 72 71 71 71 70 70 71 72 73 75 77 76 77 76 77 77 78 78 78 79 80 80 79 79 79 80 80 81 79 75 76 80 79 80
62 62 62 62 62 63 63 64 64 64 64 65 65 66 67 68 69 69 70 70 71 71 72 72 71 71 72 72 72 72 71 70 71 71 70 70 70 71 72 73 75 76 75 75 75 75 76 77 78 79 80 80 80 79 80 81 82 75 69 69 72 80 79
61 62 62 63 63 64 64 64 64 64 64 64 65 66 66 66 67 68 68 69 69 69 71 71 71 71 70 71 71 71 71 71 71 71 70 70 70 71 72 73 74 74 74 75 75 75 76 76 76 76 79 80 80 80 81 81 77 70 68 68 67 73 79
62 63 64 64 64 64 64 64 65 64 64 65 64 65 66 66 66 66 66 67 68 69 69 69 69 69 69 70 71 71 71 71 71 71 71 71 71 71 72 73 72 72 71 72 74 74 74 74 75 75 75 77 77 79 80 81 75 68 67 67 66 66 74
63 65 66 66 65 64 64 65 65 66 65 64 65 66 66 67 65 65 65 66 66 65 66 67 67 67 68 69 69 70 71 71 71 71 71 71 71 71 71 71 70 70 71 72 72 71 73 75 74 73 74 76 76 77 78 80 73 68 66 65 64 64 69
60 61 63 65 65 66 65 65 65 66 66 65 66 66 67 66 66 65 65 64 64 64 64 64 65 65 66 66 67 68 68 69 70 70 70 71 71 71 70 70 70 70 70 70 71 71 73 74 74 75 75 75 76 77 77 75 60 62 63 64 62 63 67
61 62 62 64 65 65 65 66 66 66 66 67 66 66 66 66 68 67 65 66 64 63 64 64 64 64 64 64 65 66 67 68 68 69 69 69 70 70 69 69 70 70 71 71 70 71 72 73 74 74 74 75 76 77 76 73 59 60 60 60 61 62 71
61 61 62 63 64 64 65 67 67 67 67 66 66 65 64 65 66 66 66 65 64 64 63 63 64 64 64 63 64 65 65 66 67 67 68 68 68 67 68 69 69 70 72 71 71 72 72 72 73 73 73 73 75 75 75 74 63 58 58 58 60 68 72
62 62 64 64 65 65 65 66 67 68 67 66 65 65 65 65 64 64 63 63 64 64 63 62 62 63 64 64 64 64 65 65 65 65 65 66 67 68 67 68 69 69 71 71 71 71 72 72 72 73 73 74 74 76 75 74 67 59 58 58 58 67 73
62 62 63 65 66 65 65 65 66 66 66 65 64 64 65 65 64 63 62 62 63 64 63 62 63 62 63 64 65 65 66 66 65 65 65 65 65 66 67 68 68 70 69 69 69 69 71 72 71 71 72 74 75 75 74 75 70 60 57 57 56 64 71
60 60 61 61 63 64 64 64 64 63 62 62 62 65 65 64 64 63 61 61 62 61 61 61 62 63 64 64 65 65 65 66 66 66 65 65 65 66 66 67 67 68 69 69 69 68 69 71 70 70 71 73 73 74 73 70 69 65 58 57 57 57 68
61 61 61 62 62 64 61 61 61 60 60 59 60 63 64 63 62 61 61 60 60 59 60 61 62 62 62 63 64 65 65 66 65 65 66 66 66 67 66 65 65 65 66 68 69 69 68 69 70 70 71 71 71 69 70 71 70 67 57 57 57 57 64
60 60 62 63 64 62 60 60 60 60 60 60 61 62 62 62 61 60 60 59 58 59 61 61 62 62 62 62 63 63 63 64 65 65 65 65 65 65 65 66 66 67 66 67 67 68 68 69 70 69 69 69 67 67 67 70 72 70 64 59 56 55 58
58 58 58 58 59 62 61 58 58 58 58 59 60 60 62 62 60 59 59 58 58 60 61 61 61 61 62 62 62 62 63 63 63 63 64 64 65 64 63 65 65 65 65 65 65 65 65 66 68 69 69 68 66 66 66 67 69 68 69 61 55 54 53
57 57 57 59 59 59 60 57 57 57 57 58 58 59 59 60 59 59 58 56 58 60 61 60 60 60 60 61 61 61 62 63 62 62 62 63 63 63 63 63 63 64 63 64 64 63 62 63 64 64 66 67 66 66 65 66 66 68 67 65 58 55 53
57 57 57 57 58 59 59 57 56 57 57 58 58 57 57 59 59 59 57 57 59 59 60 60 60 60 59 59 60 60 61 61 61 61 61 62 62 62 62 62 63 62 62 63 63 62 62 63 64 63 63 62 63 62 63 64 65 65 67 65 64 58 55
56 56 56 57 57 58 57 57 57 57 56 56 58 58 58 57 58 57 57 57 59 59 59 60 59 59 58 59 59 59 60 61 61 61 61 61 62 62 62 61 61 62 61 62 62 62 62 62 63 63 62 61 61 61 63 64 64 64 64 65 65 63 60
55 55 55 55 56 58 56 57 56 56 56 55 56 57 58 57 57 56 57 57 58 59 60 59 58 58 57 57 58 59 59 60 61 60 60 61 61 62 62 61 60 61 61 61 60 61 62 62 62 61 61 60 59 60 62 63 63 63 62 61 60 60 60
54 54 55 55 56 55 55 55 54 55 55 54 54 55 57 57 57 56 56 57 58 59 60 59 59 56 56 57 58 60 59 59 62 59 59 59 60 60 61 61 61 60 60 60 60 60 60 61 61 61 60 59 60 59 61 62 63 63 61 60 59 58 58
54 54 54 54 54 55 53 54 54 54 55 54 53 54 54 54 55 56 56 57 57 59 59 58 58 57 56 57 58 59 60 59 59 59 58 58 58 58 59 59 59 60 60 62 62 61 61 60 61 61 61 61 59 59 60 62 62 63 57 56 52 53 56
53 53 53 54 54 54 55 55 54 54 54 53 53 54 54 53 54 55 56 57 57 58 58 58 57 56 56 57 58 59 58 58 58 57 57 57 57 58 59 60 53 54 59 61 61 56 51 53 60 61 61 60 61 62 61 61 62 55 46 44 44 44 45
53 53 53 52 52 53 53 53 55 54 54 53 54 54 54 54 54 54 55 55 56 56 56 57 57 56 56 58 58 59 58 57 57 57 56 56 57 57 57 58 59 50 48 51 54 51 46 45 46 48 52 58 60 60 56 54 51 46 44 44 44 43 43
54 54 53 53 54 53 54 53 54 54 54 52 53 53 53 54 53 54 55 55 55 55 55 55 56 54 55 56 57 58 57 56 57 56 56 55 56 56 56 56 56 57 52 48 48 49 46 45 45 44 45 47 51 56 59 55 50 45 44 44 44 44 43

ECMWFFLT1_sfc_temp_099.txt.gz
Temp
74 72 73 76 78 81 82 82 82 82 82 83 84 85 85 85 84 83 83 82 81 81 81 81 82 82 82 82 83 83 84 84 84 84 84 84 85 84 84 86 85 84 86 86 86 85 85 85 85 86 86 85 86 86 85 85 85 87 86 86 86 86 86
74 73 72 73 76 78 80 82 82 82 83 83 83 84 85 85 84 83 83 82 82 82 82 82 81 82 82 82 83 83 83 83 84 84 85 84 83 84 85 85 85 84 84 85 86 86 85 86 86 86 85 86 86 86 86 86 86 86 87 86 86 85 86
77 76 74 73 71 71 77 81 82 82 83 84 84 84 84 83 83 82 82 82 81 82 83 82 82 83 83 83 82 82 83 84 84 84 85 86 85 87 86 85 85 86 87 86 85 87 87 86 85 86 86 86 88 86 86 86 85 86 86 85 86 86 85
78 76 75 72 72 73 76 79 81 82 83 84 83 84 83 82 82 83 83 82 82 82 82 83 83 84 84 83 83 82 83 83 84 86 87 88 87 87 85 85 84 86 85 86 88 87 88 86 86 85 85 86 86 87 87 86 87 86 86 85 86 86 86
77 76 73 71 70 71 72 75 78 80 82 85 84 83 83 82 82 82 82 83 83 82 85 85 86 86 84 85 85 85 84 85 85 86 87 87 87 87 86 87 87 87 87 88 86 85 85 85 87 86 86 85 86 86 86 86 87 86 85 85 85 86 87
76 74 73 73 71 70 71 71 74 77 79 82 83 82 84 84 82 83 83 82 82 83 84 83 85 85 84 85 86 86 85 85 84 85 86 86 86 87 87 86 87 87 88 87 88 87 86 86 87 87 87 88 88 88 88 87 87 88 86 85 86 87 88
76 76 75 74 72 71 70 70 71 73 75 78 82 83 83 83 82 83 84 84 84 82 82 84 85 85 84 85 85 85 84 86 85 85 87 87 87 86 86 87 87 89 89 88 87 88 87 86 86 86 87 88 87 88 87 86 86 87 86 85 85 85 85
76 76 77 76 75 75 71 70 71 72 73 74 75 78 80 82 83 83 83 85 86 84 83 83 85 85 84 84 85 85 86 86 87 86 86 87 87 86 87 88 87 88 87 88 88 88 88 87 88 87 87 88 87 87 88 86 85 88 87 86 85 86 89
75 76 77 78 78 77 75 72 71 72 73 74 73 73 76 79 80 82 81 82 83 82 82 83 84 85 84 84 84 84 86 86 86 86 86 87 88 89 90 89 88 88 88 89 90 88 88 88 89 86 86 86 86 86 87 86 87 87 87 86 85 85 87
71 72 74 76 76 77 75 74 74 74 73 73 73 73 73 74 77 80 80 81 82 81 82 82 83 83 82 82 83 86 86 85 86 87 87 88 89 89 90 91 90 89 89 90 91 90 88 88 88 87 85 86 86 86 86 86 87 87 87 86 86 86 86
67 68 69 70 71 73 73 74 74 74 75 75 74 73 73 73 74 77 79 81 82 81 82 82 82 82 82 81 81 82 85 86 87 87 87 88 89 90 90 90 91 90 90 90 90 90 90 87 87 86 85 87 86 86 86 87 87 86 88 88 88 87 88
66 67 67 68 70 71 71 72 73 74 75 75 76 75 74 74 75 77 78 80 82 82 80 81 82 81 81 81 81 81 83 85 86 87 86 87 89 90 90 91 90 90 90 90 89 89 90 89 88 87 86 86 87 87 87 87 87 86 87 89 89 89 88
66 66 67 68 70 71 70 70 70 71 73 74 76 76 77 77 76 76 77 78 80 81 81 80 80 80 80 81 81 82 82 82 83 84 85 86 88 89 89 90 91 90 90 90 90 89 90 90 88 87 88 87 88 88 87 87 87 86 86 87 88 88 88
67 69 69 68 69 68 67 67 68 69 71 72 73 75 76 77 78 77 77 78 79 78 79 79 79 79 79 79 80 82 82 82 83 83 83 85 85 86 88 89 89 89 89 89 88 89 90 90 89 89 89 89 89 88 88 87 87 86 86 87 88 88 88
68 69 70 69 67 67 67 66 67 68 69 70 71 73 74 76 77 76 77 79 79 78 78 78 77 76 77 77 77 79 81 81 82 82 82 82 82 83 84 86 87 87 87 87 88 90 90 90 91 89 89 89 88 88 89 90 89 89 88 87 86 87 88
69 69 70 69 67 67 67 67 67 67 68 69 69 71 73 74 74 74 75 76 78 78 77 76 76 75 74 75 74 75 75 76 79 80 81 80 81 81 82 84 84 85 85 86 86 87 87 87 88 89 89 88 88 89 90 90 91 85 78 80 87 88 89
70 70 70 70 68 68 67 67 66 66 66 67 67 68 69 70 72 74 74 75 76 76 75 75 73 74 75 73 74 73 72 72 73 76 78 79 79 80 79 80 82 82 81 82 83 84 84 86 87 88 90 90 90 89 91 91 91 78 71 70 73 85 87
68 69 70 70 69 69 68 67 66 65 65 65 66 66 68 69 69 68 68 70 71 71 71 72 72 72 73 74 74 73 73 72 72 72 73 74 76 78 78 79 79 80 80 81 81 81 84 85 86 86 89 90 90 90 91 92 83 72 69 68 68 73 85
69 70 70 69 67 66 66 66 67 66 65 65 65 65 66 68 67 66 67 68 68 70 71 71 72 72 72 72 73 74 73 73 72 72 72 73 74 75 78 78 78 78 79 80 81 82 82 82 84 85 86 88 87 88 90 91 81 71 68 67 66 66 76
70 71 71 69 67 66 67 68 69 69 67 65 64 65 66 67 66 66 67 67 68 68 68 68 67 67 68 70 73 74 74 73 73 71 71 72 73 74 76 77 76 76 77 79 80 80 82 85 84 84 84 85 85 86 88 91 71 66 68 66 65 66 70
69 70 69 67 67 68 69 69 69 70 69 68 68 69 70 70 69 68 67 67 66 67 66 66 66 65 66 67 67 69 72 73 73 72 72 72 72 72 73 74 75 75 75 76 77 79 80 83 83 84 85 86 87 87 88 81 60 63 63 65 64 64 70
70 71 70 70 69 69 70 72 71 71 70 71 71 70 71 72 74 72 70 69 66 65 65 65 64 64 65 65 66 66 67 68 70 71 72 72 72 72 72 72 73 73 73 75 76 78 80 82 83 83 81 80 82 84 81 76 60 60 61 61 63 64 80
72 71 71 71 72 71 72 72 72 72 70 70 69 69 68 70 73 73 73 71 70 68 67 66 64 64 64 64 65 65 66 66 67 67 68 70 71 71 71 71 71 71 73 74 75 77 80 81 81 78 76 76 77 77 77 76 64 58 58 59 61 72 84
73 73 73 72 72 73 72 73 73 73 73 71 70 70 70 71 70 70 69 69 69 68 67 67 66 66 65 65 65 65 66 66 66 66 67 67 68 69 70 70 70 71 73 73 75 75 77 77 75 75 74 75 76 77 76 74 65 57 57 58 60 73 82
73 74 73 73 73 72 73 72 73 73 72 72 71 71 72 72 72 71 69 69 70 70 68 68 68 68 67 67 68 67 67 67 66 66 66 66 66 67 68 69 69 69 69 70 71 74 75 75 75 74 75 75 73 74 72 71 67 58 56 56 56 69 81
71 71 71 72 73 73 71 71 71 72 71 71 70 73 73 73 72 69 69 69 71 69 68 67 67 69 69 69 69 69 69 68 67 67 67 66 66 66 65 67 68 69 68 68 69 69 70 71 71 71 70 70 72 73 72 71 69 63 55 54 56 59 75
72 72 71 72 70 70 71 71 71 71 71 69 71 73 73 72 71 68 68 68 68 67 69 68 69 68 68 68 68 68 68 68 68 67 67 68 68 68 68 67 67 67 69 69 69 69 69 69 70 70 68 68 69 70 71 71 70 65 55 54 54 55 67
71 71 72 70 69 70 71 71 69 70 70 70 72 72 71 70 67 66 67 67 66 67 69 69 70 69 68 67 67 67 67 67 68 68 68 68 68 67 66 68 69 68 68 70 70 69 68 69 69 67 66 67 67 68 68 70 69 68 60 54 53 52 57
68 69 68 68 69 71 71 69 69 69 69 71 72 72 71 69 65 65 66 65 65 68 68 69 69 69 68 68 67 67 67 67 67 67 68 68 69 68 67 68 69 68 69 69 67 65 65 67 69 67 66 66 65 66 66 67 67 65 65 58 53 52 53
68 68 69 71 71 70 70 67 67 67 68 69 69 70 69 67 65 64 64 63 67 68 68 68 68 67 67 67 67 67 68 68 67 66 67 68 68 68 67 67 67 67 67 67 68 67 67 66 66 65 64 63 63 64 64 66 66 66 64 62 56 53 51
67 68 68 68 69 69 69 67 66 67 67 68 67 68 68 68 65 64 62 63 66 67 68 68 68 67 67 67 67 67 68 68 68 67 67 68 68 67 67 67 67 66 67 68 68 68 68 68 67 65 65 64 63 63 65 67 67 66 64 63 62 56 54
66 67 67 67 67 67 68 68 68 67 66 66 68 67 67 68 67 63 63 66 66 67 68 67 66 66 66 67 67 67 69 69 70 70 69 69 70 68 67 67 68 66 66 68 69 68 68 68 68 67 66 64 65 65 66 67 67 65 64 65 64 64 59
64 65 66 65 66 67 68 68 67 66 66 64 66 67 68 66 67 66 66 66 68 68 67 66 66 65 65 65 67 67 67 67 69 70 70 70 71 71 69 68 68 68 67 66 66 67 67 68 68 68 68 66 66 66 66 67 66 66 66 65 64 64 64
63 63 64 65 65 66 67 67 66 65 64 63 64 66 66 67 67 67 67 69 70 69 67 65 66 66 65 66 66 66 66 66 65 66 69 69 69 69 69 68 68 67 66 66 66 66 66 67 67 67 68 67 67 66 67 68 68 66 64 64 63 63 64
63 63 63 63 64 65 65 64 64 63 63 62 64 65 64 64 65 67 66 67 68 67 66 65 64 64 65 66 66 66 66 67 67 67 67 67 66 65 65 65 67 66 67 67 66 66 67 67 66 67 69 68 66 66 68 68 67 65 56 57 52 55 62
62 63 63 64 65 65 64 64 64 63 62 62 63 64 64 64 65 66 68 67 67 66 64 64 65 65 66 66 67 67 67 67 67 66 66 67 66 66 65 60 53 58 66 66 60 52 47 52 63 64 66 67 68 67 67 67 65 52 44 43 43 43 44
62 62 63 63 64 63 63 63 64 63 62 62 63 63 63 63 65 65 66 66 66 66 64 64 63 64 65 65 66 64 65 66 66 65 64 65 66 66 65 67 63 48 47 53 55 49 44 44 45 46 51 59 65 64 55 54 50 44 43 42 43 43 42
64 64 63 64 64 63 62 62 63 62 61 63 63 63 63 63 64 64 66 66 66 66 64 64 63 62 62 63 63 62 63 64 63 64 64 64 64 64 64 64 64 64 53 48 50 49 45 44 44 44 46 47 52 60 65 57 50 43 43 43 43 42 41

ECMWFFLT1_sfc_temp_102.txt.gz
Temp
78 75 79 83 86 87 89 89 89 89 89 90 91 92 93 93 91 91 91 89 87 87 87 87 87 88 87 88 88 88 89 89 90 89 89 90 90 89 89 91 91 89 91 92 91 90 90 90 91 91 91 90 90 90 89 89 89 91 90 89 89 90 90
77 76 77 80 83 85 87 89 90 89 90 91 91 91 93 92 91 91 90 89 88 88 88 88 87 88 88 88 89 88 88 89 89 89 90 89 89 89 90 89 90 89 88 91 91 91 91 91 91 90 90 90 90 89 90 89 89 89 91 89 89 89 90
79 77 76 78 80 84 85 88 89 90 91 92 92 92 92 90 90 89 89 89 88 89 90 89 88 89 89 88 88 88 89 89 89 90 90 92 91 93 92 90 90 91 92 92 91 93 92 91 90 90 91 90 92 90 89 89 89 89 89 88 90 90 88
79 77 75 76 78 78 81 86 88 89 91 92 92 92 90 89 90 90 89 89 88 89 88 90 90 90 90 88 88 88 88 89 89 91 92 93 93 94 92 91 90 92 91 92 94 93 96 92 91 90 89 90 89 90 90 90 91 90 89 88 90 90 89
79 79 79 76 72 72 73 77 84 87 89 92 92 90 90 90 89 89 89 90 89 89 92 93 94 93 91 92 92 92 90 90 90 91 92 93 92 93 92 93 93 93 92 94 93 91 90 91 92 91 90 89 91 90 89 90 90 89 89 89 89 90 90
82 80 81 80 78 76 73 74 80 85 87 89 91 89 91 91 89 90 89 88 88 90 91 90 92 92 92 93 93 93 92 91 90 90 91 91 92 93 93 93 94 94 94 93 94 94 92 92 92 92 92 93 93 93 93 92 92 92 90 89 89 91 92
81 82 81 80 79 77 75 74 74 78 84 88 91 90 90 90 90 90 91 91 90 88 89 91 93 93 92 92 92 91 91 92 91 91 92 93 93 92 92 93 93 95 95 94 93 94 93 92 92 92 92 93 92 94 91 90 90 91 90 88 88 89 88
83 81 81 81 82 81 78 75 74 74 76 79 84 88 87 89 90 90 90 92 93 90 89 90 93 92 91 92 93 92 93 93 94 93 92 93 93 93 94 94 93 93 93 94 93 94 94 93 94 93 92 93 92 91 93 90 89 92 92 90 88 89 94
83 82 82 83 83 82 78 74 73 73 71 71 73 78 84 87 87 89 88 88 89 89 88 89 92 94 92 92 91 91 93 93 94 94 93 94 94 96 96 95 94 94 94 95 96 94 94 94 95 91 92 92 91 90 91 89 91 92 91 90 89 89 92
81 81 82 84 83 82 78 76 74 72 70 70 70 73 77 81 84 86 87 86 87 87 88 89 90 90 90 89 91 94 93 92 93 95 95 94 95 95 96 98 97 95 95 96 97 97 94 94 94 92 89 90 90 90 90 90 91 91 92 90 90 90 89
76 77 79 81 81 81 78 77 75 73 72 71 71 72 73 73 76 78 80 85 87 87 88 87 88 89 90 89 88 89 92 93 94 93 93 94 96 96 97 97 98 96 96 96 96 97 96 93 93 91 89 92 91 90 90 91 91 90 92 93 93 92 92
71 74 76 77 78 77 76 76 76 75 74 73 73 74 74 74 74 74 75 79 83 86 86 86 87 87 87 87 88 87 89 92 93 93 93 94 95 96 97 97 97 97 97 97 95 95 97 94 94 92 90 91 91 91 91 91 91 90 91 93 94 93 93
70 71 73 75 75 75 74 74 75 76 76 76 76 77 77 76 74 74 74 75 79 83 85 85 85 85 86 87 87 87 87 88 89 91 92 93 94 96 96 97 98 97 97 96 96 96 96 96 93 93 92 91 92 93 91 91 92 90 91 92 92 92 92
70 71 71 73 74 74 74 74 73 73 75 75 75 77 78 79 78 75 74 75 77 80 83 84 84 84 85 86 86 87 88 88 89 89 90 92 91 92 95 96 96 95 95 95 94 95 96 96 95 94 94 93 93 93 92 91 92 91 91 91 93 93 92
74 74 74 73 72 72 73 73 73 74 74 75 76 75 76 78 79 77 76 76 76 77 79 80 81 82 83 84 84 84 86 86 87 87 89 89 89 90 91 92 93 93 93 92 93 97 96 97 97 95 94 94 93 93 94 95 94 95 93 92 91 92 93
75 75 75 74 73 73 72 73 74 74 75 75 76 76 77 76 75 76 76 77 77 77 78 78 78 79 81 83 83 84 85 85 84 84 86 86 87 87 89 90 91 92 91 91 92 92 92 93 94 96 95 94 93 93 96 96 97 91 85 86 93 93 95
76 75 75 74 72 72 73 73 73 74 75 76 76 77 77 76 76 75 74 73 73 75 77 79 77 77 77 78 80 82 83 83 84 83 82 84 85 86 86 87 89 89 88 89 90 89 90 91 92 94 95 95 94 94 96 97 98 80 74 75 77 89 92
75 74 73 72 71 72 71 71 71 71 71 71 72 72 71 72 73 74 73 74 73 74 77 79 78 78 78 78 79 79 80 79 78 78 79 81 83 84 84 86 86 86 87 88 89 88 91 91 91 91 94 95 96 96 97 98 85 71 72 72 72 78 89
75 75 72 70 70 70 70 71 71 69 69 70 71 70 71 72 72 72 72 72 72 75 75 76 77 77 78 80 80 79 76 76 78 78 78 77 78 80 82 83 83 83 84 86 88 89 88 88 90 90 91 93 92 94 96 95 66 70 69 70 69 69 79
76 74 72 72 72 72 71 71 70 69 68 68 70 72 73 73 73 73 74 73 73 72 72 72 71 71 72 74 76 78 78 77 78 77 77 76 76 75 78 79 80 81 82 84 86 86 87 89 89 89 88 90 91 91 94 88 68 63 66 68 66 67 74
72 70 70 71 72 72 71 70 70 71 73 73 74 75 75 74 76 75 74 73 71 71 70 70 69 69 70 71 71 73 75 76 76 76 75 76 76 75 75 75 77 79 81 83 84 85 85 87 87 88 89 90 92 91 93 81 61 63 63 63 64 66 73
71 72 71 72 71 71 73 76 76 77 76 79 81 80 80 79 80 79 76 76 72 70 70 70 69 69 70 70 70 70 70 72 74 75 75 75 75 74 74 74 75 75 77 78 81 83 86 87 89 88 89 90 92 92 85 78 59 60 61 62 65 65 83
74 73 73 72 74 76 78 78 78 78 79 80 81 81 80 80 81 80 79 77 76 73 72 70 69 69 69 68 69 69 69 70 71 71 72 74 74 73 73 73 73 73 74 73 76 79 81 84 86 86 85 85 87 88 82 79 64 57 58 59 61 71 88
78 77 78 77 76 77 76 77 78 79 79 78 78 79 80 80 77 76 75 75 76 75 73 72 70 70 71 71 70 69 69 70 70 70 70 69 69 71 73 74 73 72 73 72 73 75 78 79 77 80 78 79 81 79 79 78 65 56 57 57 58 69 87
78 78 77 77 77 77 78 78 79 80 79 79 78 79 80 80 79 78 77 77 78 77 75 74 73 74 73 75 74 71 69 70 70 70 69 68 68 68 68 70 70 71 73 73 73 74 74 74 72 69 70 70 72 77 78 79 69 56 55 55 57 68 83
77 77 78 80 81 80 78 77 78 79 79 79 78 81 80 79 77 75 75 76 78 76 74 73 72 74 75 75 75 74 72 71 71 72 72 71 70 69 69 70 70 71 71 71 71 71 70 70 70 69 69 71 73 75 76 75 72 63 54 54 56 58 76
78 80 79 80 79 77 79 80 80 79 79 78 78 81 81 79 77 74 74 75 75 75 76 75 75 74 73 73 75 75 74 74 73 73 72 73 73 72 70 69 69 70 69 69 70 70 70 69 68 68 68 69 70 71 72 71 70 65 53 54 54 55 67
79 81 82 78 76 77 79 79 77 78 78 78 80 79 79 76 73 73 73 74 74 75 77 76 76 75 74 72 73 73 73 73 73 73 72 72 72 72 72 73 72 70 70 69 69 69 68 67 66 66 65 66 67 67 67 68 68 67 59 54 52 52 57
75 76 76 76 76 79 79 77 77 78 78 80 80 79 79 77 72 72 72 71 72 75 76 76 76 75 75 74 73 73 73 72 72 72 73 73 73 72 72 74 74 73 72 70 69 69 67 66 66 65 64 64 64 65 65 65 65 64 65 57 52 51 53
77 77 77 80 80 79 79 76 76 76 77 78 77 77 76 74 71 70 70 70 73 75 75 75 75 74 74 74 74 74 74 74 73 72 72 72 72 73 72 70 71 71 72 72 72 70 68 67 67 67 66 64 64 65 65 65 65 64 64 62 55 53 51
76 76 78 78 78 77 77 76 74 75 75 76 75 75 74 74 71 70 69 70 73 73 73 74 74 73 73 74 75 75 75 75 74 73 73 74 73 72 73 72 72 70 72 74 73 73 70 69 69 68 68 66 65 64 65 66 66 67 66 64 62 56 54
75 76 78 77 75 76 76 76 76 75 74 74 75 74 73 74 73 69 69 72 73 73 73 73 72 72 72 73 74 75 77 77 77 76 76 76 75 73 73 73 72 70 71 75 75 73 71 71 71 70 69 68 68 68 69 69 68 67 67 67 67 66 61
72 73 73 74 75 74 76 76 75 74 74 73 74 75 75 73 73 72 71 72 74 74 72 72 71 70 71 71 73 73 74 75 78 78 78 78 78 78 75 74 74 72 70 70 71 71 72 73 71 71 71 71 72 71 70 70 69 68 68 69 70 70 70
69 71 72 73 73 74 75 74 73 72 72 70 72 73 74 74 73 73 74 75 75 74 72 71 71 72 71 72 72 72 73 72 70 73 77 77 77 77 76 75 74 71 68 69 71 73 73 72 73 73 74 73 72 71 72 73 72 70 69 70 71 71 73
69 69 70 70 71 73 72 72 71 70 70 69 70 71 71 71 72 73 72 72 73 71 71 70 69 70 71 73 73 72 72 75 76 76 75 73 71 70 70 71 73 71 69 68 68 68 71 73 73 73 75 73 70 71 73 74 71 67 55 59 52 58 68
68 69 69 70 70 71 71 71 70 69 68 68 70 70 70 70 71 72 74 72 71 71 69 69 71 72 73 74 75 76 75 75 75 73 74 75 73 71 68 59 52 60 70 68 59 51 48 54 65 66 71 73 70 68 69 69 65 49 43 43 43 43 43
68 68 68 69 70 69 69 69 69 69 68 68 69 69 70 70 71 70 71 71 71 71 69 69 69 71 72 72 72 70 72 74 74 72 70 71 73 73 71 71 64 46 48 56 55 51 44 43 44 47 51 62 69 62 51 52 46 42 42 42 43 41 41
71 70 69 69 69 68 68 68 68 68 67 68 69 69 69 69 70 70 72 71 71 70 69 68 68 68 69 69 69 67 68 70 69 69 70 69 69 69 69 70 69 65 49 45 49 46 44 44 44 45 46 46 51 63 67 56 49 42 43 42 42 43 41

ECMWFFLT1_sfc_temp_105.txt.gz
Temp
78 78 81 86 89 91 92 92 91 91 92 92 92 94 95 95 94 93 93 89 89 88 89 89 89 89 89 89 90 89 91 89 90 90 90 90 91 90 90 87 92 90 91 91 91 91 92 92 93 93 92 91 91 91 89 90 90 92 91 90 90 90 91
80 80 80 80 86 89 90 91 91 91 92 93 93 92 94 95 94 94 92 91 90 89 89 89 89 89 90 89 91 90 89 90 90 90 91 89 89 90 92 91 91 89 89 91 88 92 91 93 92 92 92 91 91 91 91 90 90 90 91 90 90 90 90
82 82 82 80 81 87 88 91 91 92 92 94 93 93 92 91 92 92 92 91 90 90 90 91 89 90 90 90 90 89 90 91 91 91 91 92 90 94 92 91 91 87 92 93 88 90 94 93 92 92 92 92 93 91 91 90 90 90 90 89 90 91 89
80 81 81 80 81 84 87 89 90 91 94 94 91 93 92 91 93 92 93 92 91 91 90 92 92 92 92 90 90 90 90 90 91 93 94 92 88 94 92 91 91 94 93 93 95 94 98 93 92 91 91 91 91 92 92 91 92 90 90 89 90 90 89
81 82 79 79 79 79 83 88 89 90 91 95 92 89 87 92 92 93 92 93 92 91 94 95 97 95 93 93 94 94 92 92 91 93 94 94 93 90 93 88 93 94 91 94 94 92 92 92 93 92 91 90 92 91 91 91 92 90 89 89 89 90 91
81 80 80 80 79 78 79 80 85 90 91 94 91 87 94 95 93 94 93 92 91 93 94 93 95 94 94 95 95 95 93 92 91 92 93 93 93 94 94 94 91 94 95 94 94 93 93 93 92 92 93 93 94 94 93 92 93 92 91 90 89 89 91
80 81 81 81 79 77 74 75 77 80 88 92 87 82 89 94 94 94 95 95 93 91 93 95 96 96 94 94 93 93 92 94 93 93 94 95 95 94 94 94 94 95 96 91 94 94 94 93 93 92 93 94 93 94 90 90 90 92 90 89 89 89 89
81 80 79 82 81 80 76 74 75 76 79 82 81 85 91 93 92 93 94 94 96 94 93 94 95 94 93 94 95 94 94 94 94 94 94 95 96 94 95 95 94 94 95 94 94 95 95 94 95 94 94 94 93 93 94 91 89 89 88 89 89 90 94
80 81 83 83 83 82 80 77 75 75 75 75 76 80 88 90 90 85 86 91 92 91 91 93 95 96 94 94 93 94 96 95 95 95 95 95 96 97 97 97 96 95 95 97 97 95 95 95 96 93 93 93 92 91 92 91 92 91 90 91 89 90 91
81 81 83 84 83 82 81 80 76 74 77 76 75 77 80 85 87 89 90 90 91 90 90 91 93 93 92 92 93 96 96 94 95 97 97 96 96 97 98 99 98 96 96 97 98 97 94 96 96 94 91 92 91 91 91 91 92 92 93 91 91 90 89
83 82 81 83 83 82 81 78 76 75 76 77 78 75 76 78 82 85 89 90 90 90 90 90 91 91 92 92 91 92 94 95 96 96 96 96 98 98 99 99 99 98 97 97 96 98 97 94 95 92 91 93 92 91 91 92 92 91 93 93 93 91 92
80 80 78 81 81 80 78 77 78 77 77 78 77 74 73 74 77 81 84 87 90 90 89 89 90 89 90 90 91 89 91 93 95 96 95 96 97 99 99 99 99 99 98 98 96 96 98 96 95 94 91 91 92 93 91 91 92 91 92 94 94 93 93
79 78 78 80 79 77 78 77 78 78 79 79 78 77 74 73 75 76 78 82 85 86 87 88 87 88 88 91 92 90 89 90 90 92 94 95 96 98 98 99 100 100 99 98 97 97 97 98 95 94 93 92 93 94 92 92 92 91 90 93 93 93 93
75 78 78 78 79 77 77 77 78 79 79 78 79 78 77 76 75 75 76 77 80 82 83 86 87 86 87 88 89 89 91 90 90 90 92 94 94 95 97 99 99 98 98 97 96 96 97 98 97 96 96 94 94 93 93 91 90 89 90 91 93 93 93
74 75 76 76 75 76 76 76 77 78 79 79 79 79 80 78 77 77 78 78 78 78 80 82 84 85 85 85 86 87 89 89 90 90 91 91 92 93 94 95 96 96 95 95 96 99 98 98 98 96 95 95 94 93 95 96 94 92 92 92 92 94 94
76 74 73 74 74 75 76 76 77 77 78 79 79 80 81 80 79 78 78 79 79 78 79 79 80 82 84 84 84 86 87 88 88 88 88 89 89 89 91 92 93 94 94 94 95 94 94 94 96 97 96 95 95 95 96 97 95 89 85 87 91 90 95
74 74 73 73 73 74 75 76 77 76 76 78 78 79 79 79 79 79 78 79 79 78 78 77 76 78 79 80 82 83 84 85 85 85 86 86 87 88 88 89 91 91 91 92 93 92 91 93 94 96 97 96 96 95 97 97 98 82 77 78 82 91 93
74 73 74 75 75 75 76 75 75 74 72 72 73 76 77 77 78 77 77 78 78 78 79 78 77 77 77 77 77 77 79 77 79 83 84 84 84 85 87 87 88 88 89 91 91 90 93 93 92 92 95 96 96 96 97 97 77 71 74 77 77 83 91
75 74 74 74 74 74 74 74 74 73 73 74 74 73 74 76 76 75 75 73 73 75 74 74 75 76 76 75 75 76 77 78 76 74 78 83 83 83 84 84 85 86 87 89 91 91 90 89 91 91 93 94 93 94 95 90 67 68 73 74 73 74 85
75 76 76 76 76 75 73 73 73 74 73 73 74 76 77 76 75 75 75 74 74 74 73 74 73 75 74 74 74 74 75 76 76 76 77 79 81 80 78 80 81 82 83 84 87 87 88 90 89 90 89 91 91 90 88 81 66 64 66 68 69 69 77
75 75 75 74 75 75 74 75 75 75 75 76 78 78 78 76 76 76 76 76 75 75 74 74 74 73 72 71 71 73 74 74 73 73 76 77 79 80 79 78 78 80 81 82 81 81 82 84 85 86 87 89 91 90 83 74 59 62 63 64 66 66 76
75 75 74 74 74 75 76 78 78 79 77 79 81 80 80 79 80 78 77 78 76 75 74 74 73 72 72 71 72 73 73 73 73 73 74 76 77 77 77 78 77 78 79 79 80 81 82 84 85 85 84 79 78 78 79 74 59 59 60 61 64 65 84
76 74 75 76 77 77 78 79 81 83 82 82 82 81 80 80 80 79 79 78 77 75 76 75 73 73 72 71 71 72 73 74 73 73 73 74 75 75 75 76 76 77 77 77 79 80 82 82 75 73 73 75 76 76 76 77 62 57 57 59 61 71 86
76 76 77 77 78 80 81 82 84 84 84 81 81 82 83 82 79 78 76 76 76 77 76 77 75 75 74 73 73 72 72 73 73 72 72 72 71 71 73 74 75 74 74 74 75 76 77 74 73 74 73 75 76 77 77 76 64 55 56 57 57 69 84
80 80 79 78 79 80 82 81 82 82 82 83 84 84 85 84 83 82 80 80 80 78 78 78 77 77 77 78 77 75 74 74 73 73 71 70 70 71 71 71 72 74 74 73 74 74 75 73 72 70 70 72 75 77 77 75 67 56 55 54 56 68 84
80 79 79 80 81 80 79 80 81 82 82 82 81 84 83 83 82 79 79 80 81 77 76 75 75 77 79 80 80 79 78 77 76 75 74 73 73 72 71 72 72 71 71 73 73 74 74 73 71 70 71 72 73 72 71 68 65 60 54 53 56 57 76
80 82 82 82 81 80 83 83 83 82 81 80 80 82 82 82 80 78 77 78 77 77 78 78 78 77 76 77 79 79 79 79 78 77 79 78 74 75 74 73 72 71 71 71 72 72 71 72 71 70 69 69 69 68 69 70 67 61 54 54 54 55 66
80 81 82 81 81 81 82 83 81 82 82 81 82 82 81 79 76 75 76 76 76 77 80 79 79 78 77 76 76 76 77 76 77 78 77 78 79 77 75 75 75 73 72 70 68 67 67 68 68 67 66 66 66 66 65 67 67 65 58 54 53 53 57
76 77 78 78 78 80 81 81 81 82 82 83 83 82 82 80 75 75 74 74 75 79 79 79 79 79 78 77 77 76 77 76 76 77 78 77 78 78 77 76 76 75 73 70 68 67 67 67 66 66 65 65 65 65 65 65 65 64 64 57 53 52 54
76 78 78 80 82 80 80 78 79 79 80 81 80 80 79 77 74 73 72 72 76 78 78 78 78 78 78 78 78 78 78 78 77 76 77 77 77 77 76 75 77 76 74 72 70 68 66 66 66 65 65 64 64 64 65 65 65 64 63 62 56 54 53
78 78 80 79 81 80 80 78 77 78 79 79 78 78 77 77 74 73 71 73 75 75 76 77 77 77 77 78 78 78 79 78 78 77 78 78 78 76 76 75 76 76 76 75 74 73 71 69 69 67 67 66 66 65 65 65 65 65 65 65 64 58 56
79 81 82 80 79 79 79 78 78 78 77 78 79 78 77 77 76 72 72 75 75 76 76 76 75 75 75 77 77 78 81 81 81 80 80 80 79 78 77 76 75 73 74 76 76 75 74 73 73 72 71 71 71 68 67 68 68 68 68 67 68 66 63
77 78 78 77 77 77 79 80 79 78 78 77 78 79 78 76 76 75 75 75 77 77 75 75 74 74 75 75 77 77 77 77 79 82 82 82 82 82 79 77 77 76 75 75 75 74 73 74 74 74 73 72 70 70 69 70 71 71 68 68 69 70 70
73 75 77 77 77 78 79 78 77 76 75 74 76 77 77 77 77 77 77 78 79 77 75 74 75 75 75 76 76 77 77 77 75 77 79 78 78 78 78 77 76 74 72 72 73 75 75 74 73 71 70 73 75 73 72 73 72 69 68 68 67 68 72
69 69 71 74 75 75 76 75 75 74 73 73 74 75 74 74 75 76 75 75 76 74 73 73 73 74 75 77 77 77 77 80 80 80 78 75 73 71 70 71 75 73 71 69 69 69 72 76 75 75 77 74 70 70 72 74 68 65 55 58 52 57 64
72 71 71 73 74 75 74 74 73 72 72 72 73 73 73 74 74 75 77 75 74 74 72 73 74 76 78 78 80 80 80 80 80 77 77 79 75 71 68 59 53 62 72 69 59 51 49 54 66 66 71 73 69 67 66 64 61 49 43 42 43 43 43
71 71 71 72 72 72 72 72 72 72 70 70 71 72 72 73 75 74 75 74 74 74 72 72 73 75 76 75 76 73 75 78 77 76 73 74 76 76 72 70 63 47 49 57 56 50 43 44 45 47 51 64 69 61 51 50 45 42 42 42 42 41 41
73 73 72 72 72 71 71 71 71 71 70 71 71 71 72 73 73 73 75 74 73 73 72 72 71 71 72 72 72 70 72 73 72 72 73 72 72 72 72 73 67 64 49 44 47 46 43 43 44 44 45 46 54 65 67 56 47 41 42 42 42 43 41

ECMWFFLT1_sfc_temp_108.txt.gz
Temp
81 79 79 80 87 87 88 88 88 89 89 90 91 93 91 89 87 87 87 86 85 85 86 86 86 86 86 84 82 81 82 82 83 82 80 80 80 81 82 84 85 84 86 87 87 86 88 89 89 90 88 88 88 88 87 87 87 89 88 88 87 85 84
80 83 81 80 84 85 86 86 87 89 90 91 90 91 93 88 88 88 87 86 86 86 86 86 86 86 86 85 83 82 81 82 83 83 82 80 80 80 83 85 83 85 84 86 85 87 88 91 89 89 89 88 89 88 88 87 87 87 88 87 87 87 87
78 77 82 83 84 84 84 86 88 90 90 91 92 92 92 87 86 86 86 86 86 86 88 87 87 87 87 87 84 83 83 84 83 85 83 83 81 81 81 83 81 85 87 87 85 88 89 90 89 89 89 88 90 88 88 87 87 88 87 86 87 86 86
74 78 80 81 83 84 85 85 87 89 91 92 91 92 91 88 90 87 87 87 86 87 86 88 88 89 89 87 87 85 84 83 83 84 84 85 83 83 83 80 83 87 86 87 88 90 89 89 89 88 89 88 88 89 88 88 89 88 87 85 85 87 85
74 79 81 80 81 81 83 85 86 87 89 93 91 89 89 90 90 89 88 89 88 87 90 90 91 91 89 89 90 90 89 89 86 84 86 87 86 87 85 87 87 89 86 88 88 86 83 85 89 88 88 87 89 88 88 88 88 87 87 86 86 87 87
77 78 80 82 79 79 83 85 85 87 89 92 90 87 90 92 90 91 90 89 88 90 90 88 90 90 90 91 91 91 90 89 88 89 89 87 87 88 88 88 89 89 87 87 89 89 86 87 88 88 89 90 90 89 89 89 89 89 87 86 86 87 88
79 80 81 81 80 79 79 80 83 86 88 88 89 90 88 89 87 86 91 92 92 89 91 92 92 91 90 90 90 91 89 91 90 91 92 91 88 87 88 89 89 90 89 88 89 89 89 88 88 88 89 90 89 90 88 86 87 87 87 86 85 86 85
80 81 82 83 81 81 78 78 79 80 82 82 84 84 83 82 80 78 73 75 85 92 91 92 93 92 90 90 91 91 92 92 92 91 91 92 92 89 89 89 88 89 89 90 89 90 91 89 91 90 90 90 90 88 88 87 85 89 88 86 85 86 89
82 82 83 83 82 83 79 77 77 78 80 81 81 81 81 79 77 75 76 77 74 75 88 90 92 92 89 90 90 89 92 92 92 92 92 92 93 93 93 92 91 91 89 90 91 91 90 90 91 88 88 88 88 87 86 84 87 88 87 86 85 86 88
78 79 82 83 83 83 78 77 77 76 76 77 78 79 79 78 76 76 76 76 77 79 88 90 91 90 89 89 91 93 93 92 92 93 92 93 94 94 95 95 93 93 93 92 92 91 89 90 89 87 87 89 88 88 86 85 86 88 87 86 85 85 85
73 75 77 78 82 81 77 77 76 75 75 75 76 77 79 78 77 79 78 76 81 85 87 88 88 88 90 90 89 90 93 93 94 93 92 92 94 95 96 96 96 94 94 94 91 90 90 89 89 87 87 90 89 88 88 87 87 87 89 88 87 87 87
70 70 70 75 80 80 76 76 77 77 76 76 76 77 76 77 79 81 84 85 86 81 78 82 88 88 87 87 88 88 90 92 93 94 93 94 95 96 96 96 96 96 95 95 94 91 92 90 90 88 87 87 89 88 87 88 88 87 88 90 90 88 88
72 72 72 72 72 78 78 76 76 77 77 78 77 77 78 78 77 78 78 81 84 85 82 81 84 86 88 89 89 87 88 89 89 90 93 94 94 96 95 96 97 97 96 96 94 94 93 91 88 88 88 88 89 89 88 87 89 87 87 89 90 89 88
72 72 71 71 70 70 74 75 76 76 76 78 78 77 76 78 78 77 77 78 79 81 82 85 86 86 87 88 87 87 87 88 88 89 89 90 91 92 95 95 96 95 95 94 94 94 94 94 90 90 90 89 90 89 88 88 88 87 87 88 89 89 89
70 70 69 70 70 70 72 75 76 76 76 77 78 77 77 77 78 78 78 78 78 78 80 81 81 83 84 84 85 85 84 83 81 80 86 90 89 89 91 92 92 92 92 93 92 96 95 95 96 92 89 91 89 89 89 88 89 89 88 87 88 88 89
69 68 69 69 70 70 71 70 73 74 76 77 78 78 78 78 78 78 78 77 78 78 79 80 80 81 82 83 84 84 83 81 80 80 80 80 81 81 85 88 90 92 91 91 93 91 92 91 92 94 92 89 89 90 91 89 88 87 85 85 88 87 89
68 68 68 68 68 69 69 71 70 71 72 75 77 78 78 79 79 79 79 78 79 78 78 79 78 79 80 81 82 82 81 80 79 78 77 76 76 76 76 75 78 80 82 88 90 89 89 89 91 93 95 93 88 88 89 88 87 79 73 75 79 88 88
68 70 70 70 70 69 70 70 70 68 69 72 75 76 77 76 77 78 76 77 77 77 78 78 78 77 78 79 79 80 80 80 79 78 76 75 75 74 74 72 73 73 74 76 81 85 90 91 90 89 92 93 94 91 85 84 69 63 67 72 74 82 88
68 70 71 71 70 70 70 70 70 71 72 72 74 74 75 76 75 72 73 74 74 76 76 76 77 78 78 78 78 78 78 79 79 78 76 75 75 75 74 73 73 73 73 75 76 77 80 79 80 82 86 90 87 83 85 81 64 63 66 68 70 75 88
69 72 73 72 73 72 72 70 72 71 70 69 70 73 73 74 73 73 74 74 75 75 75 75 75 75 74 75 75 76 78 78 77 77 76 75 75 75 74 73 73 73 75 77 79 79 78 80 80 81 80 81 78 79 80 77 65 63 64 65 66 67 75
71 72 72 72 73 73 72 73 71 72 72 73 74 73 73 74 76 75 75 75 74 75 74 74 74 74 74 74 74 75 75 75 76 75 76 76 76 76 75 74 73 76 76 75 75 78 78 79 79 78 78 79 82 81 80 73 60 61 62 62 63 65 74
72 73 72 72 73 72 72 73 73 74 73 76 78 78 79 78 78 77 75 76 74 74 74 74 73 72 73 73 74 73 74 74 75 75 76 77 76 75 75 75 76 76 77 77 77 77 77 76 74 76 77 78 79 81 76 69 58 59 60 60 63 67 81
75 75 76 76 76 76 78 77 75 77 78 79 80 79 78 78 79 77 77 76 76 75 75 73 72 72 72 72 72 72 73 73 74 74 73 73 73 73 74 74 74 74 75 76 77 76 75 76 75 74 75 76 76 77 75 70 60 57 57 58 59 70 81
78 78 77 77 78 79 79 79 81 81 82 80 79 80 79 79 77 77 75 75 76 76 75 75 73 73 73 72 73 72 73 73 72 72 73 72 71 71 72 73 74 74 74 74 74 73 73 72 73 73 74 75 75 76 72 69 61 56 56 57 57 67 79
78 80 81 81 80 79 80 80 80 81 81 81 82 82 82 81 79 79 79 78 78 77 75 75 75 77 75 76 75 74 74 73 73 72 71 71 70 71 71 71 71 72 73 73 73 74 74 73 70 70 72 73 72 73 69 67 64 56 55 56 57 66 79
77 79 79 80 81 81 79 79 80 81 81 81 80 81 81 82 81 78 77 76 77 75 73 73 73 75 77 78 78 78 77 75 73 73 72 72 71 71 71 71 72 71 72 72 72 73 73 72 71 70 70 70 70 70 68 65 63 59 54 54 57 61 77
80 79 79 80 80 80 81 81 80 80 80 79 79 82 82 80 79 77 76 77 76 75 75 75 75 75 74 75 77 77 76 77 77 76 75 75 73 74 73 72 71 71 70 69 70 71 71 71 70 69 67 67 66 66 66 67 65 61 54 54 54 57 67
79 80 82 81 80 80 80 81 80 80 81 80 80 80 79 77 75 74 74 75 75 77 78 78 76 76 74 73 74 75 75 75 76 77 77 76 75 74 74 74 73 72 70 69 68 67 66 66 66 65 65 65 65 65 65 66 66 64 58 54 53 53 56
77 77 78 78 79 82 82 80 80 80 80 81 81 80 79 77 73 73 73 73 74 78 78 78 78 77 76 75 75 74 75 75 76 76 76 76 76 76 75 75 73 72 71 70 68 67 66 66 65 65 64 64 64 64 64 64 64 63 63 57 54 53 55
77 78 80 81 81 80 80 78 77 77 78 79 78 77 76 74 72 72 71 71 75 77 77 77 78 77 77 76 76 76 76 76 76 76 76 76 75 75 75 74 74 73 72 71 69 67 66 65 65 64 63 62 63 64 65 65 65 65 64 63 57 55 54
77 79 79 78 79 79 79 78 76 77 76 77 76 76 75 75 72 72 71 72 75 74 75 76 76 76 76 77 77 77 77 76 75 75 76 76 76 74 74 75 74 72 74 74 72 71 69 68 68 66 65 64 63 63 64 65 66 65 65 65 64 59 58
78 78 78 78 78 78 79 79 78 77 76 76 77 76 75 75 74 71 72 75 75 75 75 75 74 74 75 76 76 77 79 78 78 78 77 77 77 75 75 75 75 73 72 73 74 73 73 71 71 70 69 67 66 65 65 66 66 66 66 67 69 67 63
75 75 76 76 77 78 78 78 77 76 76 75 76 76 76 75 75 74 74 74 76 76 75 75 74 74 74 74 76 76 76 77 79 80 79 78 79 78 76 74 73 71 70 70 71 73 73 73 72 72 72 71 69 68 67 68 69 68 67 65 65 67 69
72 74 74 76 77 78 77 76 75 74 74 73 74 75 76 76 75 75 74 76 77 76 74 73 74 75 75 76 76 76 77 76 78 77 77 75 73 73 73 73 72 68 66 66 67 67 70 74 73 71 70 68 68 69 69 66 64 64 63 64 63 64 66
69 70 73 74 74 77 74 73 72 72 72 72 73 73 73 73 74 75 74 74 74 74 73 73 74 74 75 76 76 77 77 79 79 78 75 71 68 65 64 65 70 69 66 65 64 66 68 69 69 70 72 68 66 67 66 65 63 61 53 54 50 54 60
71 72 73 73 75 74 73 73 72 72 71 71 72 73 73 73 73 73 75 74 74 74 72 72 74 76 78 77 77 77 78 79 78 75 75 73 69 68 65 57 50 56 67 66 58 51 51 55 63 64 69 68 64 65 66 64 61 50 44 43 43 43 43
71 71 72 73 73 72 71 72 71 70 70 70 72 72 72 72 73 73 74 74 74 74 72 73 72 74 75 74 74 72 73 75 75 74 71 72 73 71 68 67 61 45 44 51 52 47 43 43 45 49 54 63 64 57 50 50 45 43 43 42 42 42 41
73 72 72 73 73 72 71 71 71 70 69 70 70 70 71 72 73 73 75 74 73 73 72 72 71 69 70 71 70 70 71 71 71 71 71 70 71 71 69 66 63 62 46 41 46 45 42 41 43 45 47 49 56 64 61 50 42 39 42 43 43 42 41

ECMWFFLT1_sfc_temp_114.txt.gz
Temp
76 76 74 76 77 79 80 80 81 80 81 81 82 82 82 82 81 80 80 78 78 77 77 78 77 77 77 76 76 76 77 77 77 76 76 76 76 76 76 76 77 76 77 77 77 77 78 79 79 79 80 79 79 78 78 78 78 80 78 78 78 78 77
76 76 75 75 76 77 80 81 81 81 81 82 82 81 82 81 80 80 79 79 78 78 78 78 78 77 77 77 77 76 76 76 77 78 77 76 77 76 77 77 77 76 76 77 77 78 78 80 80 79 79 80 79 78 79 78 78 77 77 77 77 77 78
76 76 75 73 76 76 78 80 81 82 81 82 82 82 81 80 80 79 79 78 78 78 78 78 78 78 77 77 76 76 76 76 76 76 76 77 76 77 77 77 76 77 78 78 78 79 81 80 79 79 80 80 80 78 78 78 78 78 77 76 77 77 76
75 76 75 74 76 77 78 80 81 81 81 83 82 82 81 80 81 80 80 79 78 78 78 79 79 78 77 77 77 76 76 76 77 77 77 77 77 77 76 76 77 78 78 78 80 81 83 81 79 79 81 79 79 79 79 79 79 78 77 77 77 76 76
75 76 74 73 75 76 76 77 78 79 80 83 82 82 81 81 81 80 80 80 80 79 80 80 81 80 78 78 79 78 77 77 77 77 78 77 77 77 76 77 77 78 78 79 79 80 78 79 79 78 79 79 79 78 79 79 79 78 77 77 77 77 76
74 74 73 73 74 75 77 76 78 77 76 76 78 80 81 82 81 81 80 80 79 80 80 80 80 80 78 79 79 79 78 78 78 78 78 77 77 77 77 78 78 78 79 79 80 80 79 79 79 79 80 80 80 79 79 79 80 80 78 77 77 78 78
75 74 73 73 73 74 75 75 76 75 77 79 78 78 80 81 80 81 81 81 80 79 79 80 81 81 79 79 79 78 77 78 78 78 79 79 78 78 78 78 79 79 80 79 79 80 80 79 79 79 80 81 80 80 79 79 79 79 78 78 77 77 77
75 74 73 73 74 75 74 74 75 75 76 75 75 76 78 80 80 80 80 80 80 80 80 80 81 81 80 80 80 79 79 79 79 79 79 79 79 78 78 78 79 79 79 80 80 80 81 80 81 79 80 81 80 79 80 79 78 80 79 78 77 78 81
75 75 74 73 74 75 75 75 75 75 76 75 75 76 76 79 79 79 79 79 79 79 79 80 81 82 81 80 80 79 80 80 79 79 79 80 80 80 81 80 80 80 80 81 81 81 81 81 81 80 79 80 79 79 79 78 79 79 79 78 78 78 80
72 71 70 72 73 72 73 72 73 75 75 75 75 75 76 78 79 79 78 78 78 78 77 80 81 81 80 80 80 81 81 80 80 80 80 80 81 81 82 82 82 82 82 82 82 81 81 81 81 80 79 80 79 78 79 79 79 79 79 79 78 78 78
70 69 68 69 70 70 70 71 73 74 74 74 75 76 77 78 78 78 77 77 78 77 76 77 77 79 80 80 80 80 81 81 81 81 81 81 82 82 83 83 83 83 83 83 82 82 81 80 81 79 79 81 80 79 78 79 79 79 80 79 79 79 79
68 68 66 66 67 67 67 69 69 71 74 75 76 76 76 77 77 77 77 77 78 76 74 75 75 76 77 77 78 76 77 76 76 80 82 82 83 83 84 84 84 84 84 84 83 83 83 82 81 81 79 80 80 80 79 79 79 79 79 80 80 79 79
67 66 66 67 67 67 67 68 68 69 70 73 75 76 76 76 76 76 76 76 76 76 75 74 74 74 75 75 74 72 72 72 72 71 77 83 84 84 84 84 85 85 84 84 84 83 83 83 81 80 80 80 80 81 80 79 79 78 79 80 80 80 79
66 65 66 67 67 67 67 68 68 68 69 70 71 72 72 72 74 74 75 75 75 75 75 74 74 74 74 74 73 73 73 74 74 74 75 80 82 82 84 85 85 85 85 84 84 84 84 83 82 81 81 81 81 80 81 80 80 78 78 79 80 80 79
64 65 66 67 66 66 67 67 67 67 68 68 69 68 68 69 70 70 70 70 71 72 72 73 74 73 74 73 72 73 74 73 73 73 75 75 75 75 75 76 78 80 82 82 83 85 83 84 83 81 81 81 81 80 81 81 81 81 79 79 79 80 79
63 64 65 65 66 67 67 67 68 68 68 68 69 69 69 70 70 71 71 71 71 71 71 71 72 73 73 73 73 73 74 74 74 73 73 73 74 73 73 74 74 74 75 77 80 80 80 80 81 82 81 80 80 79 82 82 82 81 82 81 81 78 81
63 63 64 65 66 66 67 67 68 68 68 68 68 69 70 70 70 71 71 71 71 71 71 72 71 71 72 72 73 74 74 74 73 73 72 72 72 72 72 72 72 72 72 73 73 74 77 79 79 79 80 81 80 79 79 79 77 70 66 69 74 80 77
63 63 64 65 65 66 66 67 67 67 67 68 69 70 69 69 70 70 70 71 71 71 72 72 72 71 70 70 72 73 74 73 73 72 71 71 71 71 71 71 71 72 72 72 72 74 75 75 76 77 79 81 80 79 78 75 69 64 66 66 68 75 77
64 64 65 64 65 65 65 65 66 66 67 68 68 68 69 70 70 70 70 70 71 71 71 71 71 71 71 72 72 71 72 73 73 72 71 71 71 71 71 70 70 71 72 73 73 73 72 73 73 75 75 79 78 78 78 73 63 64 66 66 66 70 77
64 65 65 65 65 65 65 65 66 66 67 67 68 69 69 70 69 69 70 70 70 70 70 70 70 70 70 71 70 70 71 71 70 70 70 70 71 71 70 70 70 70 71 73 73 73 72 72 72 73 73 75 76 75 73 70 63 62 63 63 65 69 75
64 64 64 65 65 65 65 66 66 67 67 68 68 69 69 69 70 69 69 69 69 69 69 69 69 69 69 69 70 70 70 71 71 71 71 71 71 71 71 70 70 71 72 72 72 72 72 72 73 73 74 75 74 73 71 67 60 60 62 61 63 66 75
65 65 64 65 65 65 65 66 66 67 67 69 69 69 69 69 70 69 68 69 68 68 68 68 68 68 68 68 69 69 69 70 70 71 71 71 71 71 71 70 70 71 72 72 71 71 71 72 72 73 73 73 73 71 66 63 57 58 59 60 62 70 75
65 65 65 66 67 66 67 68 68 68 69 69 69 69 68 69 69 68 68 68 68 68 68 68 67 67 68 68 68 68 68 69 69 69 69 69 70 69 69 70 70 71 72 71 71 71 71 71 71 71 71 72 70 68 65 64 59 56 57 58 58 69 73
65 66 66 67 67 68 68 68 69 70 70 69 69 69 69 70 69 69 68 68 68 68 67 67 67 67 67 67 68 67 68 68 69 69 69 69 69 69 70 70 70 70 72 71 71 71 71 70 70 70 70 71 69 68 66 64 61 55 55 56 57 64 74
65 65 65 66 66 66 66 67 68 68 68 68 67 67 68 68 68 67 67 67 67 68 67 67 67 68 68 68 68 68 68 68 68 68 68 68 68 69 69 69 70 71 70 70 71 71 70 70 69 69 69 69 68 70 65 64 62 56 54 55 56 63 71
64 65 65 67 68 68 67 68 68 67 66 65 65 67 67 67 67 67 66 66 68 67 66 66 67 68 69 69 70 69 69 69 69 68 68 68 69 69 69 70 69 69 70 70 70 70 69 69 68 67 66 65 65 64 64 62 61 59 53 53 55 58 69
66 66 66 66 66 68 66 66 67 66 67 66 67 69 70 69 68 65 66 67 67 67 68 67 68 68 68 68 70 70 70 69 69 69 69 69 69 69 69 68 68 68 68 68 67 66 66 66 65 64 64 64 64 64 64 64 63 61 54 53 53 54 62
66 68 70 71 71 71 69 68 66 66 67 66 69 69 69 68 66 65 66 66 67 68 70 70 70 69 69 68 69 69 68 68 69 70 70 69 68 67 67 68 68 67 66 66 65 65 64 64 64 62 62 63 64 64 63 65 66 63 58 55 53 53 55
66 66 67 68 69 71 70 68 68 68 67 69 69 69 69 69 66 66 65 65 66 69 70 70 70 69 68 68 68 68 68 68 69 69 69 69 69 67 66 66 66 66 67 66 65 64 63 63 63 62 62 62 63 63 63 64 65 64 64 58 54 53 54
66 68 69 70 70 69 69 67 67 66 68 68 68 68 68 67 65 65 65 64 65 68 68 67 67 67 69 69 67 67 67 69 68 68 68 69 68 67 66 65 65 65 65 65 65 63 62 62 62 62 62 61 61 63 63 63 63 64 64 63 57 55 54
66 66 67 67 68 68 68 67 66 66 66 66 66 65 65 66 65 65 64 64 66 66 67 67 68 68 68 68 69 69 68 67 67 66 66 66 66 65 65 64 64 63 63 65 65 64 63 62 63 62 62 61 61 61 62 62 61 61 63 64 63 58 56
66 66 67 68 67 68 67 67 66 66 65 65 65 64 64 63 64 64 63 65 66 66 67 68 68 68 67 67 67 68 68 67 67 67 66 65 64 63 62 62 63 62 60 61 63 64 63 63 62 62 61 60 61 61 62 62 61 60 60 62 63 63 60
63 63 64 64 66 67 66 67 66 65 64 63 63 64 64 63 63 62 63 64 65 66 66 69 69 68 67 65 66 66 67 67 66 65 64 64 64 63 62 61 60 61 61 60 60 63 64 65 64 62 62 61 61 61 60 61 61 61 60 59 59 60 62
61 61 61 63 65 65 64 64 63 63 63 62 61 62 63 64 63 62 62 63 64 63 64 66 67 62 62 64 65 66 66 66 68 63 60 59 58 58 59 59 59 58 56 56 57 59 60 62 62 61 62 60 59 58 58 58 58 57 56 57 56 57 58
60 61 63 63 62 64 62 63 63 62 63 62 61 62 61 61 62 63 62 63 62 62 63 65 66 63 61 62 64 64 66 64 63 61 59 56 54 52 51 54 57 57 55 55 53 55 60 61 60 60 59 59 57 58 59 58 58 57 51 51 48 49 52
61 62 61 62 62 61 61 62 61 62 62 61 60 61 61 61 61 61 62 62 61 62 63 64 64 63 62 63 63 64 64 63 61 60 60 58 56 55 54 51 46 49 55 54 54 50 47 52 59 60 59 56 55 56 58 58 55 46 42 41 42 42 43
61 61 61 62 62 60 60 59 60 60 59 59 60 61 62 61 61 60 61 61 61 62 60 60 62 61 61 63 63 63 64 62 61 59 57 58 57 57 56 55 52 43 43 48 50 45 42 43 44 49 54 58 56 53 48 46 43 41 40 41 42 40 40
60 60 61 60 61 60 60 60 60 60 60 59 60 60 60 60 60 60 62 62 61 60 58 59 60 59 60 60 61 64 61 59 61 61 59 56 55 56 55 54 53 53 45 42 44 43 40 41 41 41 43 45 50 57 54 47 41 40 40 40 40 40 40

ECMWFFLT1_sfc_temp_117.txt.gz
Temp
75 73 72 75 77 77 77 78 78 77 78 78 78 79 80 79 78 78 77 76 76 75 75 76 76 76 75 75 75 75 75 75 75 75 75 75 75 75 74 75 76 75 75 76 76 75 77 77 77 77 77 77 77 76 76 76 76 78 76 76 75 76 74
75 75 73 73 76 76 77 78 78 78 78 78 79 79 80 79 78 78 77 77 77 76 76 76 76 76 76 75 75 74 75 75 75 76 76 75 76 75 76 75 76 76 75 76 76 76 77 77 77 77 77 77 77 76 77 77 76 76 76 75 75 75 76
75 75 74 73 75 76 77 77 78 78 79 79 79 79 79 78 78 78 77 77 76 76 77 76 76 76 76 75 75 74 75 75 75 75 75 75 75 76 76 76 75 76 76 76 76 77 78 77 77 77 77 77 78 77 76 76 76 76 76 75 76 76 74
73 74 75 74 76 77 78 78 78 78 79 80 80 80 79 78 79 79 78 78 77 77 76 77 77 77 76 75 75 75 75 75 76 76 76 76 76 76 75 75 75 76 76 76 77 78 80 78 77 76 79 77 77 77 77 77 77 76 76 75 75 75 74
73 75 74 72 73 75 76 77 77 78 79 81 81 80 80 80 79 79 78 79 78 77 78 78 78 78 77 77 77 76 76 76 75 76 76 76 76 76 75 76 75 76 76 77 77 77 77 77 77 76 77 77 77 77 77 76 77 77 76 75 75 75 75
73 73 74 73 73 74 76 77 78 79 79 80 80 79 80 80 79 79 79 78 78 79 78 78 78 78 76 77 78 77 76 76 76 76 76 76 75 75 75 76 76 76 77 76 77 77 77 77 77 77 77 78 78 78 77 77 77 77 76 76 76 76 76
74 74 74 74 73 73 75 76 78 79 80 81 81 81 80 79 78 79 79 79 79 78 78 77 78 78 77 77 77 77 75 76 75 76 76 76 76 76 76 76 77 77 77 76 77 77 77 77 77 77 78 78 78 78 77 76 77 77 76 75 75 75 75
75 74 75 75 74 74 75 76 77 78 78 79 79 79 78 79 78 78 78 79 79 78 78 78 78 78 77 77 77 77 76 76 76 76 76 76 76 76 76 76 76 77 77 77 78 78 78 78 78 77 78 78 78 78 78 77 76 77 77 76 75 75 77
75 75 75 74 73 73 73 74 76 76 76 76 78 78 78 78 77 77 77 78 78 77 77 78 79 79 78 77 77 76 77 77 77 76 76 77 77 77 77 77 77 77 77 78 78 78 78 79 79 77 77 78 77 77 77 77 77 77 77 76 76 76 77
72 71 69 69 68 67 67 67 68 70 73 75 76 77 78 78 77 77 77 77 77 77 77 78 78 78 77 77 77 78 77 76 77 77 77 77 77 77 78 79 78 78 78 79 79 79 78 79 79 78 77 77 77 76 77 76 77 77 77 77 76 76 76
67 67 67 67 67 67 69 69 69 69 70 72 74 76 77 77 77 77 77 77 77 77 77 77 78 78 77 77 76 77 77 77 77 77 77 77 78 78 79 79 80 79 79 79 79 80 79 78 78 77 77 78 77 77 76 77 77 77 77 77 77 77 77
66 67 67 66 67 68 68 69 70 69 71 72 72 72 73 74 77 78 77 77 77 77 76 76 76 77 77 77 77 76 76 76 76 77 77 78 78 79 80 80 80 80 80 80 80 80 80 79 78 78 77 77 78 78 78 77 77 77 78 78 78 77 77
65 64 65 66 67 67 68 68 68 69 69 68 68 69 69 69 69 69 70 70 70 70 71 73 74 76 76 76 76 75 75 74 75 75 76 78 79 80 80 80 81 81 81 81 81 80 80 80 79 78 78 78 78 79 78 78 78 77 77 78 78 77 77
65 64 64 66 67 67 67 67 68 68 68 68 68 69 69 70 69 69 69 70 72 73 72 71 70 70 73 74 74 74 74 74 75 75 76 77 77 78 80 81 81 81 81 81 80 81 81 81 80 79 79 79 79 79 78 78 77 77 77 77 78 77 77
64 64 64 65 65 65 66 66 67 67 68 68 68 69 69 70 70 70 71 73 73 73 73 72 72 71 70 71 71 72 72 73 73 74 75 76 75 76 78 79 79 80 80 80 80 82 81 82 81 80 78 79 78 78 78 79 78 78 78 77 77 77 77
64 64 65 65 65 66 66 67 67 67 67 67 69 69 70 70 70 71 71 71 72 72 72 72 72 71 71 71 69 70 71 71 71 72 74 74 75 74 75 77 77 78 78 79 79 80 80 79 80 80 79 78 78 77 79 79 80 80 81 80 79 77 78
63 64 65 65 65 65 65 66 67 67 67 68 69 69 70 70 71 71 71 71 71 71 72 72 71 72 71 71 71 72 71 70 69 69 69 70 70 70 71 72 75 75 76 77 78 78 78 78 78 79 80 79 79 78 78 79 80 79 73 74 78 79 76
63 64 65 65 66 66 66 66 66 66 67 67 68 69 69 69 69 70 70 71 71 71 71 71 71 71 71 71 71 72 71 70 71 69 69 69 69 70 70 70 70 71 72 74 74 75 76 77 78 78 79 80 79 78 78 78 76 68 69 70 72 79 76
63 64 64 65 65 65 65 65 66 66 67 68 68 68 69 69 69 69 69 70 70 71 71 71 71 71 71 71 72 71 70 71 71 70 70 69 70 69 70 70 70 70 71 71 72 73 73 74 75 76 75 78 77 78 77 75 65 66 68 68 69 73 78
64 63 64 64 65 65 65 65 66 66 67 67 67 69 69 69 69 69 70 70 70 70 69 69 69 69 69 69 70 70 70 70 70 70 69 69 69 69 69 69 69 69 70 71 72 71 71 71 72 73 73 75 75 75 73 69 63 63 65 65 66 70 75
63 63 63 64 65 65 65 66 66 66 67 67 68 68 69 68 69 69 69 69 69 69 68 68 68 68 68 69 69 69 69 70 70 69 70 69 69 69 69 69 69 70 71 70 71 71 71 71 71 71 72 73 73 71 68 65 59 60 62 62 63 65 73
64 64 64 64 64 64 65 66 66 67 67 68 68 68 69 68 69 69 68 69 68 68 68 68 67 67 68 67 68 68 68 69 70 70 70 70 70 70 70 70 70 70 71 71 70 70 69 70 71 71 70 70 70 69 64 62 58 58 59 59 61 65 71
64 64 65 66 66 66 67 68 67 67 68 67 68 68 68 68 69 68 68 68 67 68 68 67 66 66 67 67 67 68 68 69 69 69 69 70 70 70 69 69 69 70 71 70 70 70 69 69 69 70 70 70 68 66 63 62 59 56 57 57 59 65 69
65 65 65 66 67 67 67 67 68 68 68 67 67 68 68 68 68 68 67 67 67 67 67 67 66 67 67 67 67 67 68 69 69 68 68 68 68 68 69 69 69 69 70 70 70 69 69 69 69 69 69 69 66 66 64 63 60 55 55 55 56 64 69
64 65 65 65 65 65 65 66 66 66 66 66 65 66 67 67 67 67 66 66 66 67 66 66 66 67 67 67 68 67 67 68 68 67 67 67 67 68 68 68 69 70 71 71 71 70 69 71 70 68 67 67 67 70 64 63 62 56 54 55 55 62 67
62 64 64 65 65 65 65 66 66 65 65 64 65 66 67 66 66 66 65 65 66 66 66 66 67 67 68 68 68 68 68 68 69 68 67 67 67 68 68 68 68 68 69 69 69 69 69 70 69 67 64 65 64 64 63 62 61 59 54 54 55 58 66
63 64 63 64 65 66 64 65 64 64 64 64 65 66 66 66 65 64 65 65 65 65 66 66 66 67 66 67 68 68 68 68 68 68 68 68 68 68 67 67 67 67 67 66 66 68 68 67 65 63 63 63 63 63 64 64 62 61 53 52 53 54 61
63 64 66 67 67 66 65 65 64 64 64 65 66 65 65 64 63 63 63 64 64 65 66 67 67 67 66 66 67 67 67 68 68 69 68 68 68 66 66 67 67 67 66 65 64 63 63 63 63 62 62 63 63 63 63 66 66 63 58 53 52 53 56
62 63 62 63 64 67 66 63 63 63 63 65 65 66 66 65 64 64 64 63 63 66 66 67 67 67 67 67 67 67 67 67 68 68 68 67 67 66 65 66 66 66 66 65 64 63 62 62 62 62 62 62 62 62 62 62 64 63 62 56 52 52 54
62 63 64 66 66 66 66 64 64 63 64 65 65 65 65 64 63 63 63 62 63 65 67 66 66 67 68 68 67 66 66 67 66 66 66 67 66 65 64 64 64 65 65 65 64 63 62 62 62 62 61 61 61 61 61 61 61 63 63 61 55 53 53
62 62 63 63 64 65 65 64 63 64 64 64 64 63 63 64 64 64 63 62 64 64 65 66 66 67 66 65 65 65 65 65 64 63 63 63 63 63 63 62 63 62 62 63 63 63 62 62 63 62 62 61 61 61 60 60 59 59 62 64 62 57 55
61 62 62 63 62 64 64 64 65 64 64 64 64 64 63 63 64 63 62 64 65 64 65 66 66 66 65 66 65 64 66 64 64 63 63 63 62 61 60 62 62 62 60 62 62 61 61 61 61 61 61 60 60 59 59 60 59 59 59 60 62 62 59
60 60 60 61 62 63 61 62 62 62 62 61 61 63 63 62 63 62 62 63 64 65 66 67 66 65 64 63 64 64 64 63 62 61 61 61 62 61 60 60 59 61 61 59 60 62 63 63 63 62 61 60 58 58 58 57 57 57 57 57 58 58 61
60 60 60 60 60 61 60 60 60 60 60 60 59 61 62 62 62 61 61 62 63 64 66 66 65 62 62 64 64 64 64 63 65 60 58 58 57 57 58 59 58 57 56 55 57 60 60 62 62 61 60 57 57 56 57 55 54 54 53 54 54 55 57
59 60 60 60 61 61 59 59 59 59 60 59 59 59 59 59 60 61 60 60 60 62 64 65 65 63 62 63 64 65 66 62 61 59 56 54 53 51 50 50 53 54 54 54 52 55 58 58 58 59 57 57 56 57 57 56 55 54 50 50 48 49 51
57 59 58 60 60 59 60 59 59 59 59 58 58 59 59 59 59 59 61 60 59 60 62 62 61 60 60 61 62 63 63 62 61 59 58 56 54 53 53 50 45 46 51 53 54 50 47 52 56 57 57 54 53 54 55 54 55 48 42 41 41 42 43
58 57 57 58 58 57 58 58 59 58 58 57 58 59 60 59 59 60 60 60 59 60 59 59 60 60 59 61 60 61 61 60 58 57 55 56 55 55 55 53 52 44 44 47 48 45 42 42 44 48 52 57 53 50 49 49 44 40 40 40 40 40 39
57 57 58 57 58 57 58 58 59 58 58 57 58 58 58 59 60 59 60 59 59 59 58 58 59 58 58 58 60 63 60 56 58 58 56 54 53 54 53 52 51 52 47 43 44 43 40 39 40 40 42 44 50 56 52 45 40 38 39 40 40 40 40

ECMWFFLT1_sfc_temp_120.txt.gz
Temp
72 71 72 74 75 75 75 75 75 75 76 76 76 77 78 78 77 76 76 75 75 75 75 75 75 75 75 75 75 75 76 76 76 76 76 75 76 76 75 76 77 76 77 77 77 77 78 78 79 79 79 79 79 78 78 79 79 80 79 79 77 76 76
72 72 71 73 74 75 75 76 76 76 76 76 77 77 78 77 77 76 76 75 76 75 75 76 76 75 76 75 76 75 75 76 76 77 76 76 77 76 77 76 77 77 77 77 77 77 78 79 79 78 78 79 79 79 79 79 79 79 79 78 78 77 78
73 73 72 72 74 74 75 75 76 76 76 77 77 77 77 76 76 76 76 76 75 75 76 76 76 76 76 75 75 75 76 76 76 76 76 76 76 77 77 77 76 77 78 78 77 78 79 79 78 78 78 79 80 79 78 79 78 79 79 78 79 79 77
73 73 73 73 73 75 75 76 76 76 77 78 77 78 77 76 77 77 77 76 76 76 75 76 77 77 76 76 75 75 75 76 76 77 77 77 77 77 76 76 76 77 77 77 79 79 80 79 79 78 79 78 78 79 79 79 79 79 79 78 78 78 78
74 74 74 72 72 72 74 75 75 76 77 79 78 78 78 78 78 77 77 77 77 76 77 77 78 78 77 77 77 77 76 76 76 77 77 77 77 77 77 77 77 77 78 78 78 78 78 78 79 78 78 78 79 79 78 79 79 79 78 78 78 78 78
73 73 74 73 72 73 74 75 76 76 77 77 78 77 79 79 78 78 78 77 77 78 78 77 78 78 77 77 78 78 77 76 76 76 77 77 77 77 77 77 77 78 78 78 79 79 78 78 79 79 79 79 79 79 79 79 79 80 79 78 78 79 79
73 74 74 74 73 73 74 75 76 77 78 78 79 79 78 78 78 78 78 78 78 77 77 77 78 78 77 77 77 77 76 77 76 76 77 77 77 77 77 78 78 78 79 79 78 79 79 78 78 79 79 80 79 80 79 78 79 79 79 78 78 78 78
74 74 74 74 74 74 75 75 76 77 77 78 78 77 77 78 77 77 77 78 78 78 77 78 78 78 77 77 77 77 77 77 77 77 77 77 77 77 77 77 78 78 78 78 79 79 79 79 80 79 79 79 79 79 79 79 78 80 79 78 78 78 79
73 74 74 73 73 73 73 74 76 76 76 76 77 77 77 77 76 77 77 77 77 77 77 78 79 79 78 77 77 77 77 77 77 77 77 77 77 77 78 78 78 78 78 79 79 79 79 80 80 79 79 79 79 78 79 78 79 79 79 78 78 78 79
70 70 70 70 70 70 71 70 72 73 73 75 76 76 77 77 76 77 77 76 77 76 77 78 78 78 77 77 77 78 77 77 77 77 77 77 78 78 78 79 79 79 79 79 80 80 79 80 80 79 78 78 78 78 78 78 79 79 79 79 79 78 78
66 67 67 68 68 68 69 69 70 71 72 74 74 76 76 76 76 76 75 75 76 76 77 77 77 77 77 77 76 77 77 77 77 77 77 77 78 78 79 79 80 79 79 79 79 80 80 79 79 79 78 79 79 78 78 79 79 78 79 79 80 79 79
65 66 65 65 66 66 67 69 69 70 71 72 72 72 72 72 71 70 71 72 73 74 74 75 76 76 76 76 76 76 76 76 76 77 77 78 78 79 79 80 80 80 80 80 79 80 80 80 80 79 78 78 79 79 79 79 79 79 79 80 80 79 80
65 65 65 66 66 66 67 68 68 69 69 70 71 71 72 71 71 70 71 73 73 74 73 73 74 75 76 76 76 75 75 75 75 75 77 78 78 79 79 80 81 81 81 81 80 80 80 81 80 79 79 79 79 80 79 79 79 78 79 79 79 79 79
65 64 65 65 66 66 67 67 68 68 67 68 69 69 71 72 71 71 72 73 73 73 74 74 74 74 75 75 75 75 75 75 75 75 76 77 77 78 79 80 80 80 81 81 80 81 81 81 81 81 80 80 80 80 80 79 79 79 79 79 80 79 79
63 64 65 65 64 65 66 66 66 67 67 68 68 69 69 70 71 71 72 73 73 73 73 74 74 74 74 74 74 74 73 73 72 72 73 74 73 73 74 76 77 78 79 80 80 82 82 82 82 81 80 80 80 80 80 80 80 80 80 79 79 79 79
64 64 65 65 64 65 65 66 66 66 67 67 68 68 69 69 70 70 71 72 73 73 73 73 73 73 73 73 73 73 73 71 71 71 71 71 71 71 72 74 74 76 77 78 79 79 79 80 80 81 81 80 80 80 80 80 81 81 80 80 80 80 80
64 65 65 65 65 65 66 66 66 67 67 68 68 68 69 69 70 70 71 72 72 72 73 73 72 73 73 73 73 72 71 71 71 71 71 72 72 72 73 72 73 73 73 75 76 77 78 79 79 80 81 81 81 80 79 81 82 78 72 73 76 81 79
63 64 64 64 65 65 65 66 66 66 67 67 68 69 69 69 69 70 70 71 72 72 71 72 72 72 72 72 72 72 71 71 71 71 71 71 71 71 72 71 72 72 73 74 75 75 77 77 78 78 80 81 81 80 81 80 78 72 70 71 71 77 81
63 64 64 64 65 65 65 66 66 66 67 68 68 69 69 70 70 69 70 70 70 70 70 70 70 70 70 71 72 71 71 71 71 70 70 70 71 70 71 71 71 71 72 73 74 74 74 74 75 76 76 78 79 80 81 81 72 69 70 69 70 71 80
64 64 65 65 65 65 65 65 66 67 67 67 68 69 70 70 70 70 70 70 70 70 70 70 69 70 70 71 71 71 71 71 71 70 70 70 70 70 70 70 71 71 71 72 72 72 72 73 73 74 74 75 77 77 79 77 65 64 65 66 66 67 73
64 64 64 64 64 65 66 66 66 66 67 68 69 69 69 69 69 69 69 70 69 70 69 69 69 69 69 70 70 70 70 70 70 70 70 70 70 70 70 71 71 70 71 71 71 71 71 71 72 74 75 75 76 77 74 68 59 60 61 61 62 64 69
64 64 64 65 65 65 66 66 66 67 67 69 69 69 69 69 70 69 68 69 68 68 69 68 68 68 68 68 69 70 70 70 70 70 70 69 69 69 70 70 70 70 71 71 70 70 71 71 71 73 73 72 72 73 68 65 58 58 59 59 60 65 72
64 65 65 66 66 65 66 66 66 67 67 67 68 68 68 68 69 69 68 68 68 68 68 68 67 67 67 67 68 69 70 70 70 69 69 70 69 69 70 70 70 70 71 70 70 70 70 71 71 72 72 71 70 68 65 64 60 56 57 58 59 67 71
64 64 64 65 66 66 66 66 66 67 67 66 66 66 67 68 68 68 67 67 67 67 66 67 66 67 67 67 67 68 69 70 69 69 69 69 69 69 69 69 69 69 71 70 70 70 70 71 70 69 70 69 67 67 66 65 61 55 55 56 57 66 70
63 63 64 64 64 64 65 65 65 65 65 65 64 65 66 67 67 67 66 66 66 66 66 66 66 67 67 67 67 68 68 68 69 68 68 68 69 70 69 69 69 70 71 70 70 70 70 71 69 68 67 67 68 68 64 64 63 55 54 55 55 64 69
62 62 63 64 65 65 65 65 65 64 63 63 63 65 65 66 66 66 66 66 66 66 65 65 66 67 68 68 68 68 68 69 69 68 68 67 68 68 68 69 69 69 70 70 70 70 69 70 69 67 64 65 65 65 64 63 63 59 52 53 55 59 70
63 64 63 63 64 66 64 63 63 62 62 63 64 64 65 65 65 64 65 64 64 64 65 66 67 67 67 67 68 68 68 68 68 68 68 68 67 67 67 67 67 67 67 68 69 69 69 68 66 64 63 64 64 64 64 65 63 59 52 52 53 56 65
63 65 66 66 66 64 63 64 63 63 63 63 65 65 65 65 64 63 63 62 62 63 65 66 66 66 67 66 66 67 67 67 67 67 67 67 67 66 66 67 67 67 66 66 67 67 65 64 64 63 63 63 63 63 63 65 65 62 56 53 52 52 56
62 62 62 63 63 65 64 62 62 62 62 63 64 65 65 65 63 63 63 62 62 64 66 66 66 66 66 66 66 67 66 66 66 66 66 66 66 65 65 66 66 66 66 65 65 64 63 63 63 62 61 61 61 61 61 62 64 63 62 56 52 52 53
62 62 63 64 65 64 65 62 62 62 63 63 64 64 64 64 63 64 63 61 63 65 66 66 66 66 66 66 64 64 64 63 63 62 63 64 65 64 63 64 64 65 65 65 64 62 62 62 62 62 61 59 59 59 60 60 60 62 63 61 55 53 52
60 61 62 62 63 65 64 63 62 62 63 63 63 63 63 64 64 64 62 62 64 64 64 65 66 66 64 63 63 63 62 60 60 60 61 61 62 62 63 63 64 63 63 63 62 62 62 62 62 62 61 60 59 58 59 59 59 59 62 63 62 57 55
60 61 62 63 62 63 63 63 63 63 63 63 64 63 63 63 64 63 62 63 65 65 65 66 65 65 64 64 64 63 64 63 63 62 61 62 62 62 61 62 64 63 63 63 63 63 63 62 63 62 61 58 59 59 59 59 59 59 59 60 62 62 59
58 59 60 60 62 63 62 63 62 62 62 61 61 62 63 63 63 63 63 64 65 65 65 66 66 65 63 62 63 63 63 62 61 61 60 60 61 61 61 61 61 62 62 61 63 64 64 64 64 63 62 61 61 60 59 58 58 58 59 58 58 60 60
57 58 58 58 60 61 60 60 60 60 60 60 59 61 62 62 62 62 62 63 64 65 65 65 65 63 63 63 64 64 64 63 64 60 58 57 56 56 58 58 58 58 56 56 57 61 62 63 63 62 61 59 59 59 59 58 58 57 56 57 56 56 56
57 57 58 59 60 60 58 59 60 59 60 59 59 60 60 61 61 62 61 61 62 64 65 65 66 64 63 64 64 64 64 61 61 59 57 56 54 52 51 52 54 56 57 56 55 56 60 61 60 60 59 58 57 58 59 58 58 59 52 51 48 48 49
57 58 58 58 59 59 60 59 59 60 60 59 59 60 61 60 61 61 62 61 61 63 64 64 63 63 62 63 64 64 63 62 61 59 58 57 56 54 53 50 46 48 55 55 53 48 46 52 58 58 59 57 55 56 58 59 57 47 41 40 41 41 41
57 57 57 58 59 58 59 59 61 60 60 58 59 60 61 61 60 61 61 60 61 62 61 62 62 62 61 62 62 62 61 60 58 58 56 57 58 58 57 56 54 44 43 48 49 44 41 40 40 45 50 57 57 53 47 48 43 40 39 39 39 39 39
56 57 58 57 57 58 59 60 60 60 59 58 58 58 59 60 60 59 61 60 60 60 60 61 61 60 60 61 62 62 59 58 59 58 57 55 56 56 57 56 55 55 46 42 44 44 40 40 40 40 41 41 48 56 57 47 41 39 38 38 38 39 41

ECMWFFLT1_sfc_temp_123.txt.gz
Temp
76 79 80 82 82 82 83 82 82 82 82 82 83 84 85 85 84 84 83 82 81 81 82 82 82 82 82 83 83 83 84 84 84 84 84 84 85 85 85 86 86 85 87 87 87 86 86 87 87 87 87 87 87 87 86 87 86 88 87 87 87 86 87
77 79 80 81 82 82 82 82 82 82 82 83 83 83 85 85 84 84 83 82 82 82 82 82 82 82 83 83 84 83 82 83 84 84 85 84 84 84 86 86 85 85 85 86 87 87 87 88 87 87 87 87 88 87 88 87 87 87 88 87 87 86 87
79 80 80 79 81 81 81 82 82 83 83 84 84 84 84 83 83 82 82 82 82 82 83 83 82 83 83 83 83 83 83 84 84 85 85 86 85 86 86 85 85 87 88 88 86 88 88 88 87 87 87 87 89 87 87 87 86 87 87 86 87 88 86
75 75 77 78 80 81 82 82 82 82 84 85 84 85 84 82 84 84 83 83 82 83 82 84 84 85 85 83 83 83 83 84 85 86 87 88 87 87 85 84 85 87 86 87 89 88 89 88 88 86 86 86 86 88 88 87 88 88 87 86 87 87 86
74 75 77 78 79 80 81 81 81 81 83 86 85 84 84 84 84 84 84 84 84 83 86 86 87 87 85 85 86 86 85 85 85 86 87 88 87 87 86 87 87 87 87 88 87 86 85 86 88 87 87 86 87 87 87 87 88 87 86 86 86 87 87
72 76 77 77 77 78 80 81 82 82 83 84 84 84 86 86 85 85 85 84 83 85 86 85 86 86 85 86 87 87 86 85 85 85 86 86 86 87 87 87 88 88 88 88 89 88 87 87 88 88 88 89 89 89 89 89 89 89 88 87 86 87 89
75 76 76 76 76 77 79 80 82 83 83 85 85 85 85 86 85 85 86 86 85 84 85 85 86 87 85 86 86 85 85 86 85 86 87 87 87 87 87 87 87 89 89 88 87 88 88 87 87 87 88 89 88 89 88 86 87 88 87 86 85 86 86
74 76 76 76 77 79 79 80 82 83 83 84 84 84 83 84 84 83 84 86 87 86 85 86 86 86 85 85 86 86 86 87 87 87 87 87 88 86 88 88 87 87 87 88 88 88 88 87 89 88 88 88 88 87 88 87 86 88 88 87 86 86 90
73 74 76 76 75 79 81 81 81 82 81 81 82 82 83 83 83 83 83 83 83 83 83 85 87 87 86 86 85 85 87 87 87 87 87 87 88 88 89 89 88 88 87 88 89 88 88 89 89 87 87 87 87 86 87 86 87 88 87 86 86 86 88
75 74 74 75 74 74 76 77 79 79 79 80 80 81 81 82 82 83 82 82 83 82 83 84 86 85 84 84 85 87 87 86 87 88 87 87 88 88 89 89 89 88 88 89 90 89 88 88 88 87 85 86 86 86 86 86 87 88 88 86 86 86 86
73 73 72 72 72 71 73 74 75 76 78 78 78 79 79 80 81 82 83 83 83 83 83 83 84 84 85 84 83 85 86 87 87 87 87 87 89 88 89 89 89 88 88 89 89 89 89 87 87 86 85 87 86 86 86 87 87 86 88 88 88 87 88
70 71 70 71 71 71 71 72 73 74 75 75 76 76 76 76 78 80 80 80 82 83 82 82 83 83 83 84 84 83 84 86 86 87 87 87 88 89 89 89 89 89 88 89 88 88 89 88 88 87 86 86 87 87 87 86 87 86 87 89 89 88 88
68 68 69 70 70 70 71 72 73 74 74 75 74 74 74 75 76 76 76 77 80 81 82 82 82 82 82 84 84 83 82 83 83 84 86 87 88 89 89 89 89 89 89 89 88 88 89 90 88 87 87 87 87 88 87 87 87 86 86 87 88 88 87
69 69 69 70 71 71 71 71 71 72 73 73 72 73 73 74 75 75 75 76 77 78 79 81 82 82 82 82 82 83 83 83 83 83 84 86 86 86 88 88 88 88 88 88 87 88 89 90 89 89 89 88 88 88 88 87 87 86 86 86 87 87 87
68 69 69 69 69 69 70 70 70 70 71 72 72 72 73 73 74 76 76 76 75 75 76 78 78 79 80 81 81 81 82 82 83 83 84 84 84 84 85 85 86 86 86 86 87 89 89 90 90 89 89 89 88 88 88 89 89 89 88 87 87 87 86
68 68 69 70 70 70 70 69 70 71 72 73 74 74 73 72 73 73 75 76 76 74 75 75 76 76 75 78 80 81 82 82 82 82 82 82 82 82 83 84 83 84 84 85 86 86 86 87 87 89 89 88 88 88 89 89 90 86 81 81 86 82 83
67 68 69 70 70 70 71 71 70 70 71 71 72 72 72 72 72 73 74 75 76 76 75 74 73 74 74 74 75 79 81 81 81 81 80 80 81 81 81 82 83 83 83 84 85 85 84 85 86 87 89 89 88 88 88 89 90 80 73 72 75 83 81
65 66 67 68 69 70 70 71 71 71 71 71 72 72 72 72 72 72 72 73 74 74 75 75 74 74 73 73 75 77 78 78 79 79 79 80 80 80 80 80 80 80 81 83 84 83 85 85 85 85 87 89 89 88 88 89 83 72 71 71 71 76 84
66 66 66 67 68 69 69 70 71 72 72 73 73 72 73 73 72 72 72 73 75 75 74 75 74 74 73 73 75 76 75 74 74 77 78 78 79 79 80 79 79 79 80 81 82 83 82 83 84 84 85 86 86 87 89 90 78 71 71 70 69 69 78
66 67 68 69 69 69 70 70 70 71 72 72 73 73 74 74 73 73 74 74 74 73 73 73 73 72 72 72 72 72 72 72 74 75 76 77 78 78 78 78 78 79 79 80 80 80 82 83 83 84 83 84 85 85 87 89 67 66 67 68 66 68 73
68 67 67 67 67 68 69 70 70 70 70 71 73 73 73 73 74 74 74 73 73 73 72 71 71 70 70 71 71 72 72 72 74 75 75 75 76 77 77 78 78 78 77 78 78 80 80 81 82 83 84 84 85 85 87 79 59 62 63 63 65 65 73
65 65 64 64 64 65 65 66 67 67 67 69 70 71 72 73 74 73 73 73 73 72 73 71 70 69 70 70 70 70 70 71 71 71 72 72 72 73 74 76 77 77 77 77 78 78 78 79 81 82 82 82 83 84 81 74 58 60 61 61 63 67 81
64 64 65 65 65 65 66 66 66 67 67 67 67 67 68 69 71 72 71 71 72 72 72 72 70 69 69 69 70 70 70 70 70 70 70 70 71 71 72 73 74 73 75 76 77 77 77 79 79 79 80 79 80 81 78 76 62 57 58 60 60 70 82
66 67 68 67 68 67 67 67 67 68 67 67 67 67 68 69 69 70 70 70 71 70 70 70 69 69 69 68 69 69 70 70 70 69 70 70 70 69 70 71 71 72 74 75 74 75 76 77 76 76 76 76 76 80 79 76 63 55 56 57 59 70 80
68 69 69 69 68 67 68 68 68 69 69 68 66 67 68 67 67 66 66 67 67 68 68 68 68 68 68 68 69 69 69 69 69 69 69 69 70 70 70 71 72 72 73 73 73 73 73 74 74 73 73 74 75 72 75 75 67 55 55 55 57 68 79
68 69 71 72 72 71 69 69 70 69 67 66 66 69 69 68 67 66 65 64 66 67 67 67 68 69 69 69 69 69 69 69 69 68 68 67 68 68 69 70 71 71 71 71 71 72 72 73 72 71 69 70 71 72 72 70 68 61 52 54 57 59 75
69 70 70 71 70 71 71 71 69 67 66 66 67 70 70 69 67 65 65 66 65 65 66 67 67 68 68 68 68 68 68 67 67 67 67 68 67 68 68 68 69 69 68 69 70 71 71 72 70 69 67 68 68 69 70 70 68 63 53 53 53 55 66
70 72 73 72 71 71 71 72 70 68 68 68 69 70 70 68 65 64 65 65 64 65 67 67 67 68 67 67 67 67 67 67 67 67 67 67 67 66 66 67 68 67 67 67 67 66 66 67 67 66 64 64 65 66 66 67 65 65 58 53 52 53 57
70 70 71 71 72 73 72 71 71 71 71 72 72 71 71 69 66 65 65 64 65 67 68 68 67 67 66 66 65 65 64 64 64 65 66 65 66 66 65 65 66 66 66 65 65 65 64 64 64 64 62 61 61 61 62 63 64 63 63 56 52 52 53
70 71 72 73 74 73 73 71 71 71 72 72 72 71 71 71 68 67 66 65 68 69 70 70 69 67 65 64 63 63 62 63 63 63 63 64 64 64 64 64 65 65 65 65 64 63 62 62 63 62 62 60 59 60 60 61 62 62 63 62 55 53 52
69 70 71 71 72 72 73 72 71 71 72 72 72 71 71 73 71 69 67 68 69 69 69 68 68 66 64 63 62 62 62 61 61 62 63 63 64 64 64 65 65 64 64 64 64 63 62 62 62 61 61 60 59 59 59 59 60 61 63 63 63 57 54
70 71 72 72 71 71 72 73 73 72 71 72 73 72 71 72 72 69 68 71 71 71 70 69 67 65 64 63 63 62 62 62 62 62 62 63 63 63 63 64 64 63 63 63 63 63 63 62 61 60 60 59 60 59 59 59 60 63 65 65 65 64 60
67 68 69 68 69 70 71 72 72 71 71 70 72 73 73 72 72 71 71 71 72 72 70 69 68 67 66 64 63 63 63 63 64 63 62 62 62 63 63 63 63 63 63 65 65 65 64 63 63 62 63 64 63 62 62 61 62 64 66 65 65 67 67
67 67 68 68 69 70 70 70 70 70 69 68 69 71 72 72 72 72 71 72 73 73 71 69 69 69 68 69 68 66 66 65 64 62 61 60 60 60 61 62 63 62 61 61 63 66 67 66 66 64 64 62 61 61 63 63 63 64 61 62 62 63 66
67 67 68 69 68 69 68 69 69 68 68 68 70 71 70 70 70 72 71 72 72 72 71 70 68 68 68 68 69 69 68 68 67 65 61 58 56 55 55 57 61 62 61 60 60 62 66 67 65 66 68 68 66 66 68 68 66 62 50 51 48 50 55
68 69 68 69 70 70 69 69 69 69 68 68 70 70 70 71 71 70 72 72 72 72 70 69 70 70 69 68 68 69 69 69 68 65 64 63 59 58 56 51 45 50 61 60 54 48 45 52 62 63 66 66 65 64 66 66 61 46 40 40 40 40 41
67 68 68 70 70 69 69 68 69 69 68 69 70 70 70 70 72 71 72 71 72 73 71 70 69 70 70 70 70 68 67 67 66 64 62 64 65 63 61 59 56 44 44 50 49 45 41 41 42 44 48 59 65 59 47 49 42 38 39 39 39 40 41
67 67 67 68 68 68 68 68 68 68 67 68 69 69 70 71 70 70 73 72 72 72 71 70 70 68 69 69 68 66 66 67 66 65 63 62 62 62 62 61 59 58 46 42 46 44 40 40 40 40 42 41 47 58 63 49 43 38 39 39 40 43 42

ECMWFFLT1_sfc_temp_126.txt.gz
Temp
85 86 86 86 87 90 92 91 90 90 90 90 91 93 93 93 92 91 90 88 86 86 86 86 87 87 87 88 88 88 89 89 89 89 89 89 90 89 89 91 91 89 92 92 91 91 92 92 92 92 92 91 91 90 89 89 89 92 90 89 89 90 90
83 86 86 86 86 88 91 91 90 90 90 90 91 91 93 93 92 91 90 89 88 87 87 87 86 87 88 88 89 88 87 88 89 89 90 89 89 89 91 90 90 89 89 91 92 92 91 92 92 91 92 91 91 90 91 90 89 90 91 90 90 89 90
81 83 84 85 87 88 89 90 90 90 91 92 92 93 92 91 91 90 89 89 88 88 89 89 87 88 89 88 88 88 89 89 89 90 90 92 90 92 92 91 91 92 93 92 91 93 93 92 91 91 91 91 94 91 90 90 89 91 90 89 90 91 88
80 80 83 85 86 87 88 89 89 90 92 93 92 94 92 90 92 91 90 90 89 89 88 90 90 90 90 89 89 89 89 89 90 92 93 93 93 94 92 91 91 92 93 93 94 94 95 93 93 91 90 90 90 91 91 91 92 91 91 89 90 91 89
83 82 82 82 83 84 87 89 88 89 91 94 93 91 91 92 91 91 90 91 91 90 93 93 94 93 91 91 92 92 91 91 91 92 93 93 92 93 93 94 93 93 93 94 93 92 90 91 93 92 91 89 91 91 90 91 91 90 90 90 90 91 91
84 82 82 81 81 82 85 87 88 90 90 92 93 91 94 94 92 93 92 91 90 93 93 91 94 93 92 93 93 94 92 91 90 90 92 92 92 94 94 93 94 94 95 94 95 94 93 92 92 93 93 94 93 94 94 93 94 93 91 90 90 91 93
83 83 81 80 80 82 84 87 89 89 90 92 94 93 92 94 93 93 94 94 94 92 94 94 94 95 92 93 92 92 92 93 92 92 93 94 93 93 93 93 93 95 95 94 94 94 94 92 92 92 93 94 93 94 92 90 91 92 91 89 89 89 89
83 82 81 81 81 84 86 88 89 89 89 91 91 91 90 92 92 90 92 94 95 95 93 95 95 94 93 92 93 93 94 94 95 93 93 94 94 93 94 94 93 93 94 94 94 94 94 93 94 93 93 94 93 92 93 91 89 92 92 91 89 90 94
81 77 76 78 82 86 88 87 87 88 87 87 88 88 89 90 90 90 90 91 91 90 91 94 96 96 93 93 92 92 94 94 94 94 94 94 95 96 96 96 95 94 94 94 95 94 94 94 95 93 92 92 92 91 92 90 91 92 92 90 89 89 92
79 76 76 76 79 84 85 85 86 85 84 84 85 86 86 87 88 89 89 89 90 89 90 92 94 93 92 91 93 94 94 93 94 96 95 95 95 95 96 97 96 95 95 95 96 96 94 94 95 93 90 91 91 91 90 91 91 92 92 91 90 90 89
78 75 75 76 77 78 79 81 83 83 84 83 84 85 86 85 86 87 88 89 89 89 89 89 91 92 92 91 90 91 94 95 95 95 95 95 96 96 97 97 97 96 95 95 95 96 95 93 93 92 90 92 91 90 90 91 91 90 92 93 93 92 92
76 73 72 73 74 75 75 77 80 82 83 83 84 83 83 84 85 86 87 88 89 89 87 87 88 88 89 89 91 89 90 92 95 95 95 95 96 97 97 97 97 97 96 96 94 94 95 94 93 93 91 90 92 92 91 90 91 90 91 93 94 93 93
75 73 71 71 71 72 73 75 77 80 81 81 81 81 82 83 83 84 85 86 88 88 87 86 86 86 87 89 91 88 88 89 90 91 94 95 96 97 96 97 98 97 97 96 95 94 94 95 93 93 93 91 92 93 92 91 92 89 89 91 92 92 92
74 74 73 71 71 72 73 74 73 75 78 79 80 81 81 82 84 83 84 84 85 86 86 87 86 85 86 86 86 84 83 84 87 90 91 93 93 94 96 97 96 96 95 95 94 95 95 95 95 94 94 93 93 93 92 91 91 90 89 90 92 92 91
74 74 74 72 71 70 70 71 71 72 74 76 77 77 78 80 81 82 82 83 83 84 84 85 84 84 84 84 84 83 81 78 77 80 88 90 90 92 93 94 94 94 94 93 94 96 95 96 96 95 94 94 93 93 94 95 94 94 92 89 89 91 91
71 73 74 74 73 73 73 72 72 73 73 73 75 75 76 76 78 79 79 80 81 80 80 81 82 83 83 83 83 82 80 76 75 76 76 79 81 83 90 92 92 93 92 92 92 91 91 92 93 95 95 93 93 93 94 95 95 90 86 86 90 87 91
67 68 71 72 73 73 74 74 74 74 74 75 75 76 76 77 79 79 79 79 79 78 80 79 79 80 81 82 82 81 79 77 75 75 76 75 76 78 78 87 91 90 89 90 90 89 88 90 92 94 95 95 94 94 94 95 96 83 75 76 80 89 89
65 68 70 71 72 72 73 73 75 75 75 75 74 74 75 76 78 79 79 80 80 81 82 81 80 79 80 81 81 81 79 77 77 75 75 75 75 75 77 80 86 87 88 89 90 88 90 89 89 91 93 94 95 94 95 96 85 71 72 73 73 80 90
68 69 69 69 69 70 71 71 73 73 74 74 74 75 76 76 76 76 78 79 79 80 81 81 81 81 80 80 78 77 78 78 77 76 75 75 75 74 75 77 79 84 86 87 89 88 87 87 86 87 87 91 92 93 95 93 73 70 71 72 71 73 82
67 67 68 68 68 68 67 68 69 70 71 72 74 75 76 77 76 77 78 79 79 77 77 77 78 79 79 79 77 76 77 76 76 76 76 75 74 74 73 74 75 82 86 87 88 87 87 89 88 88 86 88 88 89 91 91 72 69 70 69 68 70 76
66 66 67 67 68 67 67 67 68 69 70 71 73 74 75 75 76 77 78 78 77 77 76 76 76 77 78 78 77 77 77 76 75 75 74 74 74 73 73 74 75 76 79 82 85 86 86 87 87 88 89 89 89 89 88 86 61 64 65 65 66 67 75
66 68 67 67 67 67 67 68 68 68 68 71 73 74 76 77 78 78 77 78 77 78 77 76 75 76 77 77 77 77 78 77 76 75 75 74 73 72 72 72 70 69 71 72 75 78 79 82 87 86 89 89 89 89 82 77 58 61 62 62 65 66 83
71 72 73 72 72 70 70 70 70 70 71 71 73 74 75 76 77 77 77 77 78 78 77 77 76 76 76 75 76 76 76 76 76 74 74 74 72 71 72 73 72 71 73 73 74 74 77 79 80 77 78 79 81 85 86 79 62 57 58 60 59 70 85
75 77 77 76 74 73 72 73 73 73 72 71 71 72 75 75 74 74 74 73 73 75 75 76 77 77 77 76 77 75 73 73 73 72 72 73 72 71 70 71 72 72 73 73 74 74 75 73 72 73 73 74 77 76 80 78 65 55 57 57 59 67 82
76 77 77 74 72 72 72 73 74 74 74 73 71 72 74 74 73 71 69 69 70 70 68 68 69 71 73 75 75 73 71 71 72 71 72 71 71 70 70 71 71 72 73 73 74 74 74 74 71 71 72 74 74 75 76 76 69 56 55 56 58 68 81
75 77 78 77 77 76 74 75 76 76 74 73 72 74 74 74 73 70 69 69 71 70 68 67 68 69 70 70 70 70 71 71 71 72 72 71 71 71 71 72 72 72 73 73 73 73 73 73 71 69 69 71 73 72 71 69 69 63 53 54 57 59 76
77 77 77 78 77 75 76 76 77 76 74 74 74 75 75 74 72 70 70 70 69 67 67 68 69 69 68 68 68 68 68 68 68 68 68 68 68 69 69 69 70 70 70 71 71 71 71 71 69 68 67 68 68 68 67 69 69 65 53 53 54 55 64
78 79 80 78 77 78 79 79 78 78 77 76 76 77 77 75 72 71 70 70 69 69 69 68 68 68 68 67 67 66 66 67 68 68 68 68 68 67 67 68 68 68 68 69 68 68 67 67 66 64 64 65 65 66 66 67 66 67 60 54 53 53 55
76 77 77 78 78 80 80 78 78 79 79 81 80 79 77 76 72 72 71 69 69 72 72 71 69 68 67 66 65 66 66 66 66 67 68 68 68 67 66 67 67 67 67 66 66 66 65 65 64 63 62 62 62 62 63 64 65 62 64 58 53 53 55
77 78 79 81 81 80 80 78 78 78 79 80 80 79 79 76 73 72 71 70 72 73 73 72 71 70 69 68 67 66 67 67 67 67 68 69 68 68 68 66 66 66 65 65 65 64 64 64 64 63 62 61 61 62 62 63 65 65 63 63 57 55 53
76 77 77 78 79 79 79 79 77 78 78 79 78 79 78 78 75 73 72 73 74 74 73 72 72 71 70 70 69 68 67 66 65 66 67 67 67 67 68 68 68 66 66 64 63 62 62 62 63 62 61 61 61 61 61 63 65 65 65 64 65 61 57
77 78 78 78 78 79 79 80 79 79 78 79 80 79 78 78 78 73 74 76 76 76 75 74 72 71 71 72 72 72 73 71 69 66 65 65 66 67 68 68 68 67 66 66 65 64 63 62 62 61 61 60 60 60 61 62 63 64 65 66 67 67 63
73 74 74 75 76 77 78 79 78 77 77 76 79 80 80 79 79 77 77 77 78 77 75 75 73 72 71 71 72 71 72 71 71 70 69 69 69 69 69 70 71 70 68 68 67 66 65 65 64 63 61 60 60 61 61 61 60 59 59 62 62 64 66
72 73 74 75 76 76 77 76 76 75 75 74 76 77 79 79 79 78 78 80 81 80 77 75 75 74 73 73 73 73 72 70 68 68 68 67 67 64 64 67 70 68 66 66 67 67 67 67 65 64 64 62 61 61 61 62 60 58 57 57 59 60 62
73 73 74 74 74 74 74 74 74 74 74 74 76 76 75 76 78 80 78 78 79 77 76 75 74 74 75 75 74 73 72 73 72 71 69 67 65 61 57 58 62 67 67 62 60 61 67 72 71 71 71 68 65 65 67 66 64 60 52 52 49 50 57
73 74 74 75 75 75 74 74 74 73 73 74 75 76 76 77 77 78 80 79 78 77 75 75 76 77 78 78 78 78 76 75 74 72 72 71 69 66 61 54 48 52 63 63 55 47 44 51 63 63 69 71 68 65 65 65 60 45 40 40 40 41 42
73 73 74 75 74 74 73 73 73 73 73 74 74 75 75 75 77 77 78 78 78 78 76 76 75 77 78 77 77 76 77 77 75 73 70 72 72 69 66 66 61 46 43 49 49 44 41 40 41 44 47 59 68 61 47 50 42 40 40 40 41 41 41
74 74 74 75 74 73 73 73 73 73 73 74 74 75 75 76 76 76 79 78 78 77 76 76 75 74 75 75 74 73 74 75 73 73 71 70 69 68 66 66 64 62 48 42 45 45 42 41 40 41 43 42 47 61 62 49 43 39 41 41 41 41 42

ECMWFFLT1_sfc_temp_129.txt.gz
Temp
84 86 86 88 92 92 92 93 92 92 93 93 94 96 96 96 93 93 92 89 88 87 88 88 88 88 88 89 89 89 90 90 90 89 89 89 91 91 91 93 92 91 93 94 93 93 93 93 94 94 93 92 92 91 90 90 90 93 91 90 90 90 89
83 86 87 89 91 91 92 93 93 92 93 94 94 93 96 95 94 94 92 90 89 88 88 89 88 89 89 89 90 89 89 90 90 89 90 89 90 91 93 92 92 91 91 94 94 94 93 95 93 93 93 92 92 91 91 91 90 90 91 90 89 90 90
84 85 86 85 87 91 91 93 93 93 93 95 95 95 94 92 93 92 90 91 89 89 90 90 88 90 90 89 89 89 90 91 91 92 91 93 92 93 93 92 92 93 94 94 93 95 95 94 93 93 93 93 95 92 91 91 90 91 91 90 90 91 89
82 85 85 84 87 90 90 91 92 93 95 96 95 96 95 92 94 93 93 92 91 90 89 92 91 92 91 89 90 90 90 90 91 93 94 94 94 94 93 92 91 93 94 94 96 95 98 95 94 93 92 92 92 93 93 92 93 92 92 90 90 91 89
82 83 84 85 87 89 89 90 90 91 91 97 95 92 91 95 95 94 93 94 92 92 93 95 95 94 93 93 93 94 92 92 92 93 94 95 94 94 94 95 94 94 94 95 94 93 92 93 95 93 92 91 92 92 92 92 92 92 91 90 90 91 92
78 81 83 86 87 87 88 88 88 91 92 94 94 94 96 98 96 97 95 94 93 94 94 93 95 94 93 95 94 95 94 93 92 92 93 94 94 95 95 95 96 95 96 95 96 95 94 93 94 94 94 94 94 95 94 93 94 93 92 90 90 92 93
72 78 83 84 84 86 87 88 89 90 92 94 97 93 94 97 95 97 97 96 96 93 94 96 97 97 94 94 93 94 93 95 93 94 95 96 96 95 95 95 95 97 97 96 95 95 95 94 93 93 94 95 94 95 93 92 92 93 92 90 89 90 90
71 74 77 83 88 88 89 89 88 89 90 91 94 95 94 94 96 94 95 97 97 95 96 97 97 96 94 94 95 95 95 96 96 94 95 96 96 95 96 97 96 95 95 97 96 96 96 95 96 95 94 95 95 94 95 93 91 94 93 91 90 90 94
72 73 74 78 88 90 89 85 87 89 89 87 84 91 92 93 92 93 93 93 92 92 92 96 98 98 96 95 94 94 96 97 97 96 95 96 97 97 98 98 97 96 96 97 97 97 96 97 97 94 93 93 93 92 93 92 93 93 93 92 90 90 92
77 77 71 72 74 81 87 88 87 83 82 83 85 91 91 91 92 92 92 92 93 91 92 95 97 91 93 94 95 96 95 92 95 98 97 97 97 97 98 98 98 97 97 98 98 98 96 96 96 95 92 93 92 92 92 92 93 93 93 92 92 91 90
74 76 77 76 75 72 76 83 83 84 86 87 89 90 90 89 91 91 92 92 93 93 92 92 94 95 95 95 93 94 94 94 95 95 96 97 98 98 99 98 99 98 97 97 97 98 98 94 95 93 92 94 93 92 91 92 92 92 93 94 94 92 92
72 73 74 76 72 70 71 74 80 82 83 85 87 88 87 87 88 90 90 90 93 93 91 91 92 92 92 93 95 90 92 94 94 93 90 92 96 99 99 99 99 98 98 98 96 96 97 96 95 94 92 92 92 93 92 91 92 91 92 94 95 94 93
68 70 70 72 73 71 73 75 78 81 82 84 85 87 86 85 84 85 88 89 91 92 90 90 89 90 91 93 95 90 89 91 90 85 84 84 82 87 94 99 99 98 98 99 97 97 97 98 95 93 94 93 93 94 93 92 93 91 91 92 93 93 93
71 70 72 70 71 71 73 75 76 80 81 82 83 84 84 86 86 87 87 87 89 89 89 89 89 89 89 90 90 91 90 87 90 87 86 83 80 82 85 87 93 95 98 97 96 97 97 98 97 96 96 95 95 93 92 92 92 92 90 90 92 93 92
69 69 71 76 74 74 74 74 75 76 78 80 81 82 82 83 84 85 85 87 87 87 87 87 86 87 87 87 88 88 89 88 88 87 86 84 82 82 85 87 85 81 78 81 95 98 97 97 97 96 95 95 94 94 94 96 95 95 93 88 87 91 92
67 68 69 72 74 75 74 75 75 76 77 78 79 81 82 82 83 83 83 84 85 85 86 86 85 85 85 86 86 87 87 86 86 85 85 83 82 81 82 83 80 78 78 76 79 92 94 91 93 95 95 95 94 92 95 95 93 81 77 78 86 86 87
65 65 66 67 69 70 73 73 74 75 76 77 77 77 78 80 82 82 83 83 83 84 85 85 84 84 84 84 85 85 85 85 84 84 82 82 81 81 81 80 80 78 76 76 76 76 83 92 94 94 95 95 95 96 95 95 82 73 71 73 76 83 87
64 64 64 64 66 68 70 71 72 74 77 76 75 74 75 77 79 80 81 82 82 83 83 83 82 82 82 83 84 84 84 83 83 83 82 81 80 80 80 80 79 78 77 76 75 77 78 79 86 91 93 94 95 95 92 77 74 69 71 72 72 80 89
64 64 64 64 65 66 67 68 70 70 71 73 74 74 75 76 75 76 78 79 81 82 82 81 80 80 80 81 82 82 82 82 82 82 82 81 81 80 79 78 77 77 77 76 76 76 76 77 77 80 87 92 87 83 77 80 71 67 68 69 70 73 84
66 65 65 65 65 66 68 69 70 71 71 73 74 76 76 77 77 77 78 78 79 79 80 80 81 81 80 79 78 78 81 81 81 81 81 82 81 80 79 78 77 77 76 75 75 74 74 75 77 79 75 77 77 75 76 74 66 64 66 66 68 70 77
65 66 67 66 66 67 68 70 71 71 72 73 75 77 78 78 78 78 78 79 79 79 79 79 79 80 80 79 78 76 78 81 79 80 81 81 80 80 79 77 77 76 75 75 74 74 74 73 75 77 78 79 77 76 76 72 62 62 63 62 63 65 74
68 69 68 68 68 68 69 70 70 71 71 74 76 77 77 78 80 80 79 80 80 80 80 79 79 79 80 79 79 78 77 78 77 77 80 81 80 79 78 77 75 74 74 74 74 74 74 76 79 79 79 79 79 80 79 74 59 61 61 61 62 64 80
71 72 72 71 72 71 72 72 72 73 74 74 74 74 75 77 78 79 79 78 79 79 78 78 78 79 80 79 80 79 79 80 76 75 77 78 78 78 78 77 75 74 74 73 74 75 76 78 78 78 78 78 79 79 78 76 62 58 59 60 60 69 80
74 74 73 73 73 73 73 74 75 74 74 74 73 74 75 76 75 75 75 74 74 73 72 73 73 75 76 76 77 78 79 79 78 77 75 73 75 77 77 77 77 75 75 74 74 75 77 76 75 76 77 79 79 81 80 76 63 56 56 58 58 68 79
74 73 73 73 73 72 73 73 73 73 74 73 72 73 74 74 73 72 72 72 72 71 69 69 70 72 72 73 74 74 75 75 75 74 74 73 75 76 76 76 76 76 76 74 74 75 75 74 73 73 74 76 76 78 77 74 66 57 56 56 58 65 74
73 75 76 78 77 76 75 75 75 75 74 73 73 75 75 75 73 71 70 70 71 69 68 68 69 71 72 72 73 72 71 72 73 73 72 72 71 70 71 71 71 72 72 72 73 73 73 72 73 72 70 71 72 73 73 69 66 62 55 55 57 58 70
78 77 79 81 77 76 76 76 76 76 75 76 76 77 78 76 74 71 71 70 70 69 69 70 71 70 70 71 71 70 70 70 71 71 71 71 70 70 70 69 69 70 71 71 71 72 71 70 69 68 67 68 69 68 67 68 67 63 55 55 55 56 64
79 81 86 82 79 78 78 80 77 77 77 77 78 79 78 75 72 71 71 71 70 71 73 73 73 72 71 71 71 70 70 69 69 70 70 70 70 69 68 68 69 70 70 69 68 67 66 66 66 65 64 64 64 66 65 65 65 65 59 55 54 54 56
79 82 80 79 80 82 82 80 79 80 79 80 80 79 77 76 72 72 72 71 72 74 74 74 73 72 71 70 70 69 70 71 71 70 70 69 70 69 67 67 67 68 68 67 66 65 65 64 64 63 62 61 62 63 64 65 64 63 65 60 55 54 56
81 82 82 84 84 83 82 79 80 79 80 81 80 79 78 76 73 72 72 71 74 75 75 74 74 73 73 72 71 70 69 70 70 71 71 71 71 70 69 68 67 67 67 67 66 65 64 64 63 62 61 60 60 61 62 63 63 64 63 63 59 57 55
80 80 81 81 83 82 81 81 79 81 81 82 81 79 78 78 76 74 73 74 76 75 75 75 75 74 73 73 73 72 71 70 70 70 71 72 72 71 70 70 69 67 67 66 65 64 63 62 62 61 60 60 60 61 61 62 62 62 62 62 62 59 57
79 80 81 82 81 81 82 82 82 81 80 81 83 82 78 78 77 74 75 78 77 77 76 75 74 73 73 74 74 74 75 74 74 73 73 73 74 73 72 71 69 69 68 68 66 65 63 62 62 61 61 60 61 60 60 60 60 60 61 62 63 64 61
76 78 78 78 79 80 81 81 80 79 79 79 81 82 83 82 80 77 77 77 80 79 77 77 76 74 74 73 74 73 73 73 73 73 73 74 75 75 74 73 73 72 70 69 69 68 67 67 66 65 65 64 62 62 61 60 59 59 59 60 61 63 64
75 76 77 78 78 79 79 79 78 77 77 76 78 80 82 82 82 81 80 81 82 81 78 77 77 77 76 76 75 75 74 72 71 71 71 70 69 68 69 72 72 70 67 67 69 70 71 70 68 67 66 65 66 65 64 63 61 59 58 58 58 58 59
74 75 76 76 76 76 75 76 76 76 77 77 78 79 78 79 81 82 81 80 80 79 78 77 77 77 78 79 78 77 76 77 76 74 71 68 65 62 60 60 66 68 67 63 61 62 67 73 74 73 74 70 68 67 66 63 61 62 54 52 48 49 53
74 75 75 77 77 76 75 75 75 75 75 76 77 78 78 79 80 80 82 81 80 79 78 79 80 82 82 82 82 81 80 79 78 76 74 72 69 66 62 53 47 52 63 62 55 47 43 49 62 61 68 71 68 67 70 70 66 51 41 41 40 42 42
73 73 74 76 76 75 74 75 75 75 75 75 76 77 78 78 80 79 81 80 80 80 78 78 78 80 81 80 79 78 80 80 78 75 72 73 74 72 69 67 59 44 44 50 49 45 41 40 42 44 47 60 67 58 48 51 44 40 40 40 41 40 40
74 74 75 75 75 74 74 74 74 74 74 76 76 76 77 78 78 79 81 80 80 79 78 78 77 76 77 78 77 76 76 77 75 75 74 72 71 70 70 69 67 63 47 42 47 46 42 42 41 41 44 43 49 62 61 49 43 41 41 41 41 41 40